<?xml version='1.0' encoding='UTF-8'?><gpx version="1.1" creator="JPX - https://github.com/jenetics/jpx" xmlns="http://www.topografix.com/GPX/1/1"><trk><trkseg><trkpt lat="45.9023242" lon="9.4937458"><ele>1251.857142857143</ele><time>2026-05-02T14:43:24.701Z</time></trkpt><trkpt lat="45.9022919" lon="9.4938376"><ele>1252.7142857142858</ele><time>2026-05-02T14:43:26.71Z</time></trkpt><trkpt lat="45.9022437" lon="9.4939114"><ele>1253.5714285714287</ele><time>2026-05-02T14:43:28.781Z</time></trkpt><trkpt lat="45.9021631" lon="9.4939348"><ele>1254.4285714285716</ele><time>2026-05-02T14:43:29.692Z</time></trkpt><trkpt lat="45.9021064" lon="9.4939778"><ele>1255.2857142857142</ele><time>2026-05-02T14:43:32.754Z</time></trkpt><trkpt lat="45.9020645" lon="9.4940891"><ele>1256.1428571428573</ele><time>2026-05-02T14:43:49.678Z</time></trkpt><trkpt lat="45.9020308" lon="9.4941711"><ele>1257.0</ele><time>2026-05-02T14:43:50.711Z</time></trkpt><trkpt lat="45.9019927" lon="9.4942604"><ele>1257.0</ele><time>2026-05-02T14:43:51.724Z</time></trkpt><trkpt lat="45.9019602" lon="9.4943601"><ele>1257.0</ele><time>2026-05-02T14:43:52.697Z</time></trkpt><trkpt lat="45.9019299" lon="9.4944857"><ele>1257.0</ele><time>2026-05-02T14:43:53.751Z</time></trkpt><trkpt lat="45.9019039" lon="9.4945941"><ele>1257.0</ele><time>2026-05-02T14:43:54.71Z</time></trkpt><trkpt lat="45.9018768" lon="9.4947182"><ele>1257.0</ele><time>2026-05-02T14:43:55.767Z</time></trkpt><trkpt lat="45.901834" lon="9.4949507"><ele>1258.3333333333333</ele><time>2026-05-02T14:43:57.7Z</time></trkpt><trkpt lat="45.9018112" lon="9.4950633"><ele>1259.6666666666667</ele><time>2026-05-02T14:43:58.708Z</time></trkpt><trkpt lat="45.901786" lon="9.4951779"><ele>1261.0</ele><time>2026-05-02T14:43:59.696Z</time></trkpt><trkpt lat="45.9017647" lon="9.495309"><ele>1262.3333333333335</ele><time>2026-05-02T14:44:00.714Z</time></trkpt><trkpt lat="45.9017452" lon="9.4954723"><ele>1263.6666666666667</ele><time>2026-05-02T14:44:01.734Z</time></trkpt><trkpt lat="45.9017366" lon="9.4955637"><ele>1265.0</ele><time>2026-05-02T14:44:02.72Z</time></trkpt><trkpt lat="45.9017027" lon="9.4956759"><ele>1265.0</ele><time>2026-05-02T14:44:05.701Z</time></trkpt><trkpt lat="45.9016256" lon="9.4956827"><ele>1265.0</ele><time>2026-05-02T14:44:06.822Z</time></trkpt><trkpt lat="45.9014435" lon="9.4959075"><ele>1265.0</ele><time>2026-05-02T14:44:08.687Z</time></trkpt><trkpt lat="45.9013747" lon="9.4960816"><ele>1265.0</ele><time>2026-05-02T14:44:09.698Z</time></trkpt><trkpt lat="45.901312" lon="9.4962048"><ele>1265.0</ele><time>2026-05-02T14:44:10.686Z</time></trkpt><trkpt lat="45.9012413" lon="9.496309"><ele>1265.0</ele><time>2026-05-02T14:44:11.715Z</time></trkpt><trkpt lat="45.9011635" lon="9.4964154"><ele>1265.0</ele><time>2026-05-02T14:44:12.69Z</time></trkpt><trkpt lat="45.901101" lon="9.4965267"><ele>1265.0</ele><time>2026-05-02T14:44:13.701Z</time></trkpt><trkpt lat="45.901051" lon="9.4966343"><ele>1263.75</ele><time>2026-05-02T14:44:14.66Z</time></trkpt><trkpt lat="45.9010043" lon="9.4967369"><ele>1262.5</ele><time>2026-05-02T14:44:15.669Z</time></trkpt><trkpt lat="45.9009621" lon="9.4968207"><ele>1261.25</ele><time>2026-05-02T14:44:16.666Z</time></trkpt><trkpt lat="45.9008765" lon="9.4969098"><ele>1260.0</ele><time>2026-05-02T14:44:18.654Z</time></trkpt><trkpt lat="45.9020645" lon="9.4940891"><ele>1259.5</ele><time>2026-05-02T14:43:49.678Z</time></trkpt><trkpt lat="45.9020308" lon="9.4941711"><ele>1259.0</ele><time>2026-05-02T14:43:50.711Z</time></trkpt><trkpt lat="45.9019927" lon="9.4942604"><ele>1258.5</ele><time>2026-05-02T14:43:51.724Z</time></trkpt><trkpt lat="45.9019602" lon="9.4943601"><ele>1258.0</ele><time>2026-05-02T14:43:52.697Z</time></trkpt><trkpt lat="45.9019299" lon="9.4944857"><ele>1257.5</ele><time>2026-05-02T14:43:53.751Z</time></trkpt><trkpt lat="45.9019039" lon="9.4945941"><ele>1257.0</ele><time>2026-05-02T14:43:54.71Z</time></trkpt><trkpt lat="45.9018768" lon="9.4947182"><ele>1258.6</ele><time>2026-05-02T14:43:55.767Z</time></trkpt><trkpt lat="45.901834" lon="9.4949507"><ele>1260.2</ele><time>2026-05-02T14:43:57.7Z</time></trkpt><trkpt lat="45.9018112" lon="9.4950633"><ele>1261.8</ele><time>2026-05-02T14:43:58.708Z</time></trkpt><trkpt lat="45.901786" lon="9.4951779"><ele>1263.4</ele><time>2026-05-02T14:43:59.696Z</time></trkpt><trkpt lat="45.9017647" lon="9.495309"><ele>1265.0</ele><time>2026-05-02T14:44:00.714Z</time></trkpt><trkpt lat="45.9017452" lon="9.4954723"><ele>1265.0</ele><time>2026-05-02T14:44:01.734Z</time></trkpt><trkpt lat="45.9017366" lon="9.4955637"><ele>1265.0</ele><time>2026-05-02T14:44:02.72Z</time></trkpt><trkpt lat="45.9017027" lon="9.4956759"><ele>1265.0</ele><time>2026-05-02T14:44:05.701Z</time></trkpt><trkpt lat="45.9016256" lon="9.4956827"><ele>1265.0</ele><time>2026-05-02T14:44:06.822Z</time></trkpt><trkpt lat="45.9014435" lon="9.4959075"><ele>1265.0</ele><time>2026-05-02T14:44:08.687Z</time></trkpt><trkpt lat="45.9013747" lon="9.4960816"><ele>1265.0</ele><time>2026-05-02T14:44:09.698Z</time></trkpt><trkpt lat="45.901312" lon="9.4962048"><ele>1265.0</ele><time>2026-05-02T14:44:10.686Z</time></trkpt><trkpt lat="45.9012413" lon="9.496309"><ele>1265.0</ele><time>2026-05-02T14:44:11.715Z</time></trkpt><trkpt lat="45.9011635" lon="9.4964154"><ele>1264.0</ele><time>2026-05-02T14:44:12.69Z</time></trkpt><trkpt lat="45.901101" lon="9.4965267"><ele>1263.0</ele><time>2026-05-02T14:44:13.701Z</time></trkpt><trkpt lat="45.901051" lon="9.4966343"><ele>1262.0</ele><time>2026-05-02T14:44:14.66Z</time></trkpt><trkpt lat="45.9010043" lon="9.4967369"><ele>1261.0</ele><time>2026-05-02T14:44:15.669Z</time></trkpt><trkpt lat="45.9009621" lon="9.4968207"><ele>1260.0</ele><time>2026-05-02T14:44:16.666Z</time></trkpt><trkpt lat="45.9008765" lon="9.4969098"><ele>1260.0</ele><time>2026-05-02T14:44:18.654Z</time></trkpt><trkpt lat="45.9007748" lon="9.4968562"><ele>1260.0</ele><time>2026-05-02T14:44:20.683Z</time></trkpt><trkpt lat="45.9006927" lon="9.4967483"><ele>1260.0</ele><time>2026-05-02T14:44:22.682Z</time></trkpt><trkpt lat="45.9005788" lon="9.4967258"><ele>1260.0</ele><time>2026-05-02T14:44:24.679Z</time></trkpt><trkpt lat="45.9004821" lon="9.4967728"><ele>1260.0</ele><time>2026-05-02T14:44:26.713Z</time></trkpt><trkpt lat="45.9004217" lon="9.4968065"><ele>1260.0</ele><time>2026-05-02T14:44:27.69Z</time></trkpt><trkpt lat="45.9003567" lon="9.4968373"><ele>1260.0</ele><time>2026-05-02T14:44:28.689Z</time></trkpt><trkpt lat="45.9002678" lon="9.4968649"><ele>1260.0</ele><time>2026-05-02T14:44:29.685Z</time></trkpt><trkpt lat="45.9001631" lon="9.4968924"><ele>1260.0</ele><time>2026-05-02T14:44:30.67Z</time></trkpt><trkpt lat="45.9000526" lon="9.4969141"><ele>1260.0</ele><time>2026-05-02T14:44:31.68Z</time></trkpt><trkpt lat="45.8999159" lon="9.4969178"><ele>1257.3333333333333</ele><time>2026-05-02T14:44:32.797Z</time></trkpt><trkpt lat="45.8996916" lon="9.4969126"><ele>1254.6666666666665</ele><time>2026-05-02T14:44:34.707Z</time></trkpt><trkpt lat="45.8995725" lon="9.4968887"><ele>1252.0</ele><time>2026-05-02T14:44:35.692Z</time></trkpt><trkpt lat="45.8994566" lon="9.496865"><ele>1252.0</ele><time>2026-05-02T14:44:36.67Z</time></trkpt><trkpt lat="45.8993414" lon="9.4968452"><ele>1252.0</ele><time>2026-05-02T14:44:37.671Z</time></trkpt><trkpt lat="45.899228" lon="9.4968507"><ele>1252.0</ele><time>2026-05-02T14:44:38.685Z</time></trkpt><trkpt lat="45.899122" lon="9.4968758"><ele>1252.0</ele><time>2026-05-02T14:44:39.675Z</time></trkpt><trkpt lat="45.8990175" lon="9.4969035"><ele>1252.0</ele><time>2026-05-02T14:44:40.703Z</time></trkpt><trkpt lat="45.8989225" lon="9.4969367"><ele>1250.4</ele><time>2026-05-02T14:44:41.658Z</time></trkpt><trkpt lat="45.8988264" lon="9.4969809"><ele>1248.8000000000002</ele><time>2026-05-02T14:44:42.679Z</time></trkpt><trkpt lat="45.8987288" lon="9.4970326"><ele>1247.2</ele><time>2026-05-02T14:44:43.725Z</time></trkpt><trkpt lat="45.89864" lon="9.4970659"><ele>1245.6000000000001</ele><time>2026-05-02T14:44:44.671Z</time></trkpt><trkpt lat="45.8985404" lon="9.4970862"><ele>1244.0</ele><time>2026-05-02T14:44:45.634Z</time></trkpt><trkpt lat="45.898408" lon="9.4971102"><ele>1250.5</ele><time>2026-05-02T14:44:46.806Z</time></trkpt><trkpt lat="45.8982096" lon="9.4972159"><ele>1257.0</ele><time>2026-05-02T14:44:48.683Z</time></trkpt><trkpt lat="45.898112" lon="9.497278"><ele>1263.5</ele><time>2026-05-02T14:44:49.648Z</time></trkpt><trkpt lat="45.8980062" lon="9.4973299"><ele>1270.0</ele><time>2026-05-02T14:44:50.685Z</time></trkpt><trkpt lat="45.8979074" lon="9.4973461"><ele>1270.0</ele><time>2026-05-02T14:44:51.677Z</time></trkpt><trkpt lat="45.8978091" lon="9.4973384"><ele>1270.0</ele><time>2026-05-02T14:44:52.669Z</time></trkpt><trkpt lat="45.89772" lon="9.4973209"><ele>1270.0</ele><time>2026-05-02T14:44:53.672Z</time></trkpt><trkpt lat="45.8976346" lon="9.4972971"><ele>1270.0</ele><time>2026-05-02T14:44:54.65Z</time></trkpt><trkpt lat="45.8975407" lon="9.4972695"><ele>1270.0</ele><time>2026-05-02T14:44:55.658Z</time></trkpt><trkpt lat="45.8974503" lon="9.4972295"><ele>1269.6</ele><time>2026-05-02T14:44:56.678Z</time></trkpt><trkpt lat="45.8973646" lon="9.4971773"><ele>1269.2</ele><time>2026-05-02T14:44:57.682Z</time></trkpt><trkpt lat="45.8972771" lon="9.4971061"><ele>1268.8</ele><time>2026-05-02T14:44:58.762Z</time></trkpt><trkpt lat="45.8972091" lon="9.497031"><ele>1268.4</ele><time>2026-05-02T14:44:59.673Z</time></trkpt><trkpt lat="45.8971358" lon="9.4969437"><ele>1268.0</ele><time>2026-05-02T14:45:00.653Z</time></trkpt><trkpt lat="45.8970558" lon="9.4968471"><ele>1264.6</ele><time>2026-05-02T14:45:01.678Z</time></trkpt><trkpt lat="45.8969853" lon="9.4967566"><ele>1261.1999999999998</ele><time>2026-05-02T14:45:02.663Z</time></trkpt><trkpt lat="45.8969147" lon="9.4966747"><ele>1257.8</ele><time>2026-05-02T14:45:03.688Z</time></trkpt><trkpt lat="45.8968353" lon="9.4966064"><ele>1254.3999999999999</ele><time>2026-05-02T14:45:04.677Z</time></trkpt><trkpt lat="45.8967482" lon="9.49654"><ele>1251.0</ele><time>2026-05-02T14:45:05.649Z</time></trkpt><trkpt lat="45.8966514" lon="9.4964842"><ele>1251.0</ele><time>2026-05-02T14:45:06.651Z</time></trkpt><trkpt lat="45.8965537" lon="9.4964213"><ele>1251.0</ele><time>2026-05-02T14:45:07.701Z</time></trkpt><trkpt lat="45.8964714" lon="9.4963703"><ele>1251.0</ele><time>2026-05-02T14:45:08.699Z</time></trkpt><trkpt lat="45.8963935" lon="9.4963286"><ele>1251.0</ele><time>2026-05-02T14:45:09.678Z</time></trkpt><trkpt lat="45.8963165" lon="9.496293"><ele>1251.0</ele><time>2026-05-02T14:45:10.783Z</time></trkpt><trkpt lat="45.8962518" lon="9.4962748"><ele>1251.0</ele><time>2026-05-02T14:45:11.699Z</time></trkpt><trkpt lat="45.8961902" lon="9.4962952"><ele>1251.0</ele><time>2026-05-02T14:45:12.713Z</time></trkpt><trkpt lat="45.8961227" lon="9.4963731"><ele>1251.0</ele><time>2026-05-02T14:45:13.725Z</time></trkpt><trkpt lat="45.8960656" lon="9.4964475"><ele>1251.0</ele><time>2026-05-02T14:45:14.688Z</time></trkpt><trkpt lat="45.8960068" lon="9.4964861"><ele>1251.0</ele><time>2026-05-02T14:45:15.678Z</time></trkpt><trkpt lat="45.8959387" lon="9.4965219"><ele>1251.0</ele><time>2026-05-02T14:45:16.642Z</time></trkpt><trkpt lat="45.8958033" lon="9.4965044"><ele>1251.0</ele><time>2026-05-02T14:45:18.693Z</time></trkpt><trkpt lat="45.8957231" lon="9.4964889"><ele>1251.6666666666667</ele><time>2026-05-02T14:45:19.664Z</time></trkpt><trkpt lat="45.8956371" lon="9.4964809"><ele>1252.3333333333333</ele><time>2026-05-02T14:45:20.666Z</time></trkpt><trkpt lat="45.8955538" lon="9.4964972"><ele>1253.0</ele><time>2026-05-02T14:45:21.743Z</time></trkpt><trkpt lat="45.8954854" lon="9.4965393"><ele>1253.6666666666665</ele><time>2026-05-02T14:45:22.647Z</time></trkpt><trkpt lat="45.8953965" lon="9.4965531"><ele>1254.3333333333333</ele><time>2026-05-02T14:45:23.665Z</time></trkpt><trkpt lat="45.8953128" lon="9.4965421"><ele>1255.0</ele><time>2026-05-02T14:45:24.659Z</time></trkpt><trkpt lat="45.895241" lon="9.4965201"><ele>1255.0</ele><time>2026-05-02T14:45:25.683Z</time></trkpt><trkpt lat="45.8951617" lon="9.4964996"><ele>1255.0</ele><time>2026-05-02T14:45:26.687Z</time></trkpt><trkpt lat="45.8950854" lon="9.4964876"><ele>1255.0</ele><time>2026-05-02T14:45:27.667Z</time></trkpt><trkpt lat="45.8950028" lon="9.4964557"><ele>1255.0</ele><time>2026-05-02T14:45:28.638Z</time></trkpt><trkpt lat="45.8949234" lon="9.4964374"><ele>1255.0</ele><time>2026-05-02T14:45:29.669Z</time></trkpt><trkpt lat="45.8948444" lon="9.4964444"><ele>1255.0</ele><time>2026-05-02T14:45:30.804Z</time></trkpt><trkpt lat="45.8947222" lon="9.4963913"><ele>1254.2</ele><time>2026-05-02T14:45:32.662Z</time></trkpt><trkpt lat="45.8946511" lon="9.4963271"><ele>1253.4</ele><time>2026-05-02T14:45:33.659Z</time></trkpt><trkpt lat="45.894578" lon="9.4962459"><ele>1252.6</ele><time>2026-05-02T14:45:34.643Z</time></trkpt><trkpt lat="45.8945018" lon="9.496162"><ele>1251.8</ele><time>2026-05-02T14:45:35.652Z</time></trkpt><trkpt lat="45.894419" lon="9.4960942"><ele>1251.0</ele><time>2026-05-02T14:45:36.66Z</time></trkpt><trkpt lat="45.8943379" lon="9.496017"><ele>1246.8</ele><time>2026-05-02T14:45:37.65Z</time></trkpt><trkpt lat="45.8942645" lon="9.4959286"><ele>1242.6</ele><time>2026-05-02T14:45:38.657Z</time></trkpt><trkpt lat="45.8942009" lon="9.4958473"><ele>1238.4</ele><time>2026-05-02T14:45:39.648Z</time></trkpt><trkpt lat="45.8941206" lon="9.4957729"><ele>1234.2</ele><time>2026-05-02T14:45:40.653Z</time></trkpt><trkpt lat="45.8940225" lon="9.4957057"><ele>1230.0</ele><time>2026-05-02T14:45:41.748Z</time></trkpt><trkpt lat="45.8939357" lon="9.495647"><ele>1230.0</ele><time>2026-05-02T14:45:42.655Z</time></trkpt><trkpt lat="45.8938377" lon="9.4955727"><ele>1230.0</ele><time>2026-05-02T14:45:43.668Z</time></trkpt><trkpt lat="45.8937433" lon="9.4954878"><ele>1230.0</ele><time>2026-05-02T14:45:44.67Z</time></trkpt><trkpt lat="45.8936586" lon="9.4954151"><ele>1230.0</ele><time>2026-05-02T14:45:45.661Z</time></trkpt><trkpt lat="45.8935857" lon="9.4953545"><ele>1230.0</ele><time>2026-05-02T14:45:46.63Z</time></trkpt><trkpt lat="45.8935112" lon="9.4952947"><ele>1224.8</ele><time>2026-05-02T14:45:47.644Z</time></trkpt><trkpt lat="45.8934298" lon="9.49526"><ele>1219.6</ele><time>2026-05-02T14:45:48.665Z</time></trkpt><trkpt lat="45.8933485" lon="9.4952478"><ele>1214.4</ele><time>2026-05-02T14:45:49.705Z</time></trkpt><trkpt lat="45.8932694" lon="9.4952642"><ele>1209.2</ele><time>2026-05-02T14:45:50.676Z</time></trkpt><trkpt lat="45.8931702" lon="9.4953083"><ele>1204.0</ele><time>2026-05-02T14:45:51.707Z</time></trkpt><trkpt lat="45.8930645" lon="9.495385"><ele>1207.4</ele><time>2026-05-02T14:45:52.721Z</time></trkpt><trkpt lat="45.892967" lon="9.4954525"><ele>1210.8000000000002</ele><time>2026-05-02T14:45:53.702Z</time></trkpt><trkpt lat="45.8928636" lon="9.4955008"><ele>1214.1999999999998</ele><time>2026-05-02T14:45:54.748Z</time></trkpt><trkpt lat="45.892761" lon="9.4955198"><ele>1217.6</ele><time>2026-05-02T14:45:55.702Z</time></trkpt><trkpt lat="45.8926554" lon="9.495536"><ele>1221.0</ele><time>2026-05-02T14:45:56.653Z</time></trkpt><trkpt lat="45.8925416" lon="9.495565"><ele>1221.0</ele><time>2026-05-02T14:45:57.687Z</time></trkpt><trkpt lat="45.8924464" lon="9.4956154"><ele>1221.0</ele><time>2026-05-02T14:45:58.684Z</time></trkpt><trkpt lat="45.8923669" lon="9.4956793"><ele>1221.0</ele><time>2026-05-02T14:45:59.683Z</time></trkpt><trkpt lat="45.8923033" lon="9.495739"><ele>1221.0</ele><time>2026-05-02T14:46:00.674Z</time></trkpt><trkpt lat="45.8922495" lon="9.4957958"><ele>1221.0</ele><time>2026-05-02T14:46:01.676Z</time></trkpt><trkpt lat="45.8922019" lon="9.495865"><ele>1221.0</ele><time>2026-05-02T14:46:02.682Z</time></trkpt><trkpt lat="45.8921811" lon="9.4959608"><ele>1221.0</ele><time>2026-05-02T14:46:03.696Z</time></trkpt><trkpt lat="45.8921651" lon="9.4960912"><ele>1221.0</ele><time>2026-05-02T14:46:04.693Z</time></trkpt><trkpt lat="45.8921622" lon="9.4962216"><ele>1221.0</ele><time>2026-05-02T14:46:05.675Z</time></trkpt><trkpt lat="45.8921559" lon="9.4963388"><ele>1221.0</ele><time>2026-05-02T14:46:06.654Z</time></trkpt><trkpt lat="45.8921328" lon="9.4964338"><ele>1221.0</ele><time>2026-05-02T14:46:07.65Z</time></trkpt><trkpt lat="45.8920812" lon="9.4965224"><ele>1221.0</ele><time>2026-05-02T14:46:08.647Z</time></trkpt><trkpt lat="45.8920132" lon="9.4966142"><ele>1217.6666666666667</ele><time>2026-05-02T14:46:09.664Z</time></trkpt><trkpt lat="45.8919347" lon="9.4966726"><ele>1214.3333333333333</ele><time>2026-05-02T14:46:10.669Z</time></trkpt><trkpt lat="45.8918514" lon="9.4967195"><ele>1211.0</ele><time>2026-05-02T14:46:11.677Z</time></trkpt><trkpt lat="45.8917834" lon="9.4967595"><ele>1207.6666666666665</ele><time>2026-05-02T14:46:12.629Z</time></trkpt><trkpt lat="45.8917225" lon="9.4968133"><ele>1204.3333333333333</ele><time>2026-05-02T14:46:13.665Z</time></trkpt><trkpt lat="45.8916719" lon="9.4968907"><ele>1201.0</ele><time>2026-05-02T14:46:14.649Z</time></trkpt><trkpt lat="45.8916386" lon="9.4969775"><ele>1201.0</ele><time>2026-05-02T14:46:15.655Z</time></trkpt><trkpt lat="45.8916172" lon="9.497085"><ele>1201.0</ele><time>2026-05-02T14:46:16.658Z</time></trkpt><trkpt lat="45.8916127" lon="9.4972021"><ele>1201.0</ele><time>2026-05-02T14:46:17.665Z</time></trkpt><trkpt lat="45.8916289" lon="9.4973244"><ele>1201.0</ele><time>2026-05-02T14:46:18.658Z</time></trkpt><trkpt lat="45.8916398" lon="9.4974502"><ele>1201.0</ele><time>2026-05-02T14:46:19.692Z</time></trkpt><trkpt lat="45.8916308" lon="9.4975439"><ele>1201.0</ele><time>2026-05-02T14:46:20.653Z</time></trkpt><trkpt lat="45.8915352" lon="9.4976685"><ele>1204.5</ele><time>2026-05-02T14:46:22.647Z</time></trkpt><trkpt lat="45.8914626" lon="9.4976892"><ele>1208.0</ele><time>2026-05-02T14:46:23.632Z</time></trkpt><trkpt lat="45.8913855" lon="9.4977356"><ele>1211.5</ele><time>2026-05-02T14:46:24.635Z</time></trkpt><trkpt lat="45.891313" lon="9.4977562"><ele>1215.0</ele><time>2026-05-02T14:46:25.664Z</time></trkpt><trkpt lat="45.8912308" lon="9.4977897"><ele>1218.5</ele><time>2026-05-02T14:46:26.652Z</time></trkpt><trkpt lat="45.8911522" lon="9.4978265"><ele>1222.0</ele><time>2026-05-02T14:46:27.672Z</time></trkpt><trkpt lat="45.8910713" lon="9.4978606"><ele>1222.0</ele><time>2026-05-02T14:46:28.707Z</time></trkpt><trkpt lat="45.8909831" lon="9.4979006"><ele>1222.0</ele><time>2026-05-02T14:46:29.664Z</time></trkpt><trkpt lat="45.8908956" lon="9.4979428"><ele>1222.0</ele><time>2026-05-02T14:46:30.69Z</time></trkpt><trkpt lat="45.8908072" lon="9.4979885"><ele>1222.0</ele><time>2026-05-02T14:46:31.652Z</time></trkpt><trkpt lat="45.8907222" lon="9.4980366"><ele>1222.0</ele><time>2026-05-02T14:46:32.681Z</time></trkpt><trkpt lat="45.8906415" lon="9.4980713"><ele>1222.3333333333333</ele><time>2026-05-02T14:46:33.65Z</time></trkpt><trkpt lat="45.8905497" lon="9.498107"><ele>1222.6666666666665</ele><time>2026-05-02T14:46:34.662Z</time></trkpt><trkpt lat="45.89047" lon="9.4981378"><ele>1223.0</ele><time>2026-05-02T14:46:35.659Z</time></trkpt><trkpt lat="45.8903988" lon="9.4981903"><ele>1223.3333333333333</ele><time>2026-05-02T14:46:36.673Z</time></trkpt><trkpt lat="45.8903365" lon="9.4982528"><ele>1223.6666666666667</ele><time>2026-05-02T14:46:37.679Z</time></trkpt><trkpt lat="45.8902963" lon="9.4983502"><ele>1224.0</ele><time>2026-05-02T14:46:38.688Z</time></trkpt><trkpt lat="45.8902525" lon="9.4984463"><ele>1224.0</ele><time>2026-05-02T14:46:39.754Z</time></trkpt><trkpt lat="45.8901927" lon="9.498605"><ele>1224.0</ele><time>2026-05-02T14:46:41.719Z</time></trkpt><trkpt lat="45.890197" lon="9.4987903"><ele>1224.0</ele><time>2026-05-02T14:46:43.645Z</time></trkpt><trkpt lat="45.8902169" lon="9.4989013"><ele>1224.0</ele><time>2026-05-02T14:46:44.657Z</time></trkpt><trkpt lat="45.8902317" lon="9.499006"><ele>1224.0</ele><time>2026-05-02T14:46:45.653Z</time></trkpt><trkpt lat="45.89021" lon="9.499111"><ele>1222.4</ele><time>2026-05-02T14:46:46.625Z</time></trkpt><trkpt lat="45.8901581" lon="9.499203"><ele>1220.8000000000002</ele><time>2026-05-02T14:46:47.67Z</time></trkpt><trkpt lat="45.8900934" lon="9.4992761"><ele>1219.1999999999998</ele><time>2026-05-02T14:46:48.64Z</time></trkpt><trkpt lat="45.8900141" lon="9.4993516"><ele>1217.6</ele><time>2026-05-02T14:46:49.646Z</time></trkpt><trkpt lat="45.8899388" lon="9.4994653"><ele>1216.0</ele><time>2026-05-02T14:46:50.663Z</time></trkpt><trkpt lat="45.8898612" lon="9.4995927"><ele>1216.0</ele><time>2026-05-02T14:46:51.639Z</time></trkpt><trkpt lat="45.8897759" lon="9.4997189"><ele>1216.0</ele><time>2026-05-02T14:46:52.618Z</time></trkpt><trkpt lat="45.8896837" lon="9.4998597"><ele>1216.0</ele><time>2026-05-02T14:46:53.652Z</time></trkpt><trkpt lat="45.8895924" lon="9.4999972"><ele>1216.0</ele><time>2026-05-02T14:46:54.628Z</time></trkpt><trkpt lat="45.8894944" lon="9.500119"><ele>1216.0</ele><time>2026-05-02T14:46:55.638Z</time></trkpt><trkpt lat="45.8894035" lon="9.5002329"><ele>1216.0</ele><time>2026-05-02T14:46:56.638Z</time></trkpt><trkpt lat="45.8893131" lon="9.5003483"><ele>1216.0</ele><time>2026-05-02T14:46:57.637Z</time></trkpt><trkpt lat="45.8892183" lon="9.5004552"><ele>1216.0</ele><time>2026-05-02T14:46:58.643Z</time></trkpt><trkpt lat="45.8891224" lon="9.5005615"><ele>1212.6</ele><time>2026-05-02T14:46:59.708Z</time></trkpt><trkpt lat="45.889046" lon="9.5006674"><ele>1209.1999999999998</ele><time>2026-05-02T14:47:00.653Z</time></trkpt><trkpt lat="45.8889767" lon="9.5007898"><ele>1205.8000000000002</ele><time>2026-05-02T14:47:01.638Z</time></trkpt><trkpt lat="45.8889157" lon="9.5009003"><ele>1202.4</ele><time>2026-05-02T14:47:02.63Z</time></trkpt><trkpt lat="45.8888551" lon="9.501018"><ele>1199.0</ele><time>2026-05-02T14:47:03.667Z</time></trkpt><trkpt lat="45.888821" lon="9.5011188"><ele>1199.0</ele><time>2026-05-02T14:47:04.652Z</time></trkpt><trkpt lat="45.8887851" lon="9.5012475"><ele>1199.0</ele><time>2026-05-02T14:47:05.709Z</time></trkpt><trkpt lat="45.888785" lon="9.5013892"><ele>1199.0</ele><time>2026-05-02T14:47:06.653Z</time></trkpt><trkpt lat="45.8887876" lon="9.5015705"><ele>1199.0</ele><time>2026-05-02T14:47:07.7Z</time></trkpt><trkpt lat="45.8887873" lon="9.5017638"><ele>1201.6666666666667</ele><time>2026-05-02T14:47:08.646Z</time></trkpt><trkpt lat="45.8887828" lon="9.50198"><ele>1204.3333333333333</ele><time>2026-05-02T14:47:09.666Z</time></trkpt><trkpt lat="45.8887693" lon="9.502194"><ele>1207.0</ele><time>2026-05-02T14:47:10.677Z</time></trkpt><trkpt lat="45.8887527" lon="9.5024096"><ele>1207.3333333333333</ele><time>2026-05-02T14:47:11.804Z</time></trkpt><trkpt lat="45.8887093" lon="9.502731"><ele>1207.6666666666667</ele><time>2026-05-02T14:47:13.689Z</time></trkpt><trkpt lat="45.8886725" lon="9.5029053"><ele>1208.0</ele><time>2026-05-02T14:47:14.687Z</time></trkpt><trkpt lat="45.888632" lon="9.5030659"><ele>1209.1666666666667</ele><time>2026-05-02T14:47:15.656Z</time></trkpt><trkpt lat="45.8885915" lon="9.5031927"><ele>1210.3333333333335</ele><time>2026-05-02T14:47:16.645Z</time></trkpt><trkpt lat="45.8885639" lon="9.5032839"><ele>1211.5</ele><time>2026-05-02T14:47:17.645Z</time></trkpt><trkpt lat="45.8885355" lon="9.50337"><ele>1212.6666666666667</ele><time>2026-05-02T14:47:18.673Z</time></trkpt><trkpt lat="45.8885329" lon="9.5035047"><ele>1213.8333333333333</ele><time>2026-05-02T14:47:19.704Z</time></trkpt><trkpt lat="45.8885344" lon="9.5036381"><ele>1215.0</ele><time>2026-05-02T14:47:20.649Z</time></trkpt><trkpt lat="45.8885228" lon="9.5038063"><ele>1215.6</ele><time>2026-05-02T14:47:21.678Z</time></trkpt><trkpt lat="45.8885038" lon="9.5039715"><ele>1216.2</ele><time>2026-05-02T14:47:22.644Z</time></trkpt><trkpt lat="45.8884853" lon="9.504132"><ele>1216.8</ele><time>2026-05-02T14:47:23.654Z</time></trkpt><trkpt lat="45.8884729" lon="9.5042717"><ele>1217.4</ele><time>2026-05-02T14:47:24.669Z</time></trkpt><trkpt lat="45.8884678" lon="9.5044075"><ele>1218.0</ele><time>2026-05-02T14:47:25.656Z</time></trkpt><trkpt lat="45.8884837" lon="9.5045784"><ele>1216.5</ele><time>2026-05-02T14:47:26.665Z</time></trkpt><trkpt lat="45.8885116" lon="9.5047397"><ele>1215.0</ele><time>2026-05-02T14:47:27.662Z</time></trkpt><trkpt lat="45.8885212" lon="9.5049173"><ele>1213.5</ele><time>2026-05-02T14:47:28.67Z</time></trkpt><trkpt lat="45.8885127" lon="9.5050994"><ele>1212.0</ele><time>2026-05-02T14:47:29.655Z</time></trkpt><trkpt lat="45.8884991" lon="9.5052973"><ele>1211.0</ele><time>2026-05-02T14:47:30.686Z</time></trkpt><trkpt lat="45.888488" lon="9.5054675"><ele>1210.0</ele><time>2026-05-02T14:47:31.647Z</time></trkpt><trkpt lat="45.8884609" lon="9.5056572"><ele>1209.0</ele><time>2026-05-02T14:47:32.649Z</time></trkpt><trkpt lat="45.888423" lon="9.5058364"><ele>1208.0</ele><time>2026-05-02T14:47:33.663Z</time></trkpt><trkpt lat="45.8883931" lon="9.5060059"><ele>1206.0</ele><time>2026-05-02T14:47:34.697Z</time></trkpt><trkpt lat="45.8883745" lon="9.5061623"><ele>1204.0</ele><time>2026-05-02T14:47:35.655Z</time></trkpt><trkpt lat="45.8883715" lon="9.5063167"><ele>1202.0</ele><time>2026-05-02T14:47:36.657Z</time></trkpt><trkpt lat="45.8883913" lon="9.5064894"><ele>1200.0</ele><time>2026-05-02T14:47:37.688Z</time></trkpt><trkpt lat="45.8884288" lon="9.5066707"><ele>1200.0</ele><time>2026-05-02T14:47:38.653Z</time></trkpt><trkpt lat="45.8884527" lon="9.5068799"><ele>1200.0</ele><time>2026-05-02T14:47:39.666Z</time></trkpt><trkpt lat="45.8884533" lon="9.5070901"><ele>1200.0</ele><time>2026-05-02T14:47:40.709Z</time></trkpt><trkpt lat="45.8884432" lon="9.5072843"><ele>1200.0</ele><time>2026-05-02T14:47:41.665Z</time></trkpt><trkpt lat="45.8884254" lon="9.5074895"><ele>1187.6666666666667</ele><time>2026-05-02T14:47:42.673Z</time></trkpt><trkpt lat="45.8884034" lon="9.5076825"><ele>1175.3333333333335</ele><time>2026-05-02T14:47:43.682Z</time></trkpt><trkpt lat="45.888369" lon="9.507917"><ele>1163.0</ele><time>2026-05-02T14:47:44.879Z</time></trkpt><trkpt lat="45.8882949" lon="9.508248"><ele>1162.75</ele><time>2026-05-02T14:47:46.666Z</time></trkpt><trkpt lat="45.8882419" lon="9.5084383"><ele>1162.5</ele><time>2026-05-02T14:47:47.67Z</time></trkpt><trkpt lat="45.8881898" lon="9.5086234"><ele>1162.25</ele><time>2026-05-02T14:47:48.667Z</time></trkpt><trkpt lat="45.8881488" lon="9.5088064"><ele>1162.0</ele><time>2026-05-02T14:47:49.706Z</time></trkpt><trkpt lat="45.8881292" lon="9.5089479"><ele>1160.5</ele><time>2026-05-02T14:47:50.655Z</time></trkpt><trkpt lat="45.8881131" lon="9.5090859"><ele>1159.0</ele><time>2026-05-02T14:47:51.663Z</time></trkpt><trkpt lat="45.8881036" lon="9.50921"><ele>1157.5</ele><time>2026-05-02T14:47:52.654Z</time></trkpt><trkpt lat="45.8881127" lon="9.5093125"><ele>1156.0</ele><time>2026-05-02T14:47:53.649Z</time></trkpt><trkpt lat="45.8881468" lon="9.5093904"><ele>1154.5</ele><time>2026-05-02T14:47:54.708Z</time></trkpt><trkpt lat="45.8882549" lon="9.5093908"><ele>1153.0</ele><time>2026-05-02T14:47:56.698Z</time></trkpt><trkpt lat="45.8883178" lon="9.5093168"><ele>1153.0</ele><time>2026-05-02T14:47:57.651Z</time></trkpt><trkpt lat="45.888416" lon="9.5091909"><ele>1153.0</ele><time>2026-05-02T14:47:58.689Z</time></trkpt><trkpt lat="45.8885088" lon="9.5090784"><ele>1153.0</ele><time>2026-05-02T14:47:59.676Z</time></trkpt><trkpt lat="45.8885836" lon="9.5089563"><ele>1153.0</ele><time>2026-05-02T14:48:00.677Z</time></trkpt><trkpt lat="45.88865" lon="9.5088077"><ele>1153.4</ele><time>2026-05-02T14:48:01.679Z</time></trkpt><trkpt lat="45.8887119" lon="9.5086927"><ele>1153.8</ele><time>2026-05-02T14:48:02.668Z</time></trkpt><trkpt lat="45.8887764" lon="9.5086053"><ele>1154.2</ele><time>2026-05-02T14:48:03.668Z</time></trkpt><trkpt lat="45.888856" lon="9.5085339"><ele>1154.6</ele><time>2026-05-02T14:48:04.673Z</time></trkpt><trkpt lat="45.8889434" lon="9.5085272"><ele>1155.0</ele><time>2026-05-02T14:48:05.646Z</time></trkpt><trkpt lat="45.8890389" lon="9.5085205"><ele>1155.0</ele><time>2026-05-02T14:48:06.665Z</time></trkpt><trkpt lat="45.889112" lon="9.5084714"><ele>1155.0</ele><time>2026-05-02T14:48:07.656Z</time></trkpt><trkpt lat="45.8891807" lon="9.5083873"><ele>1155.0</ele><time>2026-05-02T14:48:08.676Z</time></trkpt><trkpt lat="45.889255" lon="9.5082943"><ele>1155.0</ele><time>2026-05-02T14:48:09.648Z</time></trkpt><trkpt lat="45.8893222" lon="9.508187"><ele>1155.0</ele><time>2026-05-02T14:48:10.663Z</time></trkpt><trkpt lat="45.8893758" lon="9.5080863"><ele>1154.8333333333333</ele><time>2026-05-02T14:48:11.641Z</time></trkpt><trkpt lat="45.889443" lon="9.5080138"><ele>1154.6666666666667</ele><time>2026-05-02T14:48:12.663Z</time></trkpt><trkpt lat="45.889539" lon="9.5079762"><ele>1154.5</ele><time>2026-05-02T14:48:13.647Z</time></trkpt><trkpt lat="45.8896371" lon="9.50796"><ele>1154.3333333333335</ele><time>2026-05-02T14:48:14.662Z</time></trkpt><trkpt lat="45.8897228" lon="9.5079334"><ele>1154.1666666666667</ele><time>2026-05-02T14:48:15.646Z</time></trkpt><trkpt lat="45.8897867" lon="9.507891"><ele>1154.0</ele><time>2026-05-02T14:48:16.628Z</time></trkpt><trkpt lat="45.8898359" lon="9.5078182"><ele>1154.0</ele><time>2026-05-02T14:48:17.636Z</time></trkpt><trkpt lat="45.8898595" lon="9.5077065"><ele>1154.0</ele><time>2026-05-02T14:48:18.603Z</time></trkpt><trkpt lat="45.8898559" lon="9.5075748"><ele>1154.0</ele><time>2026-05-02T14:48:19.651Z</time></trkpt><trkpt lat="45.8898747" lon="9.5074832"><ele>1154.0</ele><time>2026-05-02T14:48:20.621Z</time></trkpt><trkpt lat="45.8899864" lon="9.5074024"><ele>1154.0</ele><time>2026-05-02T14:48:22.628Z</time></trkpt><trkpt lat="45.8900621" lon="9.5074288"><ele>1154.0</ele><time>2026-05-02T14:48:23.597Z</time></trkpt><trkpt lat="45.8901777" lon="9.5074622"><ele>1147.4</ele><time>2026-05-02T14:48:24.6Z</time></trkpt><trkpt lat="45.8902831" lon="9.5074904"><ele>1140.8000000000002</ele><time>2026-05-02T14:48:25.593Z</time></trkpt><trkpt lat="45.890366" lon="9.5075151"><ele>1134.1999999999998</ele><time>2026-05-02T14:48:26.627Z</time></trkpt><trkpt lat="45.89043" lon="9.5075149"><ele>1127.6</ele><time>2026-05-02T14:48:27.726Z</time></trkpt><trkpt lat="45.8905132" lon="9.5073878"><ele>1121.0</ele><time>2026-05-02T14:48:29.621Z</time></trkpt><trkpt lat="45.8905535" lon="9.5072609"><ele>1121.0</ele><time>2026-05-02T14:48:30.624Z</time></trkpt><trkpt lat="45.8906114" lon="9.5071377"><ele>1121.0</ele><time>2026-05-02T14:48:31.599Z</time></trkpt><trkpt lat="45.8906919" lon="9.5070134"><ele>1121.0</ele><time>2026-05-02T14:48:32.627Z</time></trkpt><trkpt lat="45.8907787" lon="9.506934"><ele>1121.0</ele><time>2026-05-02T14:48:33.637Z</time></trkpt><trkpt lat="45.8908714" lon="9.5068819"><ele>1121.0</ele><time>2026-05-02T14:48:34.634Z</time></trkpt><trkpt lat="45.8909603" lon="9.5068487"><ele>1118.3999999999999</ele><time>2026-05-02T14:48:35.636Z</time></trkpt><trkpt lat="45.8910454" lon="9.5068044"><ele>1115.8</ele><time>2026-05-02T14:48:36.644Z</time></trkpt><trkpt lat="45.8911148" lon="9.5067291"><ele>1113.1999999999998</ele><time>2026-05-02T14:48:37.608Z</time></trkpt><trkpt lat="45.8911906" lon="9.5066342"><ele>1110.6</ele><time>2026-05-02T14:48:38.617Z</time></trkpt><trkpt lat="45.8912589" lon="9.506534"><ele>1108.0</ele><time>2026-05-02T14:48:39.628Z</time></trkpt><trkpt lat="45.8913282" lon="9.5064056"><ele>1108.0</ele><time>2026-05-02T14:48:40.658Z</time></trkpt><trkpt lat="45.8913906" lon="9.5062759"><ele>1108.0</ele><time>2026-05-02T14:48:41.637Z</time></trkpt><trkpt lat="45.891454" lon="9.5061453"><ele>1108.0</ele><time>2026-05-02T14:48:42.594Z</time></trkpt><trkpt lat="45.8915356" lon="9.5060136"><ele>1108.0</ele><time>2026-05-02T14:48:43.624Z</time></trkpt><trkpt lat="45.8916236" lon="9.5059025"><ele>1102.0</ele><time>2026-05-02T14:48:44.649Z</time></trkpt><trkpt lat="45.8917089" lon="9.5058018"><ele>1096.0</ele><time>2026-05-02T14:48:45.603Z</time></trkpt><trkpt lat="45.8917975" lon="9.5056594"><ele>1090.0</ele><time>2026-05-02T14:48:46.757Z</time></trkpt><trkpt lat="45.8919287" lon="9.5054275"><ele>1096.2</ele><time>2026-05-02T14:48:48.607Z</time></trkpt><trkpt lat="45.892017" lon="9.5053151"><ele>1102.4</ele><time>2026-05-02T14:48:49.631Z</time></trkpt><trkpt lat="45.892113" lon="9.5052264"><ele>1108.6</ele><time>2026-05-02T14:48:50.598Z</time></trkpt><trkpt lat="45.892205" lon="9.5051396"><ele>1114.8</ele><time>2026-05-02T14:48:51.613Z</time></trkpt><trkpt lat="45.892271" lon="9.5050687"><ele>1121.0</ele><time>2026-05-02T14:48:52.635Z</time></trkpt><trkpt lat="45.89234" lon="9.5050143"><ele>1121.0</ele><time>2026-05-02T14:48:53.619Z</time></trkpt><trkpt lat="45.8924139" lon="9.5049671"><ele>1121.0</ele><time>2026-05-02T14:48:54.643Z</time></trkpt><trkpt lat="45.8925174" lon="9.5049746"><ele>1121.0</ele><time>2026-05-02T14:48:55.613Z</time></trkpt><trkpt lat="45.8926379" lon="9.5049845"><ele>1121.0</ele><time>2026-05-02T14:48:56.595Z</time></trkpt><trkpt lat="45.8927505" lon="9.5049791"><ele>1121.0</ele><time>2026-05-02T14:48:57.597Z</time></trkpt><trkpt lat="45.8928545" lon="9.504957"><ele>1116.75</ele><time>2026-05-02T14:48:58.592Z</time></trkpt><trkpt lat="45.8929693" lon="9.5049171"><ele>1112.5</ele><time>2026-05-02T14:48:59.601Z</time></trkpt><trkpt lat="45.8930691" lon="9.504871"><ele>1108.25</ele><time>2026-05-02T14:49:00.602Z</time></trkpt><trkpt lat="45.8931671" lon="9.5048043"><ele>1104.0</ele><time>2026-05-02T14:49:01.602Z</time></trkpt><trkpt lat="45.8932742" lon="9.5047202"><ele>1104.0</ele><time>2026-05-02T14:49:02.631Z</time></trkpt><trkpt lat="45.8933637" lon="9.5046325"><ele>1104.0</ele><time>2026-05-02T14:49:03.588Z</time></trkpt><trkpt lat="45.8934435" lon="9.5045402"><ele>1104.0</ele><time>2026-05-02T14:49:04.609Z</time></trkpt><trkpt lat="45.8935037" lon="9.5044844"><ele>1104.0</ele><time>2026-05-02T14:49:05.598Z</time></trkpt><trkpt lat="45.8935784" lon="9.5044779"><ele>1104.0</ele><time>2026-05-02T14:49:06.599Z</time></trkpt><trkpt lat="45.8936631" lon="9.5045195"><ele>1104.0</ele><time>2026-05-02T14:49:07.596Z</time></trkpt><trkpt lat="45.893752" lon="9.5045868"><ele>1104.75</ele><time>2026-05-02T14:49:08.598Z</time></trkpt><trkpt lat="45.8938484" lon="9.5046984"><ele>1105.5</ele><time>2026-05-02T14:49:09.604Z</time></trkpt><trkpt lat="45.8939353" lon="9.5047993"><ele>1106.25</ele><time>2026-05-02T14:49:10.593Z</time></trkpt><trkpt lat="45.8940393" lon="9.5049022"><ele>1107.0</ele><time>2026-05-02T14:49:11.706Z</time></trkpt><trkpt lat="45.8941309" lon="9.5049668"><ele>1107.0</ele><time>2026-05-02T14:49:12.621Z</time></trkpt><trkpt lat="45.8942347" lon="9.5050338"><ele>1107.0</ele><time>2026-05-02T14:49:13.599Z</time></trkpt><trkpt lat="45.8943512" lon="9.5050833"><ele>1107.0</ele><time>2026-05-02T14:49:14.607Z</time></trkpt><trkpt lat="45.8944801" lon="9.5051367"><ele>1107.0</ele><time>2026-05-02T14:49:15.622Z</time></trkpt><trkpt lat="45.8945931" lon="9.505184"><ele>1109.0</ele><time>2026-05-02T14:49:16.598Z</time></trkpt><trkpt lat="45.8947106" lon="9.5052332"><ele>1111.0</ele><time>2026-05-02T14:49:17.617Z</time></trkpt><trkpt lat="45.8948283" lon="9.5052855"><ele>1113.0</ele><time>2026-05-02T14:49:18.586Z</time></trkpt><trkpt lat="45.8949586" lon="9.5053581"><ele>1115.0</ele><time>2026-05-02T14:49:19.622Z</time></trkpt><trkpt lat="45.8950791" lon="9.5054326"><ele>1100.75</ele><time>2026-05-02T14:49:20.626Z</time></trkpt><trkpt lat="45.895201" lon="9.5054953"><ele>1086.5</ele><time>2026-05-02T14:49:21.622Z</time></trkpt><trkpt lat="45.8953247" lon="9.5055408"><ele>1072.25</ele><time>2026-05-02T14:49:22.625Z</time></trkpt><trkpt lat="45.8954327" lon="9.5055724"><ele>1058.0</ele><time>2026-05-02T14:49:23.597Z</time></trkpt><trkpt lat="45.8955244" lon="9.5055994"><ele>1058.0</ele><time>2026-05-02T14:49:24.598Z</time></trkpt><trkpt lat="45.8956029" lon="9.5056129"><ele>1058.0</ele><time>2026-05-02T14:49:25.613Z</time></trkpt><trkpt lat="45.8956721" lon="9.5055955"><ele>1058.0</ele><time>2026-05-02T14:49:26.602Z</time></trkpt><trkpt lat="45.895745" lon="9.5055283"><ele>1058.0</ele><time>2026-05-02T14:49:27.6Z</time></trkpt><trkpt lat="45.895828" lon="9.5054337"><ele>1058.0</ele><time>2026-05-02T14:49:28.606Z</time></trkpt><trkpt lat="45.8959264" lon="9.5053207"><ele>1054.4</ele><time>2026-05-02T14:49:29.617Z</time></trkpt><trkpt lat="45.8960228" lon="9.5052022"><ele>1050.8</ele><time>2026-05-02T14:49:30.63Z</time></trkpt><trkpt lat="45.8961145" lon="9.5050861"><ele>1047.2</ele><time>2026-05-02T14:49:31.626Z</time></trkpt><trkpt lat="45.8962031" lon="9.5049958"><ele>1043.6</ele><time>2026-05-02T14:49:32.625Z</time></trkpt><trkpt lat="45.8962732" lon="9.5049272"><ele>1040.0</ele><time>2026-05-02T14:49:33.578Z</time></trkpt><trkpt lat="45.896329" lon="9.5048348"><ele>1040.0</ele><time>2026-05-02T14:49:34.62Z</time></trkpt><trkpt lat="45.8963459" lon="9.504717"><ele>1040.0</ele><time>2026-05-02T14:49:35.721Z</time></trkpt><trkpt lat="45.8963224" lon="9.5045251"><ele>1040.0</ele><time>2026-05-02T14:49:37.593Z</time></trkpt><trkpt lat="45.8963842" lon="9.5043868"><ele>1040.0</ele><time>2026-05-02T14:49:39.596Z</time></trkpt><trkpt lat="45.8964483" lon="9.5043658"><ele>1040.0</ele><time>2026-05-02T14:49:40.59Z</time></trkpt><trkpt lat="45.8965129" lon="9.5043857"><ele>1042.1428571428573</ele><time>2026-05-02T14:49:41.592Z</time></trkpt><trkpt lat="45.8965812" lon="9.5043957"><ele>1044.2857142857142</ele><time>2026-05-02T14:49:42.619Z</time></trkpt><trkpt lat="45.8966423" lon="9.5043692"><ele>1046.4285714285716</ele><time>2026-05-02T14:49:43.589Z</time></trkpt><trkpt lat="45.8966962" lon="9.5043064"><ele>1048.5714285714287</ele><time>2026-05-02T14:49:44.577Z</time></trkpt><trkpt lat="45.8967474" lon="9.5042255"><ele>1050.7142857142858</ele><time>2026-05-02T14:49:45.593Z</time></trkpt><trkpt lat="45.8968004" lon="9.5041765"><ele>1052.857142857143</ele><time>2026-05-02T14:49:46.571Z</time></trkpt><trkpt lat="45.8968626" lon="9.5041487"><ele>1055.0</ele><time>2026-05-02T14:49:47.605Z</time></trkpt><trkpt lat="45.8969922" lon="9.5041452"><ele>1055.0</ele><time>2026-05-02T14:49:49.588Z</time></trkpt><trkpt lat="45.8970659" lon="9.504097"><ele>1055.0</ele><time>2026-05-02T14:49:50.579Z</time></trkpt><trkpt lat="45.8971775" lon="9.50406"><ele>1055.0</ele><time>2026-05-02T14:49:51.805Z</time></trkpt><trkpt lat="45.8973588" lon="9.504016"><ele>1055.0</ele><time>2026-05-02T14:49:53.585Z</time></trkpt><trkpt lat="45.89745" lon="9.5039908"><ele>1055.0</ele><time>2026-05-02T14:49:54.601Z</time></trkpt><trkpt lat="45.8975245" lon="9.5039621"><ele>1055.0</ele><time>2026-05-02T14:49:55.578Z</time></trkpt><trkpt lat="45.8975878" lon="9.503904"><ele>1055.0</ele><time>2026-05-02T14:49:56.597Z</time></trkpt><trkpt lat="45.8976385" lon="9.5038111"><ele>1055.0</ele><time>2026-05-02T14:49:57.789Z</time></trkpt><trkpt lat="45.8977247" lon="9.5036844"><ele>1055.0</ele><time>2026-05-02T14:49:59.637Z</time></trkpt><trkpt lat="45.8978405" lon="9.503691"><ele>1057.0</ele><time>2026-05-02T14:50:01.573Z</time></trkpt><trkpt lat="45.897913" lon="9.5038384"><ele>1059.0</ele><time>2026-05-02T14:50:03.609Z</time></trkpt><trkpt lat="45.8979298" lon="9.5039444"><ele>1061.0</ele><time>2026-05-02T14:50:04.586Z</time></trkpt><trkpt lat="45.897943" lon="9.504055"><ele>1063.0</ele><time>2026-05-02T14:50:05.584Z</time></trkpt><trkpt lat="45.8979565" lon="9.5041575"><ele>1065.0</ele><time>2026-05-02T14:50:06.602Z</time></trkpt><trkpt lat="45.8979914" lon="9.504233"><ele>1067.0</ele><time>2026-05-02T14:50:07.58Z</time></trkpt><trkpt lat="45.8980529" lon="9.5042662"><ele>1067.0</ele><time>2026-05-02T14:50:08.607Z</time></trkpt><trkpt lat="45.8981214" lon="9.5042516"><ele>1067.0</ele><time>2026-05-02T14:50:09.585Z</time></trkpt><trkpt lat="45.8981989" lon="9.5042161"><ele>1067.0</ele><time>2026-05-02T14:50:10.603Z</time></trkpt><trkpt lat="45.8982822" lon="9.504207"><ele>1067.0</ele><time>2026-05-02T14:50:11.57Z</time></trkpt><trkpt lat="45.8983847" lon="9.5042457"><ele>1067.0</ele><time>2026-05-02T14:50:12.603Z</time></trkpt><trkpt lat="45.898486" lon="9.5043282"><ele>1064.75</ele><time>2026-05-02T14:50:13.581Z</time></trkpt><trkpt lat="45.8986031" lon="9.5044232"><ele>1062.5</ele><time>2026-05-02T14:50:14.594Z</time></trkpt><trkpt lat="45.898718" lon="9.5044968"><ele>1060.25</ele><time>2026-05-02T14:50:15.586Z</time></trkpt><trkpt lat="45.8988177" lon="9.5045678"><ele>1058.0</ele><time>2026-05-02T14:50:16.631Z</time></trkpt><trkpt lat="45.8988951" lon="9.5046456"><ele>1058.0</ele><time>2026-05-02T14:50:17.58Z</time></trkpt><trkpt lat="45.898964" lon="9.5047506"><ele>1058.0</ele><time>2026-05-02T14:50:18.583Z</time></trkpt><trkpt lat="45.8990301" lon="9.5048829"><ele>1058.0</ele><time>2026-05-02T14:50:19.585Z</time></trkpt><trkpt lat="45.8990962" lon="9.5050178"><ele>1058.0</ele><time>2026-05-02T14:50:20.619Z</time></trkpt><trkpt lat="45.8991607" lon="9.5051288"><ele>1058.0</ele><time>2026-05-02T14:50:21.584Z</time></trkpt><trkpt lat="45.8992461" lon="9.5052459"><ele>1055.5</ele><time>2026-05-02T14:50:22.639Z</time></trkpt><trkpt lat="45.8993387" lon="9.5053436"><ele>1053.0</ele><time>2026-05-02T14:50:23.599Z</time></trkpt><trkpt lat="45.8994391" lon="9.5054371"><ele>1050.5</ele><time>2026-05-02T14:50:24.593Z</time></trkpt><trkpt lat="45.8995373" lon="9.5055333"><ele>1048.0</ele><time>2026-05-02T14:50:25.594Z</time></trkpt><trkpt lat="45.8996301" lon="9.5056337"><ele>1048.0</ele><time>2026-05-02T14:50:26.603Z</time></trkpt><trkpt lat="45.8997229" lon="9.5057335"><ele>1048.0</ele><time>2026-05-02T14:50:27.602Z</time></trkpt><trkpt lat="45.8998169" lon="9.5058443"><ele>1048.0</ele><time>2026-05-02T14:50:28.625Z</time></trkpt><trkpt lat="45.8999129" lon="9.5059511"><ele>1048.0</ele><time>2026-05-02T14:50:29.661Z</time></trkpt><trkpt lat="45.8999893" lon="9.5060294"><ele>1048.0</ele><time>2026-05-02T14:50:30.617Z</time></trkpt><trkpt lat="45.9000699" lon="9.5061108"><ele>1048.0</ele><time>2026-05-02T14:50:31.647Z</time></trkpt><trkpt lat="45.9001475" lon="9.506156"><ele>1048.0</ele><time>2026-05-02T14:50:32.6Z</time></trkpt><trkpt lat="45.9002278" lon="9.5061664"><ele>1048.0</ele><time>2026-05-02T14:50:33.652Z</time></trkpt><trkpt lat="45.9003052" lon="9.5062126"><ele>1048.0</ele><time>2026-05-02T14:50:35.643Z</time></trkpt><trkpt lat="45.9002557" lon="9.5062961"><ele>1048.0</ele><time>2026-05-02T14:50:37.623Z</time></trkpt><trkpt lat="45.900104" lon="9.5063054"><ele>1044.5</ele><time>2026-05-02T14:50:39.618Z</time></trkpt><trkpt lat="45.9" lon="9.5063038"><ele>1041.0</ele><time>2026-05-02T14:50:40.625Z</time></trkpt><trkpt lat="45.8998778" lon="9.5063067"><ele>1037.5</ele><time>2026-05-02T14:50:41.619Z</time></trkpt><trkpt lat="45.8997422" lon="9.5063178"><ele>1034.0</ele><time>2026-05-02T14:50:42.664Z</time></trkpt><trkpt lat="45.899609" lon="9.5063139"><ele>1034.0</ele><time>2026-05-02T14:50:43.638Z</time></trkpt><trkpt lat="45.8994681" lon="9.5062772"><ele>1034.0</ele><time>2026-05-02T14:50:44.642Z</time></trkpt><trkpt lat="45.8993025" lon="9.5062034"><ele>1034.0</ele><time>2026-05-02T14:50:45.663Z</time></trkpt><trkpt lat="45.8991389" lon="9.5061052"><ele>1034.3333333333335</ele><time>2026-05-02T14:50:46.619Z</time></trkpt><trkpt lat="45.8989697" lon="9.5059983"><ele>1034.6666666666667</ele><time>2026-05-02T14:50:47.621Z</time></trkpt><trkpt lat="45.8988124" lon="9.5059006"><ele>1035.0</ele><time>2026-05-02T14:50:48.591Z</time></trkpt><trkpt lat="45.8986623" lon="9.5058157"><ele>1035.0</ele><time>2026-05-02T14:50:49.598Z</time></trkpt><trkpt lat="45.8985201" lon="9.5057316"><ele>1035.0</ele><time>2026-05-02T14:50:50.619Z</time></trkpt><trkpt lat="45.8983831" lon="9.5056656"><ele>1035.0</ele><time>2026-05-02T14:50:51.629Z</time></trkpt><trkpt lat="45.8982453" lon="9.5056285"><ele>1035.0</ele><time>2026-05-02T14:50:52.616Z</time></trkpt><trkpt lat="45.898094" lon="9.5056125"><ele>1034.25</ele><time>2026-05-02T14:50:53.66Z</time></trkpt><trkpt lat="45.8979427" lon="9.5056166"><ele>1033.5</ele><time>2026-05-02T14:50:54.66Z</time></trkpt><trkpt lat="45.8977909" lon="9.5056244"><ele>1032.75</ele><time>2026-05-02T14:50:55.699Z</time></trkpt><trkpt lat="45.8976588" lon="9.5056524"><ele>1032.0</ele><time>2026-05-02T14:50:56.637Z</time></trkpt><trkpt lat="45.8975278" lon="9.5057096"><ele>1030.75</ele><time>2026-05-02T14:50:57.617Z</time></trkpt><trkpt lat="45.8974003" lon="9.505786"><ele>1029.5</ele><time>2026-05-02T14:50:58.582Z</time></trkpt><trkpt lat="45.8972817" lon="9.505892"><ele>1028.25</ele><time>2026-05-02T14:50:59.594Z</time></trkpt><trkpt lat="45.8971696" lon="9.5060109"><ele>1027.0</ele><time>2026-05-02T14:51:00.626Z</time></trkpt><trkpt lat="45.8970749" lon="9.5061334"><ele>1037.75</ele><time>2026-05-02T14:51:01.639Z</time></trkpt><trkpt lat="45.8970098" lon="9.5062696"><ele>1048.5</ele><time>2026-05-02T14:51:02.582Z</time></trkpt><trkpt lat="45.8969558" lon="9.5064471"><ele>1059.25</ele><time>2026-05-02T14:51:03.613Z</time></trkpt><trkpt lat="45.8969036" lon="9.506642"><ele>1070.0</ele><time>2026-05-02T14:51:04.63Z</time></trkpt><trkpt lat="45.8968514" lon="9.506834"><ele>1070.0</ele><time>2026-05-02T14:51:05.611Z</time></trkpt><trkpt lat="45.8967928" lon="9.507031"><ele>1070.0</ele><time>2026-05-02T14:51:06.59Z</time></trkpt><trkpt lat="45.8967126" lon="9.5072336"><ele>1070.0</ele><time>2026-05-02T14:51:07.609Z</time></trkpt><trkpt lat="45.8966113" lon="9.5074154"><ele>1073.25</ele><time>2026-05-02T14:51:08.589Z</time></trkpt><trkpt lat="45.8965005" lon="9.5075961"><ele>1076.5</ele><time>2026-05-02T14:51:09.608Z</time></trkpt><trkpt lat="45.8964122" lon="9.5077599"><ele>1079.75</ele><time>2026-05-02T14:51:10.582Z</time></trkpt><trkpt lat="45.8963405" lon="9.5079062"><ele>1083.0</ele><time>2026-05-02T14:51:11.587Z</time></trkpt><trkpt lat="45.8962606" lon="9.5080128"><ele>1083.0</ele><time>2026-05-02T14:51:12.607Z</time></trkpt><trkpt lat="45.8961583" lon="9.508092"><ele>1083.0</ele><time>2026-05-02T14:51:13.647Z</time></trkpt><trkpt lat="45.8960583" lon="9.5081569"><ele>1083.0</ele><time>2026-05-02T14:51:14.591Z</time></trkpt><trkpt lat="45.8959237" lon="9.5082226"><ele>1083.0</ele><time>2026-05-02T14:51:15.643Z</time></trkpt><trkpt lat="45.8957952" lon="9.5082679"><ele>1076.25</ele><time>2026-05-02T14:51:16.619Z</time></trkpt><trkpt lat="45.8956672" lon="9.5083124"><ele>1069.5</ele><time>2026-05-02T14:51:17.656Z</time></trkpt><trkpt lat="45.895562" lon="9.5083549"><ele>1062.75</ele><time>2026-05-02T14:51:18.624Z</time></trkpt><trkpt lat="45.8954622" lon="9.5083806"><ele>1056.0</ele><time>2026-05-02T14:51:19.607Z</time></trkpt><trkpt lat="45.8953483" lon="9.5083655"><ele>1056.0</ele><time>2026-05-02T14:51:20.625Z</time></trkpt><trkpt lat="45.8952406" lon="9.5083573"><ele>1056.0</ele><time>2026-05-02T14:51:21.624Z</time></trkpt><trkpt lat="45.8951403" lon="9.5083802"><ele>1056.0</ele><time>2026-05-02T14:51:22.629Z</time></trkpt><trkpt lat="45.8950391" lon="9.5084469"><ele>1056.0</ele><time>2026-05-02T14:51:23.611Z</time></trkpt><trkpt lat="45.894949" lon="9.5084856"><ele>1056.0</ele><time>2026-05-02T14:51:24.62Z</time></trkpt><trkpt lat="45.8948568" lon="9.5084853"><ele>1053.8</ele><time>2026-05-02T14:51:25.635Z</time></trkpt><trkpt lat="45.8947655" lon="9.5084503"><ele>1051.6</ele><time>2026-05-02T14:51:26.632Z</time></trkpt><trkpt lat="45.8946729" lon="9.5083683"><ele>1049.4</ele><time>2026-05-02T14:51:27.642Z</time></trkpt><trkpt lat="45.8945733" lon="9.5082879"><ele>1047.2</ele><time>2026-05-02T14:51:28.6Z</time></trkpt><trkpt lat="45.8944536" lon="9.5082399"><ele>1045.0</ele><time>2026-05-02T14:51:29.606Z</time></trkpt><trkpt lat="45.8943421" lon="9.508231"><ele>1041.0</ele><time>2026-05-02T14:51:30.637Z</time></trkpt><trkpt lat="45.8942523" lon="9.5082553"><ele>1037.0</ele><time>2026-05-02T14:51:31.636Z</time></trkpt><trkpt lat="45.8941854" lon="9.5083191"><ele>1033.0</ele><time>2026-05-02T14:51:32.607Z</time></trkpt><trkpt lat="45.8941339" lon="9.5084314"><ele>1029.0</ele><time>2026-05-02T14:51:33.634Z</time></trkpt><trkpt lat="45.8940918" lon="9.5085773"><ele>1025.0</ele><time>2026-05-02T14:51:34.622Z</time></trkpt><trkpt lat="45.894033" lon="9.5087409"><ele>1038.0</ele><time>2026-05-02T14:51:35.61Z</time></trkpt><trkpt lat="45.8939567" lon="9.5089164"><ele>1051.0</ele><time>2026-05-02T14:51:36.602Z</time></trkpt><trkpt lat="45.8938764" lon="9.5090995"><ele>1064.0</ele><time>2026-05-02T14:51:37.602Z</time></trkpt><trkpt lat="45.8937861" lon="9.5092971"><ele>1064.0</ele><time>2026-05-02T14:51:38.622Z</time></trkpt><trkpt lat="45.8936938" lon="9.5094968"><ele>1064.0</ele><time>2026-05-02T14:51:39.605Z</time></trkpt><trkpt lat="45.8935987" lon="9.5097027"><ele>1064.0</ele><time>2026-05-02T14:51:40.601Z</time></trkpt><trkpt lat="45.8935119" lon="9.509899"><ele>1058.5</ele><time>2026-05-02T14:51:41.597Z</time></trkpt><trkpt lat="45.893433" lon="9.5101106"><ele>1053.0</ele><time>2026-05-02T14:51:42.72Z</time></trkpt><trkpt lat="45.8933847" lon="9.5102735"><ele>1047.5</ele><time>2026-05-02T14:51:43.597Z</time></trkpt><trkpt lat="45.8933457" lon="9.5104838"><ele>1042.0</ele><time>2026-05-02T14:51:44.64Z</time></trkpt><trkpt lat="45.8933248" lon="9.5107504"><ele>1044.0</ele><time>2026-05-02T14:51:45.748Z</time></trkpt><trkpt lat="45.8933123" lon="9.5112633"><ele>1046.0</ele><time>2026-05-02T14:51:47.675Z</time></trkpt><trkpt lat="45.893301" lon="9.5115402"><ele>1046.0</ele><time>2026-05-02T14:51:48.646Z</time></trkpt><trkpt lat="45.8932842" lon="9.5118153"><ele>1046.0</ele><time>2026-05-02T14:51:49.656Z</time></trkpt><trkpt lat="45.8932677" lon="9.5120755"><ele>1046.0</ele><time>2026-05-02T14:51:50.669Z</time></trkpt><trkpt lat="45.8932506" lon="9.5123004"><ele>1047.5</ele><time>2026-05-02T14:51:51.658Z</time></trkpt><trkpt lat="45.8932322" lon="9.5124993"><ele>1049.0</ele><time>2026-05-02T14:51:52.655Z</time></trkpt><trkpt lat="45.893203" lon="9.5126842"><ele>1050.5</ele><time>2026-05-02T14:51:53.65Z</time></trkpt><trkpt lat="45.8931557" lon="9.5128467"><ele>1052.0</ele><time>2026-05-02T14:51:54.649Z</time></trkpt><trkpt lat="45.8930885" lon="9.5129913"><ele>1055.0</ele><time>2026-05-02T14:51:55.632Z</time></trkpt><trkpt lat="45.8929909" lon="9.5131308"><ele>1058.0</ele><time>2026-05-02T14:51:56.644Z</time></trkpt><trkpt lat="45.8928716" lon="9.513263"><ele>1061.0</ele><time>2026-05-02T14:51:57.654Z</time></trkpt><trkpt lat="45.892758" lon="9.5133822"><ele>1064.0</ele><time>2026-05-02T14:51:58.647Z</time></trkpt><trkpt lat="45.8926563" lon="9.5134955"><ele>1058.25</ele><time>2026-05-02T14:51:59.661Z</time></trkpt><trkpt lat="45.8925751" lon="9.5136148"><ele>1052.5</ele><time>2026-05-02T14:52:00.646Z</time></trkpt><trkpt lat="45.8925087" lon="9.5137538"><ele>1046.75</ele><time>2026-05-02T14:52:01.652Z</time></trkpt><trkpt lat="45.8924525" lon="9.5139229"><ele>1041.0</ele><time>2026-05-02T14:52:02.756Z</time></trkpt><trkpt lat="45.8924094" lon="9.5142286"><ele>1041.0</ele><time>2026-05-02T14:52:04.687Z</time></trkpt><trkpt lat="45.892406" lon="9.5143914"><ele>1041.0</ele><time>2026-05-02T14:52:05.675Z</time></trkpt><trkpt lat="45.8923973" lon="9.514557"><ele>1041.0</ele><time>2026-05-02T14:52:06.732Z</time></trkpt><trkpt lat="45.8923907" lon="9.5147017"><ele>1041.0</ele><time>2026-05-02T14:52:07.661Z</time></trkpt><trkpt lat="45.8923843" lon="9.5148606"><ele>1041.0</ele><time>2026-05-02T14:52:08.696Z</time></trkpt><trkpt lat="45.8923748" lon="9.5150184"><ele>1041.75</ele><time>2026-05-02T14:52:09.672Z</time></trkpt><trkpt lat="45.892365" lon="9.5151878"><ele>1042.5</ele><time>2026-05-02T14:52:10.682Z</time></trkpt><trkpt lat="45.8923611" lon="9.5153664"><ele>1043.25</ele><time>2026-05-02T14:52:11.685Z</time></trkpt><trkpt lat="45.8923654" lon="9.5155495"><ele>1044.0</ele><time>2026-05-02T14:52:12.677Z</time></trkpt><trkpt lat="45.8923814" lon="9.5157557"><ele>1045.3333333333333</ele><time>2026-05-02T14:52:13.682Z</time></trkpt><trkpt lat="45.8924048" lon="9.5159811"><ele>1046.6666666666665</ele><time>2026-05-02T14:52:14.676Z</time></trkpt><trkpt lat="45.8924343" lon="9.5162282"><ele>1048.0</ele><time>2026-05-02T14:52:15.669Z</time></trkpt><trkpt lat="45.8924637" lon="9.5164851"><ele>1048.3333333333333</ele><time>2026-05-02T14:52:16.681Z</time></trkpt><trkpt lat="45.8924879" lon="9.5167153"><ele>1048.6666666666667</ele><time>2026-05-02T14:52:17.682Z</time></trkpt><trkpt lat="45.8925097" lon="9.5169285"><ele>1049.0</ele><time>2026-05-02T14:52:18.69Z</time></trkpt><trkpt lat="45.8925324" lon="9.5171467"><ele>1050.0</ele><time>2026-05-02T14:52:19.788Z</time></trkpt><trkpt lat="45.8925419" lon="9.5174814"><ele>1051.0</ele><time>2026-05-02T14:52:21.661Z</time></trkpt><trkpt lat="45.8925116" lon="9.5176515"><ele>1052.0</ele><time>2026-05-02T14:52:22.672Z</time></trkpt><trkpt lat="45.892453" lon="9.5178422"><ele>1056.0</ele><time>2026-05-02T14:52:23.684Z</time></trkpt><trkpt lat="45.8923843" lon="9.5180396"><ele>1060.0</ele><time>2026-05-02T14:52:24.646Z</time></trkpt><trkpt lat="45.8923111" lon="9.5182565"><ele>1064.0</ele><time>2026-05-02T14:52:25.636Z</time></trkpt><trkpt lat="45.8922353" lon="9.5184666"><ele>1064.0</ele><time>2026-05-02T14:52:26.653Z</time></trkpt><trkpt lat="45.8921602" lon="9.5186763"><ele>1064.0</ele><time>2026-05-02T14:52:27.684Z</time></trkpt><trkpt lat="45.8920882" lon="9.5188694"><ele>1064.0</ele><time>2026-05-02T14:52:28.653Z</time></trkpt><trkpt lat="45.8919974" lon="9.5190716"><ele>1063.75</ele><time>2026-05-02T14:52:29.725Z</time></trkpt><trkpt lat="45.8919295" lon="9.5192423"><ele>1063.5</ele><time>2026-05-02T14:52:30.657Z</time></trkpt><trkpt lat="45.8918623" lon="9.5194349"><ele>1063.25</ele><time>2026-05-02T14:52:31.678Z</time></trkpt><trkpt lat="45.8918051" lon="9.5196284"><ele>1063.0</ele><time>2026-05-02T14:52:32.688Z</time></trkpt><trkpt lat="45.8917514" lon="9.5197948"><ele>1056.75</ele><time>2026-05-02T14:52:33.655Z</time></trkpt><trkpt lat="45.891681" lon="9.5199479"><ele>1050.5</ele><time>2026-05-02T14:52:34.679Z</time></trkpt><trkpt lat="45.8915985" lon="9.5200822"><ele>1044.25</ele><time>2026-05-02T14:52:35.674Z</time></trkpt><trkpt lat="45.8915113" lon="9.5201957"><ele>1038.0</ele><time>2026-05-02T14:52:36.675Z</time></trkpt><trkpt lat="45.8914254" lon="9.5202587"><ele>1038.0</ele><time>2026-05-02T14:52:37.653Z</time></trkpt><trkpt lat="45.8913261" lon="9.5203155"><ele>1038.0</ele><time>2026-05-02T14:52:38.691Z</time></trkpt><trkpt lat="45.8912463" lon="9.520417"><ele>1038.0</ele><time>2026-05-02T14:52:39.679Z</time></trkpt><trkpt lat="45.8911823" lon="9.5205627"><ele>1038.0</ele><time>2026-05-02T14:52:40.67Z</time></trkpt><trkpt lat="45.8911353" lon="9.520728"><ele>1035.0</ele><time>2026-05-02T14:52:41.66Z</time></trkpt><trkpt lat="45.8910768" lon="9.5208954"><ele>1032.0</ele><time>2026-05-02T14:52:42.646Z</time></trkpt><trkpt lat="45.8910227" lon="9.5210785"><ele>1029.0</ele><time>2026-05-02T14:52:43.656Z</time></trkpt><trkpt lat="45.8909704" lon="9.521255"><ele>1026.0</ele><time>2026-05-02T14:52:44.646Z</time></trkpt><trkpt lat="45.890917" lon="9.5214243"><ele>1026.0</ele><time>2026-05-02T14:52:45.662Z</time></trkpt><trkpt lat="45.8908675" lon="9.5215737"><ele>1026.0</ele><time>2026-05-02T14:52:46.646Z</time></trkpt><trkpt lat="45.8908136" lon="9.5217115"><ele>1026.0</ele><time>2026-05-02T14:52:47.668Z</time></trkpt><trkpt lat="45.8907584" lon="9.521812"><ele>1026.0</ele><time>2026-05-02T14:52:48.683Z</time></trkpt><trkpt lat="45.8907203" lon="9.521923"><ele>1026.0</ele><time>2026-05-02T14:52:49.679Z</time></trkpt><trkpt lat="45.8907199" lon="9.5220482"><ele>1023.5</ele><time>2026-05-02T14:52:50.736Z</time></trkpt><trkpt lat="45.8907713" lon="9.5221637"><ele>1021.0</ele><time>2026-05-02T14:52:51.669Z</time></trkpt><trkpt lat="45.890857" lon="9.5222786"><ele>1018.5</ele><time>2026-05-02T14:52:52.675Z</time></trkpt><trkpt lat="45.8909504" lon="9.5223964"><ele>1016.0</ele><time>2026-05-02T14:52:53.662Z</time></trkpt><trkpt lat="45.8910276" lon="9.5225246"><ele>1017.75</ele><time>2026-05-02T14:52:54.66Z</time></trkpt><trkpt lat="45.8910866" lon="9.5226864"><ele>1019.5</ele><time>2026-05-02T14:52:55.668Z</time></trkpt><trkpt lat="45.8911342" lon="9.5228493"><ele>1021.25</ele><time>2026-05-02T14:52:56.649Z</time></trkpt><trkpt lat="45.8911948" lon="9.523005"><ele>1023.0</ele><time>2026-05-02T14:52:57.671Z</time></trkpt><trkpt lat="45.8912836" lon="9.5231476"><ele>1023.0</ele><time>2026-05-02T14:52:58.65Z</time></trkpt><trkpt lat="45.8914163" lon="9.5233037"><ele>1023.0</ele><time>2026-05-02T14:52:59.658Z</time></trkpt><trkpt lat="45.891551" lon="9.5234658"><ele>1023.0</ele><time>2026-05-02T14:53:00.66Z</time></trkpt><trkpt lat="45.8916772" lon="9.5236157"><ele>1024.75</ele><time>2026-05-02T14:53:01.667Z</time></trkpt><trkpt lat="45.8917888" lon="9.5237498"><ele>1026.5</ele><time>2026-05-02T14:53:02.67Z</time></trkpt><trkpt lat="45.8918923" lon="9.5238676"><ele>1028.25</ele><time>2026-05-02T14:53:03.661Z</time></trkpt><trkpt lat="45.8919891" lon="9.5239717"><ele>1030.0</ele><time>2026-05-02T14:53:04.685Z</time></trkpt><trkpt lat="45.8920757" lon="9.5240746"><ele>1030.0</ele><time>2026-05-02T14:53:05.767Z</time></trkpt><trkpt lat="45.8921663" lon="9.5242676"><ele>1030.0</ele><time>2026-05-02T14:53:07.63Z</time></trkpt><trkpt lat="45.8921766" lon="9.5243911"><ele>1030.0</ele><time>2026-05-02T14:53:08.633Z</time></trkpt><trkpt lat="45.892155" lon="9.5245311"><ele>1030.0</ele><time>2026-05-02T14:53:09.653Z</time></trkpt><trkpt lat="45.8921443" lon="9.5246892"><ele>1026.6666666666665</ele><time>2026-05-02T14:53:10.666Z</time></trkpt><trkpt lat="45.8921692" lon="9.5248788"><ele>1023.3333333333333</ele><time>2026-05-02T14:53:11.772Z</time></trkpt><trkpt lat="45.8922561" lon="9.5252151"><ele>1020.0</ele><time>2026-05-02T14:53:13.644Z</time></trkpt><trkpt lat="45.8922803" lon="9.5253862"><ele>1019.2</ele><time>2026-05-02T14:53:14.636Z</time></trkpt><trkpt lat="45.8922855" lon="9.5255566"><ele>1018.4</ele><time>2026-05-02T14:53:15.647Z</time></trkpt><trkpt lat="45.8922622" lon="9.5257034"><ele>1017.5999999999999</ele><time>2026-05-02T14:53:16.642Z</time></trkpt><trkpt lat="45.8922229" lon="9.5258379"><ele>1016.8</ele><time>2026-05-02T14:53:17.65Z</time></trkpt><trkpt lat="45.8921831" lon="9.5259734"><ele>1016.0</ele><time>2026-05-02T14:53:18.679Z</time></trkpt><trkpt lat="45.8921681" lon="9.5261159"><ele>1016.5999999999999</ele><time>2026-05-02T14:53:19.641Z</time></trkpt><trkpt lat="45.8921899" lon="9.526267"><ele>1017.1999999999999</ele><time>2026-05-02T14:53:20.651Z</time></trkpt><trkpt lat="45.8922117" lon="9.5264145"><ele>1017.8000000000001</ele><time>2026-05-02T14:53:21.648Z</time></trkpt><trkpt lat="45.892199" lon="9.5265415"><ele>1018.4000000000001</ele><time>2026-05-02T14:53:22.65Z</time></trkpt><trkpt lat="45.8921494" lon="9.5266463"><ele>1019.0</ele><time>2026-05-02T14:53:23.658Z</time></trkpt><trkpt lat="45.8920833" lon="9.5267284"><ele>1019.0</ele><time>2026-05-02T14:53:24.641Z</time></trkpt><trkpt lat="45.8919936" lon="9.5268064"><ele>1019.0000000000001</ele><time>2026-05-02T14:53:25.639Z</time></trkpt><trkpt lat="45.8919031" lon="9.5269049"><ele>1019.0000000000001</ele><time>2026-05-02T14:53:26.654Z</time></trkpt><trkpt lat="45.8918188" lon="9.5270235"><ele>1019.0</ele><time>2026-05-02T14:53:27.639Z</time></trkpt><trkpt lat="45.8917547" lon="9.5271419"><ele>1019.0</ele><time>2026-05-02T14:53:28.662Z</time></trkpt><trkpt lat="45.8917209" lon="9.5273009"><ele>1011.25</ele><time>2026-05-02T14:53:29.64Z</time></trkpt><trkpt lat="45.8917183" lon="9.5274823"><ele>1003.5</ele><time>2026-05-02T14:53:30.623Z</time></trkpt><trkpt lat="45.8917111" lon="9.52769"><ele>995.75</ele><time>2026-05-02T14:53:31.642Z</time></trkpt><trkpt lat="45.8916733" lon="9.5278923"><ele>988.0</ele><time>2026-05-02T14:53:32.633Z</time></trkpt><trkpt lat="45.8916124" lon="9.5281106"><ele>988.0</ele><time>2026-05-02T14:53:33.641Z</time></trkpt><trkpt lat="45.8915388" lon="9.5283152"><ele>988.0</ele><time>2026-05-02T14:53:34.665Z</time></trkpt><trkpt lat="45.8914621" lon="9.5285033"><ele>988.0</ele><time>2026-05-02T14:53:35.621Z</time></trkpt><trkpt lat="45.8913805" lon="9.5287027"><ele>995.3333333333333</ele><time>2026-05-02T14:53:36.65Z</time></trkpt><trkpt lat="45.891301" lon="9.528901"><ele>1002.6666666666667</ele><time>2026-05-02T14:53:37.649Z</time></trkpt><trkpt lat="45.8912194" lon="9.5290919"><ele>1010.0</ele><time>2026-05-02T14:53:38.628Z</time></trkpt><trkpt lat="45.8911302" lon="9.5292936"><ele>1010.0</ele><time>2026-05-02T14:53:39.667Z</time></trkpt><trkpt lat="45.8910475" lon="9.5294865"><ele>1010.0</ele><time>2026-05-02T14:53:40.644Z</time></trkpt><trkpt lat="45.8909477" lon="9.5297117"><ele>1010.0</ele><time>2026-05-02T14:53:41.786Z</time></trkpt><trkpt lat="45.8908059" lon="9.53006"><ele>1001.0</ele><time>2026-05-02T14:53:43.648Z</time></trkpt><trkpt lat="45.8907341" lon="9.5302229"><ele>992.0</ele><time>2026-05-02T14:53:44.674Z</time></trkpt><trkpt lat="45.8906758" lon="9.5303555"><ele>983.0</ele><time>2026-05-02T14:53:45.678Z</time></trkpt><trkpt lat="45.890632" lon="9.5304801"><ele>974.0</ele><time>2026-05-02T14:53:46.658Z</time></trkpt><trkpt lat="45.8906056" lon="9.5305992"><ele>965.0</ele><time>2026-05-02T14:53:47.665Z</time></trkpt><trkpt lat="45.8906094" lon="9.5307128"><ele>963.75</ele><time>2026-05-02T14:53:48.687Z</time></trkpt><trkpt lat="45.8906558" lon="9.5308297"><ele>962.5</ele><time>2026-05-02T14:53:49.672Z</time></trkpt><trkpt lat="45.8907315" lon="9.5309823"><ele>961.25</ele><time>2026-05-02T14:53:50.746Z</time></trkpt><trkpt lat="45.8908388" lon="9.5311176"><ele>960.0</ele><time>2026-05-02T14:53:51.701Z</time></trkpt><trkpt lat="45.8909427" lon="9.5312637"><ele>964.0</ele><time>2026-05-02T14:53:52.653Z</time></trkpt><trkpt lat="45.8910502" lon="9.5314059"><ele>968.0</ele><time>2026-05-02T14:53:53.684Z</time></trkpt><trkpt lat="45.891152" lon="9.5315268"><ele>972.0</ele><time>2026-05-02T14:53:54.67Z</time></trkpt><trkpt lat="45.8912398" lon="9.5316201"><ele>976.0</ele><time>2026-05-02T14:53:55.658Z</time></trkpt><trkpt lat="45.8913265" lon="9.5317173"><ele>976.0</ele><time>2026-05-02T14:53:56.65Z</time></trkpt><trkpt lat="45.8913901" lon="9.5318384"><ele>976.0</ele><time>2026-05-02T14:53:57.677Z</time></trkpt><trkpt lat="45.8914327" lon="9.5319688"><ele>976.0</ele><time>2026-05-02T14:53:58.644Z</time></trkpt><trkpt lat="45.8914831" lon="9.5321198"><ele>976.0</ele><time>2026-05-02T14:53:59.638Z</time></trkpt><trkpt lat="45.8915219" lon="9.5322966"><ele>969.75</ele><time>2026-05-02T14:54:00.667Z</time></trkpt><trkpt lat="45.8915451" lon="9.5324981"><ele>963.5</ele><time>2026-05-02T14:54:01.748Z</time></trkpt><trkpt lat="45.891554" lon="9.5326798"><ele>957.25</ele><time>2026-05-02T14:54:02.675Z</time></trkpt><trkpt lat="45.8915492" lon="9.5328735"><ele>951.0</ele><time>2026-05-02T14:54:03.661Z</time></trkpt><trkpt lat="45.8915442" lon="9.5330436"><ele>947.6666666666666</ele><time>2026-05-02T14:54:04.649Z</time></trkpt><trkpt lat="45.8915389" lon="9.5331767"><ele>944.3333333333333</ele><time>2026-05-02T14:54:05.671Z</time></trkpt><trkpt lat="45.8915519" lon="9.5332933"><ele>941.0</ele><time>2026-05-02T14:54:06.635Z</time></trkpt><trkpt lat="45.8915939" lon="9.5333975"><ele>937.6666666666666</ele><time>2026-05-02T14:54:07.674Z</time></trkpt><trkpt lat="45.8916448" lon="9.5334581"><ele>934.3333333333333</ele><time>2026-05-02T14:54:08.655Z</time></trkpt><trkpt lat="45.8917262" lon="9.5335032"><ele>931.0</ele><time>2026-05-02T14:54:09.652Z</time></trkpt><trkpt lat="45.8918344" lon="9.5335196"><ele>931.0</ele><time>2026-05-02T14:54:10.691Z</time></trkpt><trkpt lat="45.8919626" lon="9.5335025"><ele>931.0</ele><time>2026-05-02T14:54:11.658Z</time></trkpt><trkpt lat="45.8920911" lon="9.5334914"><ele>931.0</ele><time>2026-05-02T14:54:12.67Z</time></trkpt><trkpt lat="45.8922295" lon="9.5334603"><ele>931.0</ele><time>2026-05-02T14:54:13.649Z</time></trkpt><trkpt lat="45.892365" lon="9.5334299"><ele>931.0</ele><time>2026-05-02T14:54:14.642Z</time></trkpt><trkpt lat="45.8924935" lon="9.5334078"><ele>931.0</ele><time>2026-05-02T14:54:15.663Z</time></trkpt><trkpt lat="45.8925964" lon="9.5334057"><ele>931.0</ele><time>2026-05-02T14:54:16.613Z</time></trkpt><trkpt lat="45.8927036" lon="9.5334356"><ele>931.0</ele><time>2026-05-02T14:54:17.637Z</time></trkpt><trkpt lat="45.8928171" lon="9.5335039"><ele>932.3333333333333</ele><time>2026-05-02T14:54:18.639Z</time></trkpt><trkpt lat="45.8929459" lon="9.5336031"><ele>933.6666666666667</ele><time>2026-05-02T14:54:19.637Z</time></trkpt><trkpt lat="45.8930872" lon="9.5336861"><ele>935.0</ele><time>2026-05-02T14:54:20.629Z</time></trkpt><trkpt lat="45.8932336" lon="9.5337723"><ele>927.5</ele><time>2026-05-02T14:54:21.662Z</time></trkpt><trkpt lat="45.8933774" lon="9.5338503"><ele>920.0</ele><time>2026-05-02T14:54:22.653Z</time></trkpt><trkpt lat="45.8935161" lon="9.5339237"><ele>912.5</ele><time>2026-05-02T14:54:23.663Z</time></trkpt><trkpt lat="45.8936434" lon="9.5339993"><ele>905.0</ele><time>2026-05-02T14:54:24.636Z</time></trkpt><trkpt lat="45.8937626" lon="9.5340782"><ele>905.0</ele><time>2026-05-02T14:54:25.663Z</time></trkpt><trkpt lat="45.8938701" lon="9.5341514"><ele>905.0</ele><time>2026-05-02T14:54:26.649Z</time></trkpt><trkpt lat="45.8939719" lon="9.5341976"><ele>905.0</ele><time>2026-05-02T14:54:27.627Z</time></trkpt><trkpt lat="45.8940764" lon="9.534185"><ele>905.0</ele><time>2026-05-02T14:54:28.656Z</time></trkpt><trkpt lat="45.8941644" lon="9.5341478"><ele>905.0</ele><time>2026-05-02T14:54:29.663Z</time></trkpt><trkpt lat="45.8942284" lon="9.5341129"><ele>905.0</ele><time>2026-05-02T14:54:30.636Z</time></trkpt><trkpt lat="45.894298" lon="9.534204"><ele>905.0</ele><time>2026-05-02T14:54:32.636Z</time></trkpt><trkpt lat="45.8941986" lon="9.5343236"><ele>905.0</ele><time>2026-05-02T14:54:34.647Z</time></trkpt><trkpt lat="45.8940855" lon="9.5343393"><ele>905.0</ele><time>2026-05-02T14:54:35.668Z</time></trkpt><trkpt lat="45.893952" lon="9.5343181"><ele>905.0</ele><time>2026-05-02T14:54:36.649Z</time></trkpt><trkpt lat="45.8938149" lon="9.5342638"><ele>905.0</ele><time>2026-05-02T14:54:37.645Z</time></trkpt><trkpt lat="45.8936794" lon="9.5342008"><ele>905.0</ele><time>2026-05-02T14:54:38.654Z</time></trkpt><trkpt lat="45.8935298" lon="9.5341662"><ele>905.0</ele><time>2026-05-02T14:54:39.644Z</time></trkpt><trkpt lat="45.8933781" lon="9.5341766"><ele>904.6666666666667</ele><time>2026-05-02T14:54:40.64Z</time></trkpt><trkpt lat="45.8932233" lon="9.5341925"><ele>904.3333333333333</ele><time>2026-05-02T14:54:41.633Z</time></trkpt><trkpt lat="45.8930614" lon="9.5342081"><ele>904.0</ele><time>2026-05-02T14:54:42.666Z</time></trkpt><trkpt lat="45.8929177" lon="9.5342132"><ele>904.0</ele><time>2026-05-02T14:54:43.626Z</time></trkpt><trkpt lat="45.8927751" lon="9.5342223"><ele>904.0</ele><time>2026-05-02T14:54:44.667Z</time></trkpt><trkpt lat="45.8926657" lon="9.5342073"><ele>904.0</ele><time>2026-05-02T14:54:45.638Z</time></trkpt><trkpt lat="45.8925556" lon="9.5341826"><ele>904.0</ele><time>2026-05-02T14:54:46.631Z</time></trkpt><trkpt lat="45.8924604" lon="9.5341461"><ele>904.0</ele><time>2026-05-02T14:54:47.646Z</time></trkpt><trkpt lat="45.8923901" lon="9.5341312"><ele>904.0000000000001</ele><time>2026-05-02T14:54:48.627Z</time></trkpt><trkpt lat="45.89233" lon="9.5342477"><ele>904.0000000000001</ele><time>2026-05-02T14:54:50.645Z</time></trkpt><trkpt lat="45.8924099" lon="9.534361"><ele>904.0</ele><time>2026-05-02T14:54:52.641Z</time></trkpt><trkpt lat="45.8925231" lon="9.5344106"><ele>904.0</ele><time>2026-05-02T14:54:53.656Z</time></trkpt><trkpt lat="45.8926555" lon="9.5344511"><ele>904.0</ele><time>2026-05-02T14:54:54.628Z</time></trkpt><trkpt lat="45.8928045" lon="9.534508"><ele>904.0</ele><time>2026-05-02T14:54:55.625Z</time></trkpt><trkpt lat="45.8929543" lon="9.534568"><ele>904.0</ele><time>2026-05-02T14:54:56.616Z</time></trkpt><trkpt lat="45.8931035" lon="9.5346278"><ele>896.25</ele><time>2026-05-02T14:54:57.621Z</time></trkpt><trkpt lat="45.8932511" lon="9.5346904"><ele>888.5</ele><time>2026-05-02T14:54:58.642Z</time></trkpt><trkpt lat="45.8933876" lon="9.5347523"><ele>880.75</ele><time>2026-05-02T14:54:59.604Z</time></trkpt><trkpt lat="45.8935266" lon="9.5348127"><ele>873.0</ele><time>2026-05-02T14:55:00.623Z</time></trkpt><trkpt lat="45.8936423" lon="9.5348643"><ele>873.0</ele><time>2026-05-02T14:55:01.654Z</time></trkpt><trkpt lat="45.8937373" lon="9.5349376"><ele>873.0</ele><time>2026-05-02T14:55:02.612Z</time></trkpt><trkpt lat="45.8938352" lon="9.5350102"><ele>873.0</ele><time>2026-05-02T14:55:03.671Z</time></trkpt><trkpt lat="45.8939269" lon="9.5350356"><ele>873.0</ele><time>2026-05-02T14:55:04.634Z</time></trkpt><trkpt lat="45.8940247" lon="9.5350368"><ele>873.0</ele><time>2026-05-02T14:55:05.641Z</time></trkpt><trkpt lat="45.8940975" lon="9.5350597"><ele>873.0</ele><time>2026-05-02T14:55:06.613Z</time></trkpt><trkpt lat="45.8941472" lon="9.5351297"><ele>873.0</ele><time>2026-05-02T14:55:07.615Z</time></trkpt><trkpt lat="45.8941612" lon="9.5352221"><ele>873.0</ele><time>2026-05-02T14:55:08.611Z</time></trkpt><trkpt lat="45.894144" lon="9.535337"><ele>873.0</ele><time>2026-05-02T14:55:09.621Z</time></trkpt><trkpt lat="45.8940973" lon="9.5354672"><ele>873.0</ele><time>2026-05-02T14:55:10.599Z</time></trkpt><trkpt lat="45.8940422" lon="9.5355855"><ele>873.0</ele><time>2026-05-02T14:55:11.627Z</time></trkpt><trkpt lat="45.8939736" lon="9.5356638"><ele>872.8</ele><time>2026-05-02T14:55:12.63Z</time></trkpt><trkpt lat="45.8938868" lon="9.5357349"><ele>872.5999999999999</ele><time>2026-05-02T14:55:13.637Z</time></trkpt><trkpt lat="45.8937851" lon="9.5357855"><ele>872.4000000000001</ele><time>2026-05-02T14:55:14.665Z</time></trkpt><trkpt lat="45.8936998" lon="9.5358479"><ele>872.2</ele><time>2026-05-02T14:55:15.639Z</time></trkpt><trkpt lat="45.893617" lon="9.5359588"><ele>872.0</ele><time>2026-05-02T14:55:16.658Z</time></trkpt><trkpt lat="45.8935379" lon="9.5360844"><ele>872.0</ele><time>2026-05-02T14:55:17.652Z</time></trkpt><trkpt lat="45.8934697" lon="9.5362116"><ele>872.0</ele><time>2026-05-02T14:55:18.643Z</time></trkpt><trkpt lat="45.8934082" lon="9.5363081"><ele>872.0</ele><time>2026-05-02T14:55:19.648Z</time></trkpt><trkpt lat="45.8933403" lon="9.5363659"><ele>872.0</ele><time>2026-05-02T14:55:20.61Z</time></trkpt><trkpt lat="45.8932508" lon="9.5363743"><ele>872.0</ele><time>2026-05-02T14:55:21.637Z</time></trkpt><trkpt lat="45.893168" lon="9.5363574"><ele>869.0</ele><time>2026-05-02T14:55:22.608Z</time></trkpt><trkpt lat="45.8930717" lon="9.536322"><ele>866.0</ele><time>2026-05-02T14:55:23.665Z</time></trkpt><trkpt lat="45.892992" lon="9.536312"><ele>863.0</ele><time>2026-05-02T14:55:24.648Z</time></trkpt><trkpt lat="45.8929056" lon="9.5363434"><ele>860.0</ele><time>2026-05-02T14:55:25.645Z</time></trkpt><trkpt lat="45.892813" lon="9.5364107"><ele>857.0</ele><time>2026-05-02T14:55:26.642Z</time></trkpt><trkpt lat="45.8927215" lon="9.5364844"><ele>857.0</ele><time>2026-05-02T14:55:27.635Z</time></trkpt><trkpt lat="45.8926237" lon="9.5365273"><ele>857.0</ele><time>2026-05-02T14:55:28.632Z</time></trkpt><trkpt lat="45.8925199" lon="9.5365692"><ele>857.0</ele><time>2026-05-02T14:55:29.752Z</time></trkpt><trkpt lat="45.8924387" lon="9.5366167"><ele>857.0</ele><time>2026-05-02T14:55:30.716Z</time></trkpt><trkpt lat="45.8923494" lon="9.5366738"><ele>857.0</ele><time>2026-05-02T14:55:31.632Z</time></trkpt><trkpt lat="45.8922586" lon="9.5367675"><ele>858.75</ele><time>2026-05-02T14:55:32.627Z</time></trkpt><trkpt lat="45.8921728" lon="9.5368991"><ele>860.5</ele><time>2026-05-02T14:55:33.623Z</time></trkpt><trkpt lat="45.8920909" lon="9.5370371"><ele>862.25</ele><time>2026-05-02T14:55:34.626Z</time></trkpt><trkpt lat="45.8920084" lon="9.5371665"><ele>864.0</ele><time>2026-05-02T14:55:35.656Z</time></trkpt><trkpt lat="45.8919301" lon="9.5372712"><ele>864.0</ele><time>2026-05-02T14:55:36.613Z</time></trkpt><trkpt lat="45.8918383" lon="9.5373665"><ele>864.0</ele><time>2026-05-02T14:55:37.649Z</time></trkpt><trkpt lat="45.891729" lon="9.537432"><ele>864.0</ele><time>2026-05-02T14:55:38.61Z</time></trkpt><trkpt lat="45.8916178" lon="9.5374865"><ele>864.0</ele><time>2026-05-02T14:55:39.632Z</time></trkpt><trkpt lat="45.8914964" lon="9.53752"><ele>858.4000000000001</ele><time>2026-05-02T14:55:40.619Z</time></trkpt><trkpt lat="45.8913823" lon="9.5375449"><ele>852.8000000000001</ele><time>2026-05-02T14:55:41.631Z</time></trkpt><trkpt lat="45.8912902" lon="9.5375867"><ele>847.2</ele><time>2026-05-02T14:55:42.65Z</time></trkpt><trkpt lat="45.8912242" lon="9.537671"><ele>841.5999999999999</ele><time>2026-05-02T14:55:43.671Z</time></trkpt><trkpt lat="45.8911596" lon="9.5377909"><ele>836.0</ele><time>2026-05-02T14:55:44.677Z</time></trkpt><trkpt lat="45.8910906" lon="9.5379384"><ele>836.0000000000001</ele><time>2026-05-02T14:55:45.695Z</time></trkpt><trkpt lat="45.8910314" lon="9.5380683"><ele>836.0</ele><time>2026-05-02T14:55:46.671Z</time></trkpt><trkpt lat="45.8909703" lon="9.5382054"><ele>836.0</ele><time>2026-05-02T14:55:47.769Z</time></trkpt><trkpt lat="45.8909413" lon="9.5382947"><ele>836.0</ele><time>2026-05-02T14:55:48.671Z</time></trkpt><trkpt lat="45.8909317" lon="9.5383974"><ele>836.0000000000001</ele><time>2026-05-02T14:55:49.691Z</time></trkpt><trkpt lat="45.8909619" lon="9.5384939"><ele>836.0</ele><time>2026-05-02T14:55:50.669Z</time></trkpt><trkpt lat="45.891022" lon="9.538584"><ele>836.0000000000001</ele><time>2026-05-02T14:55:51.676Z</time></trkpt><trkpt lat="45.8910561" lon="9.5386837"><ele>836.0</ele><time>2026-05-02T14:55:52.697Z</time></trkpt><trkpt lat="45.8910559" lon="9.5387947"><ele>836.0</ele><time>2026-05-02T14:55:53.64Z</time></trkpt><trkpt lat="45.8910443" lon="9.5389344"><ele>836.0</ele><time>2026-05-02T14:55:54.659Z</time></trkpt><trkpt lat="45.8910278" lon="9.5390454"><ele>836.0000000000001</ele><time>2026-05-02T14:55:55.664Z</time></trkpt><trkpt lat="45.8910138" lon="9.5391431"><ele>836.0</ele><time>2026-05-02T14:55:56.658Z</time></trkpt><trkpt lat="45.890977" lon="9.5392223"><ele>835.3333333333334</ele><time>2026-05-02T14:55:57.66Z</time></trkpt><trkpt lat="45.8909301" lon="9.5392934"><ele>834.6666666666667</ele><time>2026-05-02T14:55:58.637Z</time></trkpt><trkpt lat="45.8908745" lon="9.539349"><ele>834.0</ele><time>2026-05-02T14:55:59.634Z</time></trkpt><trkpt lat="45.8908168" lon="9.5395371"><ele>833.3333333333333</ele><time>2026-05-02T14:56:01.666Z</time></trkpt><trkpt lat="45.8908139" lon="9.5396617"><ele>832.6666666666666</ele><time>2026-05-02T14:56:02.657Z</time></trkpt><trkpt lat="45.8907922" lon="9.5397714"><ele>832.0</ele><time>2026-05-02T14:56:03.668Z</time></trkpt><trkpt lat="45.8907872" lon="9.5398776"><ele>831.4999999999999</ele><time>2026-05-02T14:56:04.634Z</time></trkpt><trkpt lat="45.8907888" lon="9.5399888"><ele>831.0</ele><time>2026-05-02T14:56:05.666Z</time></trkpt><trkpt lat="45.8908054" lon="9.5401017"><ele>830.5</ele><time>2026-05-02T14:56:06.668Z</time></trkpt><trkpt lat="45.8908555" lon="9.5402098"><ele>830.0</ele><time>2026-05-02T14:56:07.663Z</time></trkpt><trkpt lat="45.890908" lon="9.5403112"><ele>829.4999999999999</ele><time>2026-05-02T14:56:08.637Z</time></trkpt><trkpt lat="45.8909452" lon="9.5404225"><ele>829.0</ele><time>2026-05-02T14:56:09.67Z</time></trkpt><trkpt lat="45.8909794" lon="9.5405317"><ele>828.9999999999999</ele><time>2026-05-02T14:56:10.646Z</time></trkpt><trkpt lat="45.8909903" lon="9.5406473"><ele>829.0</ele><time>2026-05-02T14:56:11.631Z</time></trkpt><trkpt lat="45.890976" lon="9.5407572"><ele>829.0</ele><time>2026-05-02T14:56:13.659Z</time></trkpt><trkpt lat="45.8909721" lon="9.5408572"><ele>829.0</ele><time>2026-05-02T14:56:17.632Z</time></trkpt><trkpt lat="45.8909896" lon="9.5409621"><ele>828.9999999999999</ele><time>2026-05-02T14:56:44.679Z</time></trkpt><trkpt lat="45.8909968" lon="9.5411069"><ele>829.0</ele><time>2026-05-02T14:56:47.666Z</time></trkpt><trkpt lat="45.8909732" lon="9.5412384"><ele>824.8333333333333</ele><time>2026-05-02T14:56:49.666Z</time></trkpt><trkpt lat="45.890909" lon="9.541383"><ele>820.6666666666666</ele><time>2026-05-02T14:56:51.646Z</time></trkpt><trkpt lat="45.8908603" lon="9.5414553"><ele>816.5</ele><time>2026-05-02T14:56:52.648Z</time></trkpt><trkpt lat="45.8908126" lon="9.5415197"><ele>812.3333333333333</ele><time>2026-05-02T14:56:53.643Z</time></trkpt><trkpt lat="45.8907586" lon="9.5415814"><ele>808.1666666666666</ele><time>2026-05-02T14:56:54.665Z</time></trkpt><trkpt lat="45.8906957" lon="9.541631"><ele>804.0</ele><time>2026-05-02T14:56:55.663Z</time></trkpt><trkpt lat="45.89063" lon="9.5416637"><ele>804.0</ele><time>2026-05-02T14:56:56.752Z</time></trkpt><trkpt lat="45.8905104" lon="9.5416941"><ele>804.0</ele><time>2026-05-02T14:56:58.641Z</time></trkpt><trkpt lat="45.890441" lon="9.5417076"><ele>804.0</ele><time>2026-05-02T14:56:59.674Z</time></trkpt><trkpt lat="45.8903077" lon="9.5417354"><ele>804.0</ele><time>2026-05-02T14:57:01.785Z</time></trkpt><trkpt lat="45.8901868" lon="9.5417607"><ele>804.0</ele><time>2026-05-02T14:57:03.657Z</time></trkpt><trkpt lat="45.8901225" lon="9.5417772"><ele>802.4285714285714</ele><time>2026-05-02T14:57:04.644Z</time></trkpt><trkpt lat="45.8900591" lon="9.5418061"><ele>800.8571428571429</ele><time>2026-05-02T14:57:05.657Z</time></trkpt><trkpt lat="45.8900024" lon="9.5418526"><ele>799.2857142857143</ele><time>2026-05-02T14:57:06.667Z</time></trkpt><trkpt lat="45.889959" lon="9.5419197"><ele>797.7142857142858</ele><time>2026-05-02T14:57:07.665Z</time></trkpt><trkpt lat="45.8899246" lon="9.5419986"><ele>796.1428571428571</ele><time>2026-05-02T14:57:08.666Z</time></trkpt><trkpt lat="45.889892" lon="9.5420861"><ele>794.5714285714287</ele><time>2026-05-02T14:57:09.73Z</time></trkpt><trkpt lat="45.8898589" lon="9.5421667"><ele>793.0</ele><time>2026-05-02T14:57:10.649Z</time></trkpt><trkpt lat="45.8898227" lon="9.542271"><ele>792.9999999999999</ele><time>2026-05-02T14:57:11.66Z</time></trkpt><trkpt lat="45.8897768" lon="9.5423658"><ele>793.0</ele><time>2026-05-02T14:57:12.691Z</time></trkpt><trkpt lat="45.8897225" lon="9.5424348"><ele>793.0</ele><time>2026-05-02T14:57:13.664Z</time></trkpt><trkpt lat="45.889661" lon="9.5424967"><ele>793.0</ele><time>2026-05-02T14:57:14.672Z</time></trkpt><trkpt lat="45.8895968" lon="9.5425546"><ele>792.9999999999999</ele><time>2026-05-02T14:57:15.669Z</time></trkpt><trkpt lat="45.8895279" lon="9.5426324"><ele>793.0</ele><time>2026-05-02T14:57:16.686Z</time></trkpt><trkpt lat="45.8894416" lon="9.5427371"><ele>793.0</ele><time>2026-05-02T14:57:17.659Z</time></trkpt><trkpt lat="45.8893442" lon="9.5428553"><ele>793.0</ele><time>2026-05-02T14:57:18.679Z</time></trkpt><trkpt lat="45.889249" lon="9.5429834"><ele>793.0</ele><time>2026-05-02T14:57:19.665Z</time></trkpt><trkpt lat="45.889152" lon="9.5431229"><ele>793.0</ele><time>2026-05-02T14:57:20.673Z</time></trkpt><trkpt lat="45.8890432" lon="9.5432577"><ele>790.3333333333333</ele><time>2026-05-02T14:57:21.677Z</time></trkpt><trkpt lat="45.8889327" lon="9.5434038"><ele>787.6666666666667</ele><time>2026-05-02T14:57:22.667Z</time></trkpt><trkpt lat="45.8888001" lon="9.5435777"><ele>785.0</ele><time>2026-05-02T14:57:23.649Z</time></trkpt><trkpt lat="45.8886322" lon="9.5437804"><ele>780.0</ele><time>2026-05-02T14:57:24.763Z</time></trkpt><trkpt lat="45.8883751" lon="9.5440803"><ele>775.0</ele><time>2026-05-02T14:57:26.656Z</time></trkpt><trkpt lat="45.8882541" lon="9.5442292"><ele>775.0</ele><time>2026-05-02T14:57:27.639Z</time></trkpt><trkpt lat="45.8881457" lon="9.544377"><ele>775.0</ele><time>2026-05-02T14:57:28.661Z</time></trkpt><trkpt lat="45.8880458" lon="9.5445292"><ele>775.0</ele><time>2026-05-02T14:57:29.704Z</time></trkpt><trkpt lat="45.8879585" lon="9.5446883"><ele>775.0</ele><time>2026-05-02T14:57:30.692Z</time></trkpt><trkpt lat="45.8878738" lon="9.5448583"><ele>777.75</ele><time>2026-05-02T14:57:31.705Z</time></trkpt><trkpt lat="45.8877857" lon="9.5450342"><ele>780.5</ele><time>2026-05-02T14:57:32.694Z</time></trkpt><trkpt lat="45.8877139" lon="9.5451894"><ele>783.25</ele><time>2026-05-02T14:57:33.703Z</time></trkpt><trkpt lat="45.8876636" lon="9.5453266"><ele>786.0</ele><time>2026-05-02T14:57:34.713Z</time></trkpt><trkpt lat="45.8876305" lon="9.5454645"><ele>787.5</ele><time>2026-05-02T14:57:35.697Z</time></trkpt><trkpt lat="45.8876195" lon="9.5456395"><ele>789.0</ele><time>2026-05-02T14:57:36.735Z</time></trkpt><trkpt lat="45.8876164" lon="9.5458361"><ele>790.5</ele><time>2026-05-02T14:57:37.708Z</time></trkpt><trkpt lat="45.8876123" lon="9.5460232"><ele>792.0</ele><time>2026-05-02T14:57:38.733Z</time></trkpt><trkpt lat="45.8876149" lon="9.5461896"><ele>791.4000000000001</ele><time>2026-05-02T14:57:39.689Z</time></trkpt><trkpt lat="45.8876219" lon="9.5463562"><ele>790.8000000000001</ele><time>2026-05-02T14:57:40.691Z</time></trkpt><trkpt lat="45.8876371" lon="9.54647"><ele>790.2</ele><time>2026-05-02T14:57:41.722Z</time></trkpt><trkpt lat="45.8876814" lon="9.5465492"><ele>789.6</ele><time>2026-05-02T14:57:42.73Z</time></trkpt><trkpt lat="45.8877526" lon="9.5466363"><ele>789.0</ele><time>2026-05-02T14:57:43.825Z</time></trkpt><trkpt lat="45.8878904" lon="9.5468293"><ele>789.0</ele><time>2026-05-02T14:57:45.718Z</time></trkpt><trkpt lat="45.8879597" lon="9.5469519"><ele>789.0</ele><time>2026-05-02T14:57:46.729Z</time></trkpt><trkpt lat="45.888012" lon="9.5470875"><ele>789.0</ele><time>2026-05-02T14:57:47.701Z</time></trkpt><trkpt lat="45.8880704" lon="9.5472447"><ele>789.0</ele><time>2026-05-02T14:57:48.796Z</time></trkpt><trkpt lat="45.8881956" lon="9.5474853"><ele>791.0</ele><time>2026-05-02T14:57:50.689Z</time></trkpt><trkpt lat="45.8882663" lon="9.5476392"><ele>793.0</ele><time>2026-05-02T14:57:51.7Z</time></trkpt><trkpt lat="45.8883345" lon="9.5477973"><ele>795.0</ele><time>2026-05-02T14:57:52.695Z</time></trkpt><trkpt lat="45.8884008" lon="9.5479726"><ele>797.0</ele><time>2026-05-02T14:57:53.697Z</time></trkpt><trkpt lat="45.8884723" lon="9.5481494"><ele>797.0</ele><time>2026-05-02T14:57:54.699Z</time></trkpt><trkpt lat="45.8885342" lon="9.5483183"><ele>797.0</ele><time>2026-05-02T14:57:55.68Z</time></trkpt><trkpt lat="45.8885976" lon="9.548473"><ele>797.0</ele><time>2026-05-02T14:57:56.675Z</time></trkpt><trkpt lat="45.8886354" lon="9.5486033"><ele>797.0</ele><time>2026-05-02T14:57:57.676Z</time></trkpt><trkpt lat="45.8886464" lon="9.5487357"><ele>797.0</ele><time>2026-05-02T14:57:58.675Z</time></trkpt><trkpt lat="45.888628" lon="9.5488804"><ele>799.25</ele><time>2026-05-02T14:57:59.67Z</time></trkpt><trkpt lat="45.8885887" lon="9.5490295"><ele>801.5</ele><time>2026-05-02T14:58:00.675Z</time></trkpt><trkpt lat="45.888554" lon="9.5491955"><ele>803.75</ele><time>2026-05-02T14:58:01.69Z</time></trkpt><trkpt lat="45.8885198" lon="9.5493659"><ele>806.0</ele><time>2026-05-02T14:58:02.71Z</time></trkpt><trkpt lat="45.888487" lon="9.5495313"><ele>803.5999999999999</ele><time>2026-05-02T14:58:03.67Z</time></trkpt><trkpt lat="45.8884504" lon="9.5496972"><ele>801.2</ele><time>2026-05-02T14:58:04.692Z</time></trkpt><trkpt lat="45.8884131" lon="9.5498386"><ele>798.8</ele><time>2026-05-02T14:58:05.675Z</time></trkpt><trkpt lat="45.8883899" lon="9.5499607"><ele>796.4000000000001</ele><time>2026-05-02T14:58:06.664Z</time></trkpt><trkpt lat="45.8883882" lon="9.5500809"><ele>794.0</ele><time>2026-05-02T14:58:07.692Z</time></trkpt><trkpt lat="45.8884183" lon="9.550178"><ele>794.0</ele><time>2026-05-02T14:58:08.696Z</time></trkpt><trkpt lat="45.8884777" lon="9.5502461"><ele>794.0</ele><time>2026-05-02T14:58:09.704Z</time></trkpt><trkpt lat="45.8885567" lon="9.5502879"><ele>794.0</ele><time>2026-05-02T14:58:10.69Z</time></trkpt><trkpt lat="45.8886592" lon="9.5503023"><ele>794.0</ele><time>2026-05-02T14:58:11.676Z</time></trkpt><trkpt lat="45.8887884" lon="9.5503021"><ele>794.0</ele><time>2026-05-02T14:58:12.667Z</time></trkpt><trkpt lat="45.8889327" lon="9.550321"><ele>794.0</ele><time>2026-05-02T14:58:13.671Z</time></trkpt><trkpt lat="45.8890847" lon="9.5503646"><ele>794.0</ele><time>2026-05-02T14:58:14.686Z</time></trkpt><trkpt lat="45.8892217" lon="9.5504116"><ele>794.0</ele><time>2026-05-02T14:58:15.655Z</time></trkpt><trkpt lat="45.8893469" lon="9.5504517"><ele>794.0</ele><time>2026-05-02T14:58:16.698Z</time></trkpt><trkpt lat="45.88944" lon="9.5504911"><ele>791.8000000000001</ele><time>2026-05-02T14:58:17.682Z</time></trkpt><trkpt lat="45.8895091" lon="9.550552"><ele>789.6</ele><time>2026-05-02T14:58:18.655Z</time></trkpt><trkpt lat="45.8895739" lon="9.5506393"><ele>787.4</ele><time>2026-05-02T14:58:19.706Z</time></trkpt><trkpt lat="45.8896271" lon="9.550787"><ele>785.2</ele><time>2026-05-02T14:58:20.782Z</time></trkpt><trkpt lat="45.889671" lon="9.5509234"><ele>783.0</ele><time>2026-05-02T14:58:21.688Z</time></trkpt><trkpt lat="45.8896999" lon="9.5510863"><ele>782.25</ele><time>2026-05-02T14:58:22.695Z</time></trkpt><trkpt lat="45.8897098" lon="9.5512551"><ele>781.5</ele><time>2026-05-02T14:58:23.671Z</time></trkpt><trkpt lat="45.889706" lon="9.5514349"><ele>780.75</ele><time>2026-05-02T14:58:24.677Z</time></trkpt><trkpt lat="45.8896862" lon="9.5515995"><ele>780.0</ele><time>2026-05-02T14:58:25.682Z</time></trkpt><trkpt lat="45.8896462" lon="9.5517347"><ele>780.0</ele><time>2026-05-02T14:58:26.659Z</time></trkpt><trkpt lat="45.8895812" lon="9.5518529"><ele>780.0</ele><time>2026-05-02T14:58:27.687Z</time></trkpt><trkpt lat="45.8895118" lon="9.5519685"><ele>780.0</ele><time>2026-05-02T14:58:28.676Z</time></trkpt><trkpt lat="45.8894639" lon="9.5521037"><ele>780.0</ele><time>2026-05-02T14:58:29.682Z</time></trkpt><trkpt lat="45.8894361" lon="9.5522603"><ele>780.0</ele><time>2026-05-02T14:58:30.663Z</time></trkpt><trkpt lat="45.8894295" lon="9.5524259"><ele>781.0</ele><time>2026-05-02T14:58:31.698Z</time></trkpt><trkpt lat="45.8894511" lon="9.5525964"><ele>782.0</ele><time>2026-05-02T14:58:32.702Z</time></trkpt><trkpt lat="45.8894862" lon="9.5527669"><ele>783.0</ele><time>2026-05-02T14:58:33.689Z</time></trkpt><trkpt lat="45.8895248" lon="9.5529496"><ele>784.0</ele><time>2026-05-02T14:58:34.703Z</time></trkpt><trkpt lat="45.8895636" lon="9.5531354"><ele>781.5</ele><time>2026-05-02T14:58:35.727Z</time></trkpt><trkpt lat="45.8895997" lon="9.5533126"><ele>779.0</ele><time>2026-05-02T14:58:36.68Z</time></trkpt><trkpt lat="45.88964" lon="9.5534989"><ele>776.5</ele><time>2026-05-02T14:58:37.701Z</time></trkpt><trkpt lat="45.8896745" lon="9.5536699"><ele>774.0</ele><time>2026-05-02T14:58:38.672Z</time></trkpt><trkpt lat="45.8897061" lon="9.5538393"><ele>772.6666666666666</ele><time>2026-05-02T14:58:39.676Z</time></trkpt><trkpt lat="45.889725" lon="9.5539921"><ele>771.3333333333334</ele><time>2026-05-02T14:58:40.679Z</time></trkpt><trkpt lat="45.8897259" lon="9.5541382"><ele>770.0</ele><time>2026-05-02T14:58:41.68Z</time></trkpt><trkpt lat="45.8897154" lon="9.5542679"><ele>768.6666666666667</ele><time>2026-05-02T14:58:42.683Z</time></trkpt><trkpt lat="45.8897234" lon="9.5543713"><ele>767.3333333333334</ele><time>2026-05-02T14:58:43.669Z</time></trkpt><trkpt lat="45.8897644" lon="9.5544608"><ele>766.0</ele><time>2026-05-02T14:58:44.661Z</time></trkpt><trkpt lat="45.889837" lon="9.5545119"><ele>766.0</ele><time>2026-05-02T14:58:45.686Z</time></trkpt><trkpt lat="45.8899217" lon="9.5545221"><ele>766.0</ele><time>2026-05-02T14:58:46.641Z</time></trkpt><trkpt lat="45.8900045" lon="9.5545332"><ele>766.0</ele><time>2026-05-02T14:58:47.667Z</time></trkpt><trkpt lat="45.8900912" lon="9.5546194"><ele>766.0</ele><time>2026-05-02T14:58:49.662Z</time></trkpt><trkpt lat="45.8900993" lon="9.5547198"><ele>766.0</ele><time>2026-05-02T14:58:50.657Z</time></trkpt><trkpt lat="45.8900827" lon="9.5548353"><ele>766.0</ele><time>2026-05-02T14:58:51.673Z</time></trkpt><trkpt lat="45.8900357" lon="9.5549414"><ele>766.3333333333334</ele><time>2026-05-02T14:58:52.66Z</time></trkpt><trkpt lat="45.889969" lon="9.555049"><ele>766.6666666666667</ele><time>2026-05-02T14:58:53.673Z</time></trkpt><trkpt lat="45.8899156" lon="9.5551532"><ele>767.0</ele><time>2026-05-02T14:58:54.678Z</time></trkpt><trkpt lat="45.8898805" lon="9.555248"><ele>767.3333333333334</ele><time>2026-05-02T14:58:55.685Z</time></trkpt><trkpt lat="45.8898796" lon="9.5553756"><ele>767.6666666666666</ele><time>2026-05-02T14:58:56.728Z</time></trkpt><trkpt lat="45.8899034" lon="9.5555021"><ele>768.0</ele><time>2026-05-02T14:58:57.686Z</time></trkpt><trkpt lat="45.8899015" lon="9.55561"><ele>770.4</ele><time>2026-05-02T14:58:58.68Z</time></trkpt><trkpt lat="45.8898786" lon="9.5557112"><ele>772.8</ele><time>2026-05-02T14:58:59.662Z</time></trkpt><trkpt lat="45.8898087" lon="9.5557937"><ele>775.2</ele><time>2026-05-02T14:59:00.676Z</time></trkpt><trkpt lat="45.8897153" lon="9.5558525"><ele>777.6</ele><time>2026-05-02T14:59:01.7Z</time></trkpt><trkpt lat="45.8896199" lon="9.5559039"><ele>780.0</ele><time>2026-05-02T14:59:02.69Z</time></trkpt><trkpt lat="45.8895367" lon="9.5559578"><ele>780.0</ele><time>2026-05-02T14:59:03.671Z</time></trkpt><trkpt lat="45.8894525" lon="9.5560152"><ele>780.0</ele><time>2026-05-02T14:59:04.666Z</time></trkpt><trkpt lat="45.8893665" lon="9.5560735"><ele>780.0</ele><time>2026-05-02T14:59:05.677Z</time></trkpt><trkpt lat="45.8892857" lon="9.5561285"><ele>780.0</ele><time>2026-05-02T14:59:06.693Z</time></trkpt><trkpt lat="45.8891893" lon="9.5561946"><ele>780.0</ele><time>2026-05-02T14:59:07.872Z</time></trkpt><trkpt lat="45.8890478" lon="9.5562964"><ele>779.0</ele><time>2026-05-02T14:59:09.703Z</time></trkpt><trkpt lat="45.8889869" lon="9.5563796"><ele>778.0</ele><time>2026-05-02T14:59:10.667Z</time></trkpt><trkpt lat="45.8889347" lon="9.5564904"><ele>777.0</ele><time>2026-05-02T14:59:11.658Z</time></trkpt><trkpt lat="45.8888888" lon="9.5566062"><ele>776.0</ele><time>2026-05-02T14:59:12.664Z</time></trkpt><trkpt lat="45.8888401" lon="9.5567145"><ele>775.0</ele><time>2026-05-02T14:59:13.674Z</time></trkpt><trkpt lat="45.8887861" lon="9.556817"><ele>774.0</ele><time>2026-05-02T14:59:14.679Z</time></trkpt><trkpt lat="45.8887235" lon="9.5569189"><ele>774.0</ele><time>2026-05-02T14:59:15.709Z</time></trkpt><trkpt lat="45.8886631" lon="9.5570173"><ele>774.0</ele><time>2026-05-02T14:59:16.68Z</time></trkpt><trkpt lat="45.8886048" lon="9.5571172"><ele>774.0</ele><time>2026-05-02T14:59:17.674Z</time></trkpt><trkpt lat="45.8885518" lon="9.557214"><ele>774.0</ele><time>2026-05-02T14:59:18.665Z</time></trkpt><trkpt lat="45.8885036" lon="9.5573056"><ele>774.0</ele><time>2026-05-02T14:59:19.664Z</time></trkpt><trkpt lat="45.8884588" lon="9.557393"><ele>774.0</ele><time>2026-05-02T14:59:20.656Z</time></trkpt><trkpt lat="45.8884157" lon="9.5574775"><ele>775.25</ele><time>2026-05-02T14:59:21.671Z</time></trkpt><trkpt lat="45.8883353" lon="9.5576063"><ele>776.5</ele><time>2026-05-02T14:59:23.66Z</time></trkpt><trkpt lat="45.888274" lon="9.5576994"><ele>777.75</ele><time>2026-05-02T14:59:26.799Z</time></trkpt><trkpt lat="45.8881988" lon="9.5578674"><ele>779.0</ele><time>2026-05-02T14:59:28.672Z</time></trkpt><trkpt lat="45.888143" lon="9.5579929"><ele>779.0</ele><time>2026-05-02T14:59:29.683Z</time></trkpt><trkpt lat="45.8880774" lon="9.5580977"><ele>779.0</ele><time>2026-05-02T14:59:30.679Z</time></trkpt><trkpt lat="45.8879938" lon="9.5582005"><ele>779.0</ele><time>2026-05-02T14:59:31.673Z</time></trkpt><trkpt lat="45.8879078" lon="9.5582961"><ele>779.0</ele><time>2026-05-02T14:59:32.658Z</time></trkpt><trkpt lat="45.8878187" lon="9.5583808"><ele>779.0</ele><time>2026-05-02T14:59:33.686Z</time></trkpt><trkpt lat="45.8877382" lon="9.5584505"><ele>779.0000000000001</ele><time>2026-05-02T14:59:34.678Z</time></trkpt><trkpt lat="45.8876658" lon="9.5585206"><ele>779.0</ele><time>2026-05-02T14:59:35.709Z</time></trkpt><trkpt lat="45.8876136" lon="9.5586003"><ele>779.0</ele><time>2026-05-02T14:59:36.672Z</time></trkpt><trkpt lat="45.8875721" lon="9.5586964"><ele>779.0</ele><time>2026-05-02T14:59:37.694Z</time></trkpt><trkpt lat="45.8875352" lon="9.5587905"><ele>779.0</ele><time>2026-05-02T14:59:38.673Z</time></trkpt><trkpt lat="45.8875057" lon="9.5588778"><ele>779.0000000000001</ele><time>2026-05-02T14:59:39.686Z</time></trkpt><trkpt lat="45.8874692" lon="9.5589517"><ele>779.0</ele><time>2026-05-02T14:59:40.662Z</time></trkpt><trkpt lat="45.8874334" lon="9.559037"><ele>778.0000000000001</ele><time>2026-05-02T14:59:41.674Z</time></trkpt><trkpt lat="45.8873833" lon="9.559142"><ele>777.0</ele><time>2026-05-02T14:59:42.772Z</time></trkpt><trkpt lat="45.8873314" lon="9.5592319"><ele>776.0</ele><time>2026-05-02T14:59:43.663Z</time></trkpt><trkpt lat="45.8872821" lon="9.5593196"><ele>775.0</ele><time>2026-05-02T14:59:44.629Z</time></trkpt><trkpt lat="45.8872263" lon="9.5594214"><ele>774.0000000000001</ele><time>2026-05-02T14:59:45.696Z</time></trkpt><trkpt lat="45.8871797" lon="9.5595264"><ele>773.0</ele><time>2026-05-02T14:59:46.687Z</time></trkpt><trkpt lat="45.8871175" lon="9.5596283"><ele>775.0000000000001</ele><time>2026-05-02T14:59:47.702Z</time></trkpt><trkpt lat="45.8870515" lon="9.5597163"><ele>777.0</ele><time>2026-05-02T14:59:48.687Z</time></trkpt><trkpt lat="45.886984" lon="9.5598109"><ele>779.0</ele><time>2026-05-02T14:59:49.676Z</time></trkpt><trkpt lat="45.8869251" lon="9.5599077"><ele>781.0</ele><time>2026-05-02T14:59:50.666Z</time></trkpt><trkpt lat="45.8868771" lon="9.5599964"><ele>783.0000000000001</ele><time>2026-05-02T14:59:51.684Z</time></trkpt><trkpt lat="45.8868464" lon="9.5600862"><ele>785.0</ele><time>2026-05-02T14:59:52.688Z</time></trkpt><trkpt lat="45.8868291" lon="9.5601743"><ele>785.0</ele><time>2026-05-02T14:59:53.679Z</time></trkpt><trkpt lat="45.8868147" lon="9.5603523"><ele>785.0</ele><time>2026-05-02T14:59:55.662Z</time></trkpt><trkpt lat="45.8868118" lon="9.5604496"><ele>785.0</ele><time>2026-05-02T14:59:56.637Z</time></trkpt><trkpt lat="45.8867913" lon="9.5605391"><ele>785.0</ele><time>2026-05-02T14:59:57.658Z</time></trkpt><trkpt lat="45.8867015" lon="9.5606722"><ele>785.0</ele><time>2026-05-02T14:59:59.644Z</time></trkpt><trkpt lat="45.8866331" lon="9.560745"><ele>784.4</ele><time>2026-05-02T15:00:00.666Z</time></trkpt><trkpt lat="45.886559" lon="9.5607979"><ele>783.8</ele><time>2026-05-02T15:00:01.641Z</time></trkpt><trkpt lat="45.8864905" lon="9.5608753"><ele>783.2</ele><time>2026-05-02T15:00:02.655Z</time></trkpt><trkpt lat="45.8864113" lon="9.5609534"><ele>782.6</ele><time>2026-05-02T15:00:03.64Z</time></trkpt><trkpt lat="45.8863245" lon="9.5610575"><ele>782.0</ele><time>2026-05-02T15:00:04.801Z</time></trkpt><trkpt lat="45.8862364" lon="9.5612678"><ele>786.2</ele><time>2026-05-02T15:00:06.664Z</time></trkpt><trkpt lat="45.8862121" lon="9.5614056"><ele>790.4000000000001</ele><time>2026-05-02T15:00:07.685Z</time></trkpt><trkpt lat="45.8862111" lon="9.5615682"><ele>794.5999999999999</ele><time>2026-05-02T15:00:08.681Z</time></trkpt><trkpt lat="45.886218" lon="9.5617281"><ele>798.8</ele><time>2026-05-02T15:00:09.671Z</time></trkpt><trkpt lat="45.8862109" lon="9.5618778"><ele>803.0</ele><time>2026-05-02T15:00:10.657Z</time></trkpt><trkpt lat="45.8861813" lon="9.5620262"><ele>804.8333333333334</ele><time>2026-05-02T15:00:11.671Z</time></trkpt><trkpt lat="45.8861486" lon="9.5621403"><ele>806.6666666666667</ele><time>2026-05-02T15:00:12.695Z</time></trkpt><trkpt lat="45.8861234" lon="9.5622463"><ele>808.5</ele><time>2026-05-02T15:00:13.685Z</time></trkpt><trkpt lat="45.8861065" lon="9.5623486"><ele>810.3333333333333</ele><time>2026-05-02T15:00:14.675Z</time></trkpt><trkpt lat="45.8861297" lon="9.5624607"><ele>812.1666666666666</ele><time>2026-05-02T15:00:15.664Z</time></trkpt><trkpt lat="45.8861807" lon="9.5625903"><ele>814.0</ele><time>2026-05-02T15:00:16.669Z</time></trkpt><trkpt lat="45.8862218" lon="9.5627495"><ele>814.75</ele><time>2026-05-02T15:00:17.681Z</time></trkpt><trkpt lat="45.8862453" lon="9.5629326"><ele>815.5</ele><time>2026-05-02T15:00:18.684Z</time></trkpt><trkpt lat="45.8862501" lon="9.5631098"><ele>816.25</ele><time>2026-05-02T15:00:19.656Z</time></trkpt><trkpt lat="45.8862457" lon="9.5632802"><ele>817.0</ele><time>2026-05-02T15:00:20.654Z</time></trkpt><trkpt lat="45.8862548" lon="9.563449"><ele>817.0</ele><time>2026-05-02T15:00:21.657Z</time></trkpt><trkpt lat="45.8862711" lon="9.563615"><ele>817.0</ele><time>2026-05-02T15:00:22.663Z</time></trkpt><trkpt lat="45.8862602" lon="9.5637586"><ele>817.0</ele><time>2026-05-02T15:00:23.682Z</time></trkpt><trkpt lat="45.8862115" lon="9.5638907"><ele>817.0</ele><time>2026-05-02T15:00:24.662Z</time></trkpt><trkpt lat="45.8861324" lon="9.5640144"><ele>817.0</ele><time>2026-05-02T15:00:25.659Z</time></trkpt><trkpt lat="45.8860404" lon="9.5641366"><ele>817.0</ele><time>2026-05-02T15:00:26.661Z</time></trkpt><trkpt lat="45.885938" lon="9.5642579"><ele>817.0</ele><time>2026-05-02T15:00:27.653Z</time></trkpt><trkpt lat="45.8858331" lon="9.5643809"><ele>817.0</ele><time>2026-05-02T15:00:28.68Z</time></trkpt><trkpt lat="45.885747" lon="9.564509"><ele>817.0</ele><time>2026-05-02T15:00:29.668Z</time></trkpt><trkpt lat="45.8856787" lon="9.5646582"><ele>814.5</ele><time>2026-05-02T15:00:30.683Z</time></trkpt><trkpt lat="45.8856233" lon="9.5648201"><ele>812.0</ele><time>2026-05-02T15:00:31.668Z</time></trkpt><trkpt lat="45.8855683" lon="9.5649859"><ele>809.5</ele><time>2026-05-02T15:00:32.699Z</time></trkpt><trkpt lat="45.8855182" lon="9.5651408"><ele>807.0</ele><time>2026-05-02T15:00:33.686Z</time></trkpt><trkpt lat="45.885474" lon="9.5652977"><ele>808.0</ele><time>2026-05-02T15:00:34.731Z</time></trkpt><trkpt lat="45.8854489" lon="9.5654462"><ele>809.0</ele><time>2026-05-02T15:00:35.686Z</time></trkpt><trkpt lat="45.8854411" lon="9.5655988"><ele>810.0</ele><time>2026-05-02T15:00:36.709Z</time></trkpt><trkpt lat="45.8854556" lon="9.5657409"><ele>811.0</ele><time>2026-05-02T15:00:37.687Z</time></trkpt><trkpt lat="45.8854848" lon="9.56589"><ele>812.0</ele><time>2026-05-02T15:00:38.68Z</time></trkpt><trkpt lat="45.8854966" lon="9.5660274"><ele>812.0000000000001</ele><time>2026-05-02T15:00:39.696Z</time></trkpt><trkpt lat="45.8854846" lon="9.5661455"><ele>812.0</ele><time>2026-05-02T15:00:40.712Z</time></trkpt><trkpt lat="45.8854636" lon="9.5662693"><ele>812.0</ele><time>2026-05-02T15:00:41.692Z</time></trkpt><trkpt lat="45.8854624" lon="9.5663934"><ele>812.0</ele><time>2026-05-02T15:00:42.704Z</time></trkpt><trkpt lat="45.8854705" lon="9.5665022"><ele>812.0000000000001</ele><time>2026-05-02T15:00:43.673Z</time></trkpt><trkpt lat="45.8854978" lon="9.5666082"><ele>812.0</ele><time>2026-05-02T15:00:44.671Z</time></trkpt><trkpt lat="45.885542" lon="9.5667179"><ele>812.0</ele><time>2026-05-02T15:00:45.698Z</time></trkpt><trkpt lat="45.8856047" lon="9.5667961"><ele>812.0</ele><time>2026-05-02T15:00:46.701Z</time></trkpt><trkpt lat="45.8856857" lon="9.5668373"><ele>812.0</ele><time>2026-05-02T15:00:47.719Z</time></trkpt><trkpt lat="45.8857676" lon="9.5668527"><ele>812.0</ele><time>2026-05-02T15:00:48.802Z</time></trkpt><trkpt lat="45.8858957" lon="9.5667884"><ele>812.0</ele><time>2026-05-02T15:00:50.691Z</time></trkpt><trkpt lat="45.8859587" lon="9.5666763"><ele>808.25</ele><time>2026-05-02T15:00:51.682Z</time></trkpt><trkpt lat="45.8860285" lon="9.5665283"><ele>804.5</ele><time>2026-05-02T15:00:52.686Z</time></trkpt><trkpt lat="45.8861113" lon="9.5663554"><ele>800.75</ele><time>2026-05-02T15:00:53.669Z</time></trkpt><trkpt lat="45.8862016" lon="9.5661882"><ele>797.0</ele><time>2026-05-02T15:00:54.665Z</time></trkpt><trkpt lat="45.8863009" lon="9.5660118"><ele>797.0</ele><time>2026-05-02T15:00:55.677Z</time></trkpt><trkpt lat="45.8864015" lon="9.5658429"><ele>797.0</ele><time>2026-05-02T15:00:56.67Z</time></trkpt><trkpt lat="45.8865" lon="9.5656769"><ele>797.0</ele><time>2026-05-02T15:00:57.67Z</time></trkpt><trkpt lat="45.8865955" lon="9.565514"><ele>801.25</ele><time>2026-05-02T15:00:58.68Z</time></trkpt><trkpt lat="45.8866847" lon="9.5653618"><ele>805.5</ele><time>2026-05-02T15:00:59.667Z</time></trkpt><trkpt lat="45.8867655" lon="9.5652159"><ele>809.75</ele><time>2026-05-02T15:01:00.671Z</time></trkpt><trkpt lat="45.8868528" lon="9.5650955"><ele>814.0</ele><time>2026-05-02T15:01:01.678Z</time></trkpt><trkpt lat="45.8869473" lon="9.5649973"><ele>808.5</ele><time>2026-05-02T15:01:02.661Z</time></trkpt><trkpt lat="45.8870444" lon="9.564907"><ele>803.0</ele><time>2026-05-02T15:01:03.675Z</time></trkpt><trkpt lat="45.8871332" lon="9.5647838"><ele>797.5</ele><time>2026-05-02T15:01:04.663Z</time></trkpt><trkpt lat="45.8872034" lon="9.5646211"><ele>792.0</ele><time>2026-05-02T15:01:05.664Z</time></trkpt><trkpt lat="45.8872694" lon="9.564476"><ele>792.0</ele><time>2026-05-02T15:01:06.659Z</time></trkpt><trkpt lat="45.8873317" lon="9.5643226"><ele>792.0</ele><time>2026-05-02T15:01:07.66Z</time></trkpt><trkpt lat="45.8873751" lon="9.564142"><ele>792.0</ele><time>2026-05-02T15:01:08.674Z</time></trkpt><trkpt lat="45.8874023" lon="9.5639607"><ele>792.0</ele><time>2026-05-02T15:01:09.669Z</time></trkpt><trkpt lat="45.8874306" lon="9.5637796"><ele>794.0</ele><time>2026-05-02T15:01:10.681Z</time></trkpt><trkpt lat="45.8874453" lon="9.5636006"><ele>796.0</ele><time>2026-05-02T15:01:11.685Z</time></trkpt><trkpt lat="45.8874539" lon="9.5634297"><ele>798.0</ele><time>2026-05-02T15:01:12.653Z</time></trkpt><trkpt lat="45.8874908" lon="9.5632541"><ele>800.0</ele><time>2026-05-02T15:01:13.64Z</time></trkpt><trkpt lat="45.8875592" lon="9.5630702"><ele>791.6666666666667</ele><time>2026-05-02T15:01:14.752Z</time></trkpt><trkpt lat="45.8877128" lon="9.5627497"><ele>783.3333333333333</ele><time>2026-05-02T15:01:16.64Z</time></trkpt><trkpt lat="45.8878159" lon="9.56261"><ele>775.0</ele><time>2026-05-02T15:01:17.641Z</time></trkpt><trkpt lat="45.887912" lon="9.5624948"><ele>775.0</ele><time>2026-05-02T15:01:18.639Z</time></trkpt><trkpt lat="45.888011" lon="9.5624056"><ele>775.0</ele><time>2026-05-02T15:01:19.642Z</time></trkpt><trkpt lat="45.8881161" lon="9.5623696"><ele>775.0</ele><time>2026-05-02T15:01:20.645Z</time></trkpt><trkpt lat="45.888219" lon="9.5623889"><ele>775.0</ele><time>2026-05-02T15:01:21.631Z</time></trkpt><trkpt lat="45.8883209" lon="9.5624146"><ele>775.0</ele><time>2026-05-02T15:01:22.664Z</time></trkpt><trkpt lat="45.8883976" lon="9.5623966"><ele>777.0</ele><time>2026-05-02T15:01:23.637Z</time></trkpt><trkpt lat="45.8884792" lon="9.562322"><ele>779.0</ele><time>2026-05-02T15:01:24.716Z</time></trkpt><trkpt lat="45.8885243" lon="9.5622197"><ele>781.0</ele><time>2026-05-02T15:01:25.64Z</time></trkpt><trkpt lat="45.8885476" lon="9.5620779"><ele>783.0</ele><time>2026-05-02T15:01:26.63Z</time></trkpt><trkpt lat="45.888559" lon="9.5619348"><ele>785.0</ele><time>2026-05-02T15:01:27.641Z</time></trkpt><trkpt lat="45.8885955" lon="9.5618178"><ele>785.0</ele><time>2026-05-02T15:01:28.676Z</time></trkpt><trkpt lat="45.8886612" lon="9.5617519"><ele>785.0</ele><time>2026-05-02T15:01:29.635Z</time></trkpt><trkpt lat="45.8887552" lon="9.5617376"><ele>785.0</ele><time>2026-05-02T15:01:30.646Z</time></trkpt><trkpt lat="45.8888458" lon="9.5617737"><ele>785.0</ele><time>2026-05-02T15:01:31.638Z</time></trkpt><trkpt lat="45.8889339" lon="9.5618466"><ele>785.0</ele><time>2026-05-02T15:01:32.651Z</time></trkpt><trkpt lat="45.8890234" lon="9.5619029"><ele>785.0</ele><time>2026-05-02T15:01:33.614Z</time></trkpt><trkpt lat="45.8891325" lon="9.5619069"><ele>785.0</ele><time>2026-05-02T15:01:34.611Z</time></trkpt><trkpt lat="45.8892594" lon="9.5618761"><ele>785.0</ele><time>2026-05-02T15:01:35.639Z</time></trkpt><trkpt lat="45.8893832" lon="9.5618467"><ele>785.0</ele><time>2026-05-02T15:01:36.639Z</time></trkpt><trkpt lat="45.8895006" lon="9.5618229"><ele>787.0</ele><time>2026-05-02T15:01:37.639Z</time></trkpt><trkpt lat="45.8896134" lon="9.5618405"><ele>789.0</ele><time>2026-05-02T15:01:38.63Z</time></trkpt><trkpt lat="45.8897231" lon="9.561909"><ele>791.0</ele><time>2026-05-02T15:01:39.66Z</time></trkpt><trkpt lat="45.889818" lon="9.5620306"><ele>793.0</ele><time>2026-05-02T15:01:40.649Z</time></trkpt><trkpt lat="45.8898996" lon="9.5621473"><ele>785.75</ele><time>2026-05-02T15:01:41.647Z</time></trkpt><trkpt lat="45.8899936" lon="9.5622505"><ele>778.5</ele><time>2026-05-02T15:01:42.657Z</time></trkpt><trkpt lat="45.8900938" lon="9.5623215"><ele>771.25</ele><time>2026-05-02T15:01:43.641Z</time></trkpt><trkpt lat="45.8902025" lon="9.56237"><ele>764.0</ele><time>2026-05-02T15:01:44.641Z</time></trkpt><trkpt lat="45.8903223" lon="9.562401"><ele>764.0</ele><time>2026-05-02T15:01:45.649Z</time></trkpt><trkpt lat="45.8904569" lon="9.562403"><ele>764.0</ele><time>2026-05-02T15:01:46.703Z</time></trkpt><trkpt lat="45.8905899" lon="9.5623804"><ele>764.0</ele><time>2026-05-02T15:01:47.668Z</time></trkpt><trkpt lat="45.8907396" lon="9.5623896"><ele>764.0</ele><time>2026-05-02T15:01:48.682Z</time></trkpt><trkpt lat="45.8908932" lon="9.5624204"><ele>764.75</ele><time>2026-05-02T15:01:49.686Z</time></trkpt><trkpt lat="45.8910367" lon="9.5624508"><ele>765.5</ele><time>2026-05-02T15:01:50.662Z</time></trkpt><trkpt lat="45.8911803" lon="9.5624844"><ele>766.25</ele><time>2026-05-02T15:01:51.681Z</time></trkpt><trkpt lat="45.8913041" lon="9.5625315"><ele>767.0</ele><time>2026-05-02T15:01:52.685Z</time></trkpt><trkpt lat="45.8913981" lon="9.5625892"><ele>767.0</ele><time>2026-05-02T15:01:53.649Z</time></trkpt><trkpt lat="45.8914862" lon="9.5626725"><ele>767.0</ele><time>2026-05-02T15:01:54.651Z</time></trkpt><trkpt lat="45.891557" lon="9.5627698"><ele>767.0</ele><time>2026-05-02T15:01:55.641Z</time></trkpt><trkpt lat="45.8916124" lon="9.562866"><ele>767.0</ele><time>2026-05-02T15:01:56.666Z</time></trkpt><trkpt lat="45.8916641" lon="9.56293"><ele>767.0</ele><time>2026-05-02T15:01:57.633Z</time></trkpt><trkpt lat="45.8917339" lon="9.5629421"><ele>767.0</ele><time>2026-05-02T15:01:58.671Z</time></trkpt><trkpt lat="45.8918023" lon="9.5629192"><ele>761.6</ele><time>2026-05-02T15:01:59.653Z</time></trkpt><trkpt lat="45.8918852" lon="9.5627761"><ele>756.2</ele><time>2026-05-02T15:02:01.658Z</time></trkpt><trkpt lat="45.891941" lon="9.5627055"><ele>750.8</ele><time>2026-05-02T15:02:02.656Z</time></trkpt><trkpt lat="45.8920054" lon="9.5626448"><ele>745.4</ele><time>2026-05-02T15:02:03.663Z</time></trkpt><trkpt lat="45.8921028" lon="9.5626008"><ele>740.0</ele><time>2026-05-02T15:02:04.656Z</time></trkpt><trkpt lat="45.8922222" lon="9.5625471"><ele>740.0</ele><time>2026-05-02T15:02:05.665Z</time></trkpt><trkpt lat="45.892336" lon="9.5624757"><ele>740.0</ele><time>2026-05-02T15:02:06.65Z</time></trkpt><trkpt lat="45.892448" lon="9.562418"><ele>740.0</ele><time>2026-05-02T15:02:07.657Z</time></trkpt><trkpt lat="45.892542" lon="9.5623596"><ele>740.0</ele><time>2026-05-02T15:02:08.643Z</time></trkpt><trkpt lat="45.8926285" lon="9.5622522"><ele>740.25</ele><time>2026-05-02T15:02:09.638Z</time></trkpt><trkpt lat="45.8927211" lon="9.5621134"><ele>740.5</ele><time>2026-05-02T15:02:10.776Z</time></trkpt><trkpt lat="45.8928702" lon="9.5619678"><ele>740.75</ele><time>2026-05-02T15:02:12.649Z</time></trkpt><trkpt lat="45.892949" lon="9.5618908"><ele>741.0</ele><time>2026-05-02T15:02:13.66Z</time></trkpt><trkpt lat="45.8929964" lon="9.5617757"><ele>741.0</ele><time>2026-05-02T15:02:14.642Z</time></trkpt><trkpt lat="45.893043" lon="9.5616631"><ele>741.0</ele><time>2026-05-02T15:02:15.643Z</time></trkpt><trkpt lat="45.8931056" lon="9.5615964"><ele>741.0</ele><time>2026-05-02T15:02:16.667Z</time></trkpt><trkpt lat="45.8931983" lon="9.5615903"><ele>741.0</ele><time>2026-05-02T15:02:17.654Z</time></trkpt><trkpt lat="45.893303" lon="9.5615975"><ele>741.0</ele><time>2026-05-02T15:02:18.645Z</time></trkpt><trkpt lat="45.8933971" lon="9.5615931"><ele>740.4</ele><time>2026-05-02T15:02:19.63Z</time></trkpt><trkpt lat="45.8934939" lon="9.5615698"><ele>739.8</ele><time>2026-05-02T15:02:20.662Z</time></trkpt><trkpt lat="45.8935693" lon="9.5615379"><ele>739.1999999999999</ele><time>2026-05-02T15:02:21.645Z</time></trkpt><trkpt lat="45.8937121" lon="9.5615744"><ele>738.5999999999999</ele><time>2026-05-02T15:02:23.657Z</time></trkpt><trkpt lat="45.8937839" lon="9.5616228"><ele>738.0</ele><time>2026-05-02T15:02:24.641Z</time></trkpt><trkpt lat="45.8938428" lon="9.5617085"><ele>738.0</ele><time>2026-05-02T15:02:25.674Z</time></trkpt><trkpt lat="45.893882" lon="9.5618198"><ele>738.0</ele><time>2026-05-02T15:02:26.605Z</time></trkpt><trkpt lat="45.8938839" lon="9.5619603"><ele>738.0</ele><time>2026-05-02T15:02:27.628Z</time></trkpt><trkpt lat="45.8938735" lon="9.5620977"><ele>738.0</ele><time>2026-05-02T15:02:28.632Z</time></trkpt><trkpt lat="45.8938289" lon="9.5622423"><ele>738.0</ele><time>2026-05-02T15:02:29.661Z</time></trkpt><trkpt lat="45.8937389" lon="9.5624176"><ele>739.6666666666666</ele><time>2026-05-02T15:02:30.759Z</time></trkpt><trkpt lat="45.8936115" lon="9.5626919"><ele>741.3333333333333</ele><time>2026-05-02T15:02:32.646Z</time></trkpt><trkpt lat="45.8935393" lon="9.5628187"><ele>743.0</ele><time>2026-05-02T15:02:33.64Z</time></trkpt><trkpt lat="45.8934603" lon="9.5629332"><ele>741.2</ele><time>2026-05-02T15:02:34.66Z</time></trkpt><trkpt lat="45.8933926" lon="9.5630324"><ele>739.4</ele><time>2026-05-02T15:02:35.656Z</time></trkpt><trkpt lat="45.8933319" lon="9.5631262"><ele>737.6</ele><time>2026-05-02T15:02:36.652Z</time></trkpt><trkpt lat="45.8932668" lon="9.5632158"><ele>735.8000000000001</ele><time>2026-05-02T15:02:37.647Z</time></trkpt><trkpt lat="45.8932048" lon="9.5633072"><ele>734.0</ele><time>2026-05-02T15:02:38.66Z</time></trkpt><trkpt lat="45.8931335" lon="9.5634191"><ele>734.0</ele><time>2026-05-02T15:02:39.668Z</time></trkpt><trkpt lat="45.8930461" lon="9.563544"><ele>734.0</ele><time>2026-05-02T15:02:40.661Z</time></trkpt><trkpt lat="45.8929711" lon="9.5636537"><ele>734.0</ele><time>2026-05-02T15:02:41.654Z</time></trkpt><trkpt lat="45.8928988" lon="9.5637614"><ele>734.0</ele><time>2026-05-02T15:02:42.689Z</time></trkpt><trkpt lat="45.8928228" lon="9.5638529"><ele>734.0</ele><time>2026-05-02T15:02:43.662Z</time></trkpt><trkpt lat="45.8927327" lon="9.5639419"><ele>733.6</ele><time>2026-05-02T15:02:44.67Z</time></trkpt><trkpt lat="45.8926437" lon="9.5640163"><ele>733.2</ele><time>2026-05-02T15:02:45.66Z</time></trkpt><trkpt lat="45.8925485" lon="9.5640828"><ele>732.8000000000001</ele><time>2026-05-02T15:02:46.671Z</time></trkpt><trkpt lat="45.8924559" lon="9.5641546"><ele>732.4000000000001</ele><time>2026-05-02T15:02:47.67Z</time></trkpt><trkpt lat="45.8923581" lon="9.5642587"><ele>732.0</ele><time>2026-05-02T15:02:48.682Z</time></trkpt><trkpt lat="45.892274" lon="9.5643957"><ele>732.0</ele><time>2026-05-02T15:02:49.688Z</time></trkpt><trkpt lat="45.8922105" lon="9.5645212"><ele>732.0</ele><time>2026-05-02T15:02:50.645Z</time></trkpt><trkpt lat="45.8921624" lon="9.5646745"><ele>732.0</ele><time>2026-05-02T15:02:51.695Z</time></trkpt><trkpt lat="45.8921371" lon="9.5648289"><ele>732.0</ele><time>2026-05-02T15:02:52.685Z</time></trkpt><trkpt lat="45.8921172" lon="9.5650161"><ele>733.6</ele><time>2026-05-02T15:02:53.691Z</time></trkpt><trkpt lat="45.8920945" lon="9.5651921"><ele>735.2</ele><time>2026-05-02T15:02:54.673Z</time></trkpt><trkpt lat="45.8920768" lon="9.5653407"><ele>736.8</ele><time>2026-05-02T15:02:55.657Z</time></trkpt><trkpt lat="45.892062" lon="9.5654651"><ele>738.4</ele><time>2026-05-02T15:02:56.669Z</time></trkpt><trkpt lat="45.8920352" lon="9.5655516"><ele>740.0</ele><time>2026-05-02T15:02:57.679Z</time></trkpt><trkpt lat="45.891901" lon="9.5655552"><ele>741.0</ele><time>2026-05-02T15:02:59.679Z</time></trkpt><trkpt lat="45.8918409" lon="9.5654839"><ele>742.0</ele><time>2026-05-02T15:03:00.665Z</time></trkpt><trkpt lat="45.8917783" lon="9.5653691"><ele>743.0</ele><time>2026-05-02T15:03:01.66Z</time></trkpt><trkpt lat="45.8917234" lon="9.5652788"><ele>744.0</ele><time>2026-05-02T15:03:02.684Z</time></trkpt><trkpt lat="45.8916633" lon="9.5651996"><ele>745.0</ele><time>2026-05-02T15:03:03.669Z</time></trkpt><trkpt lat="45.8916015" lon="9.5651315"><ele>746.0</ele><time>2026-05-02T15:03:04.663Z</time></trkpt><trkpt lat="45.8915269" lon="9.5650715"><ele>739.75</ele><time>2026-05-02T15:03:05.675Z</time></trkpt><trkpt lat="45.8914312" lon="9.5650232"><ele>733.5</ele><time>2026-05-02T15:03:06.801Z</time></trkpt><trkpt lat="45.8912506" lon="9.5650171"><ele>727.25</ele><time>2026-05-02T15:03:08.68Z</time></trkpt><trkpt lat="45.8911522" lon="9.5650691"><ele>721.0</ele><time>2026-05-02T15:03:09.682Z</time></trkpt><trkpt lat="45.8910396" lon="9.5651338"><ele>721.0</ele><time>2026-05-02T15:03:10.688Z</time></trkpt><trkpt lat="45.8909265" lon="9.5651869"><ele>721.0</ele><time>2026-05-02T15:03:11.673Z</time></trkpt><trkpt lat="45.8908143" lon="9.5652385"><ele>721.0</ele><time>2026-05-02T15:03:12.68Z</time></trkpt><trkpt lat="45.8906985" lon="9.565291"><ele>721.0</ele><time>2026-05-02T15:03:13.657Z</time></trkpt><trkpt lat="45.8905719" lon="9.5653519"><ele>721.75</ele><time>2026-05-02T15:03:14.673Z</time></trkpt><trkpt lat="45.8904546" lon="9.5654111"><ele>722.5</ele><time>2026-05-02T15:03:15.662Z</time></trkpt><trkpt lat="45.8903367" lon="9.565469"><ele>723.25</ele><time>2026-05-02T15:03:16.683Z</time></trkpt><trkpt lat="45.8902285" lon="9.5655178"><ele>724.0</ele><time>2026-05-02T15:03:17.687Z</time></trkpt><trkpt lat="45.8901295" lon="9.5655576"><ele>721.3333333333334</ele><time>2026-05-02T15:03:18.686Z</time></trkpt><trkpt lat="45.8900397" lon="9.565597"><ele>718.6666666666667</ele><time>2026-05-02T15:03:19.687Z</time></trkpt><trkpt lat="45.8899585" lon="9.5656465"><ele>716.0</ele><time>2026-05-02T15:03:20.688Z</time></trkpt><trkpt lat="45.8898967" lon="9.565711"><ele>713.3333333333334</ele><time>2026-05-02T15:03:21.666Z</time></trkpt><trkpt lat="45.8898595" lon="9.5658048"><ele>710.6666666666666</ele><time>2026-05-02T15:03:22.679Z</time></trkpt><trkpt lat="45.8898519" lon="9.5659127"><ele>708.0</ele><time>2026-05-02T15:03:23.676Z</time></trkpt><trkpt lat="45.8898702" lon="9.566033"><ele>708.0</ele><time>2026-05-02T15:03:24.68Z</time></trkpt><trkpt lat="45.889904" lon="9.5661708"><ele>708.0</ele><time>2026-05-02T15:03:25.677Z</time></trkpt><trkpt lat="45.8899441" lon="9.5663192"><ele>708.0</ele><time>2026-05-02T15:03:26.668Z</time></trkpt><trkpt lat="45.8899811" lon="9.5664595"><ele>708.0</ele><time>2026-05-02T15:03:27.682Z</time></trkpt><trkpt lat="45.8900151" lon="9.566592"><ele>708.0</ele><time>2026-05-02T15:03:28.674Z</time></trkpt><trkpt lat="45.8900402" lon="9.56673"><ele>707.8</ele><time>2026-05-02T15:03:29.702Z</time></trkpt><trkpt lat="45.8900606" lon="9.5668526"><ele>707.5999999999999</ele><time>2026-05-02T15:03:30.668Z</time></trkpt><trkpt lat="45.8900651" lon="9.5669848"><ele>707.4000000000001</ele><time>2026-05-02T15:03:31.685Z</time></trkpt><trkpt lat="45.8900513" lon="9.5671207"><ele>707.2</ele><time>2026-05-02T15:03:32.655Z</time></trkpt><trkpt lat="45.8900186" lon="9.5672706"><ele>707.0</ele><time>2026-05-02T15:03:33.701Z</time></trkpt><trkpt lat="45.8899769" lon="9.5674054"><ele>708.4000000000001</ele><time>2026-05-02T15:03:34.651Z</time></trkpt><trkpt lat="45.8899304" lon="9.5675555"><ele>709.8000000000001</ele><time>2026-05-02T15:03:35.655Z</time></trkpt><trkpt lat="45.8898854" lon="9.5677108"><ele>711.2</ele><time>2026-05-02T15:03:36.659Z</time></trkpt><trkpt lat="45.889843" lon="9.5678565"><ele>712.6</ele><time>2026-05-02T15:03:37.646Z</time></trkpt><trkpt lat="45.889807" lon="9.5680019"><ele>714.0</ele><time>2026-05-02T15:03:38.667Z</time></trkpt><trkpt lat="45.8897765" lon="9.5681417"><ele>714.6</ele><time>2026-05-02T15:03:39.643Z</time></trkpt><trkpt lat="45.8897461" lon="9.5682828"><ele>715.2</ele><time>2026-05-02T15:03:40.659Z</time></trkpt><trkpt lat="45.8897132" lon="9.568425"><ele>715.8000000000001</ele><time>2026-05-02T15:03:41.634Z</time></trkpt><trkpt lat="45.8896807" lon="9.5685769"><ele>716.4000000000001</ele><time>2026-05-02T15:03:42.637Z</time></trkpt><trkpt lat="45.8896507" lon="9.5687227"><ele>717.0</ele><time>2026-05-02T15:03:43.636Z</time></trkpt><trkpt lat="45.8896232" lon="9.5688641"><ele>717.0</ele><time>2026-05-02T15:03:44.616Z</time></trkpt><trkpt lat="45.8895968" lon="9.569006"><ele>717.0</ele><time>2026-05-02T15:03:45.637Z</time></trkpt><trkpt lat="45.8895764" lon="9.5691411"><ele>717.0</ele><time>2026-05-02T15:03:46.627Z</time></trkpt><trkpt lat="45.8895611" lon="9.5692874"><ele>717.0</ele><time>2026-05-02T15:03:47.643Z</time></trkpt><trkpt lat="45.8895571" lon="9.5694336"><ele>717.0</ele><time>2026-05-02T15:03:48.639Z</time></trkpt><trkpt lat="45.8895675" lon="9.5695813"><ele>716.0</ele><time>2026-05-02T15:03:49.618Z</time></trkpt><trkpt lat="45.8895803" lon="9.5697443"><ele>715.0</ele><time>2026-05-02T15:03:50.636Z</time></trkpt><trkpt lat="45.8895833" lon="9.5699108"><ele>714.0</ele><time>2026-05-02T15:03:51.64Z</time></trkpt><trkpt lat="45.8895834" lon="9.570104"><ele>713.0</ele><time>2026-05-02T15:03:52.753Z</time></trkpt><trkpt lat="45.8895584" lon="9.570402"><ele>713.0</ele><time>2026-05-02T15:03:54.639Z</time></trkpt><trkpt lat="45.8895301" lon="9.5705535"><ele>713.0</ele><time>2026-05-02T15:03:55.67Z</time></trkpt><trkpt lat="45.8894706" lon="9.570724"><ele>713.0</ele><time>2026-05-02T15:03:56.858Z</time></trkpt><trkpt lat="45.8893426" lon="9.5709334"><ele>713.0</ele><time>2026-05-02T15:03:58.65Z</time></trkpt><trkpt lat="45.8892893" lon="9.5710455"><ele>708.0</ele><time>2026-05-02T15:03:59.656Z</time></trkpt><trkpt lat="45.8892448" lon="9.5711627"><ele>703.0</ele><time>2026-05-02T15:04:00.642Z</time></trkpt><trkpt lat="45.8892253" lon="9.571297"><ele>698.0</ele><time>2026-05-02T15:04:01.67Z</time></trkpt><trkpt lat="45.8892116" lon="9.5714238"><ele>693.0</ele><time>2026-05-02T15:04:02.636Z</time></trkpt><trkpt lat="45.8891802" lon="9.5715501"><ele>688.0</ele><time>2026-05-02T15:04:03.614Z</time></trkpt><trkpt lat="45.889122" lon="9.5716622"><ele>688.0</ele><time>2026-05-02T15:04:04.635Z</time></trkpt><trkpt lat="45.8890447" lon="9.5717822"><ele>688.0</ele><time>2026-05-02T15:04:05.641Z</time></trkpt><trkpt lat="45.888979" lon="9.5719207"><ele>688.0</ele><time>2026-05-02T15:04:06.635Z</time></trkpt><trkpt lat="45.8889283" lon="9.5720768"><ele>688.0</ele><time>2026-05-02T15:04:07.658Z</time></trkpt><trkpt lat="45.8888623" lon="9.5722034"><ele>690.4</ele><time>2026-05-02T15:04:08.65Z</time></trkpt><trkpt lat="45.8887955" lon="9.5723372"><ele>692.8</ele><time>2026-05-02T15:04:09.681Z</time></trkpt><trkpt lat="45.88874" lon="9.572458"><ele>695.2</ele><time>2026-05-02T15:04:10.663Z</time></trkpt><trkpt lat="45.888683" lon="9.5725888"><ele>697.6</ele><time>2026-05-02T15:04:11.672Z</time></trkpt><trkpt lat="45.8886345" lon="9.5727071"><ele>700.0</ele><time>2026-05-02T15:04:12.679Z</time></trkpt><trkpt lat="45.8885947" lon="9.5728374"><ele>700.4</ele><time>2026-05-02T15:04:13.698Z</time></trkpt><trkpt lat="45.8885652" lon="9.5729659"><ele>700.8</ele><time>2026-05-02T15:04:14.671Z</time></trkpt><trkpt lat="45.888543" lon="9.5730938"><ele>701.2</ele><time>2026-05-02T15:04:15.664Z</time></trkpt><trkpt lat="45.8885414" lon="9.5732376"><ele>701.6</ele><time>2026-05-02T15:04:16.679Z</time></trkpt><trkpt lat="45.8885772" lon="9.5733942"><ele>702.0</ele><time>2026-05-02T15:04:17.647Z</time></trkpt><trkpt lat="45.888635" lon="9.5735659"><ele>702.0</ele><time>2026-05-02T15:04:18.662Z</time></trkpt><trkpt lat="45.888686" lon="9.5737094"><ele>702.0</ele><time>2026-05-02T15:04:19.687Z</time></trkpt><trkpt lat="45.8887118" lon="9.5738363"><ele>702.0</ele><time>2026-05-02T15:04:20.678Z</time></trkpt><trkpt lat="45.8887141" lon="9.5739513"><ele>702.0</ele><time>2026-05-02T15:04:21.652Z</time></trkpt><trkpt lat="45.8886827" lon="9.5740551"><ele>702.0</ele><time>2026-05-02T15:04:22.646Z</time></trkpt><trkpt lat="45.8886158" lon="9.5741481"><ele>702.0</ele><time>2026-05-02T15:04:23.696Z</time></trkpt><trkpt lat="45.888541" lon="9.574193"><ele>702.0</ele><time>2026-05-02T15:04:24.665Z</time></trkpt><trkpt lat="45.8884626" lon="9.5742258"><ele>702.0</ele><time>2026-05-02T15:04:25.642Z</time></trkpt><trkpt lat="45.8883792" lon="9.5742572"><ele>702.0</ele><time>2026-05-02T15:04:26.637Z</time></trkpt><trkpt lat="45.8883037" lon="9.5743027"><ele>702.0</ele><time>2026-05-02T15:04:27.645Z</time></trkpt><trkpt lat="45.8882409" lon="9.5743773"><ele>702.0</ele><time>2026-05-02T15:04:28.759Z</time></trkpt><trkpt lat="45.888184" lon="9.5745836"><ele>694.0</ele><time>2026-05-02T15:04:30.662Z</time></trkpt><trkpt lat="45.8881539" lon="9.5746958"><ele>686.0</ele><time>2026-05-02T15:04:31.647Z</time></trkpt><trkpt lat="45.8881339" lon="9.5748095"><ele>678.0</ele><time>2026-05-02T15:04:32.685Z</time></trkpt><trkpt lat="45.8881322" lon="9.5749297"><ele>670.0</ele><time>2026-05-02T15:04:33.676Z</time></trkpt><trkpt lat="45.8881582" lon="9.5750549"><ele>662.0</ele><time>2026-05-02T15:04:34.659Z</time></trkpt><trkpt lat="45.8882266" lon="9.5751969"><ele>662.0</ele><time>2026-05-02T15:04:35.682Z</time></trkpt><trkpt lat="45.8883145" lon="9.5753165"><ele>662.0</ele><time>2026-05-02T15:04:36.631Z</time></trkpt><trkpt lat="45.8884047" lon="9.5754252"><ele>662.0</ele><time>2026-05-02T15:04:37.676Z</time></trkpt><trkpt lat="45.8884699" lon="9.5755269"><ele>662.0</ele><time>2026-05-02T15:04:38.663Z</time></trkpt><trkpt lat="45.8884987" lon="9.575641"><ele>662.0</ele><time>2026-05-02T15:04:39.677Z</time></trkpt><trkpt lat="45.8884868" lon="9.5757709"><ele>667.0</ele><time>2026-05-02T15:04:40.647Z</time></trkpt><trkpt lat="45.888465" lon="9.5759188"><ele>672.0</ele><time>2026-05-02T15:04:41.62Z</time></trkpt><trkpt lat="45.8884521" lon="9.5760765"><ele>677.0</ele><time>2026-05-02T15:04:42.639Z</time></trkpt><trkpt lat="45.8884614" lon="9.5762309"><ele>682.0</ele><time>2026-05-02T15:04:43.672Z</time></trkpt><trkpt lat="45.8884955" lon="9.5763545"><ele>687.0</ele><time>2026-05-02T15:04:44.64Z</time></trkpt><trkpt lat="45.8885348" lon="9.5764826"><ele>687.0</ele><time>2026-05-02T15:04:45.643Z</time></trkpt><trkpt lat="45.8885487" lon="9.5766187"><ele>687.0</ele><time>2026-05-02T15:04:46.656Z</time></trkpt><trkpt lat="45.8885566" lon="9.576742"><ele>687.0</ele><time>2026-05-02T15:04:47.635Z</time></trkpt><trkpt lat="45.8885894" lon="9.5768537"><ele>687.0</ele><time>2026-05-02T15:04:48.646Z</time></trkpt><trkpt lat="45.8886533" lon="9.5769086"><ele>687.0</ele><time>2026-05-02T15:04:49.642Z</time></trkpt><trkpt lat="45.8887621" lon="9.5769208"><ele>687.0</ele><time>2026-05-02T15:04:50.754Z</time></trkpt><trkpt lat="45.8889147" lon="9.5769509"><ele>687.0</ele><time>2026-05-02T15:04:52.607Z</time></trkpt><trkpt lat="45.8889669" lon="9.5770275"><ele>687.0</ele><time>2026-05-02T15:04:53.644Z</time></trkpt><trkpt lat="45.8889711" lon="9.5771319"><ele>687.0</ele><time>2026-05-02T15:04:54.641Z</time></trkpt><trkpt lat="45.8889342" lon="9.5772484"><ele>687.0</ele><time>2026-05-02T15:04:55.649Z</time></trkpt><trkpt lat="45.888865" lon="9.5773306"><ele>685.3333333333334</ele><time>2026-05-02T15:04:56.633Z</time></trkpt><trkpt lat="45.8887958" lon="9.5773951"><ele>683.6666666666666</ele><time>2026-05-02T15:04:57.641Z</time></trkpt><trkpt lat="45.8887288" lon="9.577458"><ele>682.0</ele><time>2026-05-02T15:04:58.611Z</time></trkpt><trkpt lat="45.8886678" lon="9.5775218"><ele>680.3333333333333</ele><time>2026-05-02T15:04:59.612Z</time></trkpt><trkpt lat="45.8886105" lon="9.577589"><ele>678.6666666666666</ele><time>2026-05-02T15:05:00.613Z</time></trkpt><trkpt lat="45.8885531" lon="9.5776666"><ele>677.0</ele><time>2026-05-02T15:05:01.646Z</time></trkpt><trkpt lat="45.8885133" lon="9.5777875"><ele>678.0</ele><time>2026-05-02T15:05:02.645Z</time></trkpt><trkpt lat="45.8885086" lon="9.57795"><ele>679.0</ele><time>2026-05-02T15:05:03.651Z</time></trkpt><trkpt lat="45.8885146" lon="9.5780852"><ele>680.0</ele><time>2026-05-02T15:05:04.61Z</time></trkpt><trkpt lat="45.8885107" lon="9.5782279"><ele>681.0</ele><time>2026-05-02T15:05:05.665Z</time></trkpt><trkpt lat="45.8885219" lon="9.5783713"><ele>682.0</ele><time>2026-05-02T15:05:06.65Z</time></trkpt><trkpt lat="45.88855" lon="9.5785315"><ele>679.6</ele><time>2026-05-02T15:05:07.649Z</time></trkpt><trkpt lat="45.8885608" lon="9.5786846"><ele>677.2</ele><time>2026-05-02T15:05:08.652Z</time></trkpt><trkpt lat="45.8885457" lon="9.5788425"><ele>674.8</ele><time>2026-05-02T15:05:09.662Z</time></trkpt><trkpt lat="45.8885311" lon="9.5790092"><ele>672.4</ele><time>2026-05-02T15:05:10.644Z</time></trkpt><trkpt lat="45.8885164" lon="9.5791618"><ele>670.0</ele><time>2026-05-02T15:05:11.649Z</time></trkpt><trkpt lat="45.8885116" lon="9.5793077"><ele>670.0</ele><time>2026-05-02T15:05:12.658Z</time></trkpt><trkpt lat="45.8885318" lon="9.5794499"><ele>670.0</ele><time>2026-05-02T15:05:13.648Z</time></trkpt><trkpt lat="45.8885711" lon="9.5795831"><ele>670.0</ele><time>2026-05-02T15:05:14.637Z</time></trkpt><trkpt lat="45.8886127" lon="9.5797095"><ele>670.0</ele><time>2026-05-02T15:05:15.637Z</time></trkpt><trkpt lat="45.8886161" lon="9.5798266"><ele>670.0</ele><time>2026-05-02T15:05:16.652Z</time></trkpt><trkpt lat="45.8885834" lon="9.5799281"><ele>668.1666666666667</ele><time>2026-05-02T15:05:17.638Z</time></trkpt><trkpt lat="45.8885447" lon="9.5800164"><ele>666.3333333333334</ele><time>2026-05-02T15:05:18.635Z</time></trkpt><trkpt lat="45.8885235" lon="9.5801224"><ele>664.5</ele><time>2026-05-02T15:05:19.669Z</time></trkpt><trkpt lat="45.8885496" lon="9.5802414"><ele>662.6666666666666</ele><time>2026-05-02T15:05:20.628Z</time></trkpt><trkpt lat="45.888609" lon="9.5803635"><ele>660.8333333333333</ele><time>2026-05-02T15:05:21.64Z</time></trkpt><trkpt lat="45.8886508" lon="9.5804888"><ele>659.0</ele><time>2026-05-02T15:05:22.641Z</time></trkpt><trkpt lat="45.8886566" lon="9.5806027"><ele>658.0</ele><time>2026-05-02T15:05:23.651Z</time></trkpt><trkpt lat="45.8886373" lon="9.5807014"><ele>657.0</ele><time>2026-05-02T15:05:24.614Z</time></trkpt><trkpt lat="45.8886241" lon="9.5808165"><ele>656.0</ele><time>2026-05-02T15:05:25.648Z</time></trkpt><trkpt lat="45.8886293" lon="9.5809405"><ele>655.0</ele><time>2026-05-02T15:05:26.618Z</time></trkpt><trkpt lat="45.8886131" lon="9.5810612"><ele>654.0</ele><time>2026-05-02T15:05:27.642Z</time></trkpt><trkpt lat="45.8885779" lon="9.5811718"><ele>653.0</ele><time>2026-05-02T15:05:28.642Z</time></trkpt><trkpt lat="45.8885019" lon="9.5812552"><ele>647.1999999999999</ele><time>2026-05-02T15:05:29.631Z</time></trkpt><trkpt lat="45.8884087" lon="9.5813334"><ele>641.4</ele><time>2026-05-02T15:05:30.634Z</time></trkpt><trkpt lat="45.8883202" lon="9.5814016"><ele>635.5999999999999</ele><time>2026-05-02T15:05:31.631Z</time></trkpt><trkpt lat="45.8882342" lon="9.5814718"><ele>629.8</ele><time>2026-05-02T15:05:32.624Z</time></trkpt><trkpt lat="45.8881663" lon="9.581559"><ele>624.0</ele><time>2026-05-02T15:05:33.608Z</time></trkpt><trkpt lat="45.8881383" lon="9.5816913"><ele>624.0</ele><time>2026-05-02T15:05:34.628Z</time></trkpt><trkpt lat="45.8881399" lon="9.5818726"><ele>624.0</ele><time>2026-05-02T15:05:35.653Z</time></trkpt><trkpt lat="45.888162" lon="9.5820302"><ele>624.0</ele><time>2026-05-02T15:05:36.619Z</time></trkpt><trkpt lat="45.8881743" lon="9.5821793"><ele>624.0</ele><time>2026-05-02T15:05:37.617Z</time></trkpt><trkpt lat="45.8881703" lon="9.5823277"><ele>624.0</ele><time>2026-05-02T15:05:38.649Z</time></trkpt><trkpt lat="45.8881466" lon="9.5824594"><ele>624.2</ele><time>2026-05-02T15:05:39.648Z</time></trkpt><trkpt lat="45.8880893" lon="9.5825745"><ele>624.4</ele><time>2026-05-02T15:05:40.748Z</time></trkpt><trkpt lat="45.8879572" lon="9.5827063"><ele>624.6</ele><time>2026-05-02T15:05:42.62Z</time></trkpt><trkpt lat="45.8878748" lon="9.5827547"><ele>624.8</ele><time>2026-05-02T15:05:43.616Z</time></trkpt><trkpt lat="45.8877974" lon="9.5828183"><ele>625.0</ele><time>2026-05-02T15:05:44.629Z</time></trkpt><trkpt lat="45.8877494" lon="9.5829087"><ele>621.0</ele><time>2026-05-02T15:05:45.622Z</time></trkpt><trkpt lat="45.887725" lon="9.5830215"><ele>617.0</ele><time>2026-05-02T15:05:46.652Z</time></trkpt><trkpt lat="45.8877536" lon="9.5831643"><ele>613.0</ele><time>2026-05-02T15:05:47.649Z</time></trkpt><trkpt lat="45.8877984" lon="9.5833407"><ele>609.0</ele><time>2026-05-02T15:05:48.612Z</time></trkpt><trkpt lat="45.8878369" lon="9.583491"><ele>605.0</ele><time>2026-05-02T15:05:49.617Z</time></trkpt><trkpt lat="45.8878748" lon="9.5836027"><ele>605.0</ele><time>2026-05-02T15:05:50.621Z</time></trkpt><trkpt lat="45.8879375" lon="9.5836633"><ele>605.0</ele><time>2026-05-02T15:05:51.605Z</time></trkpt><trkpt lat="45.888017" lon="9.58366"><ele>605.0</ele><time>2026-05-02T15:05:52.615Z</time></trkpt><trkpt lat="45.8880994" lon="9.583587"><ele>605.0</ele><time>2026-05-02T15:05:53.617Z</time></trkpt><trkpt lat="45.8881656" lon="9.5834652"><ele>605.0</ele><time>2026-05-02T15:05:54.635Z</time></trkpt><trkpt lat="45.8882171" lon="9.5833282"><ele>605.0</ele><time>2026-05-02T15:05:55.644Z</time></trkpt><trkpt lat="45.8882679" lon="9.5832281"><ele>605.0</ele><time>2026-05-02T15:05:56.605Z</time></trkpt><trkpt lat="45.888337" lon="9.5831519"><ele>605.0</ele><time>2026-05-02T15:05:57.616Z</time></trkpt><trkpt lat="45.8884512" lon="9.5831252"><ele>605.0</ele><time>2026-05-02T15:05:58.618Z</time></trkpt><trkpt lat="45.8886026" lon="9.583127"><ele>605.0</ele><time>2026-05-02T15:05:59.722Z</time></trkpt><trkpt lat="45.8887485" lon="9.5831147"><ele>603.3333333333333</ele><time>2026-05-02T15:06:00.723Z</time></trkpt><trkpt lat="45.8890287" lon="9.5830506"><ele>601.6666666666666</ele><time>2026-05-02T15:06:02.684Z</time></trkpt><trkpt lat="45.8891527" lon="9.5830177"><ele>600.0</ele><time>2026-05-02T15:06:03.62Z</time></trkpt><trkpt lat="45.8892747" lon="9.5829873"><ele>603.1666666666666</ele><time>2026-05-02T15:06:04.61Z</time></trkpt><trkpt lat="45.889388" lon="9.5829688"><ele>606.3333333333334</ele><time>2026-05-02T15:06:05.651Z</time></trkpt><trkpt lat="45.8894708" lon="9.5829792"><ele>609.5</ele><time>2026-05-02T15:06:06.615Z</time></trkpt><trkpt lat="45.8895294" lon="9.5830181"><ele>612.6666666666667</ele><time>2026-05-02T15:06:07.614Z</time></trkpt><trkpt lat="45.8895563" lon="9.5831012"><ele>615.8333333333334</ele><time>2026-05-02T15:06:08.633Z</time></trkpt><trkpt lat="45.889572" lon="9.5832155"><ele>619.0</ele><time>2026-05-02T15:06:09.658Z</time></trkpt><trkpt lat="45.8895618" lon="9.5833112"><ele>619.0</ele><time>2026-05-02T15:06:10.609Z</time></trkpt><trkpt lat="45.8895269" lon="9.5834175"><ele>619.0</ele><time>2026-05-02T15:06:11.653Z</time></trkpt><trkpt lat="45.8894853" lon="9.5835013"><ele>619.0</ele><time>2026-05-02T15:06:12.648Z</time></trkpt><trkpt lat="45.8894053" lon="9.5836123"><ele>619.0</ele><time>2026-05-02T15:06:14.811Z</time></trkpt><trkpt lat="45.8893204" lon="9.5837039"><ele>619.0</ele><time>2026-05-02T15:06:16.666Z</time></trkpt><trkpt lat="45.8892182" lon="9.5837916"><ele>616.25</ele><time>2026-05-02T15:06:18.676Z</time></trkpt><trkpt lat="45.8891152" lon="9.5838413"><ele>613.5</ele><time>2026-05-02T15:06:20.646Z</time></trkpt><trkpt lat="45.8890006" lon="9.5838645"><ele>610.75</ele><time>2026-05-02T15:06:22.634Z</time></trkpt><trkpt lat="45.8888701" lon="9.5838706"><ele>608.0</ele><time>2026-05-02T15:06:24.749Z</time></trkpt><trkpt lat="45.8887388" lon="9.5838884"><ele>608.0</ele><time>2026-05-02T15:06:26.66Z</time></trkpt><trkpt lat="45.8886173" lon="9.5839474"><ele>608.0</ele><time>2026-05-02T15:06:28.642Z</time></trkpt><trkpt lat="45.8885526" lon="9.5839953"><ele>608.0</ele><time>2026-05-02T15:06:29.613Z</time></trkpt><trkpt lat="45.8884878" lon="9.584068"><ele>608.0</ele><time>2026-05-02T15:06:30.606Z</time></trkpt><trkpt lat="45.888423" lon="9.5841535"><ele>608.0</ele><time>2026-05-02T15:06:31.636Z</time></trkpt><trkpt lat="45.8883607" lon="9.5842321"><ele>608.0</ele><time>2026-05-02T15:06:32.613Z</time></trkpt><trkpt lat="45.8882977" lon="9.5843209"><ele>608.0</ele><time>2026-05-02T15:06:33.645Z</time></trkpt><trkpt lat="45.8882363" lon="9.5844259"><ele>608.0</ele><time>2026-05-02T15:06:34.662Z</time></trkpt><trkpt lat="45.8881847" lon="9.5845115"><ele>608.0</ele><time>2026-05-02T15:06:35.635Z</time></trkpt><trkpt lat="45.8881236" lon="9.5845859"><ele>608.0</ele><time>2026-05-02T15:06:36.658Z</time></trkpt><trkpt lat="45.8880608" lon="9.5846493"><ele>608.0</ele><time>2026-05-02T15:06:37.654Z</time></trkpt><trkpt lat="45.8879901" lon="9.5847029"><ele>608.0</ele><time>2026-05-02T15:06:38.662Z</time></trkpt><trkpt lat="45.887915" lon="9.5847368"><ele>608.0</ele><time>2026-05-02T15:06:39.649Z</time></trkpt><trkpt lat="45.8878318" lon="9.5847614"><ele>608.0</ele><time>2026-05-02T15:06:40.611Z</time></trkpt><trkpt lat="45.8877371" lon="9.5847887"><ele>608.0</ele><time>2026-05-02T15:06:41.66Z</time></trkpt><trkpt lat="45.8876622" lon="9.5848198"><ele>608.0</ele><time>2026-05-02T15:06:42.625Z</time></trkpt><trkpt lat="45.8875786" lon="9.5848503"><ele>608.0</ele><time>2026-05-02T15:06:43.623Z</time></trkpt><trkpt lat="45.8875017" lon="9.5848811"><ele>609.0</ele><time>2026-05-02T15:06:44.609Z</time></trkpt><trkpt lat="45.8874315" lon="9.5849265"><ele>610.0</ele><time>2026-05-02T15:06:45.618Z</time></trkpt><trkpt lat="45.887374" lon="9.5849853"><ele>611.0</ele><time>2026-05-02T15:06:46.639Z</time></trkpt><trkpt lat="45.8873308" lon="9.585058"><ele>612.0</ele><time>2026-05-02T15:06:47.635Z</time></trkpt><trkpt lat="45.8873016" lon="9.5851396"><ele>613.0</ele><time>2026-05-02T15:06:48.62Z</time></trkpt><trkpt lat="45.8872609" lon="9.5852251"><ele>614.0</ele><time>2026-05-02T15:06:49.653Z</time></trkpt><trkpt lat="45.8872251" lon="9.5853066"><ele>615.0</ele><time>2026-05-02T15:06:50.645Z</time></trkpt><trkpt lat="45.887172" lon="9.5853755"><ele>615.0</ele><time>2026-05-02T15:06:51.635Z</time></trkpt><trkpt lat="45.887101" lon="9.5854296"><ele>615.0</ele><time>2026-05-02T15:06:52.611Z</time></trkpt><trkpt lat="45.8870122" lon="9.5854654"><ele>615.0</ele><time>2026-05-02T15:06:53.611Z</time></trkpt><trkpt lat="45.8869096" lon="9.5854856"><ele>615.0</ele><time>2026-05-02T15:06:54.654Z</time></trkpt><trkpt lat="45.8868118" lon="9.5854973"><ele>615.0</ele><time>2026-05-02T15:06:55.648Z</time></trkpt><trkpt lat="45.8867146" lon="9.5855092"><ele>610.6</ele><time>2026-05-02T15:06:56.603Z</time></trkpt><trkpt lat="45.8866149" lon="9.5855183"><ele>606.2</ele><time>2026-05-02T15:06:57.645Z</time></trkpt><trkpt lat="45.8865242" lon="9.5855273"><ele>601.8</ele><time>2026-05-02T15:06:58.616Z</time></trkpt><trkpt lat="45.8864281" lon="9.5855262"><ele>597.4</ele><time>2026-05-02T15:06:59.617Z</time></trkpt><trkpt lat="45.8863418" lon="9.585523"><ele>593.0</ele><time>2026-05-02T15:07:00.591Z</time></trkpt><trkpt lat="45.8862512" lon="9.5855265"><ele>592.9999999999999</ele><time>2026-05-02T15:07:01.621Z</time></trkpt><trkpt lat="45.8861738" lon="9.5855437"><ele>593.0</ele><time>2026-05-02T15:07:02.606Z</time></trkpt><trkpt lat="45.886102" lon="9.5855642"><ele>593.0</ele><time>2026-05-02T15:07:03.606Z</time></trkpt><trkpt lat="45.8860308" lon="9.5855793"><ele>593.0</ele><time>2026-05-02T15:07:04.609Z</time></trkpt><trkpt lat="45.8859695" lon="9.5856057"><ele>593.0</ele><time>2026-05-02T15:07:05.604Z</time></trkpt><trkpt lat="45.8859074" lon="9.5856559"><ele>592.9999999999999</ele><time>2026-05-02T15:07:06.598Z</time></trkpt><trkpt lat="45.8858673" lon="9.5857362"><ele>593.0</ele><time>2026-05-02T15:07:07.611Z</time></trkpt><trkpt lat="45.8858456" lon="9.585832"><ele>590.5</ele><time>2026-05-02T15:07:08.616Z</time></trkpt><trkpt lat="45.8858305" lon="9.5859397"><ele>588.0</ele><time>2026-05-02T15:07:09.607Z</time></trkpt><trkpt lat="45.8858166" lon="9.5860557"><ele>585.5</ele><time>2026-05-02T15:07:10.611Z</time></trkpt><trkpt lat="45.885806" lon="9.586178"><ele>583.0</ele><time>2026-05-02T15:07:11.623Z</time></trkpt><trkpt lat="45.8857966" lon="9.5863002"><ele>580.5</ele><time>2026-05-02T15:07:12.602Z</time></trkpt><trkpt lat="45.8857802" lon="9.5864192"><ele>578.0</ele><time>2026-05-02T15:07:13.596Z</time></trkpt><trkpt lat="45.8857651" lon="9.586539"><ele>578.0</ele><time>2026-05-02T15:07:14.597Z</time></trkpt><trkpt lat="45.8857344" lon="9.5866384"><ele>578.0</ele><time>2026-05-02T15:07:15.581Z</time></trkpt><trkpt lat="45.8856911" lon="9.5867188"><ele>578.0</ele><time>2026-05-02T15:07:16.586Z</time></trkpt><trkpt lat="45.8856249" lon="9.5867764"><ele>578.0</ele><time>2026-05-02T15:07:17.602Z</time></trkpt><trkpt lat="45.8855732" lon="9.5868436"><ele>578.0</ele><time>2026-05-02T15:07:18.609Z</time></trkpt><trkpt lat="45.885539" lon="9.5869369"><ele>578.0</ele><time>2026-05-02T15:07:19.612Z</time></trkpt><trkpt lat="45.8855257" lon="9.5870366"><ele>578.0</ele><time>2026-05-02T15:07:20.6Z</time></trkpt><trkpt lat="45.8855118" lon="9.5871312"><ele>582.4</ele><time>2026-05-02T15:07:22.716Z</time></trkpt><trkpt lat="45.8854835" lon="9.5872817"><ele>586.8</ele><time>2026-05-02T15:07:25.611Z</time></trkpt><trkpt lat="45.8854261" lon="9.5874297"><ele>591.2</ele><time>2026-05-02T15:07:27.657Z</time></trkpt><trkpt lat="45.8853697" lon="9.5874857"><ele>595.6</ele><time>2026-05-02T15:07:28.618Z</time></trkpt><trkpt lat="45.8852886" lon="9.5875486"><ele>600.0</ele><time>2026-05-02T15:07:29.618Z</time></trkpt><trkpt lat="45.8851908" lon="9.5876009"><ele>600.0</ele><time>2026-05-02T15:07:30.621Z</time></trkpt><trkpt lat="45.8851019" lon="9.5876571"><ele>600.0</ele><time>2026-05-02T15:07:31.617Z</time></trkpt><trkpt lat="45.8850263" lon="9.5877273"><ele>600.0</ele><time>2026-05-02T15:07:32.605Z</time></trkpt><trkpt lat="45.8849633" lon="9.5878019"><ele>600.0</ele><time>2026-05-02T15:07:33.613Z</time></trkpt><trkpt lat="45.8849173" lon="9.5878811"><ele>600.0</ele><time>2026-05-02T15:07:34.617Z</time></trkpt><trkpt lat="45.8848813" lon="9.5879858"><ele>600.0</ele><time>2026-05-02T15:07:35.623Z</time></trkpt><trkpt lat="45.8848695" lon="9.5881235"><ele>592.4</ele><time>2026-05-02T15:07:36.64Z</time></trkpt><trkpt lat="45.8848713" lon="9.5882792"><ele>584.8</ele><time>2026-05-02T15:07:37.606Z</time></trkpt><trkpt lat="45.8848636" lon="9.588442"><ele>577.2</ele><time>2026-05-02T15:07:38.637Z</time></trkpt><trkpt lat="45.8848582" lon="9.5885949"><ele>569.6</ele><time>2026-05-02T15:07:39.605Z</time></trkpt><trkpt lat="45.8848698" lon="9.5887519"><ele>562.0</ele><time>2026-05-02T15:07:40.618Z</time></trkpt><trkpt lat="45.8848999" lon="9.5889141"><ele>560.5</ele><time>2026-05-02T15:07:41.608Z</time></trkpt><trkpt lat="45.8849265" lon="9.589066"><ele>559.0</ele><time>2026-05-02T15:07:42.608Z</time></trkpt><trkpt lat="45.8849743" lon="9.5892188"><ele>557.5</ele><time>2026-05-02T15:07:43.611Z</time></trkpt><trkpt lat="45.885016" lon="9.5893761"><ele>556.0</ele><time>2026-05-02T15:07:44.613Z</time></trkpt><trkpt lat="45.8850528" lon="9.5895321"><ele>555.0</ele><time>2026-05-02T15:07:45.605Z</time></trkpt><trkpt lat="45.8850948" lon="9.5896788"><ele>554.0</ele><time>2026-05-02T15:07:46.624Z</time></trkpt><trkpt lat="45.8851609" lon="9.5898079"><ele>553.0</ele><time>2026-05-02T15:07:47.618Z</time></trkpt><trkpt lat="45.8852475" lon="9.5899183"><ele>552.0</ele><time>2026-05-02T15:07:48.615Z</time></trkpt><trkpt lat="45.8853174" lon="9.5900549"><ele>570.0</ele><time>2026-05-02T15:07:49.617Z</time></trkpt><trkpt lat="45.8853716" lon="9.5902079"><ele>588.0</ele><time>2026-05-02T15:07:50.6Z</time></trkpt><trkpt lat="45.8854202" lon="9.5903634"><ele>606.0</ele><time>2026-05-02T15:07:51.621Z</time></trkpt><trkpt lat="45.885459" lon="9.590525"><ele>624.0</ele><time>2026-05-02T15:07:52.614Z</time></trkpt><trkpt lat="45.8854834" lon="9.5907037"><ele>624.0</ele><time>2026-05-02T15:07:53.599Z</time></trkpt><trkpt lat="45.8854962" lon="9.5908822"><ele>624.0</ele><time>2026-05-02T15:07:54.607Z</time></trkpt><trkpt lat="45.8854948" lon="9.5910623"><ele>624.0</ele><time>2026-05-02T15:07:55.618Z</time></trkpt><trkpt lat="45.885491" lon="9.5912208"><ele>624.0</ele><time>2026-05-02T15:07:56.609Z</time></trkpt><trkpt lat="45.8855087" lon="9.5913853"><ele>624.0</ele><time>2026-05-02T15:07:57.591Z</time></trkpt><trkpt lat="45.8855417" lon="9.5915829"><ele>624.0</ele><time>2026-05-02T15:07:58.59Z</time></trkpt><trkpt lat="45.8855949" lon="9.5917746"><ele>624.0</ele><time>2026-05-02T15:07:59.587Z</time></trkpt><trkpt lat="45.8856379" lon="9.5919671"><ele>624.0</ele><time>2026-05-02T15:08:00.597Z</time></trkpt><trkpt lat="45.8856882" lon="9.5921618"><ele>624.0</ele><time>2026-05-02T15:08:01.606Z</time></trkpt><trkpt lat="45.8857624" lon="9.5923382"><ele>624.0</ele><time>2026-05-02T15:08:02.578Z</time></trkpt><trkpt lat="45.885823" lon="9.5925121"><ele>624.0</ele><time>2026-05-02T15:08:03.592Z</time></trkpt><trkpt lat="45.8858637" lon="9.5926971"><ele>624.0</ele><time>2026-05-02T15:08:04.584Z</time></trkpt><trkpt lat="45.8858646" lon="9.5928975"><ele>624.0</ele><time>2026-05-02T15:08:05.587Z</time></trkpt><trkpt lat="45.8858732" lon="9.5931149"><ele>624.0</ele><time>2026-05-02T15:08:06.598Z</time></trkpt><trkpt lat="45.8858964" lon="9.5933045"><ele>624.0</ele><time>2026-05-02T15:08:07.578Z</time></trkpt><trkpt lat="45.8859546" lon="9.5934974"><ele>624.0</ele><time>2026-05-02T15:08:08.594Z</time></trkpt><trkpt lat="45.8860161" lon="9.5936864"><ele>624.0</ele><time>2026-05-02T15:08:09.609Z</time></trkpt><trkpt lat="45.8860511" lon="9.5938669"><ele>624.0</ele><time>2026-05-02T15:08:10.588Z</time></trkpt><trkpt lat="45.8860812" lon="9.5940464"><ele>624.0</ele><time>2026-05-02T15:08:11.6Z</time></trkpt><trkpt lat="45.8860908" lon="9.5942134"><ele>624.0</ele><time>2026-05-02T15:08:12.564Z</time></trkpt><trkpt lat="45.8860834" lon="9.594383"><ele>610.8</ele><time>2026-05-02T15:08:13.572Z</time></trkpt><trkpt lat="45.8860605" lon="9.5945334"><ele>597.5999999999999</ele><time>2026-05-02T15:08:14.59Z</time></trkpt><trkpt lat="45.8860223" lon="9.5946643"><ele>584.4</ele><time>2026-05-02T15:08:15.584Z</time></trkpt><trkpt lat="45.8859693" lon="9.5947821"><ele>571.1999999999999</ele><time>2026-05-02T15:08:16.56Z</time></trkpt><trkpt lat="45.8859392" lon="9.5949209"><ele>558.0</ele><time>2026-05-02T15:08:17.59Z</time></trkpt><trkpt lat="45.8859253" lon="9.5951042"><ele>558.0</ele><time>2026-05-02T15:08:18.582Z</time></trkpt><trkpt lat="45.8858977" lon="9.5953222"><ele>558.0</ele><time>2026-05-02T15:08:19.588Z</time></trkpt><trkpt lat="45.8858766" lon="9.5955226"><ele>558.0</ele><time>2026-05-02T15:08:20.581Z</time></trkpt><trkpt lat="45.8858572" lon="9.5957152"><ele>558.0</ele><time>2026-05-02T15:08:21.565Z</time></trkpt><trkpt lat="45.8858381" lon="9.5959073"><ele>561.25</ele><time>2026-05-02T15:08:22.574Z</time></trkpt><trkpt lat="45.885825" lon="9.5961087"><ele>564.5</ele><time>2026-05-02T15:08:23.584Z</time></trkpt><trkpt lat="45.8858168" lon="9.5963148"><ele>567.75</ele><time>2026-05-02T15:08:24.582Z</time></trkpt><trkpt lat="45.8858018" lon="9.5964905"><ele>571.0</ele><time>2026-05-02T15:08:25.581Z</time></trkpt><trkpt lat="45.8857751" lon="9.5966384"><ele>571.0</ele><time>2026-05-02T15:08:26.595Z</time></trkpt><trkpt lat="45.8857283" lon="9.5967377"><ele>571.0</ele><time>2026-05-02T15:08:27.588Z</time></trkpt><trkpt lat="45.8856704" lon="9.5968553"><ele>571.0</ele><time>2026-05-02T15:08:28.59Z</time></trkpt><trkpt lat="45.8856358" lon="9.5970023"><ele>571.0</ele><time>2026-05-02T15:08:29.583Z</time></trkpt><trkpt lat="45.8856172" lon="9.5971699"><ele>571.0</ele><time>2026-05-02T15:08:30.573Z</time></trkpt><trkpt lat="45.8856135" lon="9.5973379"><ele>566.4</ele><time>2026-05-02T15:08:31.595Z</time></trkpt><trkpt lat="45.8856169" lon="9.5974932"><ele>561.8</ele><time>2026-05-02T15:08:32.593Z</time></trkpt><trkpt lat="45.8856318" lon="9.5976365"><ele>557.1999999999999</ele><time>2026-05-02T15:08:33.582Z</time></trkpt><trkpt lat="45.885654" lon="9.5977598"><ele>552.6</ele><time>2026-05-02T15:08:34.585Z</time></trkpt><trkpt lat="45.8856808" lon="9.5978678"><ele>548.0</ele><time>2026-05-02T15:08:35.57Z</time></trkpt><trkpt lat="45.8857146" lon="9.5979619"><ele>559.8333333333333</ele><time>2026-05-02T15:08:36.573Z</time></trkpt><trkpt lat="45.8857642" lon="9.5980367"><ele>571.6666666666666</ele><time>2026-05-02T15:08:37.589Z</time></trkpt><trkpt lat="45.8858276" lon="9.5980907"><ele>583.5</ele><time>2026-05-02T15:08:38.563Z</time></trkpt><trkpt lat="45.8859112" lon="9.5981464"><ele>595.3333333333334</ele><time>2026-05-02T15:08:39.563Z</time></trkpt><trkpt lat="45.885998" lon="9.5982063"><ele>607.1666666666667</ele><time>2026-05-02T15:08:40.571Z</time></trkpt><trkpt lat="45.8860774" lon="9.5982616"><ele>619.0</ele><time>2026-05-02T15:08:41.586Z</time></trkpt><trkpt lat="45.8861573" lon="9.5983173"><ele>619.0</ele><time>2026-05-02T15:08:42.648Z</time></trkpt><trkpt lat="45.8862247" lon="9.598376"><ele>619.0</ele><time>2026-05-02T15:08:43.584Z</time></trkpt><trkpt lat="45.8862905" lon="9.5984584"><ele>619.0</ele><time>2026-05-02T15:08:44.585Z</time></trkpt><trkpt lat="45.8863529" lon="9.5985539"><ele>619.0</ele><time>2026-05-02T15:08:45.591Z</time></trkpt><trkpt lat="45.886402" lon="9.5986601"><ele>619.0</ele><time>2026-05-02T15:08:46.594Z</time></trkpt><trkpt lat="45.8864395" lon="9.5987766"><ele>619.0</ele><time>2026-05-02T15:08:47.574Z</time></trkpt><trkpt lat="45.8864682" lon="9.5989096"><ele>628.6</ele><time>2026-05-02T15:08:48.578Z</time></trkpt><trkpt lat="45.8864918" lon="9.5990572"><ele>638.2</ele><time>2026-05-02T15:08:49.6Z</time></trkpt><trkpt lat="45.8865065" lon="9.5992038"><ele>647.8000000000001</ele><time>2026-05-02T15:08:50.629Z</time></trkpt><trkpt lat="45.8865059" lon="9.5993301"><ele>657.4</ele><time>2026-05-02T15:08:51.584Z</time></trkpt><trkpt lat="45.8864782" lon="9.5994444"><ele>667.0</ele><time>2026-05-02T15:08:52.599Z</time></trkpt><trkpt lat="45.8864217" lon="9.5995181"><ele>667.8</ele><time>2026-05-02T15:08:53.571Z</time></trkpt><trkpt lat="45.8863501" lon="9.5995792"><ele>668.6</ele><time>2026-05-02T15:08:54.578Z</time></trkpt><trkpt lat="45.8862828" lon="9.5996783"><ele>669.4</ele><time>2026-05-02T15:08:55.571Z</time></trkpt><trkpt lat="45.8862368" lon="9.5997958"><ele>670.1999999999999</ele><time>2026-05-02T15:08:56.598Z</time></trkpt><trkpt lat="45.8862006" lon="9.5999252"><ele>671.0</ele><time>2026-05-02T15:08:57.598Z</time></trkpt><trkpt lat="45.8861605" lon="9.6000641"><ele>671.0</ele><time>2026-05-02T15:08:58.595Z</time></trkpt><trkpt lat="45.8861198" lon="9.6002109"><ele>671.0</ele><time>2026-05-02T15:08:59.581Z</time></trkpt><trkpt lat="45.8860933" lon="9.6003863"><ele>671.0</ele><time>2026-05-02T15:09:00.582Z</time></trkpt><trkpt lat="45.8860839" lon="9.6005622"><ele>671.0</ele><time>2026-05-02T15:09:01.585Z</time></trkpt><trkpt lat="45.8860856" lon="9.6007335"><ele>670.0</ele><time>2026-05-02T15:09:02.6Z</time></trkpt><trkpt lat="45.8861028" lon="9.6008894"><ele>669.0</ele><time>2026-05-02T15:09:03.602Z</time></trkpt><trkpt lat="45.8861388" lon="9.6010236"><ele>668.0</ele><time>2026-05-02T15:09:04.572Z</time></trkpt><trkpt lat="45.8861923" lon="9.6011374"><ele>667.0</ele><time>2026-05-02T15:09:05.585Z</time></trkpt><trkpt lat="45.8862619" lon="9.6012346"><ele>666.0</ele><time>2026-05-02T15:09:06.568Z</time></trkpt><trkpt lat="45.8863349" lon="9.60133"><ele>666.0</ele><time>2026-05-02T15:09:07.571Z</time></trkpt><trkpt lat="45.886406" lon="9.6014177"><ele>666.0</ele><time>2026-05-02T15:09:08.543Z</time></trkpt><trkpt lat="45.8864768" lon="9.6015054"><ele>666.0</ele><time>2026-05-02T15:09:09.517Z</time></trkpt><trkpt lat="45.886542" lon="9.6015995"><ele>666.0</ele><time>2026-05-02T15:09:10.525Z</time></trkpt><trkpt lat="45.8865976" lon="9.601737"><ele>666.0</ele><time>2026-05-02T15:09:11.532Z</time></trkpt><trkpt lat="45.8866453" lon="9.6019094"><ele>666.0</ele><time>2026-05-02T15:09:12.578Z</time></trkpt><trkpt lat="45.8866589" lon="9.6021171"><ele>666.0</ele><time>2026-05-02T15:09:13.58Z</time></trkpt><trkpt lat="45.8866854" lon="9.6023341"><ele>666.0</ele><time>2026-05-02T15:09:14.565Z</time></trkpt><trkpt lat="45.8867114" lon="9.6025455"><ele>666.0</ele><time>2026-05-02T15:09:15.579Z</time></trkpt><trkpt lat="45.8867349" lon="9.6027334"><ele>642.75</ele><time>2026-05-02T15:09:16.553Z</time></trkpt><trkpt lat="45.8867725" lon="9.6029233"><ele>619.5</ele><time>2026-05-02T15:09:17.556Z</time></trkpt><trkpt lat="45.886817" lon="9.6031053"><ele>596.25</ele><time>2026-05-02T15:09:18.573Z</time></trkpt><trkpt lat="45.8868605" lon="9.603273"><ele>573.0</ele><time>2026-05-02T15:09:19.574Z</time></trkpt><trkpt lat="45.88692" lon="9.6034296"><ele>573.0</ele><time>2026-05-02T15:09:20.562Z</time></trkpt><trkpt lat="45.886979" lon="9.6035858"><ele>573.0</ele><time>2026-05-02T15:09:21.579Z</time></trkpt><trkpt lat="45.8870434" lon="9.6037239"><ele>573.0</ele><time>2026-05-02T15:09:22.569Z</time></trkpt><trkpt lat="45.8871073" lon="9.6038508"><ele>573.0</ele><time>2026-05-02T15:09:23.575Z</time></trkpt><trkpt lat="45.8871617" lon="9.6039678"><ele>573.0</ele><time>2026-05-02T15:09:24.578Z</time></trkpt><trkpt lat="45.8871922" lon="9.604084"><ele>567.1999999999999</ele><time>2026-05-02T15:09:25.574Z</time></trkpt><trkpt lat="45.8872011" lon="9.6042197"><ele>561.4</ele><time>2026-05-02T15:09:26.585Z</time></trkpt><trkpt lat="45.8871894" lon="9.6043683"><ele>555.5999999999999</ele><time>2026-05-02T15:09:27.592Z</time></trkpt><trkpt lat="45.8871783" lon="9.6045319"><ele>549.8</ele><time>2026-05-02T15:09:28.583Z</time></trkpt><trkpt lat="45.8871834" lon="9.6046975"><ele>544.0</ele><time>2026-05-02T15:09:29.583Z</time></trkpt><trkpt lat="45.8872077" lon="9.6048603"><ele>541.3333333333334</ele><time>2026-05-02T15:09:30.575Z</time></trkpt><trkpt lat="45.8872673" lon="9.6050288"><ele>538.6666666666666</ele><time>2026-05-02T15:09:31.582Z</time></trkpt><trkpt lat="45.8873431" lon="9.6052284"><ele>536.0</ele><time>2026-05-02T15:09:32.577Z</time></trkpt><trkpt lat="45.8874265" lon="9.605448"><ele>533.0</ele><time>2026-05-02T15:09:33.585Z</time></trkpt><trkpt lat="45.8875064" lon="9.6056539"><ele>530.0</ele><time>2026-05-02T15:09:34.577Z</time></trkpt><trkpt lat="45.8875854" lon="9.6058564"><ele>527.0</ele><time>2026-05-02T15:09:35.571Z</time></trkpt><trkpt lat="45.887664" lon="9.606059"><ele>527.0</ele><time>2026-05-02T15:09:36.566Z</time></trkpt><trkpt lat="45.8877469" lon="9.6062566"><ele>527.0</ele><time>2026-05-02T15:09:37.592Z</time></trkpt><trkpt lat="45.8878335" lon="9.6064243"><ele>527.0</ele><time>2026-05-02T15:09:38.581Z</time></trkpt><trkpt lat="45.8879249" lon="9.6065727"><ele>527.0</ele><time>2026-05-02T15:09:39.57Z</time></trkpt><trkpt lat="45.8880119" lon="9.6067328"><ele>527.0</ele><time>2026-05-02T15:09:40.572Z</time></trkpt><trkpt lat="45.8880998" lon="9.6069059"><ele>527.0</ele><time>2026-05-02T15:09:41.578Z</time></trkpt><trkpt lat="45.8881887" lon="9.6070805"><ele>527.0</ele><time>2026-05-02T15:09:42.583Z</time></trkpt><trkpt lat="45.8882754" lon="9.6072385"><ele>527.0</ele><time>2026-05-02T15:09:43.59Z</time></trkpt><trkpt lat="45.8883687" lon="9.6073844"><ele>532.25</ele><time>2026-05-02T15:09:44.593Z</time></trkpt><trkpt lat="45.8884556" lon="9.6075202"><ele>537.5</ele><time>2026-05-02T15:09:45.599Z</time></trkpt><trkpt lat="45.8885217" lon="9.6076566"><ele>542.75</ele><time>2026-05-02T15:09:46.594Z</time></trkpt><trkpt lat="45.8885731" lon="9.60782"><ele>548.0</ele><time>2026-05-02T15:09:47.596Z</time></trkpt><trkpt lat="45.8886087" lon="9.6080142"><ele>548.0</ele><time>2026-05-02T15:09:48.58Z</time></trkpt><trkpt lat="45.8886559" lon="9.6082238"><ele>548.0</ele><time>2026-05-02T15:09:49.598Z</time></trkpt><trkpt lat="45.8887036" lon="9.6084273"><ele>548.0</ele><time>2026-05-02T15:09:50.611Z</time></trkpt><trkpt lat="45.8887423" lon="9.6086273"><ele>548.0</ele><time>2026-05-02T15:09:51.6Z</time></trkpt><trkpt lat="45.888765" lon="9.6088359"><ele>540.5</ele><time>2026-05-02T15:09:52.639Z</time></trkpt><trkpt lat="45.8887906" lon="9.6090515"><ele>533.0</ele><time>2026-05-02T15:09:53.706Z</time></trkpt><trkpt lat="45.8888867" lon="9.609469"><ele>529.0</ele><time>2026-05-02T15:09:55.607Z</time></trkpt><trkpt lat="45.8889255" lon="9.6096976"><ele>525.0</ele><time>2026-05-02T15:09:56.592Z</time></trkpt><trkpt lat="45.8889625" lon="9.6099166"><ele>521.0</ele><time>2026-05-02T15:09:57.595Z</time></trkpt><trkpt lat="45.8889862" lon="9.6101246"><ele>521.0</ele><time>2026-05-02T15:09:58.576Z</time></trkpt><trkpt lat="45.8889914" lon="9.6103599"><ele>521.0</ele><time>2026-05-02T15:09:59.584Z</time></trkpt><trkpt lat="45.8889862" lon="9.6106095"><ele>521.0</ele><time>2026-05-02T15:10:00.574Z</time></trkpt><trkpt lat="45.88897" lon="9.6108509"><ele>533.6666666666666</ele><time>2026-05-02T15:10:01.567Z</time></trkpt><trkpt lat="45.8889526" lon="9.611095"><ele>546.3333333333334</ele><time>2026-05-02T15:10:02.6Z</time></trkpt><trkpt lat="45.8889463" lon="9.6113303"><ele>559.0</ele><time>2026-05-02T15:10:03.57Z</time></trkpt><trkpt lat="45.8889463" lon="9.6115622"><ele>559.0</ele><time>2026-05-02T15:10:04.585Z</time></trkpt><trkpt lat="45.888945" lon="9.6117824"><ele>559.0</ele><time>2026-05-02T15:10:05.596Z</time></trkpt><trkpt lat="45.8889421" lon="9.6119857"><ele>559.0</ele><time>2026-05-02T15:10:06.579Z</time></trkpt><trkpt lat="45.8889463" lon="9.612191"><ele>559.0</ele><time>2026-05-02T15:10:07.607Z</time></trkpt><trkpt lat="45.8889642" lon="9.6123792"><ele>553.0</ele><time>2026-05-02T15:10:08.585Z</time></trkpt><trkpt lat="45.8890081" lon="9.612592"><ele>547.0</ele><time>2026-05-02T15:10:09.611Z</time></trkpt><trkpt lat="45.8890716" lon="9.6128011"><ele>541.0</ele><time>2026-05-02T15:10:10.601Z</time></trkpt><trkpt lat="45.8891417" lon="9.6130043"><ele>543.75</ele><time>2026-05-02T15:10:11.594Z</time></trkpt><trkpt lat="45.8892007" lon="9.6132102"><ele>546.5</ele><time>2026-05-02T15:10:12.604Z</time></trkpt><trkpt lat="45.8892437" lon="9.6134173"><ele>549.25</ele><time>2026-05-02T15:10:13.594Z</time></trkpt><trkpt lat="45.8892729" lon="9.6136148"><ele>552.0</ele><time>2026-05-02T15:10:14.586Z</time></trkpt><trkpt lat="45.889291" lon="9.613824"><ele>552.0</ele><time>2026-05-02T15:10:15.588Z</time></trkpt><trkpt lat="45.8893026" lon="9.6140298"><ele>552.0</ele><time>2026-05-02T15:10:16.576Z</time></trkpt><trkpt lat="45.8893094" lon="9.6142373"><ele>552.0</ele><time>2026-05-02T15:10:17.549Z</time></trkpt><trkpt lat="45.8893003" lon="9.6144563"><ele>552.0</ele><time>2026-05-02T15:10:18.545Z</time></trkpt><trkpt lat="45.8868414" lon="9.6201121"><ele>511.0</ele><time>2026-05-02T15:10:35.846Z</time></trkpt><trkpt lat="45.8873767" lon="9.6192204"><ele>511.00000000000006</ele><time>2026-05-02T15:10:44.375Z</time></trkpt><trkpt lat="45.8873555" lon="9.6193426"><ele>511.0</ele><time>2026-05-02T15:10:46.375Z</time></trkpt><trkpt lat="45.8873531" lon="9.6194636"><ele>511.0</ele><time>2026-05-02T15:10:48.578Z</time></trkpt><trkpt lat="45.8873495" lon="9.6195553"><ele>511.0</ele><time>2026-05-02T15:10:51.591Z</time></trkpt><trkpt lat="45.8873368" lon="9.619722"><ele>511.00000000000006</ele><time>2026-05-02T15:11:27.615Z</time></trkpt><trkpt lat="45.8872924" lon="9.6198228"><ele>511.0</ele><time>2026-05-02T15:11:28.602Z</time></trkpt><trkpt lat="45.8872446" lon="9.6199274"><ele>510.33333333333337</ele><time>2026-05-02T15:11:29.595Z</time></trkpt><trkpt lat="45.8871904" lon="9.6200229"><ele>509.6666666666667</ele><time>2026-05-02T15:11:30.599Z</time></trkpt><trkpt lat="45.8871237" lon="9.620104"><ele>509.0</ele><time>2026-05-02T15:11:31.599Z</time></trkpt><trkpt lat="45.8870504" lon="9.620162"><ele>508.33333333333337</ele><time>2026-05-02T15:11:32.595Z</time></trkpt><trkpt lat="45.8869802" lon="9.6201874"><ele>507.6666666666667</ele><time>2026-05-02T15:11:33.623Z</time></trkpt><trkpt lat="45.8869132" lon="9.6201866"><ele>507.0</ele><time>2026-05-02T15:11:34.608Z</time></trkpt><trkpt lat="45.8868498" lon="9.620167"><ele>502.0</ele><time>2026-05-02T15:11:35.609Z</time></trkpt><trkpt lat="45.8867428" lon="9.6201488"><ele>497.00000000000006</ele><time>2026-05-02T15:11:37.611Z</time></trkpt><trkpt lat="45.8866868" lon="9.6202079"><ele>492.00000000000006</ele><time>2026-05-02T15:11:38.611Z</time></trkpt><trkpt lat="45.8866351" lon="9.6203089"><ele>487.0</ele><time>2026-05-02T15:11:39.598Z</time></trkpt><trkpt lat="45.8865927" lon="9.620447"><ele>482.0</ele><time>2026-05-02T15:11:40.587Z</time></trkpt><trkpt lat="45.8865443" lon="9.6205944"><ele>482.40000000000003</ele><time>2026-05-02T15:11:41.616Z</time></trkpt><trkpt lat="45.8864845" lon="9.6207257"><ele>482.80000000000007</ele><time>2026-05-02T15:11:42.607Z</time></trkpt><trkpt lat="45.8864136" lon="9.6208382"><ele>483.2</ele><time>2026-05-02T15:11:43.606Z</time></trkpt><trkpt lat="45.8863337" lon="9.6209465"><ele>483.6</ele><time>2026-05-02T15:11:44.625Z</time></trkpt><trkpt lat="45.8862669" lon="9.6210947"><ele>484.0</ele><time>2026-05-02T15:11:45.625Z</time></trkpt><trkpt lat="45.8862265" lon="9.6212859"><ele>484.0</ele><time>2026-05-02T15:11:46.603Z</time></trkpt><trkpt lat="45.8861959" lon="9.6215164"><ele>484.0</ele><time>2026-05-02T15:11:47.631Z</time></trkpt><trkpt lat="45.8861701" lon="9.621727"><ele>484.0</ele><time>2026-05-02T15:11:48.598Z</time></trkpt><trkpt lat="45.8861359" lon="9.6219359"><ele>482.75</ele><time>2026-05-02T15:11:49.615Z</time></trkpt><trkpt lat="45.8861026" lon="9.6221269"><ele>481.5</ele><time>2026-05-02T15:11:50.606Z</time></trkpt><trkpt lat="45.8860542" lon="9.6223098"><ele>480.25</ele><time>2026-05-02T15:11:51.626Z</time></trkpt><trkpt lat="45.886006" lon="9.6224709"><ele>479.0</ele><time>2026-05-02T15:11:52.602Z</time></trkpt><trkpt lat="45.8859558" lon="9.6226255"><ele>473.75</ele><time>2026-05-02T15:11:53.627Z</time></trkpt><trkpt lat="45.8859015" lon="9.6227415"><ele>468.5</ele><time>2026-05-02T15:11:54.597Z</time></trkpt><trkpt lat="45.8858174" lon="9.6228403"><ele>463.25</ele><time>2026-05-02T15:11:55.619Z</time></trkpt><trkpt lat="45.8856957" lon="9.6229089"><ele>458.0</ele><time>2026-05-02T15:11:56.61Z</time></trkpt><trkpt lat="45.8855534" lon="9.6229931"><ele>455.0</ele><time>2026-05-02T15:11:57.626Z</time></trkpt><trkpt lat="45.8854046" lon="9.6230856"><ele>452.0</ele><time>2026-05-02T15:11:58.623Z</time></trkpt><trkpt lat="45.8852527" lon="9.6231567"><ele>449.0</ele><time>2026-05-02T15:11:59.62Z</time></trkpt><trkpt lat="45.8851066" lon="9.6232194"><ele>450.5</ele><time>2026-05-02T15:12:00.62Z</time></trkpt><trkpt lat="45.8849722" lon="9.6232835"><ele>452.0</ele><time>2026-05-02T15:12:01.604Z</time></trkpt><trkpt lat="45.884839" lon="9.6233762"><ele>453.5</ele><time>2026-05-02T15:12:02.61Z</time></trkpt><trkpt lat="45.8847211" lon="9.6234825"><ele>455.0</ele><time>2026-05-02T15:12:03.62Z</time></trkpt><trkpt lat="45.8846217" lon="9.623603"><ele>453.0</ele><time>2026-05-02T15:12:04.614Z</time></trkpt><trkpt lat="45.8845336" lon="9.6237786"><ele>451.0</ele><time>2026-05-02T15:12:05.674Z</time></trkpt><trkpt lat="45.8844642" lon="9.6239633"><ele>449.0</ele><time>2026-05-02T15:12:06.613Z</time></trkpt><trkpt lat="45.8843841" lon="9.624145"><ele>447.0</ele><time>2026-05-02T15:12:07.623Z</time></trkpt><trkpt lat="45.8842922" lon="9.6243031"><ele>446.0</ele><time>2026-05-02T15:12:08.612Z</time></trkpt><trkpt lat="45.8842094" lon="9.6244523"><ele>445.0</ele><time>2026-05-02T15:12:09.62Z</time></trkpt><trkpt lat="45.8841461" lon="9.6246005"><ele>444.0</ele><time>2026-05-02T15:12:10.615Z</time></trkpt><trkpt lat="45.8840993" lon="9.6247575"><ele>443.0</ele><time>2026-05-02T15:12:11.625Z</time></trkpt><trkpt lat="45.88404" lon="9.6249272"><ele>443.0</ele><time>2026-05-02T15:12:12.747Z</time></trkpt><trkpt lat="45.883878" lon="9.6252518"><ele>443.0</ele><time>2026-05-02T15:12:14.749Z</time></trkpt><trkpt lat="45.8838023" lon="9.6254422"><ele>443.0</ele><time>2026-05-02T15:12:15.667Z</time></trkpt><trkpt lat="45.8837415" lon="9.625649"><ele>442.25</ele><time>2026-05-02T15:12:16.624Z</time></trkpt><trkpt lat="45.8836898" lon="9.6258615"><ele>441.5</ele><time>2026-05-02T15:12:17.65Z</time></trkpt><trkpt lat="45.8836389" lon="9.6260609"><ele>440.75</ele><time>2026-05-02T15:12:18.648Z</time></trkpt><trkpt lat="45.8836033" lon="9.6262545"><ele>440.0</ele><time>2026-05-02T15:12:19.657Z</time></trkpt><trkpt lat="45.8835976" lon="9.6264467"><ele>440.0</ele><time>2026-05-02T15:12:20.655Z</time></trkpt><trkpt lat="45.8836025" lon="9.6266356"><ele>440.0</ele><time>2026-05-02T15:12:21.647Z</time></trkpt><trkpt lat="45.8836034" lon="9.6268284"><ele>440.0</ele><time>2026-05-02T15:12:22.64Z</time></trkpt><trkpt lat="45.883617" lon="9.6270136"><ele>440.0</ele><time>2026-05-02T15:12:23.655Z</time></trkpt><trkpt lat="45.8836507" lon="9.6271785"><ele>438.75</ele><time>2026-05-02T15:12:24.658Z</time></trkpt><trkpt lat="45.8837199" lon="9.6273296"><ele>437.5</ele><time>2026-05-02T15:12:25.764Z</time></trkpt><trkpt lat="45.8838946" lon="9.6275086"><ele>436.25</ele><time>2026-05-02T15:12:27.643Z</time></trkpt><trkpt lat="45.8839689" lon="9.6276077"><ele>435.0</ele><time>2026-05-02T15:12:28.63Z</time></trkpt><trkpt lat="45.8840337" lon="9.6277456"><ele>434.5</ele><time>2026-05-02T15:12:29.661Z</time></trkpt><trkpt lat="45.8840977" lon="9.6279031"><ele>434.0</ele><time>2026-05-02T15:12:30.651Z</time></trkpt><trkpt lat="45.8841571" lon="9.6280673"><ele>433.5</ele><time>2026-05-02T15:12:31.621Z</time></trkpt><trkpt lat="45.8842046" lon="9.6282361"><ele>433.0</ele><time>2026-05-02T15:12:32.615Z</time></trkpt><trkpt lat="45.8842404" lon="9.6284158"><ele>433.0</ele><time>2026-05-02T15:12:33.663Z</time></trkpt><trkpt lat="45.8842419" lon="9.6285828"><ele>433.0</ele><time>2026-05-02T15:12:34.633Z</time></trkpt><trkpt lat="45.8842304" lon="9.6287719"><ele>433.0</ele><time>2026-05-02T15:12:35.665Z</time></trkpt><trkpt lat="45.884217" lon="9.6289461"><ele>433.0</ele><time>2026-05-02T15:12:36.638Z</time></trkpt><trkpt lat="45.8841964" lon="9.6291164"><ele>434.0</ele><time>2026-05-02T15:12:37.664Z</time></trkpt><trkpt lat="45.884152" lon="9.629249"><ele>435.0</ele><time>2026-05-02T15:12:38.618Z</time></trkpt><trkpt lat="45.8840762" lon="9.6293747"><ele>436.0</ele><time>2026-05-02T15:12:39.647Z</time></trkpt><trkpt lat="45.8839734" lon="9.6294954"><ele>437.0</ele><time>2026-05-02T15:12:40.664Z</time></trkpt><trkpt lat="45.883864" lon="9.6296187"><ele>439.0</ele><time>2026-05-02T15:12:41.638Z</time></trkpt><trkpt lat="45.8837337" lon="9.62976"><ele>441.0</ele><time>2026-05-02T15:12:42.665Z</time></trkpt><trkpt lat="45.8835956" lon="9.6299098"><ele>443.0</ele><time>2026-05-02T15:12:43.648Z</time></trkpt><trkpt lat="45.8834516" lon="9.6300537"><ele>439.66666666666663</ele><time>2026-05-02T15:12:44.647Z</time></trkpt><trkpt lat="45.8833055" lon="9.630198"><ele>436.33333333333337</ele><time>2026-05-02T15:12:45.662Z</time></trkpt><trkpt lat="45.8831714" lon="9.6303343"><ele>433.0</ele><time>2026-05-02T15:12:46.672Z</time></trkpt><trkpt lat="45.8830496" lon="9.6304781"><ele>432.0</ele><time>2026-05-02T15:12:47.673Z</time></trkpt><trkpt lat="45.8829506" lon="9.6306392"><ele>431.0</ele><time>2026-05-02T15:12:48.665Z</time></trkpt><trkpt lat="45.8828693" lon="9.6308186"><ele>430.0</ele><time>2026-05-02T15:12:49.656Z</time></trkpt><trkpt lat="45.8828149" lon="9.6310191"><ele>429.0</ele><time>2026-05-02T15:12:50.648Z</time></trkpt><trkpt lat="45.882766" lon="9.6312455"><ele>428.66666666666663</ele><time>2026-05-02T15:12:51.692Z</time></trkpt><trkpt lat="45.8827187" lon="9.63146"><ele>428.3333333333333</ele><time>2026-05-02T15:12:52.669Z</time></trkpt><trkpt lat="45.8826646" lon="9.6316887"><ele>428.0</ele><time>2026-05-02T15:12:53.687Z</time></trkpt><trkpt lat="45.8826127" lon="9.6319239"><ele>429.0</ele><time>2026-05-02T15:12:54.698Z</time></trkpt><trkpt lat="45.882571" lon="9.6321428"><ele>430.0</ele><time>2026-05-02T15:12:55.657Z</time></trkpt><trkpt lat="45.8825319" lon="9.6323682"><ele>431.0</ele><time>2026-05-02T15:12:56.67Z</time></trkpt><trkpt lat="45.8824926" lon="9.6325824"><ele>431.0</ele><time>2026-05-02T15:12:57.678Z</time></trkpt><trkpt lat="45.8824535" lon="9.6327856"><ele>431.0</ele><time>2026-05-02T15:12:58.648Z</time></trkpt><trkpt lat="45.8824152" lon="9.6329861"><ele>431.0</ele><time>2026-05-02T15:12:59.659Z</time></trkpt><trkpt lat="45.8823775" lon="9.6331841"><ele>431.0</ele><time>2026-05-02T15:13:00.696Z</time></trkpt><trkpt lat="45.8823487" lon="9.6333692"><ele>428.25</ele><time>2026-05-02T15:13:01.675Z</time></trkpt><trkpt lat="45.8823174" lon="9.6335568"><ele>425.5</ele><time>2026-05-02T15:13:02.658Z</time></trkpt><trkpt lat="45.8822847" lon="9.6337512"><ele>422.75</ele><time>2026-05-02T15:13:03.672Z</time></trkpt><trkpt lat="45.8822495" lon="9.6339417"><ele>420.0</ele><time>2026-05-02T15:13:04.654Z</time></trkpt><trkpt lat="45.8822105" lon="9.6341413"><ele>419.66666666666663</ele><time>2026-05-02T15:13:05.664Z</time></trkpt><trkpt lat="45.8821676" lon="9.6343394"><ele>419.3333333333333</ele><time>2026-05-02T15:13:06.648Z</time></trkpt><trkpt lat="45.8821172" lon="9.6345508"><ele>419.0</ele><time>2026-05-02T15:13:07.677Z</time></trkpt><trkpt lat="45.8820611" lon="9.6347552"><ele>418.25</ele><time>2026-05-02T15:13:08.661Z</time></trkpt><trkpt lat="45.8820029" lon="9.6349678"><ele>417.5</ele><time>2026-05-02T15:13:09.665Z</time></trkpt><trkpt lat="45.8819479" lon="9.6351737"><ele>416.75</ele><time>2026-05-02T15:13:10.682Z</time></trkpt><trkpt lat="45.8818942" lon="9.635344"><ele>416.0</ele><time>2026-05-02T15:13:11.683Z</time></trkpt><trkpt lat="45.8818362" lon="9.6354754"><ele>416.0</ele><time>2026-05-02T15:13:12.66Z</time></trkpt><trkpt lat="45.8817593" lon="9.6355772"><ele>416.0</ele><time>2026-05-02T15:13:13.665Z</time></trkpt><trkpt lat="45.8816577" lon="9.6356316"><ele>416.0</ele><time>2026-05-02T15:13:14.674Z</time></trkpt><trkpt lat="45.8815359" lon="9.6356408"><ele>416.0</ele><time>2026-05-02T15:13:15.681Z</time></trkpt><trkpt lat="45.881401" lon="9.6356126"><ele>416.0</ele><time>2026-05-02T15:13:16.706Z</time></trkpt><trkpt lat="45.8812793" lon="9.6356024"><ele>416.0</ele><time>2026-05-02T15:13:17.649Z</time></trkpt><trkpt lat="45.8811665" lon="9.6356327"><ele>416.0</ele><time>2026-05-02T15:13:18.658Z</time></trkpt><trkpt lat="45.8810711" lon="9.6357232"><ele>416.0</ele><time>2026-05-02T15:13:19.676Z</time></trkpt><trkpt lat="45.8809939" lon="9.6358627"><ele>415.25</ele><time>2026-05-02T15:13:20.66Z</time></trkpt><trkpt lat="45.88093" lon="9.6360347"><ele>414.5</ele><time>2026-05-02T15:13:21.672Z</time></trkpt><trkpt lat="45.880884" lon="9.6362261"><ele>413.75</ele><time>2026-05-02T15:13:22.661Z</time></trkpt><trkpt lat="45.8808581" lon="9.6364698"><ele>413.0</ele><time>2026-05-02T15:13:23.692Z</time></trkpt><trkpt lat="45.8808368" lon="9.6367246"><ele>414.3333333333333</ele><time>2026-05-02T15:13:24.691Z</time></trkpt><trkpt lat="45.8808169" lon="9.6369804"><ele>415.66666666666663</ele><time>2026-05-02T15:13:25.672Z</time></trkpt><trkpt lat="45.8807933" lon="9.6372443"><ele>417.0</ele><time>2026-05-02T15:13:26.629Z</time></trkpt><trkpt lat="45.8807503" lon="9.6375355"><ele>419.0</ele><time>2026-05-02T15:13:27.672Z</time></trkpt><trkpt lat="45.8806902" lon="9.6378044"><ele>421.0</ele><time>2026-05-02T15:13:28.678Z</time></trkpt><trkpt lat="45.8806183" lon="9.6380788"><ele>423.0</ele><time>2026-05-02T15:13:29.689Z</time></trkpt><trkpt lat="45.8805385" lon="9.6383377"><ele>423.0</ele><time>2026-05-02T15:13:30.676Z</time></trkpt><trkpt lat="45.8804541" lon="9.638586"><ele>423.0</ele><time>2026-05-02T15:13:31.701Z</time></trkpt><trkpt lat="45.8803808" lon="9.6388373"><ele>423.0</ele><time>2026-05-02T15:13:32.653Z</time></trkpt><trkpt lat="45.8803039" lon="9.6391294"><ele>426.0</ele><time>2026-05-02T15:13:33.69Z</time></trkpt><trkpt lat="45.8802391" lon="9.6394185"><ele>429.0</ele><time>2026-05-02T15:13:34.66Z</time></trkpt><trkpt lat="45.8801773" lon="9.6397252"><ele>432.0</ele><time>2026-05-02T15:13:35.668Z</time></trkpt><trkpt lat="45.8801174" lon="9.6400241"><ele>427.66666666666663</ele><time>2026-05-02T15:13:36.651Z</time></trkpt><trkpt lat="45.880056" lon="9.640341"><ele>423.3333333333333</ele><time>2026-05-02T15:13:37.683Z</time></trkpt><trkpt lat="45.8800014" lon="9.6406297"><ele>419.0</ele><time>2026-05-02T15:13:38.646Z</time></trkpt><trkpt lat="45.8799425" lon="9.6409217"><ele>422.0</ele><time>2026-05-02T15:13:39.674Z</time></trkpt><trkpt lat="45.8798864" lon="9.6411898"><ele>425.0</ele><time>2026-05-02T15:13:40.666Z</time></trkpt><trkpt lat="45.8798277" lon="9.641432"><ele>428.0</ele><time>2026-05-02T15:13:41.682Z</time></trkpt><trkpt lat="45.879766" lon="9.6416551"><ele>428.0</ele><time>2026-05-02T15:13:42.653Z</time></trkpt><trkpt lat="45.8796925" lon="9.6418747"><ele>428.0</ele><time>2026-05-02T15:13:43.658Z</time></trkpt><trkpt lat="45.8796053" lon="9.6420715"><ele>428.0</ele><time>2026-05-02T15:13:44.657Z</time></trkpt><trkpt lat="45.8795051" lon="9.6422618"><ele>430.0</ele><time>2026-05-02T15:13:45.644Z</time></trkpt><trkpt lat="45.8793929" lon="9.6424397"><ele>432.0</ele><time>2026-05-02T15:13:46.611Z</time></trkpt><trkpt lat="45.8792666" lon="9.6426352"><ele>434.0</ele><time>2026-05-02T15:13:47.651Z</time></trkpt><trkpt lat="45.8791495" lon="9.6428251"><ele>434.0</ele><time>2026-05-02T15:13:48.653Z</time></trkpt><trkpt lat="45.8790264" lon="9.6430178"><ele>434.0</ele><time>2026-05-02T15:13:49.656Z</time></trkpt><trkpt lat="45.8789009" lon="9.6432234"><ele>434.0</ele><time>2026-05-02T15:13:50.672Z</time></trkpt><trkpt lat="45.8787796" lon="9.6434187"><ele>434.0</ele><time>2026-05-02T15:13:51.686Z</time></trkpt><trkpt lat="45.8786671" lon="9.6435925"><ele>434.0</ele><time>2026-05-02T15:13:52.67Z</time></trkpt><trkpt lat="45.8785541" lon="9.6437594"><ele>434.0</ele><time>2026-05-02T15:13:53.678Z</time></trkpt><trkpt lat="45.8784481" lon="9.6439204"><ele>429.3333333333333</ele><time>2026-05-02T15:13:54.682Z</time></trkpt><trkpt lat="45.8783404" lon="9.6440889"><ele>424.66666666666663</ele><time>2026-05-02T15:13:55.676Z</time></trkpt><trkpt lat="45.8782275" lon="9.6442698"><ele>420.0</ele><time>2026-05-02T15:13:56.683Z</time></trkpt><trkpt lat="45.8781144" lon="9.6444505"><ele>421.75</ele><time>2026-05-02T15:13:57.748Z</time></trkpt><trkpt lat="45.878019" lon="9.6446026"><ele>423.5</ele><time>2026-05-02T15:13:58.685Z</time></trkpt><trkpt lat="45.8779285" lon="9.6447559"><ele>425.25</ele><time>2026-05-02T15:13:59.66Z</time></trkpt><trkpt lat="45.8778414" lon="9.6449238"><ele>427.0</ele><time>2026-05-02T15:14:00.684Z</time></trkpt><trkpt lat="45.8777636" lon="9.6450981"><ele>427.0</ele><time>2026-05-02T15:14:01.684Z</time></trkpt><trkpt lat="45.8776979" lon="9.6452899"><ele>427.0</ele><time>2026-05-02T15:14:02.697Z</time></trkpt><trkpt lat="45.8776539" lon="9.6454992"><ele>427.0</ele><time>2026-05-02T15:14:03.708Z</time></trkpt><trkpt lat="45.8776301" lon="9.6457281"><ele>425.33333333333337</ele><time>2026-05-02T15:14:04.708Z</time></trkpt><trkpt lat="45.8776167" lon="9.6459687"><ele>423.66666666666663</ele><time>2026-05-02T15:14:05.685Z</time></trkpt><trkpt lat="45.8775963" lon="9.6462509"><ele>422.0</ele><time>2026-05-02T15:14:06.794Z</time></trkpt><trkpt lat="45.877577" lon="9.6464891"><ele>418.0</ele><time>2026-05-02T15:14:07.717Z</time></trkpt><trkpt lat="45.8775547" lon="9.6467441"><ele>414.0</ele><time>2026-05-02T15:14:08.709Z</time></trkpt><trkpt lat="45.8775373" lon="9.6470041"><ele>410.0</ele><time>2026-05-02T15:14:09.719Z</time></trkpt><trkpt lat="45.8775214" lon="9.6472351"><ele>410.0</ele><time>2026-05-02T15:14:10.66Z</time></trkpt><trkpt lat="45.8775014" lon="9.6474792"><ele>410.0</ele><time>2026-05-02T15:14:11.678Z</time></trkpt><trkpt lat="45.8774817" lon="9.6477267"><ele>410.0</ele><time>2026-05-02T15:14:12.724Z</time></trkpt><trkpt lat="45.8774618" lon="9.6479474"><ele>411.0</ele><time>2026-05-02T15:14:13.674Z</time></trkpt><trkpt lat="45.877439" lon="9.6481784"><ele>412.0</ele><time>2026-05-02T15:14:14.67Z</time></trkpt><trkpt lat="45.877416" lon="9.6484097"><ele>413.0</ele><time>2026-05-02T15:14:15.655Z</time></trkpt><trkpt lat="45.8773825" lon="9.6486476"><ele>417.0</ele><time>2026-05-02T15:14:16.662Z</time></trkpt><trkpt lat="45.8773424" lon="9.6488651"><ele>421.0</ele><time>2026-05-02T15:14:17.647Z</time></trkpt><trkpt lat="45.8772876" lon="9.6490944"><ele>425.0</ele><time>2026-05-02T15:14:18.754Z</time></trkpt><trkpt lat="45.8772371" lon="9.6492577"><ele>425.0</ele><time>2026-05-02T15:14:19.621Z</time></trkpt><trkpt lat="45.8771574" lon="9.6494282"><ele>425.0</ele><time>2026-05-02T15:14:20.656Z</time></trkpt><trkpt lat="45.8770643" lon="9.6495704"><ele>425.0</ele><time>2026-05-02T15:14:21.642Z</time></trkpt><trkpt lat="45.8769525" lon="9.6496893"><ele>425.0</ele><time>2026-05-02T15:14:22.641Z</time></trkpt><trkpt lat="45.8768122" lon="9.6497833"><ele>421.0</ele><time>2026-05-02T15:14:23.673Z</time></trkpt><trkpt lat="45.8766675" lon="9.6498798"><ele>417.0</ele><time>2026-05-02T15:14:24.692Z</time></trkpt><trkpt lat="45.8765401" lon="9.649975"><ele>413.0</ele><time>2026-05-02T15:14:25.663Z</time></trkpt><trkpt lat="45.8764188" lon="9.6500911"><ele>409.0</ele><time>2026-05-02T15:14:26.668Z</time></trkpt><trkpt lat="45.8763138" lon="9.65022"><ele>413.0</ele><time>2026-05-02T15:14:27.657Z</time></trkpt><trkpt lat="45.8762225" lon="9.6503597"><ele>417.0</ele><time>2026-05-02T15:14:28.665Z</time></trkpt><trkpt lat="45.8761336" lon="9.6504979"><ele>421.0</ele><time>2026-05-02T15:14:29.684Z</time></trkpt><trkpt lat="45.8760556" lon="9.6506246"><ele>425.0</ele><time>2026-05-02T15:14:30.695Z</time></trkpt><trkpt lat="45.8759749" lon="9.6507444"><ele>420.75</ele><time>2026-05-02T15:14:31.668Z</time></trkpt><trkpt lat="45.8758881" lon="9.6508725"><ele>416.5</ele><time>2026-05-02T15:14:32.677Z</time></trkpt><trkpt lat="45.8757951" lon="9.6509932"><ele>412.25</ele><time>2026-05-02T15:14:33.662Z</time></trkpt><trkpt lat="45.8756999" lon="9.651123"><ele>408.0</ele><time>2026-05-02T15:14:34.673Z</time></trkpt><trkpt lat="45.8756147" lon="9.6512644"><ele>408.0</ele><time>2026-05-02T15:14:35.678Z</time></trkpt><trkpt lat="45.8755397" lon="9.651401"><ele>408.0</ele><time>2026-05-02T15:14:36.693Z</time></trkpt><trkpt lat="45.8754729" lon="9.6515215"><ele>408.0</ele><time>2026-05-02T15:14:37.673Z</time></trkpt><trkpt lat="45.8754322" lon="9.6516272"><ele>408.0</ele><time>2026-05-02T15:14:38.667Z</time></trkpt><trkpt lat="45.875418" lon="9.6517456"><ele>408.0</ele><time>2026-05-02T15:14:39.69Z</time></trkpt><trkpt lat="45.8754379" lon="9.651854"><ele>406.2</ele><time>2026-05-02T15:14:40.671Z</time></trkpt><trkpt lat="45.8755082" lon="9.6519622"><ele>404.4</ele><time>2026-05-02T15:14:42.686Z</time></trkpt><trkpt lat="45.8755723" lon="9.6520036"><ele>402.59999999999997</ele><time>2026-05-02T15:14:43.683Z</time></trkpt><trkpt lat="45.8756503" lon="9.6520477"><ele>400.79999999999995</ele><time>2026-05-02T15:14:44.681Z</time></trkpt><trkpt lat="45.8757284" lon="9.6520991"><ele>399.0</ele><time>2026-05-02T15:14:45.671Z</time></trkpt><trkpt lat="45.8758102" lon="9.6522109"><ele>399.0</ele><time>2026-05-02T15:14:47.704Z</time></trkpt><trkpt lat="45.8758308" lon="9.6523044"><ele>399.0</ele><time>2026-05-02T15:14:50.66Z</time></trkpt><trkpt lat="45.8758123" lon="9.6523996"><ele>399.0</ele><time>2026-05-02T15:14:56.683Z</time></trkpt><trkpt lat="45.8757469" lon="9.6524387"><ele>399.0</ele><time>2026-05-02T15:14:59.67Z</time></trkpt><trkpt lat="45.8756828" lon="9.6524557"><ele>399.0</ele><time>2026-05-02T15:15:02.699Z</time></trkpt><trkpt lat="45.8756181" lon="9.6525122"><ele>399.0</ele><time>2026-05-02T15:15:05.687Z</time></trkpt><trkpt lat="45.8755611" lon="9.6525991"><ele>399.0</ele><time>2026-05-02T15:15:08.837Z</time></trkpt><trkpt lat="45.8755038" lon="9.6526472"><ele>399.0</ele><time>2026-05-02T15:15:11.713Z</time></trkpt><trkpt lat="45.8754309" lon="9.6527014"><ele>399.0</ele><time>2026-05-02T15:15:14.71Z</time></trkpt><trkpt lat="45.875348" lon="9.6527629"><ele>399.0</ele><time>2026-05-02T15:15:18.719Z</time></trkpt><trkpt lat="45.875271" lon="9.6527916"><ele>399.0</ele><time>2026-05-02T15:15:22.682Z</time></trkpt><trkpt lat="45.8752075" lon="9.65281"><ele>399.0</ele><time>2026-05-02T15:15:25.703Z</time></trkpt><trkpt lat="45.8751224" lon="9.6528041"><ele>399.0</ele><time>2026-05-02T15:15:28.71Z</time></trkpt><trkpt lat="45.8750527" lon="9.6527939"><ele>398.8333333333333</ele><time>2026-05-02T15:15:30.729Z</time></trkpt><trkpt lat="45.8749789" lon="9.652798"><ele>398.66666666666663</ele><time>2026-05-02T15:15:33.697Z</time></trkpt><trkpt lat="45.8748997" lon="9.6527913"><ele>398.5</ele><time>2026-05-02T15:15:36.685Z</time></trkpt><trkpt lat="45.8748223" lon="9.6527824"><ele>398.3333333333333</ele><time>2026-05-02T15:15:39.714Z</time></trkpt><trkpt lat="45.8747535" lon="9.652777"><ele>398.16666666666663</ele><time>2026-05-02T15:15:42.682Z</time></trkpt><trkpt lat="45.8746779" lon="9.6527858"><ele>398.0</ele><time>2026-05-02T15:15:45.77Z</time></trkpt><trkpt lat="45.8745798" lon="9.6528039"><ele>397.4285714285714</ele><time>2026-05-02T15:15:47.718Z</time></trkpt><trkpt lat="45.8745066" lon="9.6528119"><ele>396.85714285714283</ele><time>2026-05-02T15:15:48.69Z</time></trkpt><trkpt lat="45.8744291" lon="9.652813"><ele>396.2857142857143</ele><time>2026-05-02T15:15:49.726Z</time></trkpt><trkpt lat="45.8743562" lon="9.6528136"><ele>395.71428571428567</ele><time>2026-05-02T15:15:50.838Z</time></trkpt><trkpt lat="45.8742856" lon="9.652811"><ele>395.14285714285717</ele><time>2026-05-02T15:15:52.717Z</time></trkpt><trkpt lat="45.8742226" lon="9.6528092"><ele>394.57142857142856</ele><time>2026-05-02T15:15:57.701Z</time></trkpt><trkpt lat="45.8741328" lon="9.6528027"><ele>394.0</ele><time>2026-05-02T15:16:03.7Z</time></trkpt><trkpt lat="45.8740408" lon="9.6527989"><ele>393.4</ele><time>2026-05-02T15:16:05.845Z</time></trkpt><trkpt lat="45.8739504" lon="9.6527978"><ele>392.79999999999995</ele><time>2026-05-02T15:16:07.734Z</time></trkpt><trkpt lat="45.8738477" lon="9.6528005"><ele>392.20000000000005</ele><time>2026-05-02T15:16:09.819Z</time></trkpt><trkpt lat="45.8737598" lon="9.6527961"><ele>391.6</ele><time>2026-05-02T15:16:11.691Z</time></trkpt><trkpt lat="45.8736595" lon="9.6527889"><ele>391.0</ele><time>2026-05-02T15:16:13.697Z</time></trkpt><trkpt lat="45.8735919" lon="9.6527779"><ele>391.6666666666667</ele><time>2026-05-02T15:16:15.691Z</time></trkpt><trkpt lat="45.8735183" lon="9.6527791"><ele>392.33333333333337</ele><time>2026-05-02T15:16:18.673Z</time></trkpt><trkpt lat="45.8734443" lon="9.6527819"><ele>393.0</ele><time>2026-05-02T15:16:21.651Z</time></trkpt><trkpt lat="45.8733694" lon="9.6527747"><ele>393.66666666666663</ele><time>2026-05-02T15:16:23.682Z</time></trkpt><trkpt lat="45.8732827" lon="9.6527596"><ele>394.3333333333333</ele><time>2026-05-02T15:16:25.686Z</time></trkpt><trkpt lat="45.873176" lon="9.6527263"><ele>395.0</ele><time>2026-05-02T15:16:27.687Z</time></trkpt><trkpt lat="45.8731022" lon="9.6526944"><ele>395.0</ele><time>2026-05-02T15:16:28.704Z</time></trkpt><trkpt lat="45.8730091" lon="9.6526566"><ele>395.0</ele><time>2026-05-02T15:16:29.794Z</time></trkpt><trkpt lat="45.8728467" lon="9.6525735"><ele>395.0</ele><time>2026-05-02T15:16:31.687Z</time></trkpt><trkpt lat="45.8727731" lon="9.6525206"><ele>395.0</ele><time>2026-05-02T15:16:32.678Z</time></trkpt><trkpt lat="45.8727021" lon="9.6524651"><ele>395.0</ele><time>2026-05-02T15:16:33.694Z</time></trkpt><trkpt lat="45.872627" lon="9.6523916"><ele>395.66666666666663</ele><time>2026-05-02T15:16:34.702Z</time></trkpt><trkpt lat="45.8725539" lon="9.6523123"><ele>396.3333333333333</ele><time>2026-05-02T15:16:35.689Z</time></trkpt><trkpt lat="45.8724816" lon="9.6522329"><ele>397.0</ele><time>2026-05-02T15:16:36.702Z</time></trkpt><trkpt lat="45.8724121" lon="9.6521549"><ele>397.66666666666663</ele><time>2026-05-02T15:16:37.698Z</time></trkpt><trkpt lat="45.8723438" lon="9.6520748"><ele>398.3333333333333</ele><time>2026-05-02T15:16:38.706Z</time></trkpt><trkpt lat="45.8722708" lon="9.651998"><ele>399.0</ele><time>2026-05-02T15:16:39.69Z</time></trkpt><trkpt lat="45.8721976" lon="9.6519189"><ele>399.0</ele><time>2026-05-02T15:16:40.677Z</time></trkpt><trkpt lat="45.8721285" lon="9.6518375"><ele>399.0</ele><time>2026-05-02T15:16:41.673Z</time></trkpt><trkpt lat="45.8720614" lon="9.651753"><ele>399.0</ele><time>2026-05-02T15:16:42.692Z</time></trkpt><trkpt lat="45.8719919" lon="9.6516773"><ele>399.0</ele><time>2026-05-02T15:16:43.672Z</time></trkpt><trkpt lat="45.871919" lon="9.6516101"><ele>399.0</ele><time>2026-05-02T15:16:44.677Z</time></trkpt><trkpt lat="45.8718418" lon="9.6515565"><ele>399.0</ele><time>2026-05-02T15:16:45.684Z</time></trkpt><trkpt lat="45.8717641" lon="9.6515209"><ele>397.2</ele><time>2026-05-02T15:16:46.682Z</time></trkpt><trkpt lat="45.871679" lon="9.6514953"><ele>395.4</ele><time>2026-05-02T15:16:47.684Z</time></trkpt><trkpt lat="45.8715884" lon="9.6514822"><ele>393.6</ele><time>2026-05-02T15:16:48.687Z</time></trkpt><trkpt lat="45.8714927" lon="9.6514966"><ele>391.8</ele><time>2026-05-02T15:16:49.684Z</time></trkpt><trkpt lat="45.8713876" lon="9.6515409"><ele>390.0</ele><time>2026-05-02T15:16:50.683Z</time></trkpt><trkpt lat="45.8712654" lon="9.6516123"><ele>390.0</ele><time>2026-05-02T15:16:51.683Z</time></trkpt><trkpt lat="45.87113" lon="9.6517017"><ele>390.0</ele><time>2026-05-02T15:16:52.698Z</time></trkpt><trkpt lat="45.8710011" lon="9.6517923"><ele>390.0</ele><time>2026-05-02T15:16:53.658Z</time></trkpt><trkpt lat="45.870862" lon="9.651886"><ele>390.0</ele><time>2026-05-02T15:16:54.653Z</time></trkpt><trkpt lat="45.8707199" lon="9.6519769"><ele>387.3333333333333</ele><time>2026-05-02T15:16:55.677Z</time></trkpt><trkpt lat="45.8705495" lon="9.6520909"><ele>384.66666666666663</ele><time>2026-05-02T15:16:56.688Z</time></trkpt><trkpt lat="45.8703901" lon="9.6521922"><ele>382.0</ele><time>2026-05-02T15:16:57.698Z</time></trkpt><trkpt lat="45.8702435" lon="9.6522827"><ele>382.0</ele><time>2026-05-02T15:16:58.683Z</time></trkpt><trkpt lat="45.8701094" lon="9.6523676"><ele>382.0</ele><time>2026-05-02T15:16:59.658Z</time></trkpt><trkpt lat="45.8699721" lon="9.6524531"><ele>382.0</ele><time>2026-05-02T15:17:00.679Z</time></trkpt><trkpt lat="45.8698436" lon="9.652529"><ele>382.0</ele><time>2026-05-02T15:17:01.689Z</time></trkpt><trkpt lat="45.8697213" lon="9.6525961"><ele>381.5</ele><time>2026-05-02T15:17:02.68Z</time></trkpt><trkpt lat="45.8696093" lon="9.6526727"><ele>381.0</ele><time>2026-05-02T15:17:03.688Z</time></trkpt><trkpt lat="45.8695012" lon="9.6527335"><ele>380.5</ele><time>2026-05-02T15:17:04.689Z</time></trkpt><trkpt lat="45.8693979" lon="9.6527914"><ele>380.0</ele><time>2026-05-02T15:17:05.674Z</time></trkpt><trkpt lat="45.8692817" lon="9.6528571"><ele>380.5</ele><time>2026-05-02T15:17:06.675Z</time></trkpt><trkpt lat="45.869166" lon="9.6529346"><ele>381.0</ele><time>2026-05-02T15:17:07.656Z</time></trkpt><trkpt lat="45.8690513" lon="9.6530362"><ele>381.5</ele><time>2026-05-02T15:17:08.653Z</time></trkpt><trkpt lat="45.86893" lon="9.6531626"><ele>382.0</ele><time>2026-05-02T15:17:09.692Z</time></trkpt><trkpt lat="45.8688203" lon="9.6532889"><ele>382.0</ele><time>2026-05-02T15:17:10.681Z</time></trkpt><trkpt lat="45.8687227" lon="9.6534118"><ele>382.0</ele><time>2026-05-02T15:17:11.681Z</time></trkpt><trkpt lat="45.868637" lon="9.6535349"><ele>382.0</ele><time>2026-05-02T15:17:12.681Z</time></trkpt><trkpt lat="45.8685551" lon="9.6536539"><ele>382.0</ele><time>2026-05-02T15:17:13.68Z</time></trkpt><trkpt lat="45.8684746" lon="9.6537863"><ele>384.25</ele><time>2026-05-02T15:17:14.723Z</time></trkpt><trkpt lat="45.8684059" lon="9.6539359"><ele>386.5</ele><time>2026-05-02T15:17:15.693Z</time></trkpt><trkpt lat="45.8683514" lon="9.654091"><ele>388.75</ele><time>2026-05-02T15:17:16.666Z</time></trkpt><trkpt lat="45.8683091" lon="9.6542467"><ele>391.0</ele><time>2026-05-02T15:17:17.674Z</time></trkpt><trkpt lat="45.8682719" lon="9.6543979"><ele>389.75</ele><time>2026-05-02T15:17:18.681Z</time></trkpt><trkpt lat="45.868229" lon="9.6545502"><ele>388.5</ele><time>2026-05-02T15:17:19.684Z</time></trkpt><trkpt lat="45.8681814" lon="9.6547179"><ele>387.25</ele><time>2026-05-02T15:17:20.68Z</time></trkpt><trkpt lat="45.8681363" lon="9.6548895"><ele>386.0</ele><time>2026-05-02T15:17:21.677Z</time></trkpt><trkpt lat="45.8680991" lon="9.6550505"><ele>386.0</ele><time>2026-05-02T15:17:22.663Z</time></trkpt><trkpt lat="45.8680664" lon="9.6552079"><ele>386.0</ele><time>2026-05-02T15:17:23.685Z</time></trkpt><trkpt lat="45.8680437" lon="9.655352"><ele>386.0</ele><time>2026-05-02T15:17:24.668Z</time></trkpt><trkpt lat="45.8680206" lon="9.6554944"><ele>386.0</ele><time>2026-05-02T15:17:25.703Z</time></trkpt><trkpt lat="45.8679955" lon="9.655623"><ele>386.0</ele><time>2026-05-02T15:17:26.682Z</time></trkpt><trkpt lat="45.8679672" lon="9.6557635"><ele>385.8</ele><time>2026-05-02T15:17:27.702Z</time></trkpt><trkpt lat="45.8679297" lon="9.6559022"><ele>385.6</ele><time>2026-05-02T15:17:28.695Z</time></trkpt><trkpt lat="45.8678774" lon="9.6560339"><ele>385.4</ele><time>2026-05-02T15:17:29.712Z</time></trkpt><trkpt lat="45.8678153" lon="9.6561513"><ele>385.2</ele><time>2026-05-02T15:17:30.686Z</time></trkpt><trkpt lat="45.8677549" lon="9.6562599"><ele>385.0</ele><time>2026-05-02T15:17:31.682Z</time></trkpt><trkpt lat="45.8676974" lon="9.6563722"><ele>385.0</ele><time>2026-05-02T15:17:32.685Z</time></trkpt><trkpt lat="45.8676361" lon="9.6564808"><ele>385.0</ele><time>2026-05-02T15:17:33.683Z</time></trkpt><trkpt lat="45.8675724" lon="9.6565966"><ele>385.0</ele><time>2026-05-02T15:17:34.689Z</time></trkpt><trkpt lat="45.8675065" lon="9.6567122"><ele>385.0</ele><time>2026-05-02T15:17:35.687Z</time></trkpt><trkpt lat="45.8674392" lon="9.6568243"><ele>385.0</ele><time>2026-05-02T15:17:36.684Z</time></trkpt><trkpt lat="45.8673622" lon="9.6569352"><ele>385.0</ele><time>2026-05-02T15:17:37.717Z</time></trkpt><trkpt lat="45.8672852" lon="9.6570333"><ele>385.0</ele><time>2026-05-02T15:17:38.683Z</time></trkpt><trkpt lat="45.8672031" lon="9.6571294"><ele>385.0</ele><time>2026-05-02T15:17:39.676Z</time></trkpt><trkpt lat="45.8671151" lon="9.6572158"><ele>385.0</ele><time>2026-05-02T15:17:40.689Z</time></trkpt><trkpt lat="45.8670268" lon="9.6572956"><ele>385.0</ele><time>2026-05-02T15:17:41.671Z</time></trkpt><trkpt lat="45.8669325" lon="9.6573691"><ele>385.0</ele><time>2026-05-02T15:17:42.702Z</time></trkpt><trkpt lat="45.8668412" lon="9.657432"><ele>385.0</ele><time>2026-05-02T15:17:43.687Z</time></trkpt><trkpt lat="45.8667459" lon="9.6574908"><ele>385.0</ele><time>2026-05-02T15:17:44.688Z</time></trkpt><trkpt lat="45.8666481" lon="9.6575413"><ele>385.0</ele><time>2026-05-02T15:17:45.691Z</time></trkpt><trkpt lat="45.8665489" lon="9.6575889"><ele>385.0</ele><time>2026-05-02T15:17:46.702Z</time></trkpt><trkpt lat="45.8664518" lon="9.6576326"><ele>385.25</ele><time>2026-05-02T15:17:47.692Z</time></trkpt><trkpt lat="45.8663502" lon="9.657672"><ele>385.5</ele><time>2026-05-02T15:17:48.703Z</time></trkpt><trkpt lat="45.8662405" lon="9.6577122"><ele>385.75</ele><time>2026-05-02T15:17:49.692Z</time></trkpt><trkpt lat="45.8661169" lon="9.6577572"><ele>386.0</ele><time>2026-05-02T15:17:50.715Z</time></trkpt><trkpt lat="45.8659881" lon="9.6578079"><ele>386.3333333333333</ele><time>2026-05-02T15:17:51.678Z</time></trkpt><trkpt lat="45.8658411" lon="9.657864"><ele>386.66666666666663</ele><time>2026-05-02T15:17:52.678Z</time></trkpt><trkpt lat="45.8656722" lon="9.6579322"><ele>387.0</ele><time>2026-05-02T15:17:53.712Z</time></trkpt><trkpt lat="45.8655144" lon="9.6579962"><ele>387.0</ele><time>2026-05-02T15:17:54.692Z</time></trkpt><trkpt lat="45.8653607" lon="9.6580576"><ele>387.0</ele><time>2026-05-02T15:17:55.703Z</time></trkpt><trkpt lat="45.8652184" lon="9.6581159"><ele>387.0</ele><time>2026-05-02T15:17:56.693Z</time></trkpt><trkpt lat="45.8650781" lon="9.6581708"><ele>386.0</ele><time>2026-05-02T15:17:57.701Z</time></trkpt><trkpt lat="45.8649305" lon="9.6582288"><ele>385.0</ele><time>2026-05-02T15:17:58.768Z</time></trkpt><trkpt lat="45.8647965" lon="9.658282"><ele>384.0</ele><time>2026-05-02T15:17:59.682Z</time></trkpt><trkpt lat="45.864642" lon="9.6583465"><ele>384.0</ele><time>2026-05-02T15:18:00.678Z</time></trkpt><trkpt lat="45.8644923" lon="9.6584072"><ele>384.0</ele><time>2026-05-02T15:18:01.699Z</time></trkpt><trkpt lat="45.8643554" lon="9.6584595"><ele>384.0</ele><time>2026-05-02T15:18:02.693Z</time></trkpt><trkpt lat="45.864216" lon="9.658512"><ele>384.0</ele><time>2026-05-02T15:18:03.719Z</time></trkpt><trkpt lat="45.8640795" lon="9.6585656"><ele>383.0</ele><time>2026-05-02T15:18:04.712Z</time></trkpt><trkpt lat="45.8639283" lon="9.658626"><ele>382.0</ele><time>2026-05-02T15:18:05.789Z</time></trkpt><trkpt lat="45.8636609" lon="9.6587351"><ele>381.0</ele><time>2026-05-02T15:18:07.7Z</time></trkpt><trkpt lat="45.8635331" lon="9.6587899"><ele>380.5</ele><time>2026-05-02T15:18:08.698Z</time></trkpt><trkpt lat="45.863411" lon="9.6588406"><ele>380.0</ele><time>2026-05-02T15:18:09.686Z</time></trkpt><trkpt lat="45.8632968" lon="9.6588835"><ele>379.5</ele><time>2026-05-02T15:18:10.656Z</time></trkpt><trkpt lat="45.8631801" lon="9.6589212"><ele>379.0</ele><time>2026-05-02T15:18:11.686Z</time></trkpt><trkpt lat="45.8630748" lon="9.6589453"><ele>379.0</ele><time>2026-05-02T15:18:12.675Z</time></trkpt><trkpt lat="45.862956" lon="9.6589544"><ele>379.0</ele><time>2026-05-02T15:18:13.792Z</time></trkpt><trkpt lat="45.8627375" lon="9.6589194"><ele>379.0</ele><time>2026-05-02T15:18:15.701Z</time></trkpt><trkpt lat="45.8626144" lon="9.6588625"><ele>380.66666666666663</ele><time>2026-05-02T15:18:16.654Z</time></trkpt><trkpt lat="45.8624755" lon="9.6587687"><ele>382.3333333333333</ele><time>2026-05-02T15:18:17.65Z</time></trkpt><trkpt lat="45.8623361" lon="9.6586443"><ele>384.0</ele><time>2026-05-02T15:18:18.656Z</time></trkpt><trkpt lat="45.8622049" lon="9.658532"><ele>389.25</ele><time>2026-05-02T15:18:19.634Z</time></trkpt><trkpt lat="45.8620661" lon="9.6584516"><ele>394.5</ele><time>2026-05-02T15:18:20.667Z</time></trkpt><trkpt lat="45.8619329" lon="9.6584262"><ele>399.75</ele><time>2026-05-02T15:18:21.63Z</time></trkpt><trkpt lat="45.8617847" lon="9.658438"><ele>405.0</ele><time>2026-05-02T15:18:22.651Z</time></trkpt><trkpt lat="45.861635" lon="9.658503"><ele>405.0</ele><time>2026-05-02T15:18:23.626Z</time></trkpt><trkpt lat="45.8614691" lon="9.6585876"><ele>405.0</ele><time>2026-05-02T15:18:24.608Z</time></trkpt><trkpt lat="45.8612833" lon="9.6586774"><ele>405.0</ele><time>2026-05-02T15:18:25.603Z</time></trkpt><trkpt lat="45.8611028" lon="9.6587697"><ele>400.66666666666663</ele><time>2026-05-02T15:18:26.612Z</time></trkpt><trkpt lat="45.860939" lon="9.658865"><ele>396.3333333333333</ele><time>2026-05-02T15:18:27.601Z</time></trkpt><trkpt lat="45.860782" lon="9.6589537"><ele>392.0</ele><time>2026-05-02T15:18:28.594Z</time></trkpt><trkpt lat="45.8606261" lon="9.6590374"><ele>392.0</ele><time>2026-05-02T15:18:29.621Z</time></trkpt><trkpt lat="45.8604736" lon="9.6591213"><ele>392.0</ele><time>2026-05-02T15:18:30.628Z</time></trkpt><trkpt lat="45.8603298" lon="9.6591953"><ele>392.0</ele><time>2026-05-02T15:18:31.602Z</time></trkpt><trkpt lat="45.8601885" lon="9.6592709"><ele>385.0</ele><time>2026-05-02T15:18:32.566Z</time></trkpt><trkpt lat="45.8599817" lon="9.6593833"><ele>378.0</ele><time>2026-05-02T15:18:33.546Z</time></trkpt><trkpt lat="45.8581628" lon="9.6603691"><ele>378.0</ele><time>2026-05-02T15:18:45.381Z</time></trkpt><trkpt lat="45.8580209" lon="9.6604174"><ele>378.0</ele><time>2026-05-02T15:18:46.38Z</time></trkpt><trkpt lat="45.8578698" lon="9.6604751"><ele>378.0</ele><time>2026-05-02T15:18:47.381Z</time></trkpt><trkpt lat="45.857732" lon="9.6605306"><ele>378.0</ele><time>2026-05-02T15:18:48.381Z</time></trkpt><trkpt lat="45.8575787" lon="9.660599"><ele>385.0</ele><time>2026-05-02T15:18:49.609Z</time></trkpt><trkpt lat="45.8574308" lon="9.6606679"><ele>392.0</ele><time>2026-05-02T15:18:50.596Z</time></trkpt><trkpt lat="45.8572845" lon="9.6607398"><ele>399.0</ele><time>2026-05-02T15:18:51.596Z</time></trkpt><trkpt lat="45.8571492" lon="9.6608026"><ele>399.0</ele><time>2026-05-02T15:18:52.59Z</time></trkpt><trkpt lat="45.857029" lon="9.6608675"><ele>399.0</ele><time>2026-05-02T15:18:53.545Z</time></trkpt><trkpt lat="45.8569118" lon="9.6609421"><ele>399.0</ele><time>2026-05-02T15:18:54.519Z</time></trkpt><trkpt lat="45.8568088" lon="9.6610021"><ele>399.0</ele><time>2026-05-02T15:18:59.319Z</time></trkpt><trkpt lat="45.8556809" lon="9.6621851"><ele>394.33333333333337</ele><time>2026-05-02T15:19:04.414Z</time></trkpt><trkpt lat="45.8555324" lon="9.6622578"><ele>389.6666666666667</ele><time>2026-05-02T15:19:05.575Z</time></trkpt><trkpt lat="45.8553842" lon="9.6623218"><ele>385.0</ele><time>2026-05-02T15:19:06.573Z</time></trkpt><trkpt lat="45.8552183" lon="9.6624055"><ele>384.33333333333337</ele><time>2026-05-02T15:19:07.592Z</time></trkpt><trkpt lat="45.8550304" lon="9.6624873"><ele>383.6666666666667</ele><time>2026-05-02T15:19:08.6Z</time></trkpt><trkpt lat="45.8548395" lon="9.6625864"><ele>383.0</ele><time>2026-05-02T15:19:09.615Z</time></trkpt><trkpt lat="45.8546533" lon="9.6626974"><ele>378.33333333333337</ele><time>2026-05-02T15:19:10.605Z</time></trkpt><trkpt lat="45.8544588" lon="9.6628186"><ele>373.6666666666667</ele><time>2026-05-02T15:19:11.648Z</time></trkpt><trkpt lat="45.8542629" lon="9.6629797"><ele>369.0</ele><time>2026-05-02T15:19:12.665Z</time></trkpt><trkpt lat="45.8540699" lon="9.663165"><ele>369.0</ele><time>2026-05-02T15:19:13.633Z</time></trkpt><trkpt lat="45.8538604" lon="9.6633878"><ele>369.0</ele><time>2026-05-02T15:19:14.656Z</time></trkpt><trkpt lat="45.8536577" lon="9.6636067"><ele>371.0</ele><time>2026-05-02T15:19:15.633Z</time></trkpt><trkpt lat="45.8534551" lon="9.6638296"><ele>373.0</ele><time>2026-05-02T15:19:16.651Z</time></trkpt><trkpt lat="45.8532608" lon="9.6640378"><ele>373.0</ele><time>2026-05-02T15:19:17.687Z</time></trkpt><trkpt lat="45.8530897" lon="9.6642191"><ele>373.0</ele><time>2026-05-02T15:19:18.664Z</time></trkpt><trkpt lat="45.852925" lon="9.6643884"><ele>373.0</ele><time>2026-05-02T15:19:19.658Z</time></trkpt><trkpt lat="45.8527672" lon="9.6645351"><ele>376.0</ele><time>2026-05-02T15:19:20.661Z</time></trkpt><trkpt lat="45.8526349" lon="9.6646666"><ele>379.0</ele><time>2026-05-02T15:19:21.626Z</time></trkpt><trkpt lat="45.8525091" lon="9.6647864"><ele>382.0</ele><time>2026-05-02T15:19:22.615Z</time></trkpt><trkpt lat="45.8523864" lon="9.6649037"><ele>382.0</ele><time>2026-05-02T15:19:23.569Z</time></trkpt><trkpt lat="45.8522572" lon="9.6650271"><ele>382.0</ele><time>2026-05-02T15:19:24.573Z</time></trkpt><trkpt lat="45.8506114" lon="9.6660776"><ele>393.66666666666663</ele><time>2026-05-02T15:19:35.381Z</time></trkpt><trkpt lat="45.8504721" lon="9.666193"><ele>405.3333333333333</ele><time>2026-05-02T15:19:36.381Z</time></trkpt><trkpt lat="45.8503427" lon="9.6663159"><ele>417.0</ele><time>2026-05-02T15:19:37.381Z</time></trkpt><trkpt lat="45.8502059" lon="9.6664578"><ele>411.33333333333337</ele><time>2026-05-02T15:19:38.381Z</time></trkpt><trkpt lat="45.8500692" lon="9.6666151"><ele>405.6666666666667</ele><time>2026-05-02T15:19:39.382Z</time></trkpt><trkpt lat="45.84992" lon="9.6667961"><ele>400.0</ele><time>2026-05-02T15:19:40.627Z</time></trkpt><trkpt lat="45.8497669" lon="9.6669771"><ele>400.0</ele><time>2026-05-02T15:19:41.634Z</time></trkpt><trkpt lat="45.8496252" lon="9.6671485"><ele>400.0</ele><time>2026-05-02T15:19:42.627Z</time></trkpt><trkpt lat="45.8494912" lon="9.6673139"><ele>400.0</ele><time>2026-05-02T15:19:43.617Z</time></trkpt><trkpt lat="45.8493589" lon="9.6674776"><ele>397.33333333333337</ele><time>2026-05-02T15:19:44.668Z</time></trkpt><trkpt lat="45.8492356" lon="9.6676203"><ele>394.66666666666663</ele><time>2026-05-02T15:19:45.631Z</time></trkpt><trkpt lat="45.8491108" lon="9.6677678"><ele>392.0</ele><time>2026-05-02T15:19:46.642Z</time></trkpt><trkpt lat="45.8489889" lon="9.6679167"><ele>392.0</ele><time>2026-05-02T15:19:47.647Z</time></trkpt><trkpt lat="45.8488686" lon="9.66806"><ele>392.0</ele><time>2026-05-02T15:19:48.633Z</time></trkpt><trkpt lat="45.8487433" lon="9.668201"><ele>392.0</ele><time>2026-05-02T15:19:49.644Z</time></trkpt><trkpt lat="45.848617" lon="9.668335"><ele>392.0</ele><time>2026-05-02T15:19:50.642Z</time></trkpt><trkpt lat="45.8484853" lon="9.6684678"><ele>392.0</ele><time>2026-05-02T15:19:51.654Z</time></trkpt><trkpt lat="45.8483544" lon="9.6685988"><ele>392.0</ele><time>2026-05-02T15:19:52.641Z</time></trkpt><trkpt lat="45.8482166" lon="9.6687299"><ele>396.0</ele><time>2026-05-02T15:19:53.652Z</time></trkpt><trkpt lat="45.8480804" lon="9.6688578"><ele>400.0</ele><time>2026-05-02T15:19:54.648Z</time></trkpt><trkpt lat="45.8479442" lon="9.6689762"><ele>404.0</ele><time>2026-05-02T15:19:55.621Z</time></trkpt><trkpt lat="45.8478012" lon="9.6690948"><ele>404.0</ele><time>2026-05-02T15:19:56.62Z</time></trkpt><trkpt lat="45.8476516" lon="9.6692251"><ele>404.0</ele><time>2026-05-02T15:19:57.649Z</time></trkpt><trkpt lat="45.8475158" lon="9.6693501"><ele>404.0</ele><time>2026-05-02T15:19:58.577Z</time></trkpt><trkpt lat="45.8473623" lon="9.6694504"><ele>452.0</ele><time>2026-05-02T15:19:59.531Z</time></trkpt><trkpt lat="45.8417048" lon="9.672169"><ele>352.0</ele><time>2026-05-02T15:20:33.381Z</time></trkpt><trkpt lat="45.8260262" lon="9.6742384"><ele>349.3333333333333</ele><time>2026-05-02T15:22:02.383Z</time></trkpt><trkpt lat="45.8258594" lon="9.6741967"><ele>346.6666666666667</ele><time>2026-05-02T15:22:03.384Z</time></trkpt><trkpt lat="45.8256872" lon="9.6741601"><ele>344.0</ele><time>2026-05-02T15:22:04.384Z</time></trkpt><trkpt lat="45.825502" lon="9.6741216"><ele>344.0</ele><time>2026-05-02T15:22:05.659Z</time></trkpt><trkpt lat="45.8253183" lon="9.6740858"><ele>344.0</ele><time>2026-05-02T15:22:06.634Z</time></trkpt><trkpt lat="45.8251354" lon="9.6740528"><ele>344.0</ele><time>2026-05-02T15:22:07.635Z</time></trkpt><trkpt lat="45.8249648" lon="9.6740219"><ele>342.5</ele><time>2026-05-02T15:22:08.621Z</time></trkpt><trkpt lat="45.8248086" lon="9.6739917"><ele>341.0</ele><time>2026-05-02T15:22:09.654Z</time></trkpt><trkpt lat="45.8246674" lon="9.6739658"><ele>339.5</ele><time>2026-05-02T15:22:10.7Z</time></trkpt><trkpt lat="45.8245454" lon="9.6739442"><ele>338.0</ele><time>2026-05-02T15:22:11.648Z</time></trkpt><trkpt lat="45.824417" lon="9.6739248"><ele>338.25</ele><time>2026-05-02T15:22:12.676Z</time></trkpt><trkpt lat="45.8242912" lon="9.6739057"><ele>338.5</ele><time>2026-05-02T15:22:13.692Z</time></trkpt><trkpt lat="45.8241704" lon="9.6738846"><ele>338.75</ele><time>2026-05-02T15:22:14.689Z</time></trkpt><trkpt lat="45.8240662" lon="9.6738655"><ele>339.0</ele><time>2026-05-02T15:22:15.637Z</time></trkpt><trkpt lat="45.8239693" lon="9.6738477"><ele>339.0</ele><time>2026-05-02T15:22:16.649Z</time></trkpt><trkpt lat="45.8238915" lon="9.6738291"><ele>339.0</ele><time>2026-05-02T15:22:17.67Z</time></trkpt><trkpt lat="45.8237928" lon="9.6737964"><ele>339.0</ele><time>2026-05-02T15:22:19.772Z</time></trkpt><trkpt lat="45.8236981" lon="9.6737423"><ele>339.0</ele><time>2026-05-02T15:22:22.677Z</time></trkpt><trkpt lat="45.823643" lon="9.6736967"><ele>339.0</ele><time>2026-05-02T15:22:23.678Z</time></trkpt><trkpt lat="45.8235715" lon="9.6736615"><ele>339.0</ele><time>2026-05-02T15:22:24.677Z</time></trkpt><trkpt lat="45.8234913" lon="9.6736593"><ele>338.79999999999995</ele><time>2026-05-02T15:22:25.664Z</time></trkpt><trkpt lat="45.8234121" lon="9.673671"><ele>338.59999999999997</ele><time>2026-05-02T15:22:26.657Z</time></trkpt><trkpt lat="45.8233206" lon="9.6736777"><ele>338.4</ele><time>2026-05-02T15:22:27.667Z</time></trkpt><trkpt lat="45.823215" lon="9.6736711"><ele>338.2</ele><time>2026-05-02T15:22:28.692Z</time></trkpt><trkpt lat="45.8231041" lon="9.6736634"><ele>338.0</ele><time>2026-05-02T15:22:29.678Z</time></trkpt><trkpt lat="45.822989" lon="9.6736566"><ele>338.0</ele><time>2026-05-02T15:22:30.674Z</time></trkpt><trkpt lat="45.822887" lon="9.6736532"><ele>338.0</ele><time>2026-05-02T15:22:31.657Z</time></trkpt><trkpt lat="45.8227931" lon="9.673652"><ele>338.0</ele><time>2026-05-02T15:22:32.661Z</time></trkpt><trkpt lat="45.8227051" lon="9.6736487"><ele>338.0</ele><time>2026-05-02T15:22:33.714Z</time></trkpt><trkpt lat="45.8226369" lon="9.6736471"><ele>338.0</ele><time>2026-05-02T15:22:34.657Z</time></trkpt><trkpt lat="45.8225609" lon="9.6736473"><ele>338.0</ele><time>2026-05-02T15:22:35.691Z</time></trkpt><trkpt lat="45.8224905" lon="9.673647"><ele>339.0</ele><time>2026-05-02T15:22:36.693Z</time></trkpt><trkpt lat="45.8224258" lon="9.6736406"><ele>340.0</ele><time>2026-05-02T15:22:37.655Z</time></trkpt><trkpt lat="45.822352" lon="9.6736355"><ele>341.0</ele><time>2026-05-02T15:22:38.676Z</time></trkpt><trkpt lat="45.8222656" lon="9.673629"><ele>342.0</ele><time>2026-05-02T15:22:39.68Z</time></trkpt><trkpt lat="45.8221588" lon="9.6736324"><ele>343.0</ele><time>2026-05-02T15:22:40.672Z</time></trkpt><trkpt lat="45.8220253" lon="9.673633"><ele>343.0</ele><time>2026-05-02T15:22:41.696Z</time></trkpt><trkpt lat="45.821873" lon="9.6736273"><ele>343.0</ele><time>2026-05-02T15:22:42.693Z</time></trkpt><trkpt lat="45.8217105" lon="9.6736222"><ele>343.0</ele><time>2026-05-02T15:22:43.681Z</time></trkpt><trkpt lat="45.8215384" lon="9.6736137"><ele>344.3333333333333</ele><time>2026-05-02T15:22:44.661Z</time></trkpt><trkpt lat="45.821351" lon="9.6736028"><ele>345.6666666666667</ele><time>2026-05-02T15:22:45.661Z</time></trkpt><trkpt lat="45.8211626" lon="9.6735911"><ele>347.0</ele><time>2026-05-02T15:22:46.691Z</time></trkpt><trkpt lat="45.8209922" lon="9.6735812"><ele>346.33333333333337</ele><time>2026-05-02T15:22:47.683Z</time></trkpt><trkpt lat="45.8208101" lon="9.6735739"><ele>345.6666666666667</ele><time>2026-05-02T15:22:48.693Z</time></trkpt><trkpt lat="45.8206268" lon="9.6735668"><ele>345.0</ele><time>2026-05-02T15:22:49.664Z</time></trkpt><trkpt lat="45.8204388" lon="9.6735584"><ele>345.0</ele><time>2026-05-02T15:22:50.652Z</time></trkpt><trkpt lat="45.8202475" lon="9.6735493"><ele>345.0</ele><time>2026-05-02T15:22:51.644Z</time></trkpt><trkpt lat="45.8200557" lon="9.6735423"><ele>345.0</ele><time>2026-05-02T15:22:52.66Z</time></trkpt><trkpt lat="45.8198734" lon="9.6735339"><ele>346.3333333333333</ele><time>2026-05-02T15:22:53.673Z</time></trkpt><trkpt lat="45.8197028" lon="9.6735211"><ele>347.66666666666663</ele><time>2026-05-02T15:22:54.702Z</time></trkpt><trkpt lat="45.8195547" lon="9.6735065"><ele>349.0</ele><time>2026-05-02T15:22:55.677Z</time></trkpt><trkpt lat="45.8194171" lon="9.673488"><ele>348.25</ele><time>2026-05-02T15:22:56.678Z</time></trkpt><trkpt lat="45.819297" lon="9.6734627"><ele>347.5</ele><time>2026-05-02T15:22:57.653Z</time></trkpt><trkpt lat="45.8191852" lon="9.6734272"><ele>346.75</ele><time>2026-05-02T15:22:58.633Z</time></trkpt><trkpt lat="45.8190702" lon="9.6733829"><ele>346.0</ele><time>2026-05-02T15:22:59.657Z</time></trkpt><trkpt lat="45.8189527" lon="9.6733302"><ele>346.0</ele><time>2026-05-02T15:23:00.663Z</time></trkpt><trkpt lat="45.8188355" lon="9.6732718"><ele>346.0</ele><time>2026-05-02T15:23:01.627Z</time></trkpt><trkpt lat="45.8187089" lon="9.6732023"><ele>346.0</ele><time>2026-05-02T15:23:02.637Z</time></trkpt><trkpt lat="45.8185847" lon="9.6731355"><ele>346.0</ele><time>2026-05-02T15:23:03.613Z</time></trkpt><trkpt lat="45.8184565" lon="9.673068"><ele>344.6</ele><time>2026-05-02T15:23:04.629Z</time></trkpt><trkpt lat="45.8183345" lon="9.6730081"><ele>343.20000000000005</ele><time>2026-05-02T15:23:05.658Z</time></trkpt><trkpt lat="45.8182327" lon="9.6729623"><ele>341.79999999999995</ele><time>2026-05-02T15:23:06.62Z</time></trkpt><trkpt lat="45.8181351" lon="9.6729329"><ele>340.4</ele><time>2026-05-02T15:23:07.641Z</time></trkpt><trkpt lat="45.8180452" lon="9.6729104"><ele>339.0</ele><time>2026-05-02T15:23:08.634Z</time></trkpt><trkpt lat="45.8179652" lon="9.6728863"><ele>339.0</ele><time>2026-05-02T15:23:09.621Z</time></trkpt><trkpt lat="45.8178728" lon="9.6728534"><ele>339.0</ele><time>2026-05-02T15:23:10.723Z</time></trkpt><trkpt lat="45.8178053" lon="9.6728413"><ele>339.0</ele><time>2026-05-02T15:23:11.632Z</time></trkpt><trkpt lat="45.8176919" lon="9.6728492"><ele>339.0</ele><time>2026-05-02T15:23:13.648Z</time></trkpt><trkpt lat="45.8176206" lon="9.6728718"><ele>339.0</ele><time>2026-05-02T15:23:15.657Z</time></trkpt><trkpt lat="45.8175273" lon="9.6729076"><ele>339.0</ele><time>2026-05-02T15:23:17.636Z</time></trkpt><trkpt lat="45.8174629" lon="9.6729099"><ele>338.2</ele><time>2026-05-02T15:23:18.629Z</time></trkpt><trkpt lat="45.8173639" lon="9.6729254"><ele>337.4</ele><time>2026-05-02T15:23:20.668Z</time></trkpt><trkpt lat="45.817252" lon="9.6729649"><ele>336.6</ele><time>2026-05-02T15:23:22.629Z</time></trkpt><trkpt lat="45.8171863" lon="9.6730169"><ele>335.8</ele><time>2026-05-02T15:23:23.628Z</time></trkpt><trkpt lat="45.817113" lon="9.6730718"><ele>335.0</ele><time>2026-05-02T15:23:24.604Z</time></trkpt><trkpt lat="45.8170093" lon="9.6731411"><ele>334.6666666666667</ele><time>2026-05-02T15:23:26.589Z</time></trkpt><trkpt lat="45.8168079" lon="9.6730134"><ele>334.3333333333333</ele><time>2026-05-02T15:23:28.568Z</time></trkpt><trkpt lat="45.8166553" lon="9.6729328"><ele>334.0</ele><time>2026-05-02T15:23:29.573Z</time></trkpt><trkpt lat="45.8165138" lon="9.6728799"><ele>334.0</ele><time>2026-05-02T15:23:30.575Z</time></trkpt><trkpt lat="45.816416" lon="9.6728521"><ele>334.0</ele><time>2026-05-02T15:23:31.563Z</time></trkpt><trkpt lat="45.8163441" lon="9.6728747"><ele>334.0</ele><time>2026-05-02T15:23:32.575Z</time></trkpt><trkpt lat="45.8162565" lon="9.6728697"><ele>334.0</ele><time>2026-05-02T15:23:33.577Z</time></trkpt><trkpt lat="45.8161664" lon="9.6728713"><ele>334.0</ele><time>2026-05-02T15:23:34.576Z</time></trkpt><trkpt lat="45.8160915" lon="9.6728772"><ele>334.0</ele><time>2026-05-02T15:23:35.587Z</time></trkpt><trkpt lat="45.8159872" lon="9.6728065"><ele>334.0</ele><time>2026-05-02T15:23:36.598Z</time></trkpt><trkpt lat="45.81587" lon="9.6727809"><ele>334.0</ele><time>2026-05-02T15:23:37.61Z</time></trkpt><trkpt lat="45.8157417" lon="9.6727834"><ele>334.0</ele><time>2026-05-02T15:23:38.605Z</time></trkpt><trkpt lat="45.8155867" lon="9.6728352"><ele>334.0</ele><time>2026-05-02T15:23:39.753Z</time></trkpt><trkpt lat="45.8152974" lon="9.6729887"><ele>335.66666666666663</ele><time>2026-05-02T15:23:41.638Z</time></trkpt><trkpt lat="45.8151378" lon="9.6730991"><ele>337.3333333333333</ele><time>2026-05-02T15:23:42.656Z</time></trkpt><trkpt lat="45.8149918" lon="9.6732059"><ele>339.0</ele><time>2026-05-02T15:23:43.62Z</time></trkpt><trkpt lat="45.8148622" lon="9.6733008"><ele>339.0</ele><time>2026-05-02T15:23:44.629Z</time></trkpt><trkpt lat="45.8147517" lon="9.6733746"><ele>339.0</ele><time>2026-05-02T15:23:45.664Z</time></trkpt><trkpt lat="45.8146645" lon="9.6734342"><ele>339.0</ele><time>2026-05-02T15:23:46.649Z</time></trkpt><trkpt lat="45.8145809" lon="9.6734956"><ele>339.0</ele><time>2026-05-02T15:23:47.66Z</time></trkpt><trkpt lat="45.8144955" lon="9.6735594"><ele>339.0</ele><time>2026-05-02T15:23:48.657Z</time></trkpt><trkpt lat="45.8144049" lon="9.6736261"><ele>337.79999999999995</ele><time>2026-05-02T15:23:49.664Z</time></trkpt><trkpt lat="45.8143138" lon="9.6736874"><ele>336.59999999999997</ele><time>2026-05-02T15:23:50.657Z</time></trkpt><trkpt lat="45.8142055" lon="9.6737608"><ele>335.4</ele><time>2026-05-02T15:23:51.742Z</time></trkpt><trkpt lat="45.814108" lon="9.6738076"><ele>334.2</ele><time>2026-05-02T15:23:52.662Z</time></trkpt><trkpt lat="45.814006" lon="9.6738531"><ele>333.0</ele><time>2026-05-02T15:23:53.682Z</time></trkpt><trkpt lat="45.8139083" lon="9.6738922"><ele>333.0</ele><time>2026-05-02T15:23:54.669Z</time></trkpt><trkpt lat="45.8138104" lon="9.6739275"><ele>333.0</ele><time>2026-05-02T15:23:55.694Z</time></trkpt><trkpt lat="45.8137168" lon="9.6739562"><ele>333.0</ele><time>2026-05-02T15:23:56.672Z</time></trkpt><trkpt lat="45.8136315" lon="9.6739792"><ele>333.0</ele><time>2026-05-02T15:23:57.699Z</time></trkpt><trkpt lat="45.8135592" lon="9.6739966"><ele>333.0</ele><time>2026-05-02T15:23:58.663Z</time></trkpt><trkpt lat="45.8134845" lon="9.6740171"><ele>333.0</ele><time>2026-05-02T15:23:59.672Z</time></trkpt><trkpt lat="45.8134073" lon="9.6740318"><ele>335.2</ele><time>2026-05-02T15:24:00.641Z</time></trkpt><trkpt lat="45.8133304" lon="9.6740492"><ele>337.4</ele><time>2026-05-02T15:24:01.673Z</time></trkpt><trkpt lat="45.8132519" lon="9.6740761"><ele>339.59999999999997</ele><time>2026-05-02T15:24:02.69Z</time></trkpt><trkpt lat="45.8131569" lon="9.6741292"><ele>341.79999999999995</ele><time>2026-05-02T15:24:03.684Z</time></trkpt><trkpt lat="45.8130543" lon="9.6741856"><ele>344.0</ele><time>2026-05-02T15:24:04.694Z</time></trkpt><trkpt lat="45.8129624" lon="9.6742323"><ele>344.0</ele><time>2026-05-02T15:24:05.683Z</time></trkpt><trkpt lat="45.8128836" lon="9.6742685"><ele>344.0</ele><time>2026-05-02T15:24:06.694Z</time></trkpt><trkpt lat="45.8128149" lon="9.6742974"><ele>344.0</ele><time>2026-05-02T15:24:07.698Z</time></trkpt><trkpt lat="45.8126958" lon="9.6743322"><ele>344.0</ele><time>2026-05-02T15:24:09.675Z</time></trkpt><trkpt lat="45.812593" lon="9.6742928"><ele>344.0</ele><time>2026-05-02T15:24:11.669Z</time></trkpt><trkpt lat="45.8124959" lon="9.6742229"><ele>345.33333333333337</ele><time>2026-05-02T15:24:13.671Z</time></trkpt><trkpt lat="45.812432" lon="9.6742073"><ele>346.6666666666667</ele><time>2026-05-02T15:24:14.693Z</time></trkpt><trkpt lat="45.8123179" lon="9.674275"><ele>348.0</ele><time>2026-05-02T15:24:16.679Z</time></trkpt><trkpt lat="45.8122813" lon="9.6743566"><ele>349.3333333333333</ele><time>2026-05-02T15:24:17.666Z</time></trkpt><trkpt lat="45.812275" lon="9.6744467"><ele>350.66666666666663</ele><time>2026-05-02T15:24:18.679Z</time></trkpt><trkpt lat="45.8123101" lon="9.6746131"><ele>352.0</ele><time>2026-05-02T15:24:20.716Z</time></trkpt><trkpt lat="45.8123459" lon="9.6747835"><ele>349.3333333333333</ele><time>2026-05-02T15:24:22.714Z</time></trkpt><trkpt lat="45.8123512" lon="9.6748762"><ele>346.66666666666663</ele><time>2026-05-02T15:24:23.702Z</time></trkpt><trkpt lat="45.8123376" lon="9.6749684"><ele>344.0</ele><time>2026-05-02T15:24:24.713Z</time></trkpt><trkpt lat="45.8123082" lon="9.6750615"><ele>341.3333333333333</ele><time>2026-05-02T15:24:25.687Z</time></trkpt><trkpt lat="45.8122522" lon="9.6751624"><ele>338.6666666666667</ele><time>2026-05-02T15:24:26.707Z</time></trkpt><trkpt lat="45.8121679" lon="9.6752515"><ele>336.0</ele><time>2026-05-02T15:24:27.683Z</time></trkpt><trkpt lat="45.8120443" lon="9.6753449"><ele>335.0</ele><time>2026-05-02T15:24:28.69Z</time></trkpt><trkpt lat="45.8118902" lon="9.6754496"><ele>334.0</ele><time>2026-05-02T15:24:29.802Z</time></trkpt><trkpt lat="45.8116075" lon="9.6756362"><ele>334.0</ele><time>2026-05-02T15:24:31.678Z</time></trkpt><trkpt lat="45.8114696" lon="9.6757326"><ele>334.0</ele><time>2026-05-02T15:24:32.653Z</time></trkpt><trkpt lat="45.8113388" lon="9.6758241"><ele>334.0</ele><time>2026-05-02T15:24:33.69Z</time></trkpt><trkpt lat="45.811221" lon="9.675899"><ele>334.0</ele><time>2026-05-02T15:24:34.698Z</time></trkpt><trkpt lat="45.8111248" lon="9.6759447"><ele>334.0</ele><time>2026-05-02T15:24:35.676Z</time></trkpt><trkpt lat="45.8110358" lon="9.6759662"><ele>334.0</ele><time>2026-05-02T15:24:36.697Z</time></trkpt><trkpt lat="45.8109407" lon="9.6759669"><ele>334.0</ele><time>2026-05-02T15:24:37.672Z</time></trkpt><trkpt lat="45.8108361" lon="9.6759942"><ele>334.0</ele><time>2026-05-02T15:24:38.682Z</time></trkpt><trkpt lat="45.8107339" lon="9.6760916"><ele>334.0</ele><time>2026-05-02T15:24:39.804Z</time></trkpt><trkpt lat="45.8106092" lon="9.6763361"><ele>333.5</ele><time>2026-05-02T15:24:41.671Z</time></trkpt><trkpt lat="45.8105128" lon="9.6764476"><ele>333.0</ele><time>2026-05-02T15:24:42.665Z</time></trkpt><trkpt lat="45.8103822" lon="9.67656"><ele>332.5</ele><time>2026-05-02T15:24:43.701Z</time></trkpt><trkpt lat="45.8102363" lon="9.6766887"><ele>332.0</ele><time>2026-05-02T15:24:44.7Z</time></trkpt><trkpt lat="45.8100788" lon="9.6768244"><ele>332.33333333333337</ele><time>2026-05-02T15:24:45.702Z</time></trkpt><trkpt lat="45.809936" lon="9.6769468"><ele>332.6666666666667</ele><time>2026-05-02T15:24:46.68Z</time></trkpt><trkpt lat="45.8098026" lon="9.6770685"><ele>333.0</ele><time>2026-05-02T15:24:47.662Z</time></trkpt><trkpt lat="45.8096689" lon="9.6771907"><ele>333.0</ele><time>2026-05-02T15:24:48.715Z</time></trkpt><trkpt lat="45.8095614" lon="9.6772916"><ele>333.0</ele><time>2026-05-02T15:24:49.665Z</time></trkpt><trkpt lat="45.809437" lon="9.6774051"><ele>333.0</ele><time>2026-05-02T15:24:50.823Z</time></trkpt><trkpt lat="45.80925" lon="9.6775818"><ele>332.4</ele><time>2026-05-02T15:24:52.705Z</time></trkpt><trkpt lat="45.809157" lon="9.6776651"><ele>331.79999999999995</ele><time>2026-05-02T15:24:53.68Z</time></trkpt><trkpt lat="45.8090667" lon="9.6777465"><ele>331.2</ele><time>2026-05-02T15:24:54.701Z</time></trkpt><trkpt lat="45.808977" lon="9.6778198"><ele>330.6</ele><time>2026-05-02T15:24:55.763Z</time></trkpt><trkpt lat="45.8089002" lon="9.6778742"><ele>330.0</ele><time>2026-05-02T15:24:56.673Z</time></trkpt><trkpt lat="45.8088225" lon="9.6779201"><ele>330.0</ele><time>2026-05-02T15:24:57.68Z</time></trkpt><trkpt lat="45.8087479" lon="9.6779661"><ele>330.0</ele><time>2026-05-02T15:24:58.667Z</time></trkpt><trkpt lat="45.8086695" lon="9.6780106"><ele>330.0</ele><time>2026-05-02T15:24:59.716Z</time></trkpt><trkpt lat="45.8085981" lon="9.6780456"><ele>330.0</ele><time>2026-05-02T15:25:00.679Z</time></trkpt><trkpt lat="45.8085282" lon="9.6780757"><ele>330.0</ele><time>2026-05-02T15:25:01.695Z</time></trkpt><trkpt lat="45.8084615" lon="9.6781004"><ele>330.0</ele><time>2026-05-02T15:25:02.699Z</time></trkpt><trkpt lat="45.808377" lon="9.6781318"><ele>330.3333333333333</ele><time>2026-05-02T15:25:03.718Z</time></trkpt><trkpt lat="45.8082829" lon="9.6781558"><ele>330.6666666666667</ele><time>2026-05-02T15:25:04.719Z</time></trkpt><trkpt lat="45.8081974" lon="9.6781677"><ele>331.0</ele><time>2026-05-02T15:25:05.708Z</time></trkpt><trkpt lat="45.808125" lon="9.6781668"><ele>331.33333333333337</ele><time>2026-05-02T15:25:06.706Z</time></trkpt><trkpt lat="45.8080606" lon="9.6781604"><ele>331.6666666666667</ele><time>2026-05-02T15:25:07.69Z</time></trkpt><trkpt lat="45.8079617" lon="9.6781478"><ele>332.0</ele><time>2026-05-02T15:25:09.716Z</time></trkpt><trkpt lat="45.8078799" lon="9.6782447"><ele>332.0</ele><time>2026-05-02T15:25:11.681Z</time></trkpt><trkpt lat="45.8078686" lon="9.6783494"><ele>332.0</ele><time>2026-05-02T15:25:12.726Z</time></trkpt><trkpt lat="45.8078804" lon="9.6784557"><ele>332.0</ele><time>2026-05-02T15:25:13.672Z</time></trkpt><trkpt lat="45.807895" lon="9.6785722"><ele>332.0</ele><time>2026-05-02T15:25:14.709Z</time></trkpt><trkpt lat="45.8079027" lon="9.6786846"><ele>332.0</ele><time>2026-05-02T15:25:15.694Z</time></trkpt><trkpt lat="45.8079095" lon="9.6788011"><ele>332.0</ele><time>2026-05-02T15:25:16.699Z</time></trkpt><trkpt lat="45.8079138" lon="9.6789136"><ele>331.4285714285714</ele><time>2026-05-02T15:25:17.71Z</time></trkpt><trkpt lat="45.8079147" lon="9.6790276"><ele>330.8571428571429</ele><time>2026-05-02T15:25:18.712Z</time></trkpt><trkpt lat="45.8079134" lon="9.6791343"><ele>330.2857142857143</ele><time>2026-05-02T15:25:19.719Z</time></trkpt><trkpt lat="45.807914" lon="9.6792353"><ele>329.71428571428567</ele><time>2026-05-02T15:25:20.721Z</time></trkpt><trkpt lat="45.807918" lon="9.6793399"><ele>329.1428571428571</ele><time>2026-05-02T15:25:21.752Z</time></trkpt><trkpt lat="45.807921" lon="9.6794391"><ele>328.57142857142856</ele><time>2026-05-02T15:25:22.73Z</time></trkpt><trkpt lat="45.8079227" lon="9.6795337"><ele>328.0</ele><time>2026-05-02T15:25:23.694Z</time></trkpt><trkpt lat="45.8079267" lon="9.6796414"><ele>327.99999999999994</ele><time>2026-05-02T15:25:24.717Z</time></trkpt><trkpt lat="45.8079276" lon="9.6797466"><ele>328.0</ele><time>2026-05-02T15:25:25.705Z</time></trkpt><trkpt lat="45.8079302" lon="9.6798615"><ele>328.0</ele><time>2026-05-02T15:25:26.712Z</time></trkpt><trkpt lat="45.8079327" lon="9.6799735"><ele>328.0</ele><time>2026-05-02T15:25:27.726Z</time></trkpt><trkpt lat="45.8079378" lon="9.6800793"><ele>328.0</ele><time>2026-05-02T15:25:28.714Z</time></trkpt><trkpt lat="45.8079405" lon="9.6801826"><ele>327.99999999999994</ele><time>2026-05-02T15:25:29.714Z</time></trkpt><trkpt lat="45.8079361" lon="9.6802854"><ele>328.0</ele><time>2026-05-02T15:25:30.719Z</time></trkpt><trkpt lat="45.8079142" lon="9.6803892"><ele>328.5</ele><time>2026-05-02T15:25:31.73Z</time></trkpt><trkpt lat="45.8078762" lon="9.6804775"><ele>329.0</ele><time>2026-05-02T15:25:32.689Z</time></trkpt><trkpt lat="45.8078549" lon="9.6805768"><ele>329.5</ele><time>2026-05-02T15:25:33.679Z</time></trkpt><trkpt lat="45.8078699" lon="9.680689"><ele>330.0</ele><time>2026-05-02T15:25:34.713Z</time></trkpt><trkpt lat="45.8079063" lon="9.6807979"><ele>330.5</ele><time>2026-05-02T15:25:35.703Z</time></trkpt><trkpt lat="45.8079318" lon="9.6809179"><ele>331.0</ele><time>2026-05-02T15:25:36.674Z</time></trkpt><trkpt lat="45.8079573" lon="9.6810662"><ele>332.0</ele><time>2026-05-02T15:25:37.729Z</time></trkpt><trkpt lat="45.8079947" lon="9.6812216"><ele>333.0</ele><time>2026-05-02T15:25:38.74Z</time></trkpt><trkpt lat="45.8080463" lon="9.6813849"><ele>334.0</ele><time>2026-05-02T15:25:39.692Z</time></trkpt><trkpt lat="45.8081076" lon="9.6815423"><ele>335.0</ele><time>2026-05-02T15:25:40.687Z</time></trkpt><trkpt lat="45.8081713" lon="9.6816762"><ele>335.0</ele><time>2026-05-02T15:25:41.676Z</time></trkpt><trkpt lat="45.8082428" lon="9.6817838"><ele>335.0</ele><time>2026-05-02T15:25:42.657Z</time></trkpt><trkpt lat="45.8083019" lon="9.6819014"><ele>335.0</ele><time>2026-05-02T15:25:43.689Z</time></trkpt><trkpt lat="45.8083541" lon="9.6820069"><ele>335.0</ele><time>2026-05-02T15:25:44.687Z</time></trkpt><trkpt lat="45.8083995" lon="9.6821193"><ele>335.0</ele><time>2026-05-02T15:25:45.696Z</time></trkpt><trkpt lat="45.8084268" lon="9.6822322"><ele>333.75</ele><time>2026-05-02T15:25:46.671Z</time></trkpt><trkpt lat="45.8084552" lon="9.6823628"><ele>332.5</ele><time>2026-05-02T15:25:47.657Z</time></trkpt><trkpt lat="45.8084545" lon="9.6825342"><ele>331.25</ele><time>2026-05-02T15:25:48.639Z</time></trkpt><trkpt lat="45.8084535" lon="9.6827282"><ele>330.0</ele><time>2026-05-02T15:25:49.671Z</time></trkpt><trkpt lat="45.8084488" lon="9.6829053"><ele>330.0</ele><time>2026-05-02T15:25:50.677Z</time></trkpt><trkpt lat="45.8084528" lon="9.6830833"><ele>330.0</ele><time>2026-05-02T15:25:51.661Z</time></trkpt><trkpt lat="45.8084588" lon="9.6833358"><ele>330.0</ele><time>2026-05-02T15:25:52.68Z</time></trkpt><trkpt lat="45.8084617" lon="9.6836058"><ele>330.6666666666667</ele><time>2026-05-02T15:25:53.683Z</time></trkpt><trkpt lat="45.8084539" lon="9.6838808"><ele>331.33333333333337</ele><time>2026-05-02T15:25:54.678Z</time></trkpt><trkpt lat="45.8084462" lon="9.6841702"><ele>332.0</ele><time>2026-05-02T15:25:55.689Z</time></trkpt><trkpt lat="45.8084444" lon="9.6844535"><ele>333.0</ele><time>2026-05-02T15:25:56.677Z</time></trkpt><trkpt lat="45.808444" lon="9.684733"><ele>334.0</ele><time>2026-05-02T15:25:57.679Z</time></trkpt><trkpt lat="45.8084516" lon="9.6850264"><ele>335.0</ele><time>2026-05-02T15:25:58.69Z</time></trkpt><trkpt lat="45.8084609" lon="9.6853204"><ele>335.6666666666667</ele><time>2026-05-02T15:25:59.684Z</time></trkpt><trkpt lat="45.8084649" lon="9.6856039"><ele>336.3333333333333</ele><time>2026-05-02T15:26:00.672Z</time></trkpt><trkpt lat="45.8084655" lon="9.6858706"><ele>337.0</ele><time>2026-05-02T15:26:01.655Z</time></trkpt><trkpt lat="45.8084621" lon="9.686138"><ele>339.3333333333333</ele><time>2026-05-02T15:26:02.708Z</time></trkpt><trkpt lat="45.8084479" lon="9.6863739"><ele>341.6666666666667</ele><time>2026-05-02T15:26:03.666Z</time></trkpt><trkpt lat="45.8084153" lon="9.6866176"><ele>344.0</ele><time>2026-05-02T15:26:04.664Z</time></trkpt><trkpt lat="45.8083771" lon="9.6868758"><ele>344.6666666666667</ele><time>2026-05-02T15:26:05.661Z</time></trkpt><trkpt lat="45.8083354" lon="9.6871376"><ele>345.3333333333333</ele><time>2026-05-02T15:26:06.657Z</time></trkpt><trkpt lat="45.8082896" lon="9.6874049"><ele>346.0</ele><time>2026-05-02T15:26:07.662Z</time></trkpt><trkpt lat="45.8082406" lon="9.687658"><ele>349.3333333333333</ele><time>2026-05-02T15:26:08.655Z</time></trkpt><trkpt lat="45.8081973" lon="9.6878877"><ele>352.6666666666667</ele><time>2026-05-02T15:26:09.631Z</time></trkpt><trkpt lat="45.8081626" lon="9.6881099"><ele>356.0</ele><time>2026-05-02T15:26:10.636Z</time></trkpt><trkpt lat="45.8081395" lon="9.6883198"><ele>356.0</ele><time>2026-05-02T15:26:11.636Z</time></trkpt><trkpt lat="45.8081414" lon="9.6885259"><ele>356.0</ele><time>2026-05-02T15:26:12.63Z</time></trkpt><trkpt lat="45.8081546" lon="9.6887503"><ele>356.0</ele><time>2026-05-02T15:26:13.613Z</time></trkpt><trkpt lat="45.8081669" lon="9.6889606"><ele>356.0</ele><time>2026-05-02T15:26:14.613Z</time></trkpt><trkpt lat="45.8081798" lon="9.6891525"><ele>359.75</ele><time>2026-05-02T15:26:15.634Z</time></trkpt><trkpt lat="45.8082073" lon="9.689314"><ele>363.5</ele><time>2026-05-02T15:26:16.627Z</time></trkpt><trkpt lat="45.8082591" lon="9.6894633"><ele>367.25</ele><time>2026-05-02T15:26:17.648Z</time></trkpt><trkpt lat="45.8083316" lon="9.689609"><ele>371.0</ele><time>2026-05-02T15:26:18.618Z</time></trkpt><trkpt lat="45.8084523" lon="9.6897846"><ele>383.0</ele><time>2026-05-02T15:26:19.749Z</time></trkpt><trkpt lat="45.8086747" lon="9.6900894"><ele>395.0</ele><time>2026-05-02T15:26:21.622Z</time></trkpt><trkpt lat="45.8087718" lon="9.6902304"><ele>407.0</ele><time>2026-05-02T15:26:22.607Z</time></trkpt><trkpt lat="45.808863" lon="9.6903329"><ele>407.0</ele><time>2026-05-02T15:26:23.61Z</time></trkpt><trkpt lat="45.8089199" lon="9.6904184"><ele>407.0</ele><time>2026-05-02T15:26:24.6Z</time></trkpt><trkpt lat="45.808957" lon="9.6905164"><ele>407.0</ele><time>2026-05-02T15:26:25.592Z</time></trkpt><trkpt lat="45.8089669" lon="9.6906434"><ele>407.0</ele><time>2026-05-02T15:26:26.607Z</time></trkpt><trkpt lat="45.8089542" lon="9.6908048"><ele>407.0</ele><time>2026-05-02T15:26:27.607Z</time></trkpt><trkpt lat="45.808945" lon="9.6909982"><ele>405.66666666666663</ele><time>2026-05-02T15:26:28.589Z</time></trkpt><trkpt lat="45.8089386" lon="9.6912071"><ele>404.33333333333337</ele><time>2026-05-02T15:26:29.569Z</time></trkpt><trkpt lat="45.808945" lon="9.6914389"><ele>403.0</ele><time>2026-05-02T15:26:30.569Z</time></trkpt><trkpt lat="45.8089904" lon="9.6916653"><ele>403.0</ele><time>2026-05-02T15:26:32.594Z</time></trkpt><trkpt lat="45.8090142" lon="9.6919021"><ele>403.0</ele><time>2026-05-02T15:26:33.591Z</time></trkpt><trkpt lat="45.809029" lon="9.6921935"><ele>403.0</ele><time>2026-05-02T15:26:34.586Z</time></trkpt><trkpt lat="45.8090458" lon="9.6924831"><ele>397.6666666666667</ele><time>2026-05-02T15:26:35.601Z</time></trkpt><trkpt lat="45.8090629" lon="9.6927748"><ele>392.33333333333337</ele><time>2026-05-02T15:26:36.686Z</time></trkpt><trkpt lat="45.809082" lon="9.6930402"><ele>387.0</ele><time>2026-05-02T15:26:37.603Z</time></trkpt><trkpt lat="45.8090749" lon="9.6932779"><ele>387.0</ele><time>2026-05-02T15:26:38.619Z</time></trkpt><trkpt lat="45.8090915" lon="9.6934941"><ele>387.0</ele><time>2026-05-02T15:26:39.603Z</time></trkpt><trkpt lat="45.8091357" lon="9.6937096"><ele>387.0</ele><time>2026-05-02T15:26:40.628Z</time></trkpt><trkpt lat="45.8092094" lon="9.6939402"><ele>389.0</ele><time>2026-05-02T15:26:41.607Z</time></trkpt><trkpt lat="45.8092674" lon="9.6941618"><ele>391.0</ele><time>2026-05-02T15:26:42.61Z</time></trkpt><trkpt lat="45.8093119" lon="9.6943452"><ele>393.0</ele><time>2026-05-02T15:26:43.604Z</time></trkpt><trkpt lat="45.8093438" lon="9.694484"><ele>395.0</ele><time>2026-05-02T15:26:44.587Z</time></trkpt><trkpt lat="45.8094055" lon="9.6946363"><ele>395.0</ele><time>2026-05-02T15:26:45.585Z</time></trkpt><trkpt lat="45.809478" lon="9.6947372"><ele>395.0</ele><time>2026-05-02T15:26:46.606Z</time></trkpt><trkpt lat="45.8095933" lon="9.6948039"><ele>395.0</ele><time>2026-05-02T15:26:47.619Z</time></trkpt><trkpt lat="45.8096882" lon="9.6948964"><ele>395.0</ele><time>2026-05-02T15:26:48.608Z</time></trkpt><trkpt lat="45.8097645" lon="9.6950295"><ele>395.0</ele><time>2026-05-02T15:26:49.595Z</time></trkpt><trkpt lat="45.8098375" lon="9.6952012"><ele>395.0</ele><time>2026-05-02T15:26:50.61Z</time></trkpt><trkpt lat="45.8099076" lon="9.6954065"><ele>395.0</ele><time>2026-05-02T15:26:51.629Z</time></trkpt><trkpt lat="45.8099772" lon="9.6956293"><ele>389.3333333333333</ele><time>2026-05-02T15:26:52.634Z</time></trkpt><trkpt lat="45.8100336" lon="9.6958605"><ele>383.66666666666663</ele><time>2026-05-02T15:26:53.651Z</time></trkpt><trkpt lat="45.810074" lon="9.6960768"><ele>378.0</ele><time>2026-05-02T15:26:54.657Z</time></trkpt><trkpt lat="45.8101244" lon="9.6962637"><ele>380.25</ele><time>2026-05-02T15:26:55.65Z</time></trkpt><trkpt lat="45.8101951" lon="9.6964381"><ele>382.5</ele><time>2026-05-02T15:26:56.659Z</time></trkpt><trkpt lat="45.8102462" lon="9.6966115"><ele>384.75</ele><time>2026-05-02T15:26:57.642Z</time></trkpt><trkpt lat="45.8102683" lon="9.6968086"><ele>387.0</ele><time>2026-05-02T15:26:58.665Z</time></trkpt><trkpt lat="45.8102635" lon="9.6970107"><ele>387.0</ele><time>2026-05-02T15:26:59.65Z</time></trkpt><trkpt lat="45.8102598" lon="9.6972138"><ele>387.0</ele><time>2026-05-02T15:27:00.614Z</time></trkpt><trkpt lat="45.8102712" lon="9.6974218"><ele>387.0</ele><time>2026-05-02T15:27:01.625Z</time></trkpt><trkpt lat="45.8102961" lon="9.6976313"><ele>387.0</ele><time>2026-05-02T15:27:02.628Z</time></trkpt><trkpt lat="45.8103396" lon="9.697828"><ele>383.75</ele><time>2026-05-02T15:27:03.644Z</time></trkpt><trkpt lat="45.8103947" lon="9.6979899"><ele>380.5</ele><time>2026-05-02T15:27:04.632Z</time></trkpt><trkpt lat="45.8104634" lon="9.698117"><ele>377.25</ele><time>2026-05-02T15:27:05.627Z</time></trkpt><trkpt lat="45.8105686" lon="9.6982302"><ele>374.0</ele><time>2026-05-02T15:27:06.712Z</time></trkpt><trkpt lat="45.8106962" lon="9.6982979"><ele>374.0</ele><time>2026-05-02T15:27:07.639Z</time></trkpt><trkpt lat="45.8108315" lon="9.6983729"><ele>374.0</ele><time>2026-05-02T15:27:08.639Z</time></trkpt><trkpt lat="45.8109478" lon="9.6984679"><ele>374.0</ele><time>2026-05-02T15:27:09.623Z</time></trkpt><trkpt lat="45.8110451" lon="9.698597"><ele>374.0</ele><time>2026-05-02T15:27:10.656Z</time></trkpt><trkpt lat="45.8111297" lon="9.6987539"><ele>378.75</ele><time>2026-05-02T15:27:11.693Z</time></trkpt><trkpt lat="45.8111899" lon="9.698914"><ele>383.5</ele><time>2026-05-02T15:27:12.665Z</time></trkpt><trkpt lat="45.8112426" lon="9.6991005"><ele>388.25</ele><time>2026-05-02T15:27:13.698Z</time></trkpt><trkpt lat="45.8113041" lon="9.6993091"><ele>393.0</ele><time>2026-05-02T15:27:14.636Z</time></trkpt><trkpt lat="45.8113582" lon="9.6995128"><ele>393.0</ele><time>2026-05-02T15:27:15.635Z</time></trkpt><trkpt lat="45.8114074" lon="9.6997026"><ele>393.0</ele><time>2026-05-02T15:27:16.631Z</time></trkpt><trkpt lat="45.8114571" lon="9.6998825"><ele>393.0</ele><time>2026-05-02T15:27:17.635Z</time></trkpt><trkpt lat="45.8115177" lon="9.7000562"><ele>393.0</ele><time>2026-05-02T15:27:18.633Z</time></trkpt><trkpt lat="45.8115992" lon="9.7002027"><ele>391.0</ele><time>2026-05-02T15:27:19.64Z</time></trkpt><trkpt lat="45.8116675" lon="9.7003432"><ele>389.0</ele><time>2026-05-02T15:27:20.637Z</time></trkpt><trkpt lat="45.8117145" lon="9.7004832"><ele>387.0</ele><time>2026-05-02T15:27:21.655Z</time></trkpt><trkpt lat="45.8117258" lon="9.7006243"><ele>385.0</ele><time>2026-05-02T15:27:22.627Z</time></trkpt><trkpt lat="45.8117108" lon="9.7007852"><ele>383.0</ele><time>2026-05-02T15:27:23.641Z</time></trkpt><trkpt lat="45.8116874" lon="9.7009467"><ele>383.75</ele><time>2026-05-02T15:27:24.635Z</time></trkpt><trkpt lat="45.8116609" lon="9.701116"><ele>384.5</ele><time>2026-05-02T15:27:25.666Z</time></trkpt><trkpt lat="45.8116622" lon="9.7012737"><ele>385.25</ele><time>2026-05-02T15:27:26.609Z</time></trkpt><trkpt lat="45.8116805" lon="9.7014538"><ele>386.0</ele><time>2026-05-02T15:27:27.614Z</time></trkpt><trkpt lat="45.8117151" lon="9.7016452"><ele>386.0</ele><time>2026-05-02T15:27:28.614Z</time></trkpt><trkpt lat="45.8117524" lon="9.7018369"><ele>386.0</ele><time>2026-05-02T15:27:29.625Z</time></trkpt><trkpt lat="45.8117854" lon="9.7020128"><ele>386.0</ele><time>2026-05-02T15:27:30.653Z</time></trkpt><trkpt lat="45.8118137" lon="9.7021661"><ele>386.0</ele><time>2026-05-02T15:27:31.629Z</time></trkpt><trkpt lat="45.8118409" lon="9.7023136"><ele>385.16666666666663</ele><time>2026-05-02T15:27:32.646Z</time></trkpt><trkpt lat="45.8118764" lon="9.7024407"><ele>384.3333333333333</ele><time>2026-05-02T15:27:33.638Z</time></trkpt><trkpt lat="45.811922" lon="9.7025396"><ele>383.5</ele><time>2026-05-02T15:27:34.63Z</time></trkpt><trkpt lat="45.8119783" lon="9.7025978"><ele>382.66666666666663</ele><time>2026-05-02T15:27:35.626Z</time></trkpt><trkpt lat="45.8120553" lon="9.7026237"><ele>381.8333333333333</ele><time>2026-05-02T15:27:36.614Z</time></trkpt><trkpt lat="45.8121391" lon="9.702624"><ele>381.0</ele><time>2026-05-02T15:27:37.613Z</time></trkpt><trkpt lat="45.8122492" lon="9.702582"><ele>381.0</ele><time>2026-05-02T15:27:38.662Z</time></trkpt><trkpt lat="45.8123678" lon="9.7025232"><ele>381.0</ele><time>2026-05-02T15:27:39.658Z</time></trkpt><trkpt lat="45.8124903" lon="9.7024592"><ele>381.0</ele><time>2026-05-02T15:27:40.648Z</time></trkpt><trkpt lat="45.8126052" lon="9.702398"><ele>381.0</ele><time>2026-05-02T15:27:41.652Z</time></trkpt><trkpt lat="45.8127183" lon="9.702337"><ele>382.75</ele><time>2026-05-02T15:27:42.763Z</time></trkpt><trkpt lat="45.812905" lon="9.7022465"><ele>384.5</ele><time>2026-05-02T15:27:44.65Z</time></trkpt><trkpt lat="45.8129998" lon="9.7022095"><ele>386.25</ele><time>2026-05-02T15:27:45.652Z</time></trkpt><trkpt lat="45.8130955" lon="9.7022027"><ele>388.0</ele><time>2026-05-02T15:27:46.631Z</time></trkpt><trkpt lat="45.8132057" lon="9.7022247"><ele>388.0</ele><time>2026-05-02T15:27:47.673Z</time></trkpt><trkpt lat="45.8133206" lon="9.7022728"><ele>388.0</ele><time>2026-05-02T15:27:48.661Z</time></trkpt><trkpt lat="45.8134611" lon="9.70235"><ele>388.0</ele><time>2026-05-02T15:27:49.686Z</time></trkpt><trkpt lat="45.8135967" lon="9.7024188"><ele>388.0</ele><time>2026-05-02T15:27:50.678Z</time></trkpt><trkpt lat="45.8137152" lon="9.7024837"><ele>389.2</ele><time>2026-05-02T15:27:51.675Z</time></trkpt><trkpt lat="45.8138251" lon="9.7025419"><ele>390.4</ele><time>2026-05-02T15:27:52.685Z</time></trkpt><trkpt lat="45.8139248" lon="9.7025954"><ele>391.59999999999997</ele><time>2026-05-02T15:27:53.667Z</time></trkpt><trkpt lat="45.8140295" lon="9.7026502"><ele>392.79999999999995</ele><time>2026-05-02T15:27:54.703Z</time></trkpt><trkpt lat="45.8141148" lon="9.702718"><ele>394.0</ele><time>2026-05-02T15:27:55.729Z</time></trkpt><trkpt lat="45.8141824" lon="9.7027963"><ele>394.2</ele><time>2026-05-02T15:27:56.668Z</time></trkpt><trkpt lat="45.8142372" lon="9.702907"><ele>394.4</ele><time>2026-05-02T15:27:57.674Z</time></trkpt><trkpt lat="45.8142726" lon="9.703042"><ele>394.6</ele><time>2026-05-02T15:27:58.675Z</time></trkpt><trkpt lat="45.8142921" lon="9.7032084"><ele>394.8</ele><time>2026-05-02T15:27:59.693Z</time></trkpt><trkpt lat="45.814311" lon="9.7033817"><ele>395.0</ele><time>2026-05-02T15:28:00.694Z</time></trkpt><trkpt lat="45.8143262" lon="9.7035348"><ele>396.2</ele><time>2026-05-02T15:28:01.673Z</time></trkpt><trkpt lat="45.8143337" lon="9.7036913"><ele>397.4</ele><time>2026-05-02T15:28:02.654Z</time></trkpt><trkpt lat="45.8143236" lon="9.7038463"><ele>398.6</ele><time>2026-05-02T15:28:03.652Z</time></trkpt><trkpt lat="45.8142975" lon="9.7039969"><ele>399.8</ele><time>2026-05-02T15:28:04.659Z</time></trkpt><trkpt lat="45.814281" lon="9.7041544"><ele>401.0</ele><time>2026-05-02T15:28:05.657Z</time></trkpt><trkpt lat="45.8142985" lon="9.7043386"><ele>402.75</ele><time>2026-05-02T15:28:06.672Z</time></trkpt><trkpt lat="45.814338" lon="9.7045175"><ele>404.5</ele><time>2026-05-02T15:28:07.659Z</time></trkpt><trkpt lat="45.8143824" lon="9.7046826"><ele>406.25</ele><time>2026-05-02T15:28:08.633Z</time></trkpt><trkpt lat="45.8144184" lon="9.7048458"><ele>408.0</ele><time>2026-05-02T15:28:09.639Z</time></trkpt><trkpt lat="45.814458" lon="9.7050057"><ele>408.0</ele><time>2026-05-02T15:28:10.652Z</time></trkpt><trkpt lat="45.8144854" lon="9.7051402"><ele>408.0</ele><time>2026-05-02T15:28:11.639Z</time></trkpt><trkpt lat="45.814529" lon="9.7052783"><ele>408.0</ele><time>2026-05-02T15:28:12.664Z</time></trkpt><trkpt lat="45.8145724" lon="9.7053972"><ele>408.0</ele><time>2026-05-02T15:28:13.662Z</time></trkpt><trkpt lat="45.814632" lon="9.705492"><ele>408.0</ele><time>2026-05-02T15:28:14.675Z</time></trkpt><trkpt lat="45.8147034" lon="9.7055428"><ele>406.4</ele><time>2026-05-02T15:28:15.648Z</time></trkpt><trkpt lat="45.8147933" lon="9.7055607"><ele>404.79999999999995</ele><time>2026-05-02T15:28:16.661Z</time></trkpt><trkpt lat="45.8148891" lon="9.7055268"><ele>403.2</ele><time>2026-05-02T15:28:17.663Z</time></trkpt><trkpt lat="45.814996" lon="9.705446"><ele>401.6</ele><time>2026-05-02T15:28:18.689Z</time></trkpt><trkpt lat="45.8151078" lon="9.7053687"><ele>400.0</ele><time>2026-05-02T15:28:19.637Z</time></trkpt><trkpt lat="45.8152317" lon="9.7052909"><ele>402.0</ele><time>2026-05-02T15:28:20.629Z</time></trkpt><trkpt lat="45.8153425" lon="9.7052277"><ele>404.0</ele><time>2026-05-02T15:28:21.631Z</time></trkpt><trkpt lat="45.8154528" lon="9.7051791"><ele>406.0</ele><time>2026-05-02T15:28:22.631Z</time></trkpt><trkpt lat="45.8155739" lon="9.7051493"><ele>408.0</ele><time>2026-05-02T15:28:23.685Z</time></trkpt><trkpt lat="45.8156932" lon="9.7051357"><ele>408.0</ele><time>2026-05-02T15:28:24.667Z</time></trkpt><trkpt lat="45.8158401" lon="9.7051398"><ele>408.0</ele><time>2026-05-02T15:28:25.803Z</time></trkpt><trkpt lat="45.8160928" lon="9.7052187"><ele>408.0</ele><time>2026-05-02T15:28:27.655Z</time></trkpt><trkpt lat="45.8162264" lon="9.7053018"><ele>407.0</ele><time>2026-05-02T15:28:28.671Z</time></trkpt><trkpt lat="45.8163521" lon="9.7054077"><ele>406.0</ele><time>2026-05-02T15:28:29.632Z</time></trkpt><trkpt lat="45.816475" lon="9.7055272"><ele>405.0</ele><time>2026-05-02T15:28:30.65Z</time></trkpt><trkpt lat="45.8165804" lon="9.705649"><ele>404.0</ele><time>2026-05-02T15:28:31.675Z</time></trkpt><trkpt lat="45.8166702" lon="9.7057726"><ele>404.0</ele><time>2026-05-02T15:28:32.672Z</time></trkpt><trkpt lat="45.8167513" lon="9.7059217"><ele>404.0</ele><time>2026-05-02T15:28:33.675Z</time></trkpt><trkpt lat="45.816828" lon="9.7060863"><ele>404.0</ele><time>2026-05-02T15:28:34.701Z</time></trkpt><trkpt lat="45.8169125" lon="9.706274"><ele>404.0</ele><time>2026-05-02T15:28:35.675Z</time></trkpt><trkpt lat="45.8170078" lon="9.7064873"><ele>408.25</ele><time>2026-05-02T15:28:36.672Z</time></trkpt><trkpt lat="45.8170947" lon="9.7066872"><ele>412.5</ele><time>2026-05-02T15:28:37.687Z</time></trkpt><trkpt lat="45.8171744" lon="9.7068591"><ele>416.75</ele><time>2026-05-02T15:28:38.656Z</time></trkpt><trkpt lat="45.8172373" lon="9.7070246"><ele>421.0</ele><time>2026-05-02T15:28:39.645Z</time></trkpt><trkpt lat="45.8172803" lon="9.7072087"><ele>421.0</ele><time>2026-05-02T15:28:40.655Z</time></trkpt><trkpt lat="45.8173074" lon="9.7074127"><ele>421.0</ele><time>2026-05-02T15:28:41.648Z</time></trkpt><trkpt lat="45.8173254" lon="9.7076082"><ele>421.0</ele><time>2026-05-02T15:28:42.66Z</time></trkpt><trkpt lat="45.817346" lon="9.7077936"><ele>421.0</ele><time>2026-05-02T15:28:43.646Z</time></trkpt><trkpt lat="45.8173634" lon="9.7079802"><ele>419.5</ele><time>2026-05-02T15:28:44.666Z</time></trkpt><trkpt lat="45.8173836" lon="9.7081539"><ele>418.0</ele><time>2026-05-02T15:28:45.674Z</time></trkpt><trkpt lat="45.8174158" lon="9.7083201"><ele>416.5</ele><time>2026-05-02T15:28:46.696Z</time></trkpt><trkpt lat="45.8174754" lon="9.708481"><ele>415.0</ele><time>2026-05-02T15:28:47.657Z</time></trkpt><trkpt lat="45.817561" lon="9.7086357"><ele>414.5</ele><time>2026-05-02T15:28:48.664Z</time></trkpt><trkpt lat="45.8176802" lon="9.708803"><ele>414.0</ele><time>2026-05-02T15:28:49.78Z</time></trkpt><trkpt lat="45.8179331" lon="9.7090961"><ele>414.0</ele><time>2026-05-02T15:28:51.639Z</time></trkpt><trkpt lat="45.8180657" lon="9.7092484"><ele>414.0</ele><time>2026-05-02T15:28:52.687Z</time></trkpt><trkpt lat="45.8181771" lon="9.709385"><ele>414.0</ele><time>2026-05-02T15:28:53.668Z</time></trkpt><trkpt lat="45.8182853" lon="9.7095063"><ele>415.0</ele><time>2026-05-02T15:28:54.685Z</time></trkpt><trkpt lat="45.8183838" lon="9.709616"><ele>416.0</ele><time>2026-05-02T15:28:55.662Z</time></trkpt><trkpt lat="45.8184876" lon="9.7097379"><ele>417.0</ele><time>2026-05-02T15:28:56.673Z</time></trkpt><trkpt lat="45.8185907" lon="9.7098621"><ele>418.0</ele><time>2026-05-02T15:28:57.676Z</time></trkpt><trkpt lat="45.8186884" lon="9.7099777"><ele>418.0</ele><time>2026-05-02T15:28:58.65Z</time></trkpt><trkpt lat="45.8187969" lon="9.7100946"><ele>418.0</ele><time>2026-05-02T15:28:59.704Z</time></trkpt><trkpt lat="45.818901" lon="9.7101823"><ele>418.0</ele><time>2026-05-02T15:29:00.654Z</time></trkpt><trkpt lat="45.8190232" lon="9.7102533"><ele>418.0</ele><time>2026-05-02T15:29:01.656Z</time></trkpt><trkpt lat="45.8191689" lon="9.7103095"><ele>417.5</ele><time>2026-05-02T15:29:02.734Z</time></trkpt><trkpt lat="45.8192948" lon="9.7103559"><ele>417.0</ele><time>2026-05-02T15:29:03.637Z</time></trkpt><trkpt lat="45.8194301" lon="9.7104217"><ele>416.5</ele><time>2026-05-02T15:29:04.675Z</time></trkpt><trkpt lat="45.8195533" lon="9.7105025"><ele>416.0</ele><time>2026-05-02T15:29:05.672Z</time></trkpt><trkpt lat="45.8196688" lon="9.7105929"><ele>417.75</ele><time>2026-05-02T15:29:06.679Z</time></trkpt><trkpt lat="45.8197828" lon="9.7106762"><ele>419.5</ele><time>2026-05-02T15:29:07.674Z</time></trkpt><trkpt lat="45.8198921" lon="9.7107666"><ele>421.25</ele><time>2026-05-02T15:29:08.659Z</time></trkpt><trkpt lat="45.8199948" lon="9.7108765"><ele>423.0</ele><time>2026-05-02T15:29:09.673Z</time></trkpt><trkpt lat="45.820091" lon="9.7109975"><ele>426.0</ele><time>2026-05-02T15:29:10.669Z</time></trkpt><trkpt lat="45.8201851" lon="9.7111326"><ele>429.0</ele><time>2026-05-02T15:29:11.698Z</time></trkpt><trkpt lat="45.8202834" lon="9.711267"><ele>432.0</ele><time>2026-05-02T15:29:12.7Z</time></trkpt><trkpt lat="45.82038" lon="9.7113975"><ele>435.0</ele><time>2026-05-02T15:29:13.71Z</time></trkpt><trkpt lat="45.8204687" lon="9.7115324"><ele>435.0</ele><time>2026-05-02T15:29:14.68Z</time></trkpt><trkpt lat="45.8205525" lon="9.7116671"><ele>435.0</ele><time>2026-05-02T15:29:15.669Z</time></trkpt><trkpt lat="45.8206322" lon="9.7118173"><ele>435.0</ele><time>2026-05-02T15:29:16.667Z</time></trkpt><trkpt lat="45.8207038" lon="9.711964"><ele>435.0</ele><time>2026-05-02T15:29:17.655Z</time></trkpt><trkpt lat="45.8207625" lon="9.7121106"><ele>432.5</ele><time>2026-05-02T15:29:18.667Z</time></trkpt><trkpt lat="45.8208039" lon="9.7122538"><ele>430.0</ele><time>2026-05-02T15:29:19.649Z</time></trkpt><trkpt lat="45.8208293" lon="9.7124182"><ele>427.5</ele><time>2026-05-02T15:29:20.674Z</time></trkpt><trkpt lat="45.8208453" lon="9.7125945"><ele>425.0</ele><time>2026-05-02T15:29:21.668Z</time></trkpt><trkpt lat="45.8208631" lon="9.7127741"><ele>424.2</ele><time>2026-05-02T15:29:22.661Z</time></trkpt><trkpt lat="45.8208828" lon="9.7129425"><ele>423.4</ele><time>2026-05-02T15:29:23.674Z</time></trkpt><trkpt lat="45.8209001" lon="9.713097"><ele>422.6</ele><time>2026-05-02T15:29:24.677Z</time></trkpt><trkpt lat="45.820921" lon="9.7132348"><ele>421.8</ele><time>2026-05-02T15:29:25.699Z</time></trkpt><trkpt lat="45.8209478" lon="9.7133596"><ele>421.0</ele><time>2026-05-02T15:29:26.672Z</time></trkpt><trkpt lat="45.8209946" lon="9.713471"><ele>423.0</ele><time>2026-05-02T15:29:27.656Z</time></trkpt><trkpt lat="45.8210629" lon="9.7135565"><ele>425.0</ele><time>2026-05-02T15:29:28.644Z</time></trkpt><trkpt lat="45.8211607" lon="9.7136105"><ele>427.0</ele><time>2026-05-02T15:29:29.657Z</time></trkpt><trkpt lat="45.8212823" lon="9.7136384"><ele>429.0</ele><time>2026-05-02T15:29:30.67Z</time></trkpt><trkpt lat="45.8214052" lon="9.7136525"><ele>431.0</ele><time>2026-05-02T15:29:31.67Z</time></trkpt><trkpt lat="45.8215133" lon="9.7136607"><ele>430.99999999999994</ele><time>2026-05-02T15:29:32.673Z</time></trkpt><trkpt lat="45.8216128" lon="9.7136642"><ele>431.0</ele><time>2026-05-02T15:29:33.661Z</time></trkpt><trkpt lat="45.821707" lon="9.7136678"><ele>431.0</ele><time>2026-05-02T15:29:34.632Z</time></trkpt><trkpt lat="45.8218007" lon="9.7136827"><ele>431.0</ele><time>2026-05-02T15:29:35.685Z</time></trkpt><trkpt lat="45.8218741" lon="9.7137166"><ele>430.99999999999994</ele><time>2026-05-02T15:29:36.677Z</time></trkpt><trkpt lat="45.8219396" lon="9.7137664"><ele>431.0</ele><time>2026-05-02T15:29:37.678Z</time></trkpt><trkpt lat="45.8220134" lon="9.7138337"><ele>432.75</ele><time>2026-05-02T15:29:38.683Z</time></trkpt><trkpt lat="45.8220956" lon="9.71391"><ele>434.5</ele><time>2026-05-02T15:29:39.678Z</time></trkpt><trkpt lat="45.8221971" lon="9.714006"><ele>436.25</ele><time>2026-05-02T15:29:40.769Z</time></trkpt><trkpt lat="45.8222773" lon="9.7141072"><ele>438.0</ele><time>2026-05-02T15:29:41.687Z</time></trkpt><trkpt lat="45.822376" lon="9.714249"><ele>438.0</ele><time>2026-05-02T15:29:42.681Z</time></trkpt><trkpt lat="45.8224509" lon="9.7143861"><ele>438.0</ele><time>2026-05-02T15:29:43.688Z</time></trkpt><trkpt lat="45.8224971" lon="9.7145271"><ele>438.0</ele><time>2026-05-02T15:29:44.679Z</time></trkpt><trkpt lat="45.8225164" lon="9.7146985"><ele>438.0</ele><time>2026-05-02T15:29:45.694Z</time></trkpt><trkpt lat="45.8225048" lon="9.7148957"><ele>439.0</ele><time>2026-05-02T15:29:46.704Z</time></trkpt><trkpt lat="45.8225095" lon="9.7151094"><ele>440.0</ele><time>2026-05-02T15:29:47.704Z</time></trkpt><trkpt lat="45.8225428" lon="9.7153422"><ele>441.0</ele><time>2026-05-02T15:29:48.758Z</time></trkpt><trkpt lat="45.8225849" lon="9.7155459"><ele>439.0</ele><time>2026-05-02T15:29:49.704Z</time></trkpt><trkpt lat="45.8226358" lon="9.7157528"><ele>437.0</ele><time>2026-05-02T15:29:50.686Z</time></trkpt><trkpt lat="45.8226857" lon="9.7159595"><ele>435.0</ele><time>2026-05-02T15:29:51.678Z</time></trkpt><trkpt lat="45.822733" lon="9.7161622"><ele>433.75</ele><time>2026-05-02T15:29:52.666Z</time></trkpt><trkpt lat="45.8227792" lon="9.716363"><ele>432.5</ele><time>2026-05-02T15:29:53.681Z</time></trkpt><trkpt lat="45.8228232" lon="9.7165464"><ele>431.25</ele><time>2026-05-02T15:29:54.687Z</time></trkpt><trkpt lat="45.8228687" lon="9.7167147"><ele>430.0</ele><time>2026-05-02T15:29:55.69Z</time></trkpt><trkpt lat="45.8229227" lon="9.7168815"><ele>430.25</ele><time>2026-05-02T15:29:56.697Z</time></trkpt><trkpt lat="45.822984" lon="9.7170308"><ele>430.5</ele><time>2026-05-02T15:29:57.673Z</time></trkpt><trkpt lat="45.8230483" lon="9.7171847"><ele>430.75</ele><time>2026-05-02T15:29:58.694Z</time></trkpt><trkpt lat="45.8231118" lon="9.7173356"><ele>431.0</ele><time>2026-05-02T15:29:59.67Z</time></trkpt><trkpt lat="45.8231735" lon="9.7174875"><ele>431.0</ele><time>2026-05-02T15:30:00.68Z</time></trkpt><trkpt lat="45.8232277" lon="9.7176224"><ele>431.0</ele><time>2026-05-02T15:30:01.671Z</time></trkpt><trkpt lat="45.8232744" lon="9.7177447"><ele>431.0</ele><time>2026-05-02T15:30:02.657Z</time></trkpt><trkpt lat="45.8233233" lon="9.7178654"><ele>431.0</ele><time>2026-05-02T15:30:03.722Z</time></trkpt><trkpt lat="45.8233646" lon="9.7179901"><ele>431.0</ele><time>2026-05-02T15:30:04.686Z</time></trkpt><trkpt lat="45.8233829" lon="9.718148"><ele>434.25</ele><time>2026-05-02T15:30:05.69Z</time></trkpt><trkpt lat="45.8234071" lon="9.7183337"><ele>437.5</ele><time>2026-05-02T15:30:06.682Z</time></trkpt><trkpt lat="45.8234052" lon="9.7185137"><ele>440.75</ele><time>2026-05-02T15:30:07.669Z</time></trkpt><trkpt lat="45.8233984" lon="9.7186602"><ele>444.0</ele><time>2026-05-02T15:30:08.599Z</time></trkpt><trkpt lat="45.8233976" lon="9.7188035"><ele>445.0</ele><time>2026-05-02T15:30:09.607Z</time></trkpt><trkpt lat="45.8233873" lon="9.7189366"><ele>446.0</ele><time>2026-05-02T15:30:10.627Z</time></trkpt><trkpt lat="45.8233828" lon="9.7190799"><ele>447.0</ele><time>2026-05-02T15:30:11.654Z</time></trkpt><trkpt lat="45.8233666" lon="9.7192081"><ele>448.0</ele><time>2026-05-02T15:30:12.671Z</time></trkpt><trkpt lat="45.8233292" lon="9.7193367"><ele>449.0</ele><time>2026-05-02T15:30:13.661Z</time></trkpt><trkpt lat="45.823258" lon="9.7194335"><ele>446.0</ele><time>2026-05-02T15:30:14.649Z</time></trkpt><trkpt lat="45.8231756" lon="9.719534"><ele>443.0</ele><time>2026-05-02T15:30:15.623Z</time></trkpt><trkpt lat="45.8230761" lon="9.7196617"><ele>440.0</ele><time>2026-05-02T15:30:16.623Z</time></trkpt><trkpt lat="45.8229943" lon="9.7198196"><ele>437.0</ele><time>2026-05-02T15:30:17.637Z</time></trkpt><trkpt lat="45.8229307" lon="9.7199864"><ele>437.0</ele><time>2026-05-02T15:30:18.666Z</time></trkpt><trkpt lat="45.8228682" lon="9.7202036"><ele>437.0</ele><time>2026-05-02T15:30:19.694Z</time></trkpt><trkpt lat="45.8228132" lon="9.7204283"><ele>437.0</ele><time>2026-05-02T15:30:20.633Z</time></trkpt><trkpt lat="45.82275" lon="9.72067"><ele>436.3333333333333</ele><time>2026-05-02T15:30:21.665Z</time></trkpt><trkpt lat="45.8226959" lon="9.7208887"><ele>435.66666666666663</ele><time>2026-05-02T15:30:22.628Z</time></trkpt><trkpt lat="45.8226485" lon="9.7211215"><ele>435.0</ele><time>2026-05-02T15:30:23.624Z</time></trkpt><trkpt lat="45.8226246" lon="9.7213613"><ele>437.25</ele><time>2026-05-02T15:30:24.618Z</time></trkpt><trkpt lat="45.8226051" lon="9.7215782"><ele>439.5</ele><time>2026-05-02T15:30:25.631Z</time></trkpt><trkpt lat="45.8225727" lon="9.7217694"><ele>441.75</ele><time>2026-05-02T15:30:26.638Z</time></trkpt><trkpt lat="45.8225013" lon="9.7219523"><ele>444.0</ele><time>2026-05-02T15:30:27.643Z</time></trkpt><trkpt lat="45.8224078" lon="9.7221449"><ele>444.0</ele><time>2026-05-02T15:30:28.623Z</time></trkpt><trkpt lat="45.8222974" lon="9.7223459"><ele>444.0</ele><time>2026-05-02T15:30:29.636Z</time></trkpt><trkpt lat="45.8221874" lon="9.7225135"><ele>444.0</ele><time>2026-05-02T15:30:30.617Z</time></trkpt><trkpt lat="45.8220528" lon="9.7226807"><ele>446.0</ele><time>2026-05-02T15:30:31.673Z</time></trkpt><trkpt lat="45.8219046" lon="9.7228255"><ele>448.0</ele><time>2026-05-02T15:30:32.622Z</time></trkpt><trkpt lat="45.8217363" lon="9.7229784"><ele>450.0</ele><time>2026-05-02T15:30:33.654Z</time></trkpt><trkpt lat="45.8215886" lon="9.7231313"><ele>450.0</ele><time>2026-05-02T15:30:34.637Z</time></trkpt><trkpt lat="45.8214379" lon="9.7232877"><ele>450.0</ele><time>2026-05-02T15:30:35.635Z</time></trkpt><trkpt lat="45.8212928" lon="9.723443"><ele>450.0</ele><time>2026-05-02T15:30:36.633Z</time></trkpt><trkpt lat="45.8211791" lon="9.7235937"><ele>453.0</ele><time>2026-05-02T15:30:37.637Z</time></trkpt><trkpt lat="45.8210929" lon="9.7237548"><ele>456.0</ele><time>2026-05-02T15:30:38.622Z</time></trkpt><trkpt lat="45.8210177" lon="9.7239559"><ele>459.0</ele><time>2026-05-02T15:30:39.639Z</time></trkpt><trkpt lat="45.8209819" lon="9.7241986"><ele>460.0</ele><time>2026-05-02T15:30:40.624Z</time></trkpt><trkpt lat="45.8209561" lon="9.7244732"><ele>461.0</ele><time>2026-05-02T15:30:41.626Z</time></trkpt><trkpt lat="45.8209386" lon="9.7247532"><ele>462.0</ele><time>2026-05-02T15:30:42.635Z</time></trkpt><trkpt lat="45.8209266" lon="9.7250217"><ele>460.0</ele><time>2026-05-02T15:30:43.635Z</time></trkpt><trkpt lat="45.8209107" lon="9.7252652"><ele>458.0</ele><time>2026-05-02T15:30:44.621Z</time></trkpt><trkpt lat="45.8208711" lon="9.7255194"><ele>456.0</ele><time>2026-05-02T15:30:45.676Z</time></trkpt><trkpt lat="45.8208079" lon="9.7257365"><ele>456.0</ele><time>2026-05-02T15:30:46.617Z</time></trkpt><trkpt lat="45.8207556" lon="9.725991"><ele>456.0</ele><time>2026-05-02T15:30:47.638Z</time></trkpt><trkpt lat="45.8207321" lon="9.726263"><ele>456.0</ele><time>2026-05-02T15:30:48.622Z</time></trkpt><trkpt lat="45.820714" lon="9.7265523"><ele>455.66666666666663</ele><time>2026-05-02T15:30:49.634Z</time></trkpt><trkpt lat="45.8207115" lon="9.7268229"><ele>455.3333333333333</ele><time>2026-05-02T15:30:50.644Z</time></trkpt><trkpt lat="45.8207265" lon="9.7270773"><ele>455.0</ele><time>2026-05-02T15:30:51.648Z</time></trkpt><trkpt lat="45.820748" lon="9.7273298"><ele>457.0</ele><time>2026-05-02T15:30:52.66Z</time></trkpt><trkpt lat="45.8207787" lon="9.7275607"><ele>459.0</ele><time>2026-05-02T15:30:53.629Z</time></trkpt><trkpt lat="45.8208025" lon="9.7277616"><ele>461.0</ele><time>2026-05-02T15:30:54.618Z</time></trkpt><trkpt lat="45.820807" lon="9.7279654"><ele>463.0</ele><time>2026-05-02T15:30:55.604Z</time></trkpt><trkpt lat="45.8207839" lon="9.728208"><ele>462.6666666666667</ele><time>2026-05-02T15:30:56.64Z</time></trkpt><trkpt lat="45.820748" lon="9.7284619"><ele>462.33333333333337</ele><time>2026-05-02T15:30:57.627Z</time></trkpt><trkpt lat="45.8207094" lon="9.7287601"><ele>462.0</ele><time>2026-05-02T15:30:58.698Z</time></trkpt><trkpt lat="45.8206753" lon="9.7290524"><ele>462.0</ele><time>2026-05-02T15:30:59.673Z</time></trkpt><trkpt lat="45.8206538" lon="9.7293255"><ele>462.0</ele><time>2026-05-02T15:31:00.629Z</time></trkpt><trkpt lat="45.8206354" lon="9.7295876"><ele>462.0</ele><time>2026-05-02T15:31:01.645Z</time></trkpt><trkpt lat="45.8206259" lon="9.7298428"><ele>463.33333333333337</ele><time>2026-05-02T15:31:02.655Z</time></trkpt><trkpt lat="45.8206195" lon="9.7301217"><ele>464.6666666666667</ele><time>2026-05-02T15:31:03.696Z</time></trkpt><trkpt lat="45.8206035" lon="9.7303984"><ele>466.0</ele><time>2026-05-02T15:31:04.653Z</time></trkpt><trkpt lat="45.8205648" lon="9.7307316"><ele>466.6666666666667</ele><time>2026-05-02T15:31:05.753Z</time></trkpt><trkpt lat="45.8205233" lon="9.7310176"><ele>467.33333333333337</ele><time>2026-05-02T15:31:06.66Z</time></trkpt><trkpt lat="45.8204815" lon="9.7313282"><ele>468.0</ele><time>2026-05-02T15:31:07.65Z</time></trkpt><trkpt lat="45.8204396" lon="9.7316426"><ele>470.33333333333337</ele><time>2026-05-02T15:31:08.659Z</time></trkpt><trkpt lat="45.8203945" lon="9.7319422"><ele>472.6666666666667</ele><time>2026-05-02T15:31:09.686Z</time></trkpt><trkpt lat="45.8203647" lon="9.7322155"><ele>475.0</ele><time>2026-05-02T15:31:10.681Z</time></trkpt><trkpt lat="45.8203478" lon="9.7324817"><ele>475.0</ele><time>2026-05-02T15:31:11.628Z</time></trkpt><trkpt lat="45.8203411" lon="9.7327607"><ele>475.0</ele><time>2026-05-02T15:31:12.633Z</time></trkpt><trkpt lat="45.8203395" lon="9.7330328"><ele>475.0</ele><time>2026-05-02T15:31:13.646Z</time></trkpt><trkpt lat="45.8203412" lon="9.733274"><ele>475.0</ele><time>2026-05-02T15:31:14.64Z</time></trkpt><trkpt lat="45.8203481" lon="9.7335075"><ele>475.0</ele><time>2026-05-02T15:31:15.672Z</time></trkpt><trkpt lat="45.8203394" lon="9.7337031"><ele>475.0</ele><time>2026-05-02T15:31:16.627Z</time></trkpt><trkpt lat="45.8203086" lon="9.7339104"><ele>475.0</ele><time>2026-05-02T15:31:17.64Z</time></trkpt><trkpt lat="45.8202501" lon="9.7341211"><ele>478.0</ele><time>2026-05-02T15:31:18.665Z</time></trkpt><trkpt lat="45.8201914" lon="9.7343029"><ele>481.0</ele><time>2026-05-02T15:31:19.654Z</time></trkpt><trkpt lat="45.8201287" lon="9.7344767"><ele>484.0</ele><time>2026-05-02T15:31:20.642Z</time></trkpt><trkpt lat="45.8200808" lon="9.734605"><ele>487.0</ele><time>2026-05-02T15:31:21.649Z</time></trkpt><trkpt lat="45.8200115" lon="9.7346996"><ele>487.33333333333337</ele><time>2026-05-02T15:31:22.631Z</time></trkpt><trkpt lat="45.8198948" lon="9.734756"><ele>487.66666666666663</ele><time>2026-05-02T15:31:23.654Z</time></trkpt><trkpt lat="45.8197372" lon="9.7347718"><ele>488.0</ele><time>2026-05-02T15:31:24.656Z</time></trkpt><trkpt lat="45.8195581" lon="9.7347785"><ele>488.0</ele><time>2026-05-02T15:31:25.656Z</time></trkpt><trkpt lat="45.8194026" lon="9.7348094"><ele>488.0</ele><time>2026-05-02T15:31:26.669Z</time></trkpt><trkpt lat="45.8192506" lon="9.7348647"><ele>488.0</ele><time>2026-05-02T15:31:27.662Z</time></trkpt><trkpt lat="45.8191047" lon="9.7349602"><ele>489.0</ele><time>2026-05-02T15:31:28.634Z</time></trkpt><trkpt lat="45.8189436" lon="9.7351301"><ele>490.0</ele><time>2026-05-02T15:31:29.743Z</time></trkpt><trkpt lat="45.8186608" lon="9.7354475"><ele>490.6666666666667</ele><time>2026-05-02T15:31:31.674Z</time></trkpt><trkpt lat="45.8185533" lon="9.7356362"><ele>491.33333333333337</ele><time>2026-05-02T15:31:32.63Z</time></trkpt><trkpt lat="45.8184527" lon="9.7358241"><ele>492.0</ele><time>2026-05-02T15:31:33.63Z</time></trkpt><trkpt lat="45.8183691" lon="9.7360255"><ele>490.66666666666663</ele><time>2026-05-02T15:31:34.626Z</time></trkpt><trkpt lat="45.8182846" lon="9.7362642"><ele>489.3333333333333</ele><time>2026-05-02T15:31:35.642Z</time></trkpt><trkpt lat="45.818209" lon="9.7365208"><ele>488.0</ele><time>2026-05-02T15:31:36.613Z</time></trkpt><trkpt lat="45.818115" lon="9.7368371"><ele>492.0</ele><time>2026-05-02T15:31:37.725Z</time></trkpt><trkpt lat="45.8179408" lon="9.7374053"><ele>496.0</ele><time>2026-05-02T15:31:39.637Z</time></trkpt><trkpt lat="45.8178445" lon="9.7376708"><ele>497.6666666666667</ele><time>2026-05-02T15:31:40.624Z</time></trkpt><trkpt lat="45.8177414" lon="9.7379184"><ele>499.33333333333337</ele><time>2026-05-02T15:31:41.625Z</time></trkpt><trkpt lat="45.8176359" lon="9.7381669"><ele>501.0</ele><time>2026-05-02T15:31:42.652Z</time></trkpt><trkpt lat="45.8175377" lon="9.7384109"><ele>494.0</ele><time>2026-05-02T15:31:43.643Z</time></trkpt><trkpt lat="45.8174434" lon="9.7386606"><ele>487.0</ele><time>2026-05-02T15:31:44.639Z</time></trkpt><trkpt lat="45.8173468" lon="9.7389181"><ele>480.0</ele><time>2026-05-02T15:31:45.69Z</time></trkpt><trkpt lat="45.817269" lon="9.7391467"><ele>480.0</ele><time>2026-05-02T15:31:46.665Z</time></trkpt><trkpt lat="45.81719" lon="9.7393644"><ele>480.0</ele><time>2026-05-02T15:31:47.68Z</time></trkpt><trkpt lat="45.8171196" lon="9.7395434"><ele>480.0</ele><time>2026-05-02T15:31:48.673Z</time></trkpt><trkpt lat="45.8170389" lon="9.7396903"><ele>480.0</ele><time>2026-05-02T15:31:49.668Z</time></trkpt><trkpt lat="45.8169459" lon="9.7398059"><ele>482.0</ele><time>2026-05-02T15:31:50.64Z</time></trkpt><trkpt lat="45.8168279" lon="9.7399034"><ele>484.0</ele><time>2026-05-02T15:31:51.659Z</time></trkpt><trkpt lat="45.8166768" lon="9.7399705"><ele>486.0</ele><time>2026-05-02T15:31:52.679Z</time></trkpt><trkpt lat="45.8165232" lon="9.7400129"><ele>486.0</ele><time>2026-05-02T15:31:53.669Z</time></trkpt><trkpt lat="45.8163582" lon="9.7400293"><ele>486.0</ele><time>2026-05-02T15:31:54.725Z</time></trkpt><trkpt lat="45.8162275" lon="9.7400471"><ele>486.0</ele><time>2026-05-02T15:31:55.661Z</time></trkpt><trkpt lat="45.8161039" lon="9.7400862"><ele>486.0</ele><time>2026-05-02T15:31:56.628Z</time></trkpt><trkpt lat="45.8159887" lon="9.7401553"><ele>486.25</ele><time>2026-05-02T15:31:57.652Z</time></trkpt><trkpt lat="45.8158891" lon="9.7402586"><ele>486.5</ele><time>2026-05-02T15:31:58.669Z</time></trkpt><trkpt lat="45.8158175" lon="9.7403891"><ele>486.75</ele><time>2026-05-02T15:31:59.676Z</time></trkpt><trkpt lat="45.815769" lon="9.7405354"><ele>487.0</ele><time>2026-05-02T15:32:00.646Z</time></trkpt><trkpt lat="45.8157445" lon="9.7407567"><ele>488.0</ele><time>2026-05-02T15:32:01.826Z</time></trkpt><trkpt lat="45.8157578" lon="9.7411512"><ele>489.0</ele><time>2026-05-02T15:32:03.67Z</time></trkpt><trkpt lat="45.8157768" lon="9.7413958"><ele>490.0</ele><time>2026-05-02T15:32:04.677Z</time></trkpt><trkpt lat="45.8157837" lon="9.7416355"><ele>490.0</ele><time>2026-05-02T15:32:05.696Z</time></trkpt><trkpt lat="45.8157785" lon="9.7418409"><ele>490.0</ele><time>2026-05-02T15:32:06.691Z</time></trkpt><trkpt lat="45.8157572" lon="9.7420232"><ele>490.0</ele><time>2026-05-02T15:32:07.661Z</time></trkpt><trkpt lat="45.8157196" lon="9.7421845"><ele>490.0</ele><time>2026-05-02T15:32:08.683Z</time></trkpt><trkpt lat="45.8156836" lon="9.7423143"><ele>492.8</ele><time>2026-05-02T15:32:09.713Z</time></trkpt><trkpt lat="45.8156465" lon="9.7424099"><ele>495.6</ele><time>2026-05-02T15:32:10.673Z</time></trkpt><trkpt lat="45.8155772" lon="9.7425075"><ele>498.4</ele><time>2026-05-02T15:32:11.654Z</time></trkpt><trkpt lat="45.8154994" lon="9.7425849"><ele>501.2</ele><time>2026-05-02T15:32:12.66Z</time></trkpt><trkpt lat="45.8154089" lon="9.7426766"><ele>504.0</ele><time>2026-05-02T15:32:13.677Z</time></trkpt><trkpt lat="45.8153312" lon="9.7427657"><ele>503.6</ele><time>2026-05-02T15:32:14.674Z</time></trkpt><trkpt lat="45.8152712" lon="9.7428632"><ele>503.2</ele><time>2026-05-02T15:32:15.624Z</time></trkpt><trkpt lat="45.8152054" lon="9.742976"><ele>502.80000000000007</ele><time>2026-05-02T15:32:16.761Z</time></trkpt><trkpt lat="45.8151451" lon="9.7430638"><ele>502.40000000000003</ele><time>2026-05-02T15:32:17.668Z</time></trkpt><trkpt lat="45.8150516" lon="9.7431439"><ele>502.0</ele><time>2026-05-02T15:32:18.642Z</time></trkpt><trkpt lat="45.814947" lon="9.7432225"><ele>502.0</ele><time>2026-05-02T15:32:19.714Z</time></trkpt><trkpt lat="45.81485" lon="9.7432789"><ele>502.00000000000006</ele><time>2026-05-02T15:32:20.659Z</time></trkpt><trkpt lat="45.8147529" lon="9.7433218"><ele>502.00000000000006</ele><time>2026-05-02T15:32:21.69Z</time></trkpt><trkpt lat="45.8146708" lon="9.7433584"><ele>502.0</ele><time>2026-05-02T15:32:22.677Z</time></trkpt><trkpt lat="45.8146039" lon="9.7434019"><ele>502.0</ele><time>2026-05-02T15:32:23.694Z</time></trkpt><trkpt lat="45.8145517" lon="9.7435376"><ele>502.00000000000006</ele><time>2026-05-02T15:32:25.683Z</time></trkpt><trkpt lat="45.8146427" lon="9.7436147"><ele>502.0</ele><time>2026-05-02T15:32:27.661Z</time></trkpt><trkpt lat="45.8147152" lon="9.7435886"><ele>502.0</ele><time>2026-05-02T15:32:28.669Z</time></trkpt><trkpt lat="45.8147922" lon="9.7435404"><ele>502.0</ele><time>2026-05-02T15:32:29.69Z</time></trkpt><trkpt lat="45.814867" lon="9.7434922"><ele>502.00000000000006</ele><time>2026-05-02T15:32:30.687Z</time></trkpt><trkpt lat="45.8149316" lon="9.7434705"><ele>502.0</ele><time>2026-05-02T15:32:31.682Z</time></trkpt><trkpt lat="45.8149977" lon="9.7434831"><ele>502.0</ele><time>2026-05-02T15:32:32.679Z</time></trkpt><trkpt lat="45.8150552" lon="9.7435418"><ele>502.00000000000006</ele><time>2026-05-02T15:32:33.682Z</time></trkpt><trkpt lat="45.815097" lon="9.7436466"><ele>502.00000000000006</ele><time>2026-05-02T15:32:34.698Z</time></trkpt><trkpt lat="45.8151075" lon="9.7437805"><ele>502.0</ele><time>2026-05-02T15:32:35.675Z</time></trkpt><trkpt lat="45.8150711" lon="9.7439138"><ele>502.0</ele><time>2026-05-02T15:32:36.69Z</time></trkpt><trkpt lat="45.8150154" lon="9.7440635"><ele>503.75</ele><time>2026-05-02T15:32:37.693Z</time></trkpt><trkpt lat="45.8149538" lon="9.7442342"><ele>505.5</ele><time>2026-05-02T15:32:38.679Z</time></trkpt><trkpt lat="45.8148869" lon="9.7444215"><ele>507.25</ele><time>2026-05-02T15:32:39.673Z</time></trkpt><trkpt lat="45.8148152" lon="9.7446166"><ele>509.0</ele><time>2026-05-02T15:32:40.891Z</time></trkpt><trkpt lat="45.8147349" lon="9.7448416"><ele>511.79999999999995</ele><time>2026-05-02T15:32:42.792Z</time></trkpt><trkpt lat="45.8147107" lon="9.7449841"><ele>514.5999999999999</ele><time>2026-05-02T15:32:44.686Z</time></trkpt><trkpt lat="45.814814" lon="9.7450726"><ele>517.4</ele><time>2026-05-02T15:32:46.657Z</time></trkpt><trkpt lat="45.8148854" lon="9.7450457"><ele>520.1999999999999</ele><time>2026-05-02T15:32:47.652Z</time></trkpt><trkpt lat="45.8149532" lon="9.7449756"><ele>523.0</ele><time>2026-05-02T15:32:48.675Z</time></trkpt><trkpt lat="45.8150316" lon="9.744895"><ele>523.0</ele><time>2026-05-02T15:32:49.638Z</time></trkpt><trkpt lat="45.8151207" lon="9.744815"><ele>523.0</ele><time>2026-05-02T15:32:50.628Z</time></trkpt><trkpt lat="45.8152217" lon="9.7447368"><ele>523.0</ele><time>2026-05-02T15:32:51.656Z</time></trkpt><trkpt lat="45.815328" lon="9.7446621"><ele>523.0</ele><time>2026-05-02T15:32:52.673Z</time></trkpt><trkpt lat="45.8154307" lon="9.7445916"><ele>524.6</ele><time>2026-05-02T15:32:53.673Z</time></trkpt><trkpt lat="45.8155265" lon="9.7445127"><ele>526.1999999999999</ele><time>2026-05-02T15:32:54.695Z</time></trkpt><trkpt lat="45.8156222" lon="9.7444222"><ele>527.8</ele><time>2026-05-02T15:32:55.788Z</time></trkpt><trkpt lat="45.8156911" lon="9.7443357"><ele>529.4</ele><time>2026-05-02T15:32:56.723Z</time></trkpt><trkpt lat="45.8157544" lon="9.744223"><ele>531.0</ele><time>2026-05-02T15:32:57.715Z</time></trkpt><trkpt lat="45.8158076" lon="9.7440924"><ele>531.0</ele><time>2026-05-02T15:32:58.692Z</time></trkpt><trkpt lat="45.815855" lon="9.7439399"><ele>531.0</ele><time>2026-05-02T15:32:59.674Z</time></trkpt><trkpt lat="45.8158999" lon="9.7437714"><ele>531.0</ele><time>2026-05-02T15:33:00.667Z</time></trkpt><trkpt lat="45.8159379" lon="9.7436284"><ele>531.0</ele><time>2026-05-02T15:33:01.663Z</time></trkpt><trkpt lat="45.8159637" lon="9.743507"><ele>531.0</ele><time>2026-05-02T15:33:02.657Z</time></trkpt><trkpt lat="45.8159833" lon="9.7434132"><ele>532.6</ele><time>2026-05-02T15:33:03.68Z</time></trkpt><trkpt lat="45.8160489" lon="9.7433171"><ele>534.2</ele><time>2026-05-02T15:33:05.688Z</time></trkpt><trkpt lat="45.8160992" lon="9.7434073"><ele>535.8</ele><time>2026-05-02T15:33:07.706Z</time></trkpt><trkpt lat="45.8160585" lon="9.743598"><ele>537.4</ele><time>2026-05-02T15:33:09.677Z</time></trkpt><trkpt lat="45.816032" lon="9.743732"><ele>539.0</ele><time>2026-05-02T15:33:10.691Z</time></trkpt><trkpt lat="45.8160031" lon="9.7438815"><ele>537.4</ele><time>2026-05-02T15:33:11.769Z</time></trkpt><trkpt lat="45.8159694" lon="9.7440278"><ele>535.8</ele><time>2026-05-02T15:33:12.686Z</time></trkpt><trkpt lat="45.8159425" lon="9.7441811"><ele>534.2</ele><time>2026-05-02T15:33:13.677Z</time></trkpt><trkpt lat="45.815911" lon="9.7443027"><ele>532.6</ele><time>2026-05-02T15:33:14.628Z</time></trkpt><trkpt lat="45.8158668" lon="9.7444407"><ele>531.0</ele><time>2026-05-02T15:33:15.66Z</time></trkpt><trkpt lat="45.815807" lon="9.7445753"><ele>537.5</ele><time>2026-05-02T15:33:16.678Z</time></trkpt><trkpt lat="45.8157423" lon="9.7447015"><ele>544.0</ele><time>2026-05-02T15:33:17.666Z</time></trkpt><trkpt lat="45.8156772" lon="9.7448278"><ele>550.5</ele><time>2026-05-02T15:33:18.628Z</time></trkpt><trkpt lat="45.8155985" lon="9.7449661"><ele>557.0</ele><time>2026-05-02T15:33:19.701Z</time></trkpt><trkpt lat="45.8155244" lon="9.7450915"><ele>557.0</ele><time>2026-05-02T15:33:20.661Z</time></trkpt><trkpt lat="45.8154422" lon="9.7452094"><ele>557.0</ele><time>2026-05-02T15:33:21.696Z</time></trkpt><trkpt lat="45.8153627" lon="9.745314"><ele>557.0</ele><time>2026-05-02T15:33:22.673Z</time></trkpt><trkpt lat="45.8152779" lon="9.7454095"><ele>557.0</ele><time>2026-05-02T15:33:23.653Z</time></trkpt><trkpt lat="45.8151919" lon="9.7454953"><ele>557.0</ele><time>2026-05-02T15:33:24.669Z</time></trkpt><trkpt lat="45.8151061" lon="9.7455737"><ele>557.3333333333333</ele><time>2026-05-02T15:33:25.656Z</time></trkpt><trkpt lat="45.8150247" lon="9.7456362"><ele>557.6666666666666</ele><time>2026-05-02T15:33:26.673Z</time></trkpt><trkpt lat="45.8149615" lon="9.7456946"><ele>558.0</ele><time>2026-05-02T15:33:27.714Z</time></trkpt><trkpt lat="45.8149285" lon="9.7457809"><ele>558.3333333333334</ele><time>2026-05-02T15:33:28.678Z</time></trkpt><trkpt lat="45.8149219" lon="9.7458738"><ele>558.6666666666667</ele><time>2026-05-02T15:33:29.643Z</time></trkpt><trkpt lat="45.8149046" lon="9.7459767"><ele>559.0</ele><time>2026-05-02T15:33:30.638Z</time></trkpt><trkpt lat="45.814876" lon="9.7460872"><ele>559.0</ele><time>2026-05-02T15:33:31.659Z</time></trkpt><trkpt lat="45.8148076" lon="9.7461944"><ele>559.0</ele><time>2026-05-02T15:33:32.659Z</time></trkpt><trkpt lat="45.8147613" lon="9.7463227"><ele>559.0</ele><time>2026-05-02T15:33:33.682Z</time></trkpt><trkpt lat="45.8147444" lon="9.7464801"><ele>559.0</ele><time>2026-05-02T15:33:34.694Z</time></trkpt><trkpt lat="45.8147454" lon="9.7466491"><ele>559.0</ele><time>2026-05-02T15:33:35.641Z</time></trkpt><trkpt lat="45.8147645" lon="9.7468484"><ele>559.5</ele><time>2026-05-02T15:33:36.684Z</time></trkpt><trkpt lat="45.8147933" lon="9.7470306"><ele>560.0</ele><time>2026-05-02T15:33:37.653Z</time></trkpt><trkpt lat="45.8148424" lon="9.7472432"><ele>560.5</ele><time>2026-05-02T15:33:38.696Z</time></trkpt><trkpt lat="45.8148912" lon="9.7474558"><ele>561.0</ele><time>2026-05-02T15:33:39.71Z</time></trkpt><trkpt lat="45.8149344" lon="9.7476523"><ele>560.75</ele><time>2026-05-02T15:33:40.698Z</time></trkpt><trkpt lat="45.814965" lon="9.7478331"><ele>560.5</ele><time>2026-05-02T15:33:41.68Z</time></trkpt><trkpt lat="45.8149779" lon="9.7480023"><ele>560.25</ele><time>2026-05-02T15:33:42.666Z</time></trkpt><trkpt lat="45.8149723" lon="9.7481791"><ele>560.0</ele><time>2026-05-02T15:33:43.695Z</time></trkpt><trkpt lat="45.8149399" lon="9.7483318"><ele>560.0</ele><time>2026-05-02T15:33:44.643Z</time></trkpt><trkpt lat="45.8148946" lon="9.7484951"><ele>560.0</ele><time>2026-05-02T15:33:45.655Z</time></trkpt><trkpt lat="45.8148469" lon="9.7486229"><ele>560.0</ele><time>2026-05-02T15:33:46.642Z</time></trkpt><trkpt lat="45.8147859" lon="9.7487132"><ele>560.0</ele><time>2026-05-02T15:33:47.659Z</time></trkpt><trkpt lat="45.8147021" lon="9.7487931"><ele>560.0</ele><time>2026-05-02T15:33:48.717Z</time></trkpt><trkpt lat="45.8146196" lon="9.74887"><ele>561.1666666666666</ele><time>2026-05-02T15:33:49.69Z</time></trkpt><trkpt lat="45.8145394" lon="9.7489685"><ele>562.3333333333333</ele><time>2026-05-02T15:33:50.704Z</time></trkpt><trkpt lat="45.8144705" lon="9.7490765"><ele>563.5</ele><time>2026-05-02T15:33:51.692Z</time></trkpt><trkpt lat="45.8144135" lon="9.7491643"><ele>564.6666666666666</ele><time>2026-05-02T15:33:52.698Z</time></trkpt><trkpt lat="45.8143763" lon="9.7492375"><ele>565.8333333333334</ele><time>2026-05-02T15:33:53.701Z</time></trkpt><trkpt lat="45.8143603" lon="9.7493573"><ele>567.0</ele><time>2026-05-02T15:33:55.69Z</time></trkpt><trkpt lat="45.8144515" lon="9.7493886"><ele>567.0</ele><time>2026-05-02T15:33:57.791Z</time></trkpt><trkpt lat="45.8145074" lon="9.7493441"><ele>567.0</ele><time>2026-05-02T15:33:58.697Z</time></trkpt><trkpt lat="45.8146101" lon="9.7492679"><ele>567.0</ele><time>2026-05-02T15:34:00.67Z</time></trkpt><trkpt lat="45.8147269" lon="9.7492962"><ele>567.0</ele><time>2026-05-02T15:34:02.666Z</time></trkpt><trkpt lat="45.8147907" lon="9.7493684"><ele>567.0</ele><time>2026-05-02T15:34:03.679Z</time></trkpt><trkpt lat="45.8148802" lon="9.7494976"><ele>571.8000000000001</ele><time>2026-05-02T15:34:04.902Z</time></trkpt><trkpt lat="45.8150155" lon="9.7496659"><ele>576.6</ele><time>2026-05-02T15:34:06.681Z</time></trkpt><trkpt lat="45.8150949" lon="9.7497439"><ele>581.4000000000001</ele><time>2026-05-02T15:34:07.67Z</time></trkpt><trkpt lat="45.8151769" lon="9.7498067"><ele>586.2</ele><time>2026-05-02T15:34:08.679Z</time></trkpt><trkpt lat="45.815249" lon="9.7498461"><ele>591.0</ele><time>2026-05-02T15:34:09.669Z</time></trkpt><trkpt lat="45.8153544" lon="9.7498753"><ele>594.6</ele><time>2026-05-02T15:34:11.691Z</time></trkpt><trkpt lat="45.8154353" lon="9.7498612"><ele>598.2</ele><time>2026-05-02T15:34:12.637Z</time></trkpt><trkpt lat="45.8155285" lon="9.7498209"><ele>601.8</ele><time>2026-05-02T15:34:13.643Z</time></trkpt><trkpt lat="45.815628" lon="9.7497701"><ele>605.4</ele><time>2026-05-02T15:34:14.65Z</time></trkpt><trkpt lat="45.8157415" lon="9.7497251"><ele>609.0</ele><time>2026-05-02T15:34:15.632Z</time></trkpt><trkpt lat="45.8158498" lon="9.7496919"><ele>609.0</ele><time>2026-05-02T15:34:16.618Z</time></trkpt><trkpt lat="45.8159478" lon="9.7496627"><ele>609.0</ele><time>2026-05-02T15:34:17.662Z</time></trkpt><trkpt lat="45.8160415" lon="9.7496514"><ele>609.0</ele><time>2026-05-02T15:34:18.648Z</time></trkpt><trkpt lat="45.8161358" lon="9.7496629"><ele>609.0</ele><time>2026-05-02T15:34:19.647Z</time></trkpt><trkpt lat="45.8162298" lon="9.7496908"><ele>609.0</ele><time>2026-05-02T15:34:20.666Z</time></trkpt><trkpt lat="45.8163146" lon="9.7497296"><ele>610.0</ele><time>2026-05-02T15:34:21.643Z</time></trkpt><trkpt lat="45.8163876" lon="9.7497903"><ele>611.0</ele><time>2026-05-02T15:34:22.672Z</time></trkpt><trkpt lat="45.8164485" lon="9.7498819"><ele>612.0</ele><time>2026-05-02T15:34:23.66Z</time></trkpt><trkpt lat="45.8165026" lon="9.7499916"><ele>613.0</ele><time>2026-05-02T15:34:24.622Z</time></trkpt><trkpt lat="45.8165591" lon="9.7501139"><ele>614.0</ele><time>2026-05-02T15:34:25.65Z</time></trkpt><trkpt lat="45.8166552" lon="9.750238"><ele>618.8</ele><time>2026-05-02T15:34:26.612Z</time></trkpt><trkpt lat="45.8167542" lon="9.7503459"><ele>623.5999999999999</ele><time>2026-05-02T15:34:27.638Z</time></trkpt><trkpt lat="45.8168444" lon="9.7504407"><ele>628.4</ele><time>2026-05-02T15:34:28.62Z</time></trkpt><trkpt lat="45.8169349" lon="9.7505173"><ele>633.1999999999999</ele><time>2026-05-02T15:34:29.618Z</time></trkpt><trkpt lat="45.8170309" lon="9.750584"><ele>638.0</ele><time>2026-05-02T15:34:30.638Z</time></trkpt><trkpt lat="45.8171257" lon="9.7506267"><ele>638.8</ele><time>2026-05-02T15:34:31.637Z</time></trkpt><trkpt lat="45.8172372" lon="9.7506507"><ele>639.5999999999999</ele><time>2026-05-02T15:34:32.72Z</time></trkpt><trkpt lat="45.8173384" lon="9.7506618"><ele>640.4000000000001</ele><time>2026-05-02T15:34:33.644Z</time></trkpt><trkpt lat="45.8174445" lon="9.7506665"><ele>641.2</ele><time>2026-05-02T15:34:34.633Z</time></trkpt><trkpt lat="45.8175486" lon="9.750645"><ele>642.0</ele><time>2026-05-02T15:34:35.645Z</time></trkpt><trkpt lat="45.8176695" lon="9.7505857"><ele>646.0</ele><time>2026-05-02T15:34:36.788Z</time></trkpt><trkpt lat="45.8178722" lon="9.7504771"><ele>650.0</ele><time>2026-05-02T15:34:38.644Z</time></trkpt><trkpt lat="45.8179759" lon="9.7504203"><ele>654.0</ele><time>2026-05-02T15:34:39.651Z</time></trkpt><trkpt lat="45.8180659" lon="9.7503715"><ele>658.0</ele><time>2026-05-02T15:34:40.644Z</time></trkpt><trkpt lat="45.8181352" lon="9.7503346"><ele>658.0</ele><time>2026-05-02T15:34:41.644Z</time></trkpt><trkpt lat="45.818238" lon="9.7502895"><ele>658.0</ele><time>2026-05-02T15:34:43.663Z</time></trkpt><trkpt lat="45.8183043" lon="9.7503439"><ele>658.0</ele><time>2026-05-02T15:34:45.638Z</time></trkpt><trkpt lat="45.8182573" lon="9.7504233"><ele>658.0</ele><time>2026-05-02T15:34:47.674Z</time></trkpt><trkpt lat="45.8181165" lon="9.750507"><ele>658.0</ele><time>2026-05-02T15:34:49.675Z</time></trkpt><trkpt lat="45.81803" lon="9.7506183"><ele>658.0</ele><time>2026-05-02T15:34:50.741Z</time></trkpt><trkpt lat="45.8178819" lon="9.7507776"><ele>658.0</ele><time>2026-05-02T15:34:52.755Z</time></trkpt><trkpt lat="45.8177637" lon="9.7509055"><ele>658.0</ele><time>2026-05-02T15:34:54.645Z</time></trkpt><trkpt lat="45.8177131" lon="9.7509987"><ele>658.0</ele><time>2026-05-02T15:34:56.642Z</time></trkpt><trkpt lat="45.8178108" lon="9.7510006"><ele>658.0</ele><time>2026-05-02T15:34:59.654Z</time></trkpt><trkpt lat="45.8179247" lon="9.7509006"><ele>658.0</ele><time>2026-05-02T15:35:01.635Z</time></trkpt><trkpt lat="45.8179931" lon="9.750852"><ele>658.0</ele><time>2026-05-02T15:35:02.629Z</time></trkpt><trkpt lat="45.8180653" lon="9.7507992"><ele>658.0</ele><time>2026-05-02T15:35:03.657Z</time></trkpt><trkpt lat="45.8181346" lon="9.7507484"><ele>658.0</ele><time>2026-05-02T15:35:04.657Z</time></trkpt><trkpt lat="45.8181993" lon="9.7507035"><ele>658.0</ele><time>2026-05-02T15:35:05.635Z</time></trkpt><trkpt lat="45.8182709" lon="9.7506618"><ele>658.0</ele><time>2026-05-02T15:35:06.694Z</time></trkpt><trkpt lat="45.8183463" lon="9.7506432"><ele>658.0</ele><time>2026-05-02T15:35:07.668Z</time></trkpt><trkpt lat="45.8184262" lon="9.7506304"><ele>658.0</ele><time>2026-05-02T15:35:08.675Z</time></trkpt><trkpt lat="45.8185155" lon="9.7505951"><ele>658.0</ele><time>2026-05-02T15:35:09.643Z</time></trkpt><trkpt lat="45.818603" lon="9.7505482"><ele>658.0</ele><time>2026-05-02T15:35:10.692Z</time></trkpt><trkpt lat="45.8186716" lon="9.7505001"><ele>658.0</ele><time>2026-05-02T15:35:11.63Z</time></trkpt><trkpt lat="45.8187303" lon="9.750454"><ele>661.8333333333334</ele><time>2026-05-02T15:35:12.673Z</time></trkpt><trkpt lat="45.8188045" lon="9.75041"><ele>665.6666666666667</ele><time>2026-05-02T15:35:14.644Z</time></trkpt><trkpt lat="45.8188331" lon="9.7505083"><ele>669.5</ele><time>2026-05-02T15:35:17.647Z</time></trkpt><trkpt lat="45.8187548" lon="9.7505501"><ele>673.3333333333334</ele><time>2026-05-02T15:35:19.669Z</time></trkpt><trkpt lat="45.8186355" lon="9.7506464"><ele>677.1666666666666</ele><time>2026-05-02T15:35:21.67Z</time></trkpt><trkpt lat="45.8185752" lon="9.7507017"><ele>681.0</ele><time>2026-05-02T15:35:22.63Z</time></trkpt><trkpt lat="45.8185042" lon="9.7507581"><ele>682.1666666666666</ele><time>2026-05-02T15:35:23.635Z</time></trkpt><trkpt lat="45.8184301" lon="9.7507955"><ele>683.3333333333334</ele><time>2026-05-02T15:35:24.639Z</time></trkpt><trkpt lat="45.8183539" lon="9.7508397"><ele>684.5</ele><time>2026-05-02T15:35:25.681Z</time></trkpt><trkpt lat="45.8182885" lon="9.7509022"><ele>685.6666666666667</ele><time>2026-05-02T15:35:26.628Z</time></trkpt><trkpt lat="45.8182273" lon="9.7510033"><ele>686.8333333333334</ele><time>2026-05-02T15:35:27.644Z</time></trkpt><trkpt lat="45.8181551" lon="9.7511129"><ele>688.0</ele><time>2026-05-02T15:35:28.785Z</time></trkpt><trkpt lat="45.8180217" lon="9.751251"><ele>688.0</ele><time>2026-05-02T15:35:30.662Z</time></trkpt><trkpt lat="45.8179613" lon="9.7513322"><ele>688.0</ele><time>2026-05-02T15:35:31.681Z</time></trkpt><trkpt lat="45.817925" lon="9.7514268"><ele>688.0</ele><time>2026-05-02T15:35:32.678Z</time></trkpt><trkpt lat="45.8178846" lon="9.7515359"><ele>688.0</ele><time>2026-05-02T15:35:33.681Z</time></trkpt><trkpt lat="45.8178427" lon="9.7516512"><ele>688.0</ele><time>2026-05-02T15:35:34.683Z</time></trkpt><trkpt lat="45.8177969" lon="9.7517643"><ele>688.0</ele><time>2026-05-02T15:35:35.694Z</time></trkpt><trkpt lat="45.8177528" lon="9.7518842"><ele>688.4</ele><time>2026-05-02T15:35:36.675Z</time></trkpt><trkpt lat="45.8176966" lon="9.7519932"><ele>688.8</ele><time>2026-05-02T15:35:37.706Z</time></trkpt><trkpt lat="45.8176479" lon="9.7520911"><ele>689.2</ele><time>2026-05-02T15:35:38.646Z</time></trkpt><trkpt lat="45.8176036" lon="9.752185"><ele>689.6</ele><time>2026-05-02T15:35:39.669Z</time></trkpt><trkpt lat="45.817505" lon="9.7522446"><ele>690.0</ele><time>2026-05-02T15:35:41.689Z</time></trkpt><trkpt lat="45.8173916" lon="9.752209"><ele>690.0</ele><time>2026-05-02T15:35:43.721Z</time></trkpt><trkpt lat="45.8173092" lon="9.7520709"><ele>690.0</ele><time>2026-05-02T15:35:45.71Z</time></trkpt><trkpt lat="45.8172377" lon="9.751969"><ele>690.0</ele><time>2026-05-02T15:35:47.68Z</time></trkpt><trkpt lat="45.8171664" lon="9.7519515"><ele>690.0</ele><time>2026-05-02T15:35:49.68Z</time></trkpt><trkpt lat="45.8170956" lon="9.7520044"><ele>690.0</ele><time>2026-05-02T15:35:51.688Z</time></trkpt><trkpt lat="45.8169934" lon="9.7521171"><ele>690.0</ele><time>2026-05-02T15:35:53.667Z</time></trkpt><trkpt lat="45.8169279" lon="9.7521885"><ele>690.0</ele><time>2026-05-02T15:35:54.665Z</time></trkpt><trkpt lat="45.8168614" lon="9.752265"><ele>690.0</ele><time>2026-05-02T15:35:55.689Z</time></trkpt><trkpt lat="45.8168022" lon="9.7523361"><ele>690.0</ele><time>2026-05-02T15:35:56.659Z</time></trkpt><trkpt lat="45.8167267" lon="9.752416"><ele>690.0</ele><time>2026-05-02T15:35:57.715Z</time></trkpt><trkpt lat="45.8166498" lon="9.7524674"><ele>690.0</ele><time>2026-05-02T15:35:58.682Z</time></trkpt><trkpt lat="45.8165681" lon="9.7525049"><ele>688.8333333333334</ele><time>2026-05-02T15:35:59.694Z</time></trkpt><trkpt lat="45.8164918" lon="9.7525345"><ele>687.6666666666666</ele><time>2026-05-02T15:36:00.683Z</time></trkpt><trkpt lat="45.816405" lon="9.7525603"><ele>686.5</ele><time>2026-05-02T15:36:01.709Z</time></trkpt><trkpt lat="45.8163296" lon="9.7525812"><ele>685.3333333333333</ele><time>2026-05-02T15:36:02.677Z</time></trkpt><trkpt lat="45.8162461" lon="9.7526131"><ele>684.1666666666666</ele><time>2026-05-02T15:36:03.718Z</time></trkpt><trkpt lat="45.8161757" lon="9.7526347"><ele>683.0</ele><time>2026-05-02T15:36:04.709Z</time></trkpt><trkpt lat="45.8161115" lon="9.752661"><ele>683.0</ele><time>2026-05-02T15:36:05.707Z</time></trkpt><trkpt lat="45.8160474" lon="9.7526906"><ele>683.0</ele><time>2026-05-02T15:36:06.689Z</time></trkpt><trkpt lat="45.8159886" lon="9.7527337"><ele>683.0</ele><time>2026-05-02T15:36:07.701Z</time></trkpt><trkpt lat="45.8159368" lon="9.7527979"><ele>683.0</ele><time>2026-05-02T15:36:08.679Z</time></trkpt><trkpt lat="45.8158919" lon="9.7528768"><ele>683.0</ele><time>2026-05-02T15:36:09.686Z</time></trkpt><trkpt lat="45.8158552" lon="9.7530043"><ele>683.0</ele><time>2026-05-02T15:36:11.698Z</time></trkpt><trkpt lat="45.8159042" lon="9.7530817"><ele>683.0</ele><time>2026-05-02T15:36:13.696Z</time></trkpt><trkpt lat="45.8160002" lon="9.7530518"><ele>687.5999999999999</ele><time>2026-05-02T15:36:15.695Z</time></trkpt><trkpt lat="45.816113" lon="9.7530182"><ele>692.1999999999999</ele><time>2026-05-02T15:36:17.686Z</time></trkpt><trkpt lat="45.8162335" lon="9.7530556"><ele>696.8</ele><time>2026-05-02T15:36:19.679Z</time></trkpt><trkpt lat="45.8163002" lon="9.753087"><ele>701.4</ele><time>2026-05-02T15:36:20.685Z</time></trkpt><trkpt lat="45.816417" lon="9.7531276"><ele>706.0</ele><time>2026-05-02T15:36:22.693Z</time></trkpt><trkpt lat="45.816526" lon="9.7531885"><ele>706.0</ele><time>2026-05-02T15:36:24.708Z</time></trkpt><trkpt lat="45.8165828" lon="9.7532557"><ele>706.0</ele><time>2026-05-02T15:36:25.736Z</time></trkpt><trkpt lat="45.8166466" lon="9.7533307"><ele>706.0</ele><time>2026-05-02T15:36:26.689Z</time></trkpt><trkpt lat="45.8167228" lon="9.7534192"><ele>706.0</ele><time>2026-05-02T15:36:27.678Z</time></trkpt><trkpt lat="45.8168042" lon="9.7535101"><ele>706.0</ele><time>2026-05-02T15:36:28.703Z</time></trkpt><trkpt lat="45.8168862" lon="9.7535797"><ele>713.0</ele><time>2026-05-02T15:36:29.678Z</time></trkpt><trkpt lat="45.8169729" lon="9.7536423"><ele>720.0</ele><time>2026-05-02T15:36:30.712Z</time></trkpt><trkpt lat="45.8170573" lon="9.7536828"><ele>727.0</ele><time>2026-05-02T15:36:31.662Z</time></trkpt><trkpt lat="45.8171434" lon="9.7536939"><ele>734.0</ele><time>2026-05-02T15:36:32.637Z</time></trkpt><trkpt lat="45.8172064" lon="9.753699"><ele>741.0</ele><time>2026-05-02T15:36:33.637Z</time></trkpt><trkpt lat="45.8172865" lon="9.7537244"><ele>748.0</ele><time>2026-05-02T15:36:35.665Z</time></trkpt><trkpt lat="45.8173188" lon="9.7538247"><ele>748.0</ele><time>2026-05-02T15:36:37.664Z</time></trkpt><trkpt lat="45.8172544" lon="9.7538903"><ele>748.0</ele><time>2026-05-02T15:36:39.667Z</time></trkpt><trkpt lat="45.8171928" lon="9.753909"><ele>748.0</ele><time>2026-05-02T15:36:40.67Z</time></trkpt><trkpt lat="45.8171207" lon="9.7539199"><ele>748.0</ele><time>2026-05-02T15:36:41.647Z</time></trkpt><trkpt lat="45.8170347" lon="9.7539338"><ele>748.0</ele><time>2026-05-02T15:36:42.698Z</time></trkpt><trkpt lat="45.8169294" lon="9.7539476"><ele>748.0</ele><time>2026-05-02T15:36:43.664Z</time></trkpt><trkpt lat="45.8168295" lon="9.7539639"><ele>746.0</ele><time>2026-05-02T15:36:44.696Z</time></trkpt><trkpt lat="45.8167319" lon="9.753982"><ele>744.0</ele><time>2026-05-02T15:36:45.708Z</time></trkpt><trkpt lat="45.8166422" lon="9.7540032"><ele>742.0</ele><time>2026-05-02T15:36:46.643Z</time></trkpt><trkpt lat="45.8165445" lon="9.7540271"><ele>740.0</ele><time>2026-05-02T15:36:47.679Z</time></trkpt><trkpt lat="45.8164621" lon="9.7540613"><ele>738.0</ele><time>2026-05-02T15:36:48.667Z</time></trkpt><trkpt lat="45.8163912" lon="9.7541032"><ele>738.0</ele><time>2026-05-02T15:36:49.665Z</time></trkpt><trkpt lat="45.8163291" lon="9.7541631"><ele>738.0</ele><time>2026-05-02T15:36:50.69Z</time></trkpt><trkpt lat="45.8162886" lon="9.7542632"><ele>738.0</ele><time>2026-05-02T15:36:52.71Z</time></trkpt><trkpt lat="45.8163495" lon="9.754319"><ele>738.0</ele><time>2026-05-02T15:36:54.68Z</time></trkpt><trkpt lat="45.816472" lon="9.754303"><ele>738.0</ele><time>2026-05-02T15:36:56.69Z</time></trkpt><trkpt lat="45.8165434" lon="9.7542999"><ele>738.0</ele><time>2026-05-02T15:36:57.676Z</time></trkpt><trkpt lat="45.8166254" lon="9.7543109"><ele>738.0</ele><time>2026-05-02T15:36:58.672Z</time></trkpt><trkpt lat="45.8167137" lon="9.7543331"><ele>738.0</ele><time>2026-05-02T15:36:59.724Z</time></trkpt><trkpt lat="45.8168049" lon="9.7543562"><ele>738.0</ele><time>2026-05-02T15:37:00.712Z</time></trkpt><trkpt lat="45.8168999" lon="9.7543842"><ele>738.0</ele><time>2026-05-02T15:37:01.696Z</time></trkpt><trkpt lat="45.8169929" lon="9.754409"><ele>738.0</ele><time>2026-05-02T15:37:02.662Z</time></trkpt><trkpt lat="45.8170958" lon="9.7544398"><ele>745.5999999999999</ele><time>2026-05-02T15:37:03.691Z</time></trkpt><trkpt lat="45.8171996" lon="9.7544812"><ele>753.1999999999999</ele><time>2026-05-02T15:37:04.735Z</time></trkpt><trkpt lat="45.8172865" lon="9.7545318"><ele>760.8</ele><time>2026-05-02T15:37:05.684Z</time></trkpt><trkpt lat="45.8173746" lon="9.7546073"><ele>768.4</ele><time>2026-05-02T15:37:06.686Z</time></trkpt><trkpt lat="45.8174609" lon="9.7546858"><ele>776.0</ele><time>2026-05-02T15:37:07.669Z</time></trkpt><trkpt lat="45.8175467" lon="9.7547846"><ele>776.0</ele><time>2026-05-02T15:37:08.701Z</time></trkpt><trkpt lat="45.8176221" lon="9.7548818"><ele>776.0</ele><time>2026-05-02T15:37:09.689Z</time></trkpt><trkpt lat="45.8176911" lon="9.7549712"><ele>776.0</ele><time>2026-05-02T15:37:10.686Z</time></trkpt><trkpt lat="45.8177527" lon="9.7550291"><ele>776.0</ele><time>2026-05-02T15:37:11.679Z</time></trkpt><trkpt lat="45.8178122" lon="9.7550595"><ele>776.0</ele><time>2026-05-02T15:37:12.778Z</time></trkpt><trkpt lat="45.8179256" lon="9.7549936"><ele>774.5000000000001</ele><time>2026-05-02T15:37:14.681Z</time></trkpt><trkpt lat="45.8179652" lon="9.7549007"><ele>773.0</ele><time>2026-05-02T15:37:15.668Z</time></trkpt><trkpt lat="45.818004" lon="9.754782"><ele>771.5</ele><time>2026-05-02T15:37:16.658Z</time></trkpt><trkpt lat="45.8180479" lon="9.7546636"><ele>770.0</ele><time>2026-05-02T15:37:17.648Z</time></trkpt><trkpt lat="45.8180988" lon="9.7545538"><ele>768.5</ele><time>2026-05-02T15:37:18.647Z</time></trkpt><trkpt lat="45.818159" lon="9.7544467"><ele>767.0</ele><time>2026-05-02T15:37:19.654Z</time></trkpt><trkpt lat="45.8182281" lon="9.7543549"><ele>767.0</ele><time>2026-05-02T15:37:20.686Z</time></trkpt><trkpt lat="45.8183078" lon="9.7542756"><ele>767.0</ele><time>2026-05-02T15:37:21.686Z</time></trkpt><trkpt lat="45.8183846" lon="9.7542014"><ele>767.0</ele><time>2026-05-02T15:37:22.655Z</time></trkpt><trkpt lat="45.8184764" lon="9.7541544"><ele>767.0</ele><time>2026-05-02T15:37:23.693Z</time></trkpt><trkpt lat="45.8185677" lon="9.7541166"><ele>767.0</ele><time>2026-05-02T15:37:24.658Z</time></trkpt><trkpt lat="45.8186702" lon="9.754083"><ele>771.0</ele><time>2026-05-02T15:37:25.689Z</time></trkpt><trkpt lat="45.8187752" lon="9.7540528"><ele>775.0</ele><time>2026-05-02T15:37:26.675Z</time></trkpt><trkpt lat="45.8188897" lon="9.7540275"><ele>779.0</ele><time>2026-05-02T15:37:27.702Z</time></trkpt><trkpt lat="45.8190054" lon="9.7540048"><ele>783.0</ele><time>2026-05-02T15:37:28.705Z</time></trkpt><trkpt lat="45.8191263" lon="9.7539837"><ele>783.0</ele><time>2026-05-02T15:37:29.702Z</time></trkpt><trkpt lat="45.8192466" lon="9.7539621"><ele>783.0</ele><time>2026-05-02T15:37:30.707Z</time></trkpt><trkpt lat="45.8193424" lon="9.7539327"><ele>783.0</ele><time>2026-05-02T15:37:31.691Z</time></trkpt><trkpt lat="45.8194246" lon="9.7538935"><ele>783.0</ele><time>2026-05-02T15:37:32.697Z</time></trkpt><trkpt lat="45.8194875" lon="9.7538503"><ele>783.0</ele><time>2026-05-02T15:37:33.693Z</time></trkpt><trkpt lat="45.8195779" lon="9.7538287"><ele>783.0</ele><time>2026-05-02T15:37:35.7Z</time></trkpt><trkpt lat="45.8196242" lon="9.7539329"><ele>783.0</ele><time>2026-05-02T15:37:37.737Z</time></trkpt><trkpt lat="45.8195512" lon="9.7540455"><ele>783.0</ele><time>2026-05-02T15:37:39.704Z</time></trkpt><trkpt lat="45.8194984" lon="9.7541027"><ele>783.0</ele><time>2026-05-02T15:37:40.685Z</time></trkpt><trkpt lat="45.819434" lon="9.7541694"><ele>783.0</ele><time>2026-05-02T15:37:41.664Z</time></trkpt><trkpt lat="45.8193472" lon="9.7542485"><ele>783.0</ele><time>2026-05-02T15:37:42.719Z</time></trkpt><trkpt lat="45.8192636" lon="9.7543242"><ele>787.8</ele><time>2026-05-02T15:37:43.689Z</time></trkpt><trkpt lat="45.8191756" lon="9.7543994"><ele>792.5999999999999</ele><time>2026-05-02T15:37:44.703Z</time></trkpt><trkpt lat="45.8190851" lon="9.7544876"><ele>797.4000000000001</ele><time>2026-05-02T15:37:45.697Z</time></trkpt><trkpt lat="45.8190012" lon="9.7545696"><ele>802.2</ele><time>2026-05-02T15:37:46.711Z</time></trkpt><trkpt lat="45.8189284" lon="9.7546233"><ele>807.0</ele><time>2026-05-02T15:37:47.674Z</time></trkpt><trkpt lat="45.818859" lon="9.7546503"><ele>807.0</ele><time>2026-05-02T15:37:48.672Z</time></trkpt><trkpt lat="45.8187805" lon="9.7547258"><ele>807.0</ele><time>2026-05-02T15:37:50.679Z</time></trkpt><trkpt lat="45.8188345" lon="9.7548073"><ele>807.0</ele><time>2026-05-02T15:37:52.69Z</time></trkpt><trkpt lat="45.8189517" lon="9.7547633"><ele>807.0</ele><time>2026-05-02T15:37:54.689Z</time></trkpt><trkpt lat="45.8190241" lon="9.7547415"><ele>807.0</ele><time>2026-05-02T15:37:55.687Z</time></trkpt><trkpt lat="45.8191057" lon="9.754717"><ele>807.0</ele><time>2026-05-02T15:37:56.667Z</time></trkpt><trkpt lat="45.8192032" lon="9.7546895"><ele>807.0</ele><time>2026-05-02T15:37:57.664Z</time></trkpt><trkpt lat="45.8193016" lon="9.7546587"><ele>807.0</ele><time>2026-05-02T15:37:58.673Z</time></trkpt><trkpt lat="45.8194114" lon="9.7546365"><ele>807.0</ele><time>2026-05-02T15:37:59.68Z</time></trkpt><trkpt lat="45.8195284" lon="9.7546196"><ele>807.0</ele><time>2026-05-02T15:38:00.684Z</time></trkpt><trkpt lat="45.8196515" lon="9.7546033"><ele>810.8</ele><time>2026-05-02T15:38:01.712Z</time></trkpt><trkpt lat="45.8197638" lon="9.7545759"><ele>814.6</ele><time>2026-05-02T15:38:02.686Z</time></trkpt><trkpt lat="45.8198758" lon="9.7545447"><ele>818.4</ele><time>2026-05-02T15:38:03.727Z</time></trkpt><trkpt lat="45.8199739" lon="9.7545143"><ele>822.1999999999999</ele><time>2026-05-02T15:38:04.703Z</time></trkpt><trkpt lat="45.8200667" lon="9.7544826"><ele>826.0</ele><time>2026-05-02T15:38:05.669Z</time></trkpt><trkpt lat="45.8201587" lon="9.7544501"><ele>826.4999999999999</ele><time>2026-05-02T15:38:06.69Z</time></trkpt><trkpt lat="45.820244" lon="9.754423"><ele>827.0</ele><time>2026-05-02T15:38:07.699Z</time></trkpt><trkpt lat="45.8203228" lon="9.7544104"><ele>827.5</ele><time>2026-05-02T15:38:08.679Z</time></trkpt><trkpt lat="45.8204121" lon="9.7544233"><ele>828.0</ele><time>2026-05-02T15:38:09.783Z</time></trkpt><trkpt lat="45.8204855" lon="9.7544524"><ele>828.4999999999999</ele><time>2026-05-02T15:38:10.699Z</time></trkpt><trkpt lat="45.8205588" lon="9.754491"><ele>829.0</ele><time>2026-05-02T15:38:11.649Z</time></trkpt><trkpt lat="45.8206409" lon="9.7545515"><ele>829.0</ele><time>2026-05-02T15:38:12.673Z</time></trkpt><trkpt lat="45.8207231" lon="9.7546244"><ele>829.0</ele><time>2026-05-02T15:38:13.697Z</time></trkpt><trkpt lat="45.8208032" lon="9.7547079"><ele>829.0</ele><time>2026-05-02T15:38:14.67Z</time></trkpt><trkpt lat="45.8208841" lon="9.7547846"><ele>829.0</ele><time>2026-05-02T15:38:15.697Z</time></trkpt><trkpt lat="45.8209622" lon="9.7548564"><ele>829.0</ele><time>2026-05-02T15:38:16.674Z</time></trkpt><trkpt lat="45.8210535" lon="9.7549199"><ele>827.3333333333333</ele><time>2026-05-02T15:38:17.665Z</time></trkpt><trkpt lat="45.8211444" lon="9.7549695"><ele>825.6666666666666</ele><time>2026-05-02T15:38:18.67Z</time></trkpt><trkpt lat="45.8212368" lon="9.7550111"><ele>824.0</ele><time>2026-05-02T15:38:19.663Z</time></trkpt><trkpt lat="45.8213242" lon="9.7550553"><ele>822.3333333333333</ele><time>2026-05-02T15:38:20.662Z</time></trkpt><trkpt lat="45.821386" lon="9.7550789"><ele>820.6666666666666</ele><time>2026-05-02T15:38:21.66Z</time></trkpt><trkpt lat="45.8214462" lon="9.7551469"><ele>819.0</ele><time>2026-05-02T15:38:23.685Z</time></trkpt><trkpt lat="45.8213973" lon="9.7552091"><ele>819.0</ele><time>2026-05-02T15:38:25.688Z</time></trkpt><trkpt lat="45.8213046" lon="9.7551595"><ele>819.0</ele><time>2026-05-02T15:38:27.649Z</time></trkpt><trkpt lat="45.82124" lon="9.7551246"><ele>819.0</ele><time>2026-05-02T15:38:28.677Z</time></trkpt><trkpt lat="45.8211587" lon="9.7550942"><ele>819.0</ele><time>2026-05-02T15:38:29.686Z</time></trkpt><trkpt lat="45.8210688" lon="9.7550749"><ele>819.0</ele><time>2026-05-02T15:38:30.687Z</time></trkpt><trkpt lat="45.8209801" lon="9.7550492"><ele>819.0</ele><time>2026-05-02T15:38:31.701Z</time></trkpt><trkpt lat="45.8208872" lon="9.7550202"><ele>820.6666666666666</ele><time>2026-05-02T15:38:32.688Z</time></trkpt><trkpt lat="45.8207892" lon="9.7549892"><ele>822.3333333333333</ele><time>2026-05-02T15:38:33.688Z</time></trkpt><trkpt lat="45.8206933" lon="9.7549596"><ele>824.0</ele><time>2026-05-02T15:38:34.649Z</time></trkpt><trkpt lat="45.8206058" lon="9.7549441"><ele>825.6666666666666</ele><time>2026-05-02T15:38:35.681Z</time></trkpt><trkpt lat="45.8205361" lon="9.7549372"><ele>827.3333333333333</ele><time>2026-05-02T15:38:36.662Z</time></trkpt><trkpt lat="45.8204556" lon="9.7549584"><ele>829.0</ele><time>2026-05-02T15:38:37.688Z</time></trkpt><trkpt lat="45.8203788" lon="9.7550092"><ele>829.0</ele><time>2026-05-02T15:38:38.633Z</time></trkpt><trkpt lat="45.8202935" lon="9.7550844"><ele>829.0</ele><time>2026-05-02T15:38:39.673Z</time></trkpt><trkpt lat="45.8201986" lon="9.7551513"><ele>829.0</ele><time>2026-05-02T15:38:40.642Z</time></trkpt><trkpt lat="45.8200924" lon="9.7552171"><ele>829.0</ele><time>2026-05-02T15:38:41.705Z</time></trkpt><trkpt lat="45.8199735" lon="9.7552792"><ele>829.0</ele><time>2026-05-02T15:38:42.753Z</time></trkpt><trkpt lat="45.8198788" lon="9.7553492"><ele>837.0</ele><time>2026-05-02T15:38:43.655Z</time></trkpt><trkpt lat="45.8197514" lon="9.7554688"><ele>845.0</ele><time>2026-05-02T15:38:44.784Z</time></trkpt><trkpt lat="45.8196399" lon="9.755556"><ele>853.0</ele><time>2026-05-02T15:38:45.703Z</time></trkpt><trkpt lat="45.8195184" lon="9.7556475"><ele>861.0</ele><time>2026-05-02T15:38:46.669Z</time></trkpt><trkpt lat="45.8194094" lon="9.7557205"><ele>863.1999999999999</ele><time>2026-05-02T15:38:47.667Z</time></trkpt><trkpt lat="45.8193126" lon="9.7557822"><ele>865.3999999999999</ele><time>2026-05-02T15:38:48.692Z</time></trkpt><trkpt lat="45.8192203" lon="9.7558385"><ele>867.6</ele><time>2026-05-02T15:38:49.725Z</time></trkpt><trkpt lat="45.8191485" lon="9.7558898"><ele>869.8</ele><time>2026-05-02T15:38:50.645Z</time></trkpt><trkpt lat="45.8190729" lon="9.755972"><ele>872.0</ele><time>2026-05-02T15:38:51.683Z</time></trkpt><trkpt lat="45.8190068" lon="9.7560732"><ele>872.0000000000001</ele><time>2026-05-02T15:38:52.668Z</time></trkpt><trkpt lat="45.8189459" lon="9.7561832"><ele>872.0</ele><time>2026-05-02T15:38:53.681Z</time></trkpt><trkpt lat="45.8188826" lon="9.7562849"><ele>872.0</ele><time>2026-05-02T15:38:54.654Z</time></trkpt><trkpt lat="45.818804" lon="9.7563619"><ele>872.0</ele><time>2026-05-02T15:38:55.732Z</time></trkpt><trkpt lat="45.8187368" lon="9.7564173"><ele>872.0000000000001</ele><time>2026-05-02T15:38:56.721Z</time></trkpt><trkpt lat="45.8186818" lon="9.7564628"><ele>872.0</ele><time>2026-05-02T15:38:57.717Z</time></trkpt><trkpt lat="45.8186374" lon="9.7565653"><ele>872.0</ele><time>2026-05-02T15:38:59.801Z</time></trkpt><trkpt lat="45.8187223" lon="9.756561"><ele>872.0</ele><time>2026-05-02T15:39:02.68Z</time></trkpt><trkpt lat="45.8188256" lon="9.7564588"><ele>872.0</ele><time>2026-05-02T15:39:04.684Z</time></trkpt><trkpt lat="45.8189015" lon="9.7564008"><ele>872.0</ele><time>2026-05-02T15:39:05.695Z</time></trkpt><trkpt lat="45.8189911" lon="9.7563298"><ele>872.0</ele><time>2026-05-02T15:39:06.672Z</time></trkpt><trkpt lat="45.8190806" lon="9.7562575"><ele>872.0</ele><time>2026-05-02T15:39:07.669Z</time></trkpt><trkpt lat="45.8191675" lon="9.7561804"><ele>872.0</ele><time>2026-05-02T15:39:08.692Z</time></trkpt><trkpt lat="45.8192805" lon="9.7561319"><ele>872.0</ele><time>2026-05-02T15:39:09.723Z</time></trkpt><trkpt lat="45.8194107" lon="9.7560991"><ele>872.0</ele><time>2026-05-02T15:39:10.672Z</time></trkpt><trkpt lat="45.8195551" lon="9.7560616"><ele>868.3333333333334</ele><time>2026-05-02T15:39:11.695Z</time></trkpt><trkpt lat="45.8197044" lon="9.7560494"><ele>864.6666666666667</ele><time>2026-05-02T15:39:12.689Z</time></trkpt><trkpt lat="45.8198659" lon="9.7560338"><ele>861.0</ele><time>2026-05-02T15:39:13.691Z</time></trkpt><trkpt lat="45.820013" lon="9.7560176"><ele>863.5</ele><time>2026-05-02T15:39:14.665Z</time></trkpt><trkpt lat="45.8201619" lon="9.7560034"><ele>866.0</ele><time>2026-05-02T15:39:15.804Z</time></trkpt><trkpt lat="45.8203655" lon="9.755962"><ele>868.5</ele><time>2026-05-02T15:39:17.73Z</time></trkpt><trkpt lat="45.8204457" lon="9.7559464"><ele>871.0</ele><time>2026-05-02T15:39:18.699Z</time></trkpt><trkpt lat="45.8205148" lon="9.755937"><ele>870.9999999999999</ele><time>2026-05-02T15:39:19.705Z</time></trkpt><trkpt lat="45.8205702" lon="9.7560421"><ele>871.0</ele><time>2026-05-02T15:39:22.685Z</time></trkpt><trkpt lat="45.820494" lon="9.756081"><ele>871.0</ele><time>2026-05-02T15:39:24.683Z</time></trkpt><trkpt lat="45.820418" lon="9.7560321"><ele>871.0</ele><time>2026-05-02T15:39:43.683Z</time></trkpt><trkpt lat="45.8203275" lon="9.7560898"><ele>870.9999999999999</ele><time>2026-05-02T15:39:45.687Z</time></trkpt><trkpt lat="45.8202658" lon="9.7561403"><ele>871.0</ele><time>2026-05-02T15:39:46.685Z</time></trkpt><trkpt lat="45.8201962" lon="9.756201"><ele>874.8</ele><time>2026-05-02T15:39:47.706Z</time></trkpt><trkpt lat="45.8201256" lon="9.756252"><ele>878.5999999999999</ele><time>2026-05-02T15:39:48.694Z</time></trkpt><trkpt lat="45.8200073" lon="9.7563228"><ele>882.4</ele><time>2026-05-02T15:39:50.805Z</time></trkpt><trkpt lat="45.8199366" lon="9.756346"><ele>886.2</ele><time>2026-05-02T15:39:52.685Z</time></trkpt><trkpt lat="45.8198771" lon="9.7563902"><ele>890.0</ele><time>2026-05-02T15:39:54.714Z</time></trkpt><trkpt lat="45.8197482" lon="9.7564474"><ele>890.0000000000001</ele><time>2026-05-02T15:39:56.701Z</time></trkpt><trkpt lat="45.8196595" lon="9.756463"><ele>890.0</ele><time>2026-05-02T15:39:57.735Z</time></trkpt><trkpt lat="45.8195718" lon="9.7564898"><ele>890.0</ele><time>2026-05-02T15:39:58.689Z</time></trkpt><trkpt lat="45.8194844" lon="9.7565182"><ele>890.0</ele><time>2026-05-02T15:39:59.709Z</time></trkpt><trkpt lat="45.8194002" lon="9.7565493"><ele>890.0000000000001</ele><time>2026-05-02T15:40:00.703Z</time></trkpt><trkpt lat="45.8193126" lon="9.7565841"><ele>890.0</ele><time>2026-05-02T15:40:01.712Z</time></trkpt><trkpt lat="45.8192357" lon="9.7566307"><ele>892.0</ele><time>2026-05-02T15:40:02.676Z</time></trkpt><trkpt lat="45.8191425" lon="9.7566827"><ele>894.0</ele><time>2026-05-02T15:40:03.694Z</time></trkpt><trkpt lat="45.8190583" lon="9.7567404"><ele>896.0</ele><time>2026-05-02T15:40:04.701Z</time></trkpt><trkpt lat="45.8189697" lon="9.7567968"><ele>898.0</ele><time>2026-05-02T15:40:05.703Z</time></trkpt><trkpt lat="45.8188904" lon="9.7568487"><ele>900.0</ele><time>2026-05-02T15:40:06.666Z</time></trkpt><trkpt lat="45.8188178" lon="9.7569166"><ele>900.0</ele><time>2026-05-02T15:40:07.685Z</time></trkpt><trkpt lat="45.8187509" lon="9.7569874"><ele>900.0</ele><time>2026-05-02T15:40:08.679Z</time></trkpt><trkpt lat="45.8186801" lon="9.7570477"><ele>900.0</ele><time>2026-05-02T15:40:09.675Z</time></trkpt><trkpt lat="45.8185988" lon="9.7571166"><ele>900.0</ele><time>2026-05-02T15:40:10.786Z</time></trkpt><trkpt lat="45.8185198" lon="9.7571695"><ele>900.0</ele><time>2026-05-02T15:40:11.687Z</time></trkpt><trkpt lat="45.8184447" lon="9.7572246"><ele>900.0</ele><time>2026-05-02T15:40:12.691Z</time></trkpt><trkpt lat="45.8183787" lon="9.7572789"><ele>898.3333333333334</ele><time>2026-05-02T15:40:13.653Z</time></trkpt><trkpt lat="45.8183095" lon="9.7573295"><ele>896.6666666666667</ele><time>2026-05-02T15:40:14.675Z</time></trkpt><trkpt lat="45.8182472" lon="9.7573691"><ele>895.0</ele><time>2026-05-02T15:40:15.688Z</time></trkpt><trkpt lat="45.8181759" lon="9.7574282"><ele>893.3333333333334</ele><time>2026-05-02T15:40:17.686Z</time></trkpt><trkpt lat="45.8181637" lon="9.7575576"><ele>891.6666666666667</ele><time>2026-05-02T15:40:20.666Z</time></trkpt><trkpt lat="45.8181714" lon="9.7577393"><ele>890.0</ele><time>2026-05-02T15:40:22.66Z</time></trkpt><trkpt lat="45.8181986" lon="9.7578405"><ele>890.0</ele><time>2026-05-02T15:40:23.688Z</time></trkpt><trkpt lat="45.8182177" lon="9.7579581"><ele>890.0</ele><time>2026-05-02T15:40:24.639Z</time></trkpt><trkpt lat="45.8182152" lon="9.7581012"><ele>890.0</ele><time>2026-05-02T15:40:25.682Z</time></trkpt><trkpt lat="45.81817" lon="9.7582358"><ele>890.0</ele><time>2026-05-02T15:40:26.687Z</time></trkpt><trkpt lat="45.818134" lon="9.7583649"><ele>890.0</ele><time>2026-05-02T15:40:27.649Z</time></trkpt><trkpt lat="45.8180886" lon="9.7585"><ele>893.25</ele><time>2026-05-02T15:40:28.667Z</time></trkpt><trkpt lat="45.8180261" lon="9.7586095"><ele>896.5</ele><time>2026-05-02T15:40:29.677Z</time></trkpt><trkpt lat="45.8179492" lon="9.7587286"><ele>899.75</ele><time>2026-05-02T15:40:30.789Z</time></trkpt><trkpt lat="45.8178683" lon="9.758991"><ele>903.0</ele><time>2026-05-02T15:40:32.642Z</time></trkpt><trkpt lat="45.817839" lon="9.7591622"><ele>903.0</ele><time>2026-05-02T15:40:33.64Z</time></trkpt><trkpt lat="45.817805" lon="9.759315"><ele>903.0</ele><time>2026-05-02T15:40:34.673Z</time></trkpt><trkpt lat="45.8177801" lon="9.7594498"><ele>903.0</ele><time>2026-05-02T15:40:35.691Z</time></trkpt><trkpt lat="45.8177705" lon="9.7595753"><ele>903.0</ele><time>2026-05-02T15:40:36.673Z</time></trkpt><trkpt lat="45.8177799" lon="9.7597043"><ele>903.0</ele><time>2026-05-02T15:40:37.672Z</time></trkpt><trkpt lat="45.8178128" lon="9.7598323"><ele>903.0</ele><time>2026-05-02T15:40:38.677Z</time></trkpt><trkpt lat="45.8178521" lon="9.7599507"><ele>903.0</ele><time>2026-05-02T15:40:39.7Z</time></trkpt><trkpt lat="45.8178984" lon="9.7600587"><ele>903.0</ele><time>2026-05-02T15:40:40.713Z</time></trkpt><trkpt lat="45.8179336" lon="9.7601579"><ele>903.0</ele><time>2026-05-02T15:40:41.673Z</time></trkpt><trkpt lat="45.8179472" lon="9.7602544"><ele>903.0</ele><time>2026-05-02T15:40:42.68Z</time></trkpt><trkpt lat="45.8178896" lon="9.7604291"><ele>904.8333333333334</ele><time>2026-05-02T15:40:44.653Z</time></trkpt><trkpt lat="45.8178216" lon="9.7605127"><ele>906.6666666666667</ele><time>2026-05-02T15:40:45.692Z</time></trkpt><trkpt lat="45.8177394" lon="9.7605864"><ele>908.5</ele><time>2026-05-02T15:40:46.661Z</time></trkpt><trkpt lat="45.817658" lon="9.760655"><ele>910.3333333333334</ele><time>2026-05-02T15:40:47.647Z</time></trkpt><trkpt lat="45.8175944" lon="9.7607231"><ele>912.1666666666667</ele><time>2026-05-02T15:40:48.66Z</time></trkpt><trkpt lat="45.8175434" lon="9.7608191"><ele>914.0</ele><time>2026-05-02T15:40:49.69Z</time></trkpt><trkpt lat="45.8175151" lon="9.7609582"><ele>905.0</ele><time>2026-05-02T15:40:50.661Z</time></trkpt><trkpt lat="45.8174859" lon="9.7611371"><ele>896.0</ele><time>2026-05-02T15:40:51.684Z</time></trkpt><trkpt lat="45.8174421" lon="9.7613121"><ele>887.0</ele><time>2026-05-02T15:40:52.704Z</time></trkpt><trkpt lat="45.8174101" lon="9.7614599"><ele>878.0</ele><time>2026-05-02T15:40:53.681Z</time></trkpt><trkpt lat="45.8173939" lon="9.7616198"><ele>878.0</ele><time>2026-05-02T15:40:54.709Z</time></trkpt><trkpt lat="45.8174119" lon="9.7617946"><ele>878.0</ele><time>2026-05-02T15:40:55.695Z</time></trkpt><trkpt lat="45.8174387" lon="9.7619628"><ele>878.0</ele><time>2026-05-02T15:40:56.639Z</time></trkpt><trkpt lat="45.8174451" lon="9.7621398"><ele>878.0</ele><time>2026-05-02T15:40:57.733Z</time></trkpt><trkpt lat="45.8174145" lon="9.7622732"><ele>881.4</ele><time>2026-05-02T15:40:58.679Z</time></trkpt><trkpt lat="45.8173482" lon="9.7624357"><ele>884.8</ele><time>2026-05-02T15:40:59.769Z</time></trkpt><trkpt lat="45.8172865" lon="9.7625552"><ele>888.2</ele><time>2026-05-02T15:41:00.675Z</time></trkpt><trkpt lat="45.8172192" lon="9.7626458"><ele>891.6</ele><time>2026-05-02T15:41:01.693Z</time></trkpt><trkpt lat="45.817142" lon="9.7626957"><ele>895.0</ele><time>2026-05-02T15:41:02.642Z</time></trkpt><trkpt lat="45.8170726" lon="9.7627103"><ele>895.0</ele><time>2026-05-02T15:41:03.656Z</time></trkpt><trkpt lat="45.8169928" lon="9.7626474"><ele>895.0</ele><time>2026-05-02T15:41:04.646Z</time></trkpt><trkpt lat="45.8169277" lon="9.7625333"><ele>895.0</ele><time>2026-05-02T15:41:05.68Z</time></trkpt><trkpt lat="45.8168689" lon="9.7623831"><ele>895.0</ele><time>2026-05-02T15:41:06.692Z</time></trkpt><trkpt lat="45.8167808" lon="9.7622282"><ele>894.25</ele><time>2026-05-02T15:41:07.644Z</time></trkpt><trkpt lat="45.8166728" lon="9.7620729"><ele>893.5</ele><time>2026-05-02T15:41:08.652Z</time></trkpt><trkpt lat="45.8165631" lon="9.761937"><ele>892.75</ele><time>2026-05-02T15:41:09.651Z</time></trkpt><trkpt lat="45.8164536" lon="9.7617971"><ele>892.0</ele><time>2026-05-02T15:41:10.64Z</time></trkpt><trkpt lat="45.8163686" lon="9.7616696"><ele>891.75</ele><time>2026-05-02T15:41:11.652Z</time></trkpt><trkpt lat="45.8162689" lon="9.7615569"><ele>891.5</ele><time>2026-05-02T15:41:12.647Z</time></trkpt><trkpt lat="45.816145" lon="9.7614576"><ele>891.25</ele><time>2026-05-02T15:41:13.672Z</time></trkpt><trkpt lat="45.816025" lon="9.7613829"><ele>891.0</ele><time>2026-05-02T15:41:14.666Z</time></trkpt><trkpt lat="45.8158852" lon="9.761319"><ele>891.0</ele><time>2026-05-02T15:41:15.698Z</time></trkpt><trkpt lat="45.8157473" lon="9.7612721"><ele>891.0</ele><time>2026-05-02T15:41:16.663Z</time></trkpt><trkpt lat="45.8156036" lon="9.7612241"><ele>891.0</ele><time>2026-05-02T15:41:17.675Z</time></trkpt><trkpt lat="45.8154831" lon="9.7611778"><ele>891.0</ele><time>2026-05-02T15:41:18.691Z</time></trkpt><trkpt lat="45.8153799" lon="9.7611599"><ele>891.0</ele><time>2026-05-02T15:41:19.682Z</time></trkpt><trkpt lat="45.8152748" lon="9.7611759"><ele>891.0</ele><time>2026-05-02T15:41:20.671Z</time></trkpt><trkpt lat="45.8151668" lon="9.7612282"><ele>891.0</ele><time>2026-05-02T15:41:21.703Z</time></trkpt><trkpt lat="45.815045" lon="9.7613038"><ele>891.0</ele><time>2026-05-02T15:41:22.701Z</time></trkpt><trkpt lat="45.8149235" lon="9.761372"><ele>892.0</ele><time>2026-05-02T15:41:23.673Z</time></trkpt><trkpt lat="45.8148071" lon="9.7614364"><ele>893.0</ele><time>2026-05-02T15:41:24.72Z</time></trkpt><trkpt lat="45.8147146" lon="9.7614974"><ele>894.0</ele><time>2026-05-02T15:41:25.669Z</time></trkpt><trkpt lat="45.8146138" lon="9.7615907"><ele>895.0</ele><time>2026-05-02T15:41:26.706Z</time></trkpt><trkpt lat="45.8145171" lon="9.7617064"><ele>895.0</ele><time>2026-05-02T15:41:27.717Z</time></trkpt><trkpt lat="45.8144087" lon="9.7618357"><ele>895.0</ele><time>2026-05-02T15:41:28.673Z</time></trkpt><trkpt lat="45.8142901" lon="9.7619793"><ele>895.0</ele><time>2026-05-02T15:41:29.676Z</time></trkpt><trkpt lat="45.8141745" lon="9.7621264"><ele>896.25</ele><time>2026-05-02T15:41:30.669Z</time></trkpt><trkpt lat="45.8140601" lon="9.7622597"><ele>897.5</ele><time>2026-05-02T15:41:31.661Z</time></trkpt><trkpt lat="45.8139585" lon="9.7623672"><ele>898.75</ele><time>2026-05-02T15:41:32.682Z</time></trkpt><trkpt lat="45.8138647" lon="9.7624608"><ele>900.0</ele><time>2026-05-02T15:41:33.702Z</time></trkpt><trkpt lat="45.8137826" lon="9.7625677"><ele>902.0</ele><time>2026-05-02T15:41:34.669Z</time></trkpt><trkpt lat="45.8137052" lon="9.7627215"><ele>904.0</ele><time>2026-05-02T15:41:35.703Z</time></trkpt><trkpt lat="45.8136296" lon="9.7628954"><ele>906.0</ele><time>2026-05-02T15:41:36.681Z</time></trkpt><trkpt lat="45.8135452" lon="9.7630721"><ele>908.0</ele><time>2026-05-02T15:41:37.662Z</time></trkpt><trkpt lat="45.8134522" lon="9.7632222"><ele>908.0</ele><time>2026-05-02T15:41:38.67Z</time></trkpt><trkpt lat="45.8133518" lon="9.7633401"><ele>908.0</ele><time>2026-05-02T15:41:39.67Z</time></trkpt><trkpt lat="45.8132253" lon="9.7634407"><ele>908.0</ele><time>2026-05-02T15:41:40.684Z</time></trkpt><trkpt lat="45.8130783" lon="9.7635238"><ele>908.0</ele><time>2026-05-02T15:41:41.659Z</time></trkpt><trkpt lat="45.8129123" lon="9.7636138"><ele>913.25</ele><time>2026-05-02T15:41:42.796Z</time></trkpt><trkpt lat="45.8127071" lon="9.7637195"><ele>918.5</ele><time>2026-05-02T15:41:44.642Z</time></trkpt><trkpt lat="45.8126093" lon="9.7637513"><ele>923.75</ele><time>2026-05-02T15:41:45.672Z</time></trkpt><trkpt lat="45.8125268" lon="9.7637406"><ele>929.0</ele><time>2026-05-02T15:41:46.644Z</time></trkpt><trkpt lat="45.8124563" lon="9.7636868"><ele>929.0</ele><time>2026-05-02T15:41:47.644Z</time></trkpt><trkpt lat="45.8124033" lon="9.7635972"><ele>929.0000000000001</ele><time>2026-05-02T15:41:48.644Z</time></trkpt><trkpt lat="45.812372" lon="9.7634709"><ele>929.0000000000001</ele><time>2026-05-02T15:41:49.632Z</time></trkpt><trkpt lat="45.8123522" lon="9.7633293"><ele>929.0</ele><time>2026-05-02T15:41:50.63Z</time></trkpt><trkpt lat="45.8123113" lon="9.7631789"><ele>929.0</ele><time>2026-05-02T15:41:51.657Z</time></trkpt><trkpt lat="45.812243" lon="9.7630375"><ele>923.75</ele><time>2026-05-02T15:41:52.633Z</time></trkpt><trkpt lat="45.812171" lon="9.7628932"><ele>918.5</ele><time>2026-05-02T15:41:53.662Z</time></trkpt><trkpt lat="45.8121066" lon="9.7627872"><ele>913.25</ele><time>2026-05-02T15:41:54.641Z</time></trkpt><trkpt lat="45.8120183" lon="9.7626985"><ele>908.0</ele><time>2026-05-02T15:41:55.645Z</time></trkpt><trkpt lat="45.8118971" lon="9.762632"><ele>912.4</ele><time>2026-05-02T15:41:56.633Z</time></trkpt><trkpt lat="45.81178" lon="9.7625762"><ele>916.8</ele><time>2026-05-02T15:41:57.642Z</time></trkpt><trkpt lat="45.8116921" lon="9.7625021"><ele>921.2</ele><time>2026-05-02T15:41:58.691Z</time></trkpt><trkpt lat="45.8116503" lon="9.762422"><ele>925.6</ele><time>2026-05-02T15:41:59.669Z</time></trkpt><trkpt lat="45.8116355" lon="9.7622949"><ele>930.0</ele><time>2026-05-02T15:42:00.64Z</time></trkpt><trkpt lat="45.8116156" lon="9.762131"><ele>930.0</ele><time>2026-05-02T15:42:01.633Z</time></trkpt><trkpt lat="45.8115889" lon="9.7619344"><ele>930.0</ele><time>2026-05-02T15:42:02.644Z</time></trkpt><trkpt lat="45.8115542" lon="9.7617071"><ele>930.0</ele><time>2026-05-02T15:42:03.778Z</time></trkpt><trkpt lat="45.8115053" lon="9.7613192"><ele>925.5</ele><time>2026-05-02T15:42:05.661Z</time></trkpt><trkpt lat="45.8115001" lon="9.7611342"><ele>921.0</ele><time>2026-05-02T15:42:06.683Z</time></trkpt><trkpt lat="45.8114965" lon="9.7609807"><ele>916.5</ele><time>2026-05-02T15:42:07.651Z</time></trkpt><trkpt lat="45.8114568" lon="9.760817"><ele>912.0</ele><time>2026-05-02T15:42:08.698Z</time></trkpt><trkpt lat="45.8113845" lon="9.7606412"><ele>910.75</ele><time>2026-05-02T15:42:09.67Z</time></trkpt><trkpt lat="45.8113148" lon="9.7604549"><ele>909.5</ele><time>2026-05-02T15:42:10.631Z</time></trkpt><trkpt lat="45.8112687" lon="9.7602618"><ele>908.25</ele><time>2026-05-02T15:42:11.664Z</time></trkpt><trkpt lat="45.811222" lon="9.7600839"><ele>907.0</ele><time>2026-05-02T15:42:12.652Z</time></trkpt><trkpt lat="45.8111616" lon="9.7598907"><ele>902.5</ele><time>2026-05-02T15:42:13.87Z</time></trkpt><trkpt lat="45.8111413" lon="9.7596149"><ele>898.0</ele><time>2026-05-02T15:42:15.689Z</time></trkpt><trkpt lat="45.8111417" lon="9.7594584"><ele>893.5</ele><time>2026-05-02T15:42:16.67Z</time></trkpt><trkpt lat="45.8111305" lon="9.7593287"><ele>889.0</ele><time>2026-05-02T15:42:17.675Z</time></trkpt><trkpt lat="45.8110894" lon="9.759216"><ele>886.2</ele><time>2026-05-02T15:42:18.686Z</time></trkpt><trkpt lat="45.8110162" lon="9.7591116"><ele>883.4000000000001</ele><time>2026-05-02T15:42:19.701Z</time></trkpt><trkpt lat="45.8109223" lon="9.7589989"><ele>880.6</ele><time>2026-05-02T15:42:20.69Z</time></trkpt><trkpt lat="45.810829" lon="9.7588867"><ele>877.8</ele><time>2026-05-02T15:42:21.733Z</time></trkpt><trkpt lat="45.8107548" lon="9.7588079"><ele>875.0</ele><time>2026-05-02T15:42:22.713Z</time></trkpt><trkpt lat="45.8106843" lon="9.7587637"><ele>888.0</ele><time>2026-05-02T15:42:23.704Z</time></trkpt><trkpt lat="45.8105648" lon="9.7588202"><ele>901.0</ele><time>2026-05-02T15:42:25.653Z</time></trkpt><trkpt lat="45.8105025" lon="9.7589555"><ele>914.0</ele><time>2026-05-02T15:42:26.708Z</time></trkpt><trkpt lat="45.8104362" lon="9.7591048"><ele>927.0</ele><time>2026-05-02T15:42:27.699Z</time></trkpt><trkpt lat="45.8103531" lon="9.7592746"><ele>928.3333333333333</ele><time>2026-05-02T15:42:28.694Z</time></trkpt><trkpt lat="45.8102674" lon="9.7594525"><ele>929.6666666666666</ele><time>2026-05-02T15:42:29.699Z</time></trkpt><trkpt lat="45.810168" lon="9.7596325"><ele>931.0</ele><time>2026-05-02T15:42:30.681Z</time></trkpt><trkpt lat="45.8100686" lon="9.7598091"><ele>931.0</ele><time>2026-05-02T15:42:31.665Z</time></trkpt><trkpt lat="45.8099783" lon="9.7599884"><ele>931.0</ele><time>2026-05-02T15:42:32.709Z</time></trkpt><trkpt lat="45.8099131" lon="9.7601496"><ele>931.0</ele><time>2026-05-02T15:42:33.688Z</time></trkpt><trkpt lat="45.8098617" lon="9.7603011"><ele>931.0</ele><time>2026-05-02T15:42:34.666Z</time></trkpt><trkpt lat="45.8098021" lon="9.7604459"><ele>938.0</ele><time>2026-05-02T15:42:35.7Z</time></trkpt><trkpt lat="45.8097239" lon="9.7605717"><ele>945.0</ele><time>2026-05-02T15:42:36.662Z</time></trkpt><trkpt lat="45.8096139" lon="9.7606925"><ele>952.0</ele><time>2026-05-02T15:42:37.678Z</time></trkpt><trkpt lat="45.8095026" lon="9.7608339"><ele>959.0</ele><time>2026-05-02T15:42:38.683Z</time></trkpt><trkpt lat="45.8094023" lon="9.7609568"><ele>960.75</ele><time>2026-05-02T15:42:39.663Z</time></trkpt><trkpt lat="45.8093041" lon="9.7610616"><ele>962.5</ele><time>2026-05-02T15:42:40.631Z</time></trkpt><trkpt lat="45.8091914" lon="9.7611651"><ele>964.25</ele><time>2026-05-02T15:42:41.691Z</time></trkpt><trkpt lat="45.8090722" lon="9.7612665"><ele>966.0</ele><time>2026-05-02T15:42:42.78Z</time></trkpt><trkpt lat="45.8088762" lon="9.7613117"><ele>966.0</ele><time>2026-05-02T15:42:44.669Z</time></trkpt><trkpt lat="45.8087649" lon="9.7612666"><ele>966.0</ele><time>2026-05-02T15:42:45.679Z</time></trkpt><trkpt lat="45.8086445" lon="9.761196"><ele>966.0</ele><time>2026-05-02T15:42:46.674Z</time></trkpt><trkpt lat="45.8085254" lon="9.7611262"><ele>966.0</ele><time>2026-05-02T15:42:47.653Z</time></trkpt><trkpt lat="45.80841" lon="9.7610631"><ele>961.1999999999999</ele><time>2026-05-02T15:42:48.694Z</time></trkpt><trkpt lat="45.808322" lon="9.7609987"><ele>956.3999999999999</ele><time>2026-05-02T15:42:49.67Z</time></trkpt><trkpt lat="45.8082487" lon="9.7609098"><ele>951.6</ele><time>2026-05-02T15:42:50.676Z</time></trkpt><trkpt lat="45.808192" lon="9.7607968"><ele>946.8</ele><time>2026-05-02T15:42:51.666Z</time></trkpt><trkpt lat="45.8081388" lon="9.7606544"><ele>942.0</ele><time>2026-05-02T15:42:52.641Z</time></trkpt><trkpt lat="45.8080948" lon="9.7604776"><ele>942.0</ele><time>2026-05-02T15:42:53.693Z</time></trkpt><trkpt lat="45.8080382" lon="9.7603217"><ele>942.0</ele><time>2026-05-02T15:42:54.67Z</time></trkpt><trkpt lat="45.8079734" lon="9.7601959"><ele>942.0</ele><time>2026-05-02T15:42:55.675Z</time></trkpt><trkpt lat="45.8078793" lon="9.7600702"><ele>942.0</ele><time>2026-05-02T15:42:56.652Z</time></trkpt><trkpt lat="45.8077755" lon="9.759966"><ele>944.6666666666667</ele><time>2026-05-02T15:42:57.668Z</time></trkpt><trkpt lat="45.8076518" lon="9.7598484"><ele>947.3333333333334</ele><time>2026-05-02T15:42:58.779Z</time></trkpt><trkpt lat="45.8074581" lon="9.7597029"><ele>950.0</ele><time>2026-05-02T15:43:00.704Z</time></trkpt><trkpt lat="45.8073704" lon="9.7596472"><ele>950.0000000000001</ele><time>2026-05-02T15:43:01.651Z</time></trkpt><trkpt lat="45.8072847" lon="9.7596118"><ele>950.0</ele><time>2026-05-02T15:43:02.665Z</time></trkpt><trkpt lat="45.8071983" lon="9.7596296"><ele>950.0</ele><time>2026-05-02T15:43:03.64Z</time></trkpt><trkpt lat="45.807105" lon="9.7597013"><ele>950.0</ele><time>2026-05-02T15:43:04.708Z</time></trkpt><trkpt lat="45.8070192" lon="9.759761"><ele>950.0000000000001</ele><time>2026-05-02T15:43:05.698Z</time></trkpt><trkpt lat="45.8069516" lon="9.7597737"><ele>950.0</ele><time>2026-05-02T15:43:06.669Z</time></trkpt><trkpt lat="45.8068755" lon="9.7597412"><ele>948.4</ele><time>2026-05-02T15:43:07.679Z</time></trkpt><trkpt lat="45.8067871" lon="9.7596703"><ele>946.8</ele><time>2026-05-02T15:43:08.685Z</time></trkpt><trkpt lat="45.8066963" lon="9.7595811"><ele>945.2</ele><time>2026-05-02T15:43:09.678Z</time></trkpt><trkpt lat="45.806604" lon="9.7594952"><ele>943.6</ele><time>2026-05-02T15:43:10.685Z</time></trkpt><trkpt lat="45.8065146" lon="9.7594042"><ele>942.0</ele><time>2026-05-02T15:43:11.68Z</time></trkpt><trkpt lat="45.8064361" lon="9.7593225"><ele>942.0</ele><time>2026-05-02T15:43:12.68Z</time></trkpt><trkpt lat="45.806349" lon="9.759257"><ele>942.0</ele><time>2026-05-02T15:43:13.68Z</time></trkpt><trkpt lat="45.8062473" lon="9.7592123"><ele>942.0</ele><time>2026-05-02T15:43:14.672Z</time></trkpt><trkpt lat="45.8061291" lon="9.7591863"><ele>942.0</ele><time>2026-05-02T15:43:15.693Z</time></trkpt><trkpt lat="45.8060014" lon="9.7591851"><ele>942.75</ele><time>2026-05-02T15:43:16.671Z</time></trkpt><trkpt lat="45.8058662" lon="9.7592075"><ele>943.5</ele><time>2026-05-02T15:43:17.683Z</time></trkpt><trkpt lat="45.8057342" lon="9.7592564"><ele>944.25</ele><time>2026-05-02T15:43:18.689Z</time></trkpt><trkpt lat="45.8056074" lon="9.759338"><ele>945.0</ele><time>2026-05-02T15:43:19.671Z</time></trkpt><trkpt lat="45.8054589" lon="9.75946"><ele>945.6666666666667</ele><time>2026-05-02T15:43:20.799Z</time></trkpt><trkpt lat="45.8053539" lon="9.759586"><ele>946.3333333333334</ele><time>2026-05-02T15:43:21.699Z</time></trkpt><trkpt lat="45.8052481" lon="9.7597483"><ele>947.0</ele><time>2026-05-02T15:43:22.693Z</time></trkpt><trkpt lat="45.8051482" lon="9.7599389"><ele>947.0</ele><time>2026-05-02T15:43:23.677Z</time></trkpt><trkpt lat="45.8050481" lon="9.7601431"><ele>947.0</ele><time>2026-05-02T15:43:24.651Z</time></trkpt><trkpt lat="45.8049456" lon="9.7603464"><ele>947.0</ele><time>2026-05-02T15:43:25.666Z</time></trkpt><trkpt lat="45.8048457" lon="9.7605191"><ele>957.6666666666667</ele><time>2026-05-02T15:43:26.663Z</time></trkpt><trkpt lat="45.8047312" lon="9.7606917"><ele>968.3333333333333</ele><time>2026-05-02T15:43:27.673Z</time></trkpt><trkpt lat="45.8046089" lon="9.7608704"><ele>979.0</ele><time>2026-05-02T15:43:28.687Z</time></trkpt><trkpt lat="45.8044882" lon="9.7610554"><ele>976.3333333333333</ele><time>2026-05-02T15:43:29.677Z</time></trkpt><trkpt lat="45.8043805" lon="9.7612361"><ele>973.6666666666667</ele><time>2026-05-02T15:43:30.671Z</time></trkpt><trkpt lat="45.804284" lon="9.7614012"><ele>971.0</ele><time>2026-05-02T15:43:31.667Z</time></trkpt><trkpt lat="45.8041982" lon="9.7615483"><ele>971.0</ele><time>2026-05-02T15:43:32.642Z</time></trkpt><trkpt lat="45.8041151" lon="9.7616778"><ele>970.9999999999999</ele><time>2026-05-02T15:43:33.673Z</time></trkpt><trkpt lat="45.8040423" lon="9.7617853"><ele>970.9999999999999</ele><time>2026-05-02T15:43:34.686Z</time></trkpt><trkpt lat="45.8039785" lon="9.7618716"><ele>971.0</ele><time>2026-05-02T15:43:35.648Z</time></trkpt><trkpt lat="45.8039188" lon="9.7619627"><ele>971.0</ele><time>2026-05-02T15:43:36.661Z</time></trkpt><trkpt lat="45.803868" lon="9.7620661"><ele>975.1428571428572</ele><time>2026-05-02T15:43:37.697Z</time></trkpt><trkpt lat="45.8038374" lon="9.762171"><ele>979.2857142857144</ele><time>2026-05-02T15:43:38.672Z</time></trkpt><trkpt lat="45.8038264" lon="9.7622719"><ele>983.4285714285714</ele><time>2026-05-02T15:43:39.645Z</time></trkpt><trkpt lat="45.8038252" lon="9.7623712"><ele>987.5714285714287</ele><time>2026-05-02T15:43:40.654Z</time></trkpt><trkpt lat="45.8038201" lon="9.7624729"><ele>991.7142857142858</ele><time>2026-05-02T15:43:41.667Z</time></trkpt><trkpt lat="45.8037891" lon="9.7625656"><ele>995.8571428571429</ele><time>2026-05-02T15:43:42.678Z</time></trkpt><trkpt lat="45.8037384" lon="9.762651"><ele>1000.0</ele><time>2026-05-02T15:43:43.63Z</time></trkpt><trkpt lat="45.8036642" lon="9.762718"><ele>996.3333333333333</ele><time>2026-05-02T15:43:44.648Z</time></trkpt><trkpt lat="45.8035749" lon="9.7627764"><ele>992.6666666666666</ele><time>2026-05-02T15:43:45.694Z</time></trkpt><trkpt lat="45.803503" lon="9.7628316"><ele>989.0</ele><time>2026-05-02T15:43:46.667Z</time></trkpt><trkpt lat="45.8034339" lon="9.7628981"><ele>985.3333333333333</ele><time>2026-05-02T15:43:47.695Z</time></trkpt><trkpt lat="45.8033728" lon="9.7629914"><ele>981.6666666666666</ele><time>2026-05-02T15:43:48.689Z</time></trkpt><trkpt lat="45.8033208" lon="9.7631015"><ele>978.0</ele><time>2026-05-02T15:43:49.684Z</time></trkpt><trkpt lat="45.8032828" lon="9.7632252"><ele>978.0</ele><time>2026-05-02T15:43:50.68Z</time></trkpt><trkpt lat="45.8032677" lon="9.7633536"><ele>978.0</ele><time>2026-05-02T15:43:51.682Z</time></trkpt><trkpt lat="45.8032747" lon="9.7634918"><ele>978.0</ele><time>2026-05-02T15:43:52.7Z</time></trkpt><trkpt lat="45.8033091" lon="9.7636456"><ele>978.0</ele><time>2026-05-02T15:43:53.678Z</time></trkpt><trkpt lat="45.8033317" lon="9.7637846"><ele>978.0</ele><time>2026-05-02T15:43:54.724Z</time></trkpt><trkpt lat="45.8033211" lon="9.7638778"><ele>980.8333333333334</ele><time>2026-05-02T15:43:55.66Z</time></trkpt><trkpt lat="45.8032891" lon="9.7639651"><ele>983.6666666666667</ele><time>2026-05-02T15:43:56.697Z</time></trkpt><trkpt lat="45.8032451" lon="9.764039"><ele>986.5</ele><time>2026-05-02T15:43:57.68Z</time></trkpt><trkpt lat="45.8031989" lon="9.7641286"><ele>989.3333333333334</ele><time>2026-05-02T15:43:58.651Z</time></trkpt><trkpt lat="45.8031678" lon="9.7642589"><ele>992.1666666666667</ele><time>2026-05-02T15:43:59.685Z</time></trkpt><trkpt lat="45.8031712" lon="9.7644063"><ele>995.0</ele><time>2026-05-02T15:44:00.674Z</time></trkpt><trkpt lat="45.8031738" lon="9.7645435"><ele>998.8333333333334</ele><time>2026-05-02T15:44:01.685Z</time></trkpt><trkpt lat="45.8031591" lon="9.7646644"><ele>1002.6666666666667</ele><time>2026-05-02T15:44:02.648Z</time></trkpt><trkpt lat="45.8031405" lon="9.7647865"><ele>1006.5</ele><time>2026-05-02T15:44:03.675Z</time></trkpt><trkpt lat="45.8031136" lon="9.764889"><ele>1010.3333333333333</ele><time>2026-05-02T15:44:04.689Z</time></trkpt><trkpt lat="45.8030723" lon="9.7649789"><ele>1014.1666666666666</ele><time>2026-05-02T15:44:05.678Z</time></trkpt><trkpt lat="45.8030165" lon="9.7650468"><ele>1018.0</ele><time>2026-05-02T15:44:06.684Z</time></trkpt><trkpt lat="45.8029516" lon="9.7650925"><ele>1017.9999999999999</ele><time>2026-05-02T15:44:07.684Z</time></trkpt><trkpt lat="45.802888" lon="9.7651255"><ele>1018.0</ele><time>2026-05-02T15:44:08.691Z</time></trkpt><trkpt lat="45.8028174" lon="9.765164"><ele>1018.0</ele><time>2026-05-02T15:44:09.667Z</time></trkpt><trkpt lat="45.8027479" lon="9.7652234"><ele>1018.0</ele><time>2026-05-02T15:44:10.68Z</time></trkpt><trkpt lat="45.8026848" lon="9.7653097"><ele>1017.9999999999999</ele><time>2026-05-02T15:44:11.682Z</time></trkpt><trkpt lat="45.8026354" lon="9.7654172"><ele>1018.0</ele><time>2026-05-02T15:44:12.67Z</time></trkpt><trkpt lat="45.8026035" lon="9.7655438"><ele>1016.25</ele><time>2026-05-02T15:44:13.679Z</time></trkpt><trkpt lat="45.8025909" lon="9.7656837"><ele>1014.5</ele><time>2026-05-02T15:44:14.685Z</time></trkpt><trkpt lat="45.8025958" lon="9.7658374"><ele>1012.75</ele><time>2026-05-02T15:44:15.688Z</time></trkpt><trkpt lat="45.802616" lon="9.7660738"><ele>1011.0</ele><time>2026-05-02T15:44:17.403Z</time></trkpt><trkpt lat="45.8026096" lon="9.7661995"><ele>1011.0</ele><time>2026-05-02T15:44:18.403Z</time></trkpt><trkpt lat="45.8025797" lon="9.7663129"><ele>1010.9999999999999</ele><time>2026-05-02T15:44:19.403Z</time></trkpt><trkpt lat="45.8025314" lon="9.7664352"><ele>1010.9999999999999</ele><time>2026-05-02T15:44:20.403Z</time></trkpt><trkpt lat="45.8024838" lon="9.7665979"><ele>1011.0</ele><time>2026-05-02T15:44:21.683Z</time></trkpt><trkpt lat="45.802444" lon="9.7667337"><ele>1011.0</ele><time>2026-05-02T15:44:22.712Z</time></trkpt><trkpt lat="45.8024107" lon="9.7668566"><ele>1014.3333333333334</ele><time>2026-05-02T15:44:23.664Z</time></trkpt><trkpt lat="45.8023729" lon="9.7669799"><ele>1017.6666666666667</ele><time>2026-05-02T15:44:24.706Z</time></trkpt><trkpt lat="45.8023394" lon="9.7670874"><ele>1021.0</ele><time>2026-05-02T15:44:25.675Z</time></trkpt><trkpt lat="45.8023018" lon="9.7672082"><ele>1024.3333333333335</ele><time>2026-05-02T15:44:26.777Z</time></trkpt><trkpt lat="45.8022759" lon="9.7673106"><ele>1027.6666666666667</ele><time>2026-05-02T15:44:27.678Z</time></trkpt><trkpt lat="45.8022547" lon="9.7674311"><ele>1031.0</ele><time>2026-05-02T15:44:28.703Z</time></trkpt><trkpt lat="45.8022342" lon="9.7675427"><ele>1031.0</ele><time>2026-05-02T15:44:29.679Z</time></trkpt><trkpt lat="45.8022157" lon="9.7676618"><ele>1031.0</ele><time>2026-05-02T15:44:30.677Z</time></trkpt><trkpt lat="45.8021963" lon="9.7677938"><ele>1031.0</ele><time>2026-05-02T15:44:31.794Z</time></trkpt><trkpt lat="45.8021511" lon="9.7679892"><ele>1031.0</ele><time>2026-05-02T15:44:33.683Z</time></trkpt><trkpt lat="45.8021148" lon="9.768067"><ele>1031.0</ele><time>2026-05-02T15:44:34.67Z</time></trkpt><trkpt lat="45.8020681" lon="9.7681305"><ele>1029.8333333333335</ele><time>2026-05-02T15:44:35.698Z</time></trkpt><trkpt lat="45.802005" lon="9.7681566"><ele>1028.6666666666667</ele><time>2026-05-02T15:44:36.677Z</time></trkpt><trkpt lat="45.8019254" lon="9.768154"><ele>1027.5</ele><time>2026-05-02T15:44:37.687Z</time></trkpt><trkpt lat="45.8018389" lon="9.7681282"><ele>1026.3333333333333</ele><time>2026-05-02T15:44:38.705Z</time></trkpt><trkpt lat="45.8017536" lon="9.7681048"><ele>1025.1666666666665</ele><time>2026-05-02T15:44:39.677Z</time></trkpt><trkpt lat="45.8016775" lon="9.7680841"><ele>1024.0</ele><time>2026-05-02T15:44:40.688Z</time></trkpt><trkpt lat="45.8016128" lon="9.7680835"><ele>1024.0</ele><time>2026-05-02T15:44:41.712Z</time></trkpt><trkpt lat="45.8015492" lon="9.7681121"><ele>1023.9999999999999</ele><time>2026-05-02T15:44:42.696Z</time></trkpt><trkpt lat="45.8014922" lon="9.7681628"><ele>1024.0</ele><time>2026-05-02T15:44:43.701Z</time></trkpt><trkpt lat="45.8014399" lon="9.7682331"><ele>1024.0</ele><time>2026-05-02T15:44:44.67Z</time></trkpt><trkpt lat="45.8014098" lon="9.7683468"><ele>1023.9999999999999</ele><time>2026-05-02T15:44:45.687Z</time></trkpt><trkpt lat="45.8014043" lon="9.7684598"><ele>1024.0</ele><time>2026-05-02T15:44:46.677Z</time></trkpt><trkpt lat="45.8014097" lon="9.768569"><ele>1024.0</ele><time>2026-05-02T15:44:47.696Z</time></trkpt><trkpt lat="45.8014155" lon="9.768674"><ele>1024.3333333333333</ele><time>2026-05-02T15:44:48.693Z</time></trkpt><trkpt lat="45.801421" lon="9.7687874"><ele>1024.6666666666665</ele><time>2026-05-02T15:44:49.693Z</time></trkpt><trkpt lat="45.8014234" lon="9.7688992"><ele>1025.0</ele><time>2026-05-02T15:44:50.696Z</time></trkpt><trkpt lat="45.8014152" lon="9.7690119"><ele>1025.3333333333333</ele><time>2026-05-02T15:44:51.694Z</time></trkpt><trkpt lat="45.8013938" lon="9.7691264"><ele>1025.6666666666667</ele><time>2026-05-02T15:44:52.706Z</time></trkpt><trkpt lat="45.801358" lon="9.7692239"><ele>1026.0</ele><time>2026-05-02T15:44:53.681Z</time></trkpt><trkpt lat="45.8013129" lon="9.7693117"><ele>1027.6</ele><time>2026-05-02T15:44:54.702Z</time></trkpt><trkpt lat="45.8012668" lon="9.7693896"><ele>1029.1999999999998</ele><time>2026-05-02T15:44:55.683Z</time></trkpt><trkpt lat="45.8011967" lon="9.7694841"><ele>1030.8000000000002</ele><time>2026-05-02T15:44:56.832Z</time></trkpt><trkpt lat="45.8011349" lon="9.7695629"><ele>1032.4</ele><time>2026-05-02T15:44:57.808Z</time></trkpt><trkpt lat="45.8009815" lon="9.7697407"><ele>1034.0</ele><time>2026-05-02T15:44:59.723Z</time></trkpt><trkpt lat="45.8009079" lon="9.7698274"><ele>1031.5</ele><time>2026-05-02T15:45:00.676Z</time></trkpt><trkpt lat="45.8008347" lon="9.7699115"><ele>1029.0</ele><time>2026-05-02T15:45:01.702Z</time></trkpt><trkpt lat="45.8007698" lon="9.769993"><ele>1026.5</ele><time>2026-05-02T15:45:02.729Z</time></trkpt><trkpt lat="45.800719" lon="9.7700499"><ele>1024.0</ele><time>2026-05-02T15:45:03.692Z</time></trkpt><trkpt lat="45.8006478" lon="9.7701287"><ele>1021.5000000000001</ele><time>2026-05-02T15:45:05.687Z</time></trkpt><trkpt lat="45.8005763" lon="9.7702142"><ele>1019.0</ele><time>2026-05-02T15:45:07.694Z</time></trkpt><trkpt lat="45.8004876" lon="9.7703134"><ele>1019.0000000000001</ele><time>2026-05-02T15:45:09.699Z</time></trkpt><trkpt lat="45.800437" lon="9.770369"><ele>1019.0</ele><time>2026-05-02T15:45:10.667Z</time></trkpt><trkpt lat="45.800377" lon="9.7704293"><ele>1019.0</ele><time>2026-05-02T15:45:11.69Z</time></trkpt><trkpt lat="45.8003156" lon="9.7704929"><ele>1019.0</ele><time>2026-05-02T15:45:12.674Z</time></trkpt><trkpt lat="45.8002511" lon="9.7705722"><ele>1019.0000000000001</ele><time>2026-05-02T15:45:13.691Z</time></trkpt><trkpt lat="45.8001942" lon="9.7706553"><ele>1019.0</ele><time>2026-05-02T15:45:14.688Z</time></trkpt><trkpt lat="45.8001435" lon="9.7707357"><ele>1018.5000000000001</ele><time>2026-05-02T15:45:15.693Z</time></trkpt><trkpt lat="45.8000997" lon="9.7708187"><ele>1018.0</ele><time>2026-05-02T15:45:16.679Z</time></trkpt><trkpt lat="45.8000717" lon="9.7709183"><ele>1017.5</ele><time>2026-05-02T15:45:17.699Z</time></trkpt><trkpt lat="45.8000586" lon="9.7710326"><ele>1017.0</ele><time>2026-05-02T15:45:18.691Z</time></trkpt><trkpt lat="45.800039" lon="9.771159"><ele>1016.5000000000001</ele><time>2026-05-02T15:45:19.704Z</time></trkpt><trkpt lat="45.8" lon="9.7712663"><ele>1016.0</ele><time>2026-05-02T15:45:20.693Z</time></trkpt><trkpt lat="45.7999445" lon="9.7713612"><ele>1016.0</ele><time>2026-05-02T15:45:21.683Z</time></trkpt><trkpt lat="45.7998734" lon="9.7714476"><ele>1015.9999999999999</ele><time>2026-05-02T15:45:22.669Z</time></trkpt><trkpt lat="45.7997821" lon="9.77155"><ele>1015.9999999999999</ele><time>2026-05-02T15:45:23.721Z</time></trkpt><trkpt lat="45.7996829" lon="9.7716488"><ele>1016.0</ele><time>2026-05-02T15:45:24.68Z</time></trkpt><trkpt lat="45.7996018" lon="9.7717304"><ele>1016.0</ele><time>2026-05-02T15:45:25.666Z</time></trkpt><trkpt lat="45.7995171" lon="9.7718155"><ele>1016.5999999999999</ele><time>2026-05-02T15:45:26.694Z</time></trkpt><trkpt lat="45.7994375" lon="9.7718973"><ele>1017.1999999999999</ele><time>2026-05-02T15:45:27.69Z</time></trkpt><trkpt lat="45.799355" lon="9.7719763"><ele>1017.8000000000001</ele><time>2026-05-02T15:45:28.702Z</time></trkpt><trkpt lat="45.7992743" lon="9.772046"><ele>1018.4000000000001</ele><time>2026-05-02T15:45:29.675Z</time></trkpt><trkpt lat="45.799184" lon="9.7721123"><ele>1019.0</ele><time>2026-05-02T15:45:30.672Z</time></trkpt><trkpt lat="45.7990849" lon="9.772167"><ele>1019.0</ele><time>2026-05-02T15:45:31.655Z</time></trkpt><trkpt lat="45.7989828" lon="9.772215"><ele>1019.0000000000001</ele><time>2026-05-02T15:45:32.64Z</time></trkpt><trkpt lat="45.7988738" lon="9.7722552"><ele>1019.0000000000001</ele><time>2026-05-02T15:45:33.669Z</time></trkpt><trkpt lat="45.7987638" lon="9.7722947"><ele>1019.0</ele><time>2026-05-02T15:45:34.69Z</time></trkpt><trkpt lat="45.7986617" lon="9.7723423"><ele>1019.0</ele><time>2026-05-02T15:45:35.68Z</time></trkpt><trkpt lat="45.7985685" lon="9.7723966"><ele>1015.4000000000001</ele><time>2026-05-02T15:45:36.671Z</time></trkpt><trkpt lat="45.7984804" lon="9.7724633"><ele>1011.8000000000001</ele><time>2026-05-02T15:45:37.665Z</time></trkpt><trkpt lat="45.7983825" lon="9.7725257"><ele>1008.1999999999999</ele><time>2026-05-02T15:45:38.67Z</time></trkpt><trkpt lat="45.7982699" lon="9.7725749"><ele>1004.5999999999999</ele><time>2026-05-02T15:45:39.668Z</time></trkpt><trkpt lat="45.79815" lon="9.7726156"><ele>1001.0</ele><time>2026-05-02T15:45:40.691Z</time></trkpt><trkpt lat="45.798028" lon="9.7726413"><ele>1001.0</ele><time>2026-05-02T15:45:41.684Z</time></trkpt><trkpt lat="45.7979082" lon="9.772659"><ele>1001.0</ele><time>2026-05-02T15:45:42.668Z</time></trkpt><trkpt lat="45.7977848" lon="9.7726751"><ele>1001.0</ele><time>2026-05-02T15:45:43.79Z</time></trkpt><trkpt lat="45.7975967" lon="9.7726879"><ele>1001.0</ele><time>2026-05-02T15:45:45.678Z</time></trkpt><trkpt lat="45.797506" lon="9.7726817"><ele>1001.1999999999999</ele><time>2026-05-02T15:45:46.65Z</time></trkpt><trkpt lat="45.7973945" lon="9.7726637"><ele>1001.3999999999999</ele><time>2026-05-02T15:45:47.779Z</time></trkpt><trkpt lat="45.7972938" lon="9.7726391"><ele>1001.6</ele><time>2026-05-02T15:45:48.751Z</time></trkpt><trkpt lat="45.7971858" lon="9.7726017"><ele>1001.8</ele><time>2026-05-02T15:45:49.669Z</time></trkpt><trkpt lat="45.797074" lon="9.7725543"><ele>1002.0</ele><time>2026-05-02T15:45:50.659Z</time></trkpt><trkpt lat="45.7969681" lon="9.7724997"><ele>1002.0</ele><time>2026-05-02T15:45:51.645Z</time></trkpt><trkpt lat="45.7968639" lon="9.7724286"><ele>1002.0</ele><time>2026-05-02T15:45:52.672Z</time></trkpt><trkpt lat="45.7967706" lon="9.7723526"><ele>1002.0</ele><time>2026-05-02T15:45:53.644Z</time></trkpt><trkpt lat="45.7966823" lon="9.7722704"><ele>1002.0</ele><time>2026-05-02T15:45:54.667Z</time></trkpt><trkpt lat="45.7965926" lon="9.772198"><ele>1002.0</ele><time>2026-05-02T15:45:55.678Z</time></trkpt><trkpt lat="45.7965065" lon="9.772132"><ele>1000.4000000000001</ele><time>2026-05-02T15:45:56.649Z</time></trkpt><trkpt lat="45.7964214" lon="9.7720657"><ele>998.8000000000001</ele><time>2026-05-02T15:45:57.649Z</time></trkpt><trkpt lat="45.7963342" lon="9.7719971"><ele>997.2</ele><time>2026-05-02T15:45:58.666Z</time></trkpt><trkpt lat="45.796243" lon="9.7719285"><ele>995.6</ele><time>2026-05-02T15:45:59.686Z</time></trkpt><trkpt lat="45.796155" lon="9.7718546"><ele>994.0</ele><time>2026-05-02T15:46:00.677Z</time></trkpt><trkpt lat="45.7960701" lon="9.7717738"><ele>997.8000000000001</ele><time>2026-05-02T15:46:01.669Z</time></trkpt><trkpt lat="45.7959828" lon="9.7716801"><ele>1001.6000000000001</ele><time>2026-05-02T15:46:02.708Z</time></trkpt><trkpt lat="45.795905" lon="9.7715898"><ele>1005.4</ele><time>2026-05-02T15:46:03.652Z</time></trkpt><trkpt lat="45.7958197" lon="9.7714939"><ele>1009.2</ele><time>2026-05-02T15:46:04.689Z</time></trkpt><trkpt lat="45.7957402" lon="9.7714048"><ele>1013.0</ele><time>2026-05-02T15:46:05.674Z</time></trkpt><trkpt lat="45.7956628" lon="9.771314"><ele>1013.0</ele><time>2026-05-02T15:46:06.686Z</time></trkpt><trkpt lat="45.7955917" lon="9.7712195"><ele>1013.0</ele><time>2026-05-02T15:46:07.675Z</time></trkpt><trkpt lat="45.7955157" lon="9.7711207"><ele>1013.0</ele><time>2026-05-02T15:46:08.728Z</time></trkpt><trkpt lat="45.7954412" lon="9.7710218"><ele>1013.0</ele><time>2026-05-02T15:46:09.701Z</time></trkpt><trkpt lat="45.7953544" lon="9.7709078"><ele>1013.0</ele><time>2026-05-02T15:46:10.74Z</time></trkpt><trkpt lat="45.7952801" lon="9.7708257"><ele>1014.5000000000001</ele><time>2026-05-02T15:46:11.703Z</time></trkpt><trkpt lat="45.7952136" lon="9.770744"><ele>1016.0</ele><time>2026-05-02T15:46:12.707Z</time></trkpt><trkpt lat="45.7951504" lon="9.7706767"><ele>1017.5</ele><time>2026-05-02T15:46:13.721Z</time></trkpt><trkpt lat="45.7950913" lon="9.770612"><ele>1019.0</ele><time>2026-05-02T15:46:14.713Z</time></trkpt><trkpt lat="45.7950305" lon="9.7705529"><ele>1020.5000000000001</ele><time>2026-05-02T15:46:15.732Z</time></trkpt><trkpt lat="45.7949573" lon="9.7704886"><ele>1022.0</ele><time>2026-05-02T15:46:16.84Z</time></trkpt><trkpt lat="45.7948001" lon="9.7703886"><ele>1022.0000000000001</ele><time>2026-05-02T15:46:18.708Z</time></trkpt><trkpt lat="45.7947219" lon="9.7703489"><ele>1022.0</ele><time>2026-05-02T15:46:19.702Z</time></trkpt><trkpt lat="45.7946537" lon="9.7703034"><ele>1022.0</ele><time>2026-05-02T15:46:20.716Z</time></trkpt><trkpt lat="45.7945905" lon="9.7702535"><ele>1022.0</ele><time>2026-05-02T15:46:21.716Z</time></trkpt><trkpt lat="45.7945333" lon="9.7701877"><ele>1022.0000000000001</ele><time>2026-05-02T15:46:22.679Z</time></trkpt><trkpt lat="45.794475" lon="9.7701008"><ele>1022.0</ele><time>2026-05-02T15:46:23.699Z</time></trkpt><trkpt lat="45.7944169" lon="9.7700089"><ele>1023.8</ele><time>2026-05-02T15:46:24.717Z</time></trkpt><trkpt lat="45.7943614" lon="9.7699135"><ele>1025.6</ele><time>2026-05-02T15:46:25.691Z</time></trkpt><trkpt lat="45.7943084" lon="9.769808"><ele>1027.3999999999999</ele><time>2026-05-02T15:46:26.706Z</time></trkpt><trkpt lat="45.794262" lon="9.7696947"><ele>1029.2</ele><time>2026-05-02T15:46:27.698Z</time></trkpt><trkpt lat="45.7942078" lon="9.7695629"><ele>1031.0</ele><time>2026-05-02T15:46:28.724Z</time></trkpt><trkpt lat="45.7941507" lon="9.7694389"><ele>1027.6</ele><time>2026-05-02T15:46:29.695Z</time></trkpt><trkpt lat="45.7940911" lon="9.7693242"><ele>1024.1999999999998</ele><time>2026-05-02T15:46:30.716Z</time></trkpt><trkpt lat="45.7940311" lon="9.7692204"><ele>1020.8000000000001</ele><time>2026-05-02T15:46:31.687Z</time></trkpt><trkpt lat="45.7939639" lon="9.7691129"><ele>1017.4000000000001</ele><time>2026-05-02T15:46:32.7Z</time></trkpt><trkpt lat="45.7938954" lon="9.7690131"><ele>1014.0</ele><time>2026-05-02T15:46:33.687Z</time></trkpt><trkpt lat="45.7938231" lon="9.7689054"><ele>1014.0</ele><time>2026-05-02T15:46:34.705Z</time></trkpt><trkpt lat="45.7937562" lon="9.7688041"><ele>1014.0000000000001</ele><time>2026-05-02T15:46:35.73Z</time></trkpt><trkpt lat="45.7936994" lon="9.7687047"><ele>1014.0000000000001</ele><time>2026-05-02T15:46:36.696Z</time></trkpt><trkpt lat="45.7936424" lon="9.7685994"><ele>1014.0</ele><time>2026-05-02T15:46:37.715Z</time></trkpt><trkpt lat="45.7935946" lon="9.7685017"><ele>1014.0</ele><time>2026-05-02T15:46:38.721Z</time></trkpt><trkpt lat="45.7935199" lon="9.7683543"><ele>1013.8000000000001</ele><time>2026-05-02T15:46:40.704Z</time></trkpt><trkpt lat="45.7934479" lon="9.7682044"><ele>1013.6000000000001</ele><time>2026-05-02T15:46:42.706Z</time></trkpt><trkpt lat="45.7934081" lon="9.7681226"><ele>1013.4</ele><time>2026-05-02T15:46:43.771Z</time></trkpt><trkpt lat="45.7933315" lon="9.76799"><ele>1013.2</ele><time>2026-05-02T15:46:45.707Z</time></trkpt><trkpt lat="45.7932422" lon="9.7679124"><ele>1013.0</ele><time>2026-05-02T15:46:47.708Z</time></trkpt><trkpt lat="45.7931855" lon="9.7680026"><ele>1013.0</ele><time>2026-05-02T15:46:49.712Z</time></trkpt><trkpt lat="45.7931752" lon="9.7682142"><ele>1013.0</ele><time>2026-05-02T15:46:51.7Z</time></trkpt><trkpt lat="45.7931439" lon="9.7683589"><ele>1013.0</ele><time>2026-05-02T15:46:52.707Z</time></trkpt><trkpt lat="45.7930971" lon="9.7685123"><ele>1013.0</ele><time>2026-05-02T15:46:53.714Z</time></trkpt><trkpt lat="45.7930453" lon="9.768675"><ele>1015.5</ele><time>2026-05-02T15:46:54.708Z</time></trkpt><trkpt lat="45.7929844" lon="9.7688741"><ele>1018.0</ele><time>2026-05-02T15:46:55.797Z</time></trkpt><trkpt lat="45.7929293" lon="9.7690442"><ele>1020.5</ele><time>2026-05-02T15:46:56.712Z</time></trkpt><trkpt lat="45.7928703" lon="9.7692434"><ele>1023.0</ele><time>2026-05-02T15:46:57.699Z</time></trkpt><trkpt lat="45.7928077" lon="9.76946"><ele>1020.5</ele><time>2026-05-02T15:46:58.789Z</time></trkpt><trkpt lat="45.7927619" lon="9.7696213"><ele>1018.0</ele><time>2026-05-02T15:46:59.705Z</time></trkpt><trkpt lat="45.792713" lon="9.7697882"><ele>1015.5</ele><time>2026-05-02T15:47:00.688Z</time></trkpt><trkpt lat="45.7926434" lon="9.7699542"><ele>1013.0</ele><time>2026-05-02T15:47:01.692Z</time></trkpt><trkpt lat="45.7925713" lon="9.7701426"><ele>1016.0</ele><time>2026-05-02T15:47:02.741Z</time></trkpt><trkpt lat="45.7925177" lon="9.7703146"><ele>1019.0</ele><time>2026-05-02T15:47:03.691Z</time></trkpt><trkpt lat="45.7924698" lon="9.7704896"><ele>1022.0</ele><time>2026-05-02T15:47:04.69Z</time></trkpt><trkpt lat="45.79243" lon="9.7706522"><ele>1025.0</ele><time>2026-05-02T15:47:05.689Z</time></trkpt><trkpt lat="45.7923956" lon="9.7707805"><ele>1025.0</ele><time>2026-05-02T15:47:06.696Z</time></trkpt><trkpt lat="45.7923636" lon="9.7708955"><ele>1025.0</ele><time>2026-05-02T15:47:07.797Z</time></trkpt><trkpt lat="45.7923299" lon="9.7710043"><ele>1025.0</ele><time>2026-05-02T15:47:09.687Z</time></trkpt><trkpt lat="45.7922769" lon="9.771136"><ele>1025.0</ele><time>2026-05-02T15:47:16.689Z</time></trkpt><trkpt lat="45.7922447" lon="9.7712221"><ele>1025.0</ele><time>2026-05-02T15:47:17.663Z</time></trkpt><trkpt lat="45.7921972" lon="9.7713316"><ele>1025.0</ele><time>2026-05-02T15:47:18.69Z</time></trkpt><trkpt lat="45.7921474" lon="9.7714476"><ele>1028.2</ele><time>2026-05-02T15:47:19.707Z</time></trkpt><trkpt lat="45.7920983" lon="9.7715694"><ele>1031.4</ele><time>2026-05-02T15:47:20.698Z</time></trkpt><trkpt lat="45.792046" lon="9.7717017"><ele>1034.6</ele><time>2026-05-02T15:47:21.693Z</time></trkpt><trkpt lat="45.791987" lon="9.7718294"><ele>1037.8</ele><time>2026-05-02T15:47:22.683Z</time></trkpt><trkpt lat="45.7919238" lon="9.7719658"><ele>1041.0</ele><time>2026-05-02T15:47:23.702Z</time></trkpt><trkpt lat="45.7918671" lon="9.7720979"><ele>1040.0</ele><time>2026-05-02T15:47:24.682Z</time></trkpt><trkpt lat="45.7918149" lon="9.7722311"><ele>1039.0</ele><time>2026-05-02T15:47:25.651Z</time></trkpt><trkpt lat="45.7917649" lon="9.7723836"><ele>1038.0</ele><time>2026-05-02T15:47:26.666Z</time></trkpt><trkpt lat="45.7917169" lon="9.7725339"><ele>1037.0</ele><time>2026-05-02T15:47:27.684Z</time></trkpt><trkpt lat="45.7916745" lon="9.7726796"><ele>1036.0</ele><time>2026-05-02T15:47:28.654Z</time></trkpt><trkpt lat="45.7916236" lon="9.7728244"><ele>1036.0</ele><time>2026-05-02T15:47:29.668Z</time></trkpt><trkpt lat="45.7915599" lon="9.7729634"><ele>1036.0</ele><time>2026-05-02T15:47:30.651Z</time></trkpt><trkpt lat="45.7914767" lon="9.7731041"><ele>1036.0</ele><time>2026-05-02T15:47:31.669Z</time></trkpt><trkpt lat="45.7913911" lon="9.7732264"><ele>1036.0</ele><time>2026-05-02T15:47:32.653Z</time></trkpt><trkpt lat="45.7912944" lon="9.7733557"><ele>1032.3333333333333</ele><time>2026-05-02T15:47:33.753Z</time></trkpt><trkpt lat="45.7911357" lon="9.7735605"><ele>1028.6666666666667</ele><time>2026-05-02T15:47:35.671Z</time></trkpt><trkpt lat="45.7910435" lon="9.7736521"><ele>1025.0</ele><time>2026-05-02T15:47:36.672Z</time></trkpt><trkpt lat="45.790924" lon="9.7737381"><ele>1025.0</ele><time>2026-05-02T15:47:37.787Z</time></trkpt><trkpt lat="45.790699" lon="9.7738761"><ele>1025.0</ele><time>2026-05-02T15:47:39.681Z</time></trkpt><trkpt lat="45.7905737" lon="9.77396"><ele>1025.0</ele><time>2026-05-02T15:47:40.677Z</time></trkpt><trkpt lat="45.7904618" lon="9.7740339"><ele>1025.0</ele><time>2026-05-02T15:47:41.673Z</time></trkpt><trkpt lat="45.7903507" lon="9.7741192"><ele>1025.0</ele><time>2026-05-02T15:47:42.739Z</time></trkpt><trkpt lat="45.7902424" lon="9.7741921"><ele>1025.0</ele><time>2026-05-02T15:47:43.68Z</time></trkpt><trkpt lat="45.7901389" lon="9.774274"><ele>1025.0</ele><time>2026-05-02T15:47:44.717Z</time></trkpt><trkpt lat="45.7900432" lon="9.7743548"><ele>1025.8</ele><time>2026-05-02T15:47:45.697Z</time></trkpt><trkpt lat="45.7899488" lon="9.7744426"><ele>1026.6</ele><time>2026-05-02T15:47:46.712Z</time></trkpt><trkpt lat="45.7898573" lon="9.7745278"><ele>1027.4</ele><time>2026-05-02T15:47:47.694Z</time></trkpt><trkpt lat="45.7897635" lon="9.7746165"><ele>1028.2</ele><time>2026-05-02T15:47:48.694Z</time></trkpt><trkpt lat="45.7896766" lon="9.7746966"><ele>1029.0</ele><time>2026-05-02T15:47:49.695Z</time></trkpt><trkpt lat="45.7895949" lon="9.7747628"><ele>1029.0</ele><time>2026-05-02T15:47:50.692Z</time></trkpt><trkpt lat="45.7895182" lon="9.7748079"><ele>1029.0</ele><time>2026-05-02T15:47:51.697Z</time></trkpt><trkpt lat="45.7894415" lon="9.7748128"><ele>1029.0</ele><time>2026-05-02T15:47:52.685Z</time></trkpt><trkpt lat="45.7893494" lon="9.7747985"><ele>1029.0</ele><time>2026-05-02T15:47:53.738Z</time></trkpt><trkpt lat="45.7892642" lon="9.7748003"><ele>1029.0</ele><time>2026-05-02T15:47:54.738Z</time></trkpt><trkpt lat="45.7891828" lon="9.7748347"><ele>1029.0</ele><time>2026-05-02T15:47:55.687Z</time></trkpt><trkpt lat="45.7891114" lon="9.7749102"><ele>1026.4</ele><time>2026-05-02T15:47:56.701Z</time></trkpt><trkpt lat="45.7890419" lon="9.7749963"><ele>1023.8000000000001</ele><time>2026-05-02T15:47:57.707Z</time></trkpt><trkpt lat="45.7890045" lon="9.7751247"><ele>1021.1999999999999</ele><time>2026-05-02T15:47:58.693Z</time></trkpt><trkpt lat="45.7889598" lon="9.7752679"><ele>1018.5999999999999</ele><time>2026-05-02T15:47:59.693Z</time></trkpt><trkpt lat="45.7889106" lon="9.7754256"><ele>1016.0</ele><time>2026-05-02T15:48:00.715Z</time></trkpt><trkpt lat="45.7888775" lon="9.7756081"><ele>1016.0</ele><time>2026-05-02T15:48:01.683Z</time></trkpt><trkpt lat="45.788849" lon="9.775811"><ele>1016.0</ele><time>2026-05-02T15:48:02.745Z</time></trkpt><trkpt lat="45.7888211" lon="9.7759784"><ele>1016.0</ele><time>2026-05-02T15:48:03.714Z</time></trkpt><trkpt lat="45.7887889" lon="9.7761221"><ele>1016.0</ele><time>2026-05-02T15:48:04.728Z</time></trkpt><trkpt lat="45.7887382" lon="9.776225"><ele>1017.1999999999999</ele><time>2026-05-02T15:48:05.705Z</time></trkpt><trkpt lat="45.7886677" lon="9.7763102"><ele>1018.3999999999999</ele><time>2026-05-02T15:48:06.685Z</time></trkpt><trkpt lat="45.7885841" lon="9.776375"><ele>1019.6</ele><time>2026-05-02T15:48:07.658Z</time></trkpt><trkpt lat="45.7884964" lon="9.776446"><ele>1020.8</ele><time>2026-05-02T15:48:08.707Z</time></trkpt><trkpt lat="45.7884187" lon="9.7765227"><ele>1022.0</ele><time>2026-05-02T15:48:09.687Z</time></trkpt><trkpt lat="45.7883467" lon="9.7766131"><ele>1016.8</ele><time>2026-05-02T15:48:10.743Z</time></trkpt><trkpt lat="45.788292" lon="9.7767033"><ele>1011.6</ele><time>2026-05-02T15:48:11.731Z</time></trkpt><trkpt lat="45.7882633" lon="9.7768197"><ele>1006.3999999999999</ele><time>2026-05-02T15:48:12.7Z</time></trkpt><trkpt lat="45.7882468" lon="9.776969"><ele>1001.1999999999999</ele><time>2026-05-02T15:48:13.703Z</time></trkpt><trkpt lat="45.7882491" lon="9.7771045"><ele>996.0</ele><time>2026-05-02T15:48:14.705Z</time></trkpt><trkpt lat="45.7882445" lon="9.7772266"><ele>996.0</ele><time>2026-05-02T15:48:15.705Z</time></trkpt><trkpt lat="45.7882388" lon="9.777351"><ele>996.0</ele><time>2026-05-02T15:48:16.732Z</time></trkpt><trkpt lat="45.7882497" lon="9.7774415"><ele>996.0</ele><time>2026-05-02T15:48:17.709Z</time></trkpt><trkpt lat="45.7883454" lon="9.7775618"><ele>996.0</ele><time>2026-05-02T15:48:19.747Z</time></trkpt><trkpt lat="45.7884129" lon="9.7775764"><ele>996.0</ele><time>2026-05-02T15:48:20.743Z</time></trkpt><trkpt lat="45.7884837" lon="9.777605"><ele>996.0</ele><time>2026-05-02T15:48:21.694Z</time></trkpt><trkpt lat="45.7885676" lon="9.7776578"><ele>998.4</ele><time>2026-05-02T15:48:22.703Z</time></trkpt><trkpt lat="45.7886492" lon="9.7777289"><ele>1000.8</ele><time>2026-05-02T15:48:23.717Z</time></trkpt><trkpt lat="45.7887272" lon="9.777805"><ele>1003.1999999999999</ele><time>2026-05-02T15:48:24.695Z</time></trkpt><trkpt lat="45.7888187" lon="9.7778868"><ele>1005.5999999999999</ele><time>2026-05-02T15:48:25.718Z</time></trkpt><trkpt lat="45.7889028" lon="9.7779361"><ele>1008.0</ele><time>2026-05-02T15:48:26.681Z</time></trkpt><trkpt lat="45.7889827" lon="9.7779781"><ele>1008.0</ele><time>2026-05-02T15:48:27.68Z</time></trkpt><trkpt lat="45.7890642" lon="9.7780216"><ele>1008.0</ele><time>2026-05-02T15:48:28.703Z</time></trkpt><trkpt lat="45.7891452" lon="9.7780798"><ele>1008.0</ele><time>2026-05-02T15:48:29.726Z</time></trkpt><trkpt lat="45.7892045" lon="9.7781538"><ele>1008.0</ele><time>2026-05-02T15:48:30.689Z</time></trkpt><trkpt lat="45.7892519" lon="9.7782695"><ele>1008.0</ele><time>2026-05-02T15:48:31.735Z</time></trkpt><trkpt lat="45.7892843" lon="9.7783963"><ele>1008.0</ele><time>2026-05-02T15:48:32.706Z</time></trkpt><trkpt lat="45.7893305" lon="9.7785127"><ele>1009.0</ele><time>2026-05-02T15:48:33.721Z</time></trkpt><trkpt lat="45.7893905" lon="9.7786253"><ele>1010.0</ele><time>2026-05-02T15:48:34.687Z</time></trkpt><trkpt lat="45.7894697" lon="9.7787466"><ele>1011.0</ele><time>2026-05-02T15:48:35.714Z</time></trkpt><trkpt lat="45.7895688" lon="9.7788688"><ele>1012.0</ele><time>2026-05-02T15:48:36.71Z</time></trkpt><trkpt lat="45.7896758" lon="9.7789803"><ele>1012.0</ele><time>2026-05-02T15:48:37.697Z</time></trkpt><trkpt lat="45.7897761" lon="9.7790828"><ele>1012.0</ele><time>2026-05-02T15:48:38.706Z</time></trkpt><trkpt lat="45.7898601" lon="9.7791702"><ele>1012.0</ele><time>2026-05-02T15:48:39.696Z</time></trkpt><trkpt lat="45.7899329" lon="9.779261"><ele>1012.0</ele><time>2026-05-02T15:48:40.719Z</time></trkpt><trkpt lat="45.7899696" lon="9.7793494"><ele>1012.0</ele><time>2026-05-02T15:48:41.679Z</time></trkpt><trkpt lat="45.7899856" lon="9.7794718"><ele>1007.5</ele><time>2026-05-02T15:48:42.686Z</time></trkpt><trkpt lat="45.789984" lon="9.7796256"><ele>1003.0</ele><time>2026-05-02T15:48:43.692Z</time></trkpt><trkpt lat="45.7899917" lon="9.7798019"><ele>998.5</ele><time>2026-05-02T15:48:44.706Z</time></trkpt><trkpt lat="45.7900131" lon="9.7799785"><ele>994.0</ele><time>2026-05-02T15:48:45.705Z</time></trkpt><trkpt lat="45.790038" lon="9.7801432"><ele>991.2</ele><time>2026-05-02T15:48:46.698Z</time></trkpt><trkpt lat="45.7900673" lon="9.7802999"><ele>988.4000000000001</ele><time>2026-05-02T15:48:47.696Z</time></trkpt><trkpt lat="45.7901074" lon="9.7804466"><ele>985.6</ele><time>2026-05-02T15:48:48.67Z</time></trkpt><trkpt lat="45.7901538" lon="9.7805756"><ele>982.8</ele><time>2026-05-02T15:48:49.654Z</time></trkpt><trkpt lat="45.7902058" lon="9.7807034"><ele>980.0</ele><time>2026-05-02T15:48:50.683Z</time></trkpt><trkpt lat="45.7902712" lon="9.7808354"><ele>980.6</ele><time>2026-05-02T15:48:51.797Z</time></trkpt><trkpt lat="45.7903559" lon="9.7810218"><ele>981.2</ele><time>2026-05-02T15:48:53.686Z</time></trkpt><trkpt lat="45.7903564" lon="9.7811139"><ele>981.8</ele><time>2026-05-02T15:48:54.691Z</time></trkpt><trkpt lat="45.7903215" lon="9.781205"><ele>982.4</ele><time>2026-05-02T15:48:55.648Z</time></trkpt><trkpt lat="45.790251" lon="9.7813072"><ele>983.0</ele><time>2026-05-02T15:48:56.677Z</time></trkpt><trkpt lat="45.7901585" lon="9.7814041"><ele>983.0</ele><time>2026-05-02T15:48:57.68Z</time></trkpt><trkpt lat="45.79008" lon="9.7815115"><ele>983.0</ele><time>2026-05-02T15:48:58.799Z</time></trkpt><trkpt lat="45.790025" lon="9.7816233"><ele>983.0</ele><time>2026-05-02T15:48:59.826Z</time></trkpt><trkpt lat="45.7899548" lon="9.7819151"><ele>983.0</ele><time>2026-05-02T15:49:01.66Z</time></trkpt><trkpt lat="45.7899136" lon="9.7821117"><ele>983.0</ele><time>2026-05-02T15:49:02.671Z</time></trkpt><trkpt lat="45.7898632" lon="9.7822921"><ele>983.0</ele><time>2026-05-02T15:49:03.669Z</time></trkpt><trkpt lat="45.7898093" lon="9.7824504"><ele>983.0</ele><time>2026-05-02T15:49:04.697Z</time></trkpt><trkpt lat="45.7897652" lon="9.7825687"><ele>983.0</ele><time>2026-05-02T15:49:05.684Z</time></trkpt><trkpt lat="45.7897335" lon="9.782674"><ele>983.0</ele><time>2026-05-02T15:49:06.673Z</time></trkpt><trkpt lat="45.7897148" lon="9.7827818"><ele>983.0</ele><time>2026-05-02T15:49:07.671Z</time></trkpt><trkpt lat="45.789723" lon="9.7828903"><ele>983.0</ele><time>2026-05-02T15:49:08.725Z</time></trkpt><trkpt lat="45.7897652" lon="9.7830099"><ele>983.0</ele><time>2026-05-02T15:49:09.941Z</time></trkpt><trkpt lat="45.7898967" lon="9.7831884"><ele>983.0</ele><time>2026-05-02T15:49:11.728Z</time></trkpt><trkpt lat="45.7900074" lon="9.7832792"><ele>983.0</ele><time>2026-05-02T15:49:12.727Z</time></trkpt><trkpt lat="45.7901192" lon="9.7833729"><ele>983.0</ele><time>2026-05-02T15:49:13.706Z</time></trkpt><trkpt lat="45.7902279" lon="9.7834663"><ele>983.0</ele><time>2026-05-02T15:49:14.716Z</time></trkpt><trkpt lat="45.7903432" lon="9.7835492"><ele>983.0</ele><time>2026-05-02T15:49:15.684Z</time></trkpt><trkpt lat="45.7904484" lon="9.7836259"><ele>987.25</ele><time>2026-05-02T15:49:16.694Z</time></trkpt><trkpt lat="45.7905355" lon="9.7837171"><ele>991.5</ele><time>2026-05-02T15:49:17.695Z</time></trkpt><trkpt lat="45.7906288" lon="9.7838362"><ele>995.75</ele><time>2026-05-02T15:49:18.807Z</time></trkpt><trkpt lat="45.7907884" lon="9.7840154"><ele>1000.0</ele><time>2026-05-02T15:49:20.678Z</time></trkpt><trkpt lat="45.7908609" lon="9.7841178"><ele>1000.0</ele><time>2026-05-02T15:49:21.673Z</time></trkpt><trkpt lat="45.790925" lon="9.7842306"><ele>1000.0</ele><time>2026-05-02T15:49:22.691Z</time></trkpt><trkpt lat="45.7909666" lon="9.7843205"><ele>1000.0</ele><time>2026-05-02T15:49:23.69Z</time></trkpt><trkpt lat="45.7909937" lon="9.7844255"><ele>1000.0</ele><time>2026-05-02T15:49:25.693Z</time></trkpt><trkpt lat="45.7910018" lon="9.7845163"><ele>1000.0</ele><time>2026-05-02T15:49:27.658Z</time></trkpt><trkpt lat="45.7909407" lon="9.784689"><ele>999.0</ele><time>2026-05-02T15:49:29.694Z</time></trkpt><trkpt lat="45.7909135" lon="9.7848014"><ele>998.0</ele><time>2026-05-02T15:49:30.678Z</time></trkpt><trkpt lat="45.7909021" lon="9.7849206"><ele>997.0</ele><time>2026-05-02T15:49:31.706Z</time></trkpt><trkpt lat="45.7908786" lon="9.7850558"><ele>996.0</ele><time>2026-05-02T15:49:32.801Z</time></trkpt><trkpt lat="45.7907733" lon="9.7852541"><ele>995.0</ele><time>2026-05-02T15:49:34.643Z</time></trkpt><trkpt lat="45.790699" lon="9.7853547"><ele>1000.8</ele><time>2026-05-02T15:49:35.684Z</time></trkpt><trkpt lat="45.7906233" lon="9.7854573"><ele>1006.6</ele><time>2026-05-02T15:49:36.697Z</time></trkpt><trkpt lat="45.7905551" lon="9.7855631"><ele>1012.4000000000001</ele><time>2026-05-02T15:49:37.684Z</time></trkpt><trkpt lat="45.790503" lon="9.7856733"><ele>1018.2</ele><time>2026-05-02T15:49:38.663Z</time></trkpt><trkpt lat="45.7904576" lon="9.7857857"><ele>1024.0</ele><time>2026-05-02T15:49:39.706Z</time></trkpt><trkpt lat="45.7904143" lon="9.785857"><ele>1024.0</ele><time>2026-05-02T15:49:40.698Z</time></trkpt><trkpt lat="45.7902944" lon="9.7858755"><ele>1024.0</ele><time>2026-05-02T15:49:42.652Z</time></trkpt><trkpt lat="45.7902256" lon="9.7858862"><ele>1024.0</ele><time>2026-05-02T15:49:43.695Z</time></trkpt><trkpt lat="45.7901655" lon="9.7859197"><ele>1024.0</ele><time>2026-05-02T15:49:44.685Z</time></trkpt><trkpt lat="45.7900765" lon="9.7860235"><ele>1024.0</ele><time>2026-05-02T15:49:46.71Z</time></trkpt><trkpt lat="45.7900819" lon="9.7861825"><ele>1019.3333333333333</ele><time>2026-05-02T15:49:48.838Z</time></trkpt><trkpt lat="45.7902144" lon="9.7862892"><ele>1014.6666666666667</ele><time>2026-05-02T15:49:50.842Z</time></trkpt><trkpt lat="45.7903984" lon="9.786415"><ele>1010.0</ele><time>2026-05-02T15:49:52.7Z</time></trkpt><trkpt lat="45.7905059" lon="9.7865128"><ele>1010.0</ele><time>2026-05-02T15:49:53.69Z</time></trkpt><trkpt lat="45.7906087" lon="9.7866387"><ele>1010.0</ele><time>2026-05-02T15:49:54.728Z</time></trkpt><trkpt lat="45.7906925" lon="9.7867363"><ele>1010.0</ele><time>2026-05-02T15:49:55.716Z</time></trkpt><trkpt lat="45.7907681" lon="9.7868041"><ele>1010.0</ele><time>2026-05-02T15:49:56.681Z</time></trkpt><trkpt lat="45.7908577" lon="9.7868613"><ele>1010.0</ele><time>2026-05-02T15:49:57.694Z</time></trkpt><trkpt lat="45.7909563" lon="9.7869089"><ele>1007.5</ele><time>2026-05-02T15:49:58.719Z</time></trkpt><trkpt lat="45.7910685" lon="9.786949"><ele>1005.0</ele><time>2026-05-02T15:49:59.688Z</time></trkpt><trkpt lat="45.7911823" lon="9.7869915"><ele>1002.5</ele><time>2026-05-02T15:50:00.687Z</time></trkpt><trkpt lat="45.791298" lon="9.7870377"><ele>1000.0</ele><time>2026-05-02T15:50:01.705Z</time></trkpt><trkpt lat="45.7914117" lon="9.7870791"><ele>1000.0</ele><time>2026-05-02T15:50:02.705Z</time></trkpt><trkpt lat="45.7915178" lon="9.7871153"><ele>1000.0</ele><time>2026-05-02T15:50:03.687Z</time></trkpt><trkpt lat="45.7916251" lon="9.7871393"><ele>1000.0</ele><time>2026-05-02T15:50:04.693Z</time></trkpt><trkpt lat="45.791726" lon="9.7871451"><ele>1000.0</ele><time>2026-05-02T15:50:05.668Z</time></trkpt><trkpt lat="45.791828" lon="9.7871389"><ele>1000.0</ele><time>2026-05-02T15:50:06.685Z</time></trkpt><trkpt lat="45.7919384" lon="9.7871287"><ele>1004.8</ele><time>2026-05-02T15:50:07.685Z</time></trkpt><trkpt lat="45.7920465" lon="9.7871217"><ele>1009.6</ele><time>2026-05-02T15:50:08.677Z</time></trkpt><trkpt lat="45.7921356" lon="9.7871126"><ele>1014.4000000000001</ele><time>2026-05-02T15:50:09.717Z</time></trkpt><trkpt lat="45.7922235" lon="9.7870955"><ele>1019.2</ele><time>2026-05-02T15:50:10.813Z</time></trkpt><trkpt lat="45.7922916" lon="9.7871064"><ele>1024.0</ele><time>2026-05-02T15:50:11.823Z</time></trkpt><trkpt lat="45.7923657" lon="9.7872549"><ele>1023.9999999999999</ele><time>2026-05-02T15:50:13.707Z</time></trkpt><trkpt lat="45.7923889" lon="9.7873738"><ele>1024.0</ele><time>2026-05-02T15:50:14.699Z</time></trkpt><trkpt lat="45.7924263" lon="9.787488"><ele>1024.0</ele><time>2026-05-02T15:50:15.716Z</time></trkpt><trkpt lat="45.7924754" lon="9.7875745"><ele>1024.0</ele><time>2026-05-02T15:50:16.71Z</time></trkpt><trkpt lat="45.7925337" lon="9.7876263"><ele>1023.9999999999999</ele><time>2026-05-02T15:50:17.726Z</time></trkpt><trkpt lat="45.7926046" lon="9.7876779"><ele>1024.0</ele><time>2026-05-02T15:50:18.693Z</time></trkpt><trkpt lat="45.7927221" lon="9.7877253"><ele>1016.3333333333333</ele><time>2026-05-02T15:50:19.799Z</time></trkpt><trkpt lat="45.7929813" lon="9.7877985"><ele>1008.6666666666667</ele><time>2026-05-02T15:50:21.695Z</time></trkpt><trkpt lat="45.7930949" lon="9.787838"><ele>1001.0</ele><time>2026-05-02T15:50:22.696Z</time></trkpt><trkpt lat="45.7932084" lon="9.7878605"><ele>1001.0</ele><time>2026-05-02T15:50:23.691Z</time></trkpt><trkpt lat="45.7933511" lon="9.7878625"><ele>1001.0</ele><time>2026-05-02T15:50:24.707Z</time></trkpt><trkpt lat="45.7935033" lon="9.787851"><ele>1001.0</ele><time>2026-05-02T15:50:25.679Z</time></trkpt><trkpt lat="45.7936443" lon="9.7878456"><ele>1001.0</ele><time>2026-05-02T15:50:26.683Z</time></trkpt><trkpt lat="45.7937705" lon="9.7878342"><ele>1005.8</ele><time>2026-05-02T15:50:27.652Z</time></trkpt><trkpt lat="45.7939044" lon="9.7878088"><ele>1010.5999999999999</ele><time>2026-05-02T15:50:28.676Z</time></trkpt><trkpt lat="45.7940193" lon="9.7877732"><ele>1015.4</ele><time>2026-05-02T15:50:29.685Z</time></trkpt><trkpt lat="45.79412" lon="9.7877463"><ele>1020.2</ele><time>2026-05-02T15:50:30.689Z</time></trkpt><trkpt lat="45.7942079" lon="9.7877315"><ele>1025.0</ele><time>2026-05-02T15:50:31.72Z</time></trkpt><trkpt lat="45.7943247" lon="9.7878137"><ele>1033.6</ele><time>2026-05-02T15:50:33.802Z</time></trkpt><trkpt lat="45.7944467" lon="9.7880267"><ele>1042.2</ele><time>2026-05-02T15:50:35.697Z</time></trkpt><trkpt lat="45.7945181" lon="9.7881117"><ele>1050.8</ele><time>2026-05-02T15:50:36.652Z</time></trkpt><trkpt lat="45.7945866" lon="9.7881732"><ele>1059.4</ele><time>2026-05-02T15:50:37.719Z</time></trkpt><trkpt lat="45.7946417" lon="9.7882251"><ele>1068.0</ele><time>2026-05-02T15:50:38.677Z</time></trkpt><trkpt lat="45.7946541" lon="9.7884061"><ele>1070.2</ele><time>2026-05-02T15:50:40.676Z</time></trkpt><trkpt lat="45.7946202" lon="9.7885107"><ele>1072.4</ele><time>2026-05-02T15:50:41.664Z</time></trkpt><trkpt lat="45.7945548" lon="9.788619"><ele>1074.6000000000001</ele><time>2026-05-02T15:50:42.693Z</time></trkpt><trkpt lat="45.7944754" lon="9.7887284"><ele>1076.8</ele><time>2026-05-02T15:50:43.791Z</time></trkpt><trkpt lat="45.7944223" lon="9.7888278"><ele>1079.0</ele><time>2026-05-02T15:50:44.693Z</time></trkpt><trkpt lat="45.7943654" lon="9.7889835"><ele>1072.5</ele><time>2026-05-02T15:50:45.73Z</time></trkpt><trkpt lat="45.7943172" lon="9.7891672"><ele>1066.0</ele><time>2026-05-02T15:50:46.701Z</time></trkpt><trkpt lat="45.7942755" lon="9.7893472"><ele>1059.5</ele><time>2026-05-02T15:50:47.695Z</time></trkpt><trkpt lat="45.7942311" lon="9.7894966"><ele>1053.0</ele><time>2026-05-02T15:50:48.676Z</time></trkpt><trkpt lat="45.7941681" lon="9.7896615"><ele>1053.0</ele><time>2026-05-02T15:50:49.687Z</time></trkpt><trkpt lat="45.7940807" lon="9.7898422"><ele>1053.0</ele><time>2026-05-02T15:50:50.697Z</time></trkpt><trkpt lat="45.793985" lon="9.7900181"><ele>1053.0</ele><time>2026-05-02T15:50:51.686Z</time></trkpt><trkpt lat="45.7938939" lon="9.7901697"><ele>1053.0</ele><time>2026-05-02T15:50:52.678Z</time></trkpt><trkpt lat="45.7938037" lon="9.7903046"><ele>1050.75</ele><time>2026-05-02T15:50:53.667Z</time></trkpt><trkpt lat="45.7937088" lon="9.79043"><ele>1048.5</ele><time>2026-05-02T15:50:54.643Z</time></trkpt><trkpt lat="45.7935981" lon="9.7905473"><ele>1046.25</ele><time>2026-05-02T15:50:55.653Z</time></trkpt><trkpt lat="45.7934904" lon="9.7906542"><ele>1044.0</ele><time>2026-05-02T15:50:56.689Z</time></trkpt><trkpt lat="45.7934065" lon="9.7907369"><ele>1044.0</ele><time>2026-05-02T15:50:57.673Z</time></trkpt><trkpt lat="45.793341" lon="9.7908025"><ele>1044.0</ele><time>2026-05-02T15:50:58.668Z</time></trkpt><trkpt lat="45.7932621" lon="9.7909053"><ele>1044.0</ele><time>2026-05-02T15:51:00.689Z</time></trkpt><trkpt lat="45.7932262" lon="9.7911286"><ele>1044.0</ele><time>2026-05-02T15:51:03.695Z</time></trkpt><trkpt lat="45.7932463" lon="9.7912384"><ele>1044.0</ele><time>2026-05-02T15:51:04.71Z</time></trkpt><trkpt lat="45.7932674" lon="9.79135"><ele>1046.0</ele><time>2026-05-02T15:51:05.692Z</time></trkpt><trkpt lat="45.7932813" lon="9.7914789"><ele>1048.0</ele><time>2026-05-02T15:51:06.686Z</time></trkpt><trkpt lat="45.7932914" lon="9.791631"><ele>1050.0</ele><time>2026-05-02T15:51:07.656Z</time></trkpt><trkpt lat="45.7932824" lon="9.7918035"><ele>1052.0</ele><time>2026-05-02T15:51:08.712Z</time></trkpt><trkpt lat="45.7932685" lon="9.7919689"><ele>1054.0</ele><time>2026-05-02T15:51:09.699Z</time></trkpt><trkpt lat="45.7932576" lon="9.7920985"><ele>1054.0</ele><time>2026-05-02T15:51:10.704Z</time></trkpt><trkpt lat="45.7932552" lon="9.7922416"><ele>1054.0</ele><time>2026-05-02T15:51:12.726Z</time></trkpt><trkpt lat="45.7932725" lon="9.7924114"><ele>1054.0</ele><time>2026-05-02T15:51:14.709Z</time></trkpt><trkpt lat="45.7932951" lon="9.792547"><ele>1054.0</ele><time>2026-05-02T15:51:15.727Z</time></trkpt><trkpt lat="45.7933196" lon="9.7926719"><ele>1054.0</ele><time>2026-05-02T15:51:16.718Z</time></trkpt><trkpt lat="45.7933455" lon="9.7928052"><ele>1053.8333333333333</ele><time>2026-05-02T15:51:17.749Z</time></trkpt><trkpt lat="45.7933706" lon="9.7929303"><ele>1053.6666666666665</ele><time>2026-05-02T15:51:18.745Z</time></trkpt><trkpt lat="45.7933871" lon="9.793033"><ele>1053.5</ele><time>2026-05-02T15:51:19.725Z</time></trkpt><trkpt lat="45.7933917" lon="9.7931257"><ele>1053.3333333333333</ele><time>2026-05-02T15:51:20.76Z</time></trkpt><trkpt lat="45.7934112" lon="9.7932545"><ele>1053.1666666666667</ele><time>2026-05-02T15:51:22.719Z</time></trkpt><trkpt lat="45.7934915" lon="9.7932255"><ele>1053.0</ele><time>2026-05-02T15:51:24.715Z</time></trkpt><trkpt lat="45.7935608" lon="9.7930838"><ele>1052.1666666666667</ele><time>2026-05-02T15:51:26.703Z</time></trkpt><trkpt lat="45.7936001" lon="9.7930017"><ele>1051.3333333333333</ele><time>2026-05-02T15:51:27.733Z</time></trkpt><trkpt lat="45.793645" lon="9.7929156"><ele>1050.5</ele><time>2026-05-02T15:51:28.713Z</time></trkpt><trkpt lat="45.7936864" lon="9.7928169"><ele>1049.6666666666665</ele><time>2026-05-02T15:51:29.715Z</time></trkpt><trkpt lat="45.7937251" lon="9.792699"><ele>1048.8333333333333</ele><time>2026-05-02T15:51:30.737Z</time></trkpt><trkpt lat="45.7937584" lon="9.7925831"><ele>1048.0</ele><time>2026-05-02T15:51:31.719Z</time></trkpt><trkpt lat="45.7938029" lon="9.7924609"><ele>1048.0</ele><time>2026-05-02T15:51:32.76Z</time></trkpt><trkpt lat="45.7938516" lon="9.7923723"><ele>1048.0</ele><time>2026-05-02T15:51:33.759Z</time></trkpt><trkpt lat="45.7939015" lon="9.7922952"><ele>1048.0</ele><time>2026-05-02T15:51:34.727Z</time></trkpt><trkpt lat="45.7939547" lon="9.7922248"><ele>1048.0</ele><time>2026-05-02T15:51:35.693Z</time></trkpt><trkpt lat="45.7940088" lon="9.7921503"><ele>1048.0</ele><time>2026-05-02T15:51:36.707Z</time></trkpt><trkpt lat="45.7940737" lon="9.7920761"><ele>1048.0</ele><time>2026-05-02T15:51:37.708Z</time></trkpt><trkpt lat="45.7941471" lon="9.7920113"><ele>1048.0</ele><time>2026-05-02T15:51:38.723Z</time></trkpt><trkpt lat="45.7942348" lon="9.7919581"><ele>1048.0</ele><time>2026-05-02T15:51:39.701Z</time></trkpt><trkpt lat="45.7943247" lon="9.7919224"><ele>1048.0</ele><time>2026-05-02T15:51:40.703Z</time></trkpt><trkpt lat="45.7944137" lon="9.7919029"><ele>1048.0</ele><time>2026-05-02T15:51:41.683Z</time></trkpt><trkpt lat="45.7945019" lon="9.7918944"><ele>1048.0</ele><time>2026-05-02T15:51:42.699Z</time></trkpt><trkpt lat="45.794585" lon="9.7918755"><ele>1047.8</ele><time>2026-05-02T15:51:43.705Z</time></trkpt><trkpt lat="45.7946653" lon="9.7918324"><ele>1047.6</ele><time>2026-05-02T15:51:44.685Z</time></trkpt><trkpt lat="45.7947621" lon="9.7917494"><ele>1047.4</ele><time>2026-05-02T15:51:45.783Z</time></trkpt><trkpt lat="45.7948577" lon="9.7916571"><ele>1047.2</ele><time>2026-05-02T15:51:46.686Z</time></trkpt><trkpt lat="45.7949568" lon="9.7915616"><ele>1047.0</ele><time>2026-05-02T15:51:47.693Z</time></trkpt><trkpt lat="45.7950495" lon="9.791481"><ele>1047.0</ele><time>2026-05-02T15:51:48.683Z</time></trkpt><trkpt lat="45.7951478" lon="9.7914015"><ele>1047.0</ele><time>2026-05-02T15:51:49.699Z</time></trkpt><trkpt lat="45.795236" lon="9.7913276"><ele>1047.0</ele><time>2026-05-02T15:51:50.697Z</time></trkpt><trkpt lat="45.7953214" lon="9.7912587"><ele>1047.0</ele><time>2026-05-02T15:51:51.718Z</time></trkpt><trkpt lat="45.7954002" lon="9.7912003"><ele>1047.0</ele><time>2026-05-02T15:51:52.7Z</time></trkpt><trkpt lat="45.7954759" lon="9.791175"><ele>1047.0</ele><time>2026-05-02T15:51:53.721Z</time></trkpt><trkpt lat="45.7955804" lon="9.791265"><ele>1047.0</ele><time>2026-05-02T15:51:55.702Z</time></trkpt><trkpt lat="45.7956099" lon="9.7913766"><ele>1047.0</ele><time>2026-05-02T15:51:56.699Z</time></trkpt><trkpt lat="45.7956177" lon="9.791521"><ele>1047.0</ele><time>2026-05-02T15:51:57.708Z</time></trkpt><trkpt lat="45.7956265" lon="9.7916711"><ele>1047.0</ele><time>2026-05-02T15:51:58.687Z</time></trkpt><trkpt lat="45.7956406" lon="9.7918247"><ele>1044.2</ele><time>2026-05-02T15:51:59.701Z</time></trkpt><trkpt lat="45.7956579" lon="9.7919734"><ele>1041.4</ele><time>2026-05-02T15:52:00.692Z</time></trkpt><trkpt lat="45.795678" lon="9.792122"><ele>1038.6</ele><time>2026-05-02T15:52:01.687Z</time></trkpt><trkpt lat="45.7956929" lon="9.7922685"><ele>1035.8</ele><time>2026-05-02T15:52:02.703Z</time></trkpt><trkpt lat="45.7957118" lon="9.792413"><ele>1033.0</ele><time>2026-05-02T15:52:03.708Z</time></trkpt><trkpt lat="45.7957215" lon="9.7925637"><ele>1029.8</ele><time>2026-05-02T15:52:04.707Z</time></trkpt><trkpt lat="45.7957318" lon="9.7927034"><ele>1026.6</ele><time>2026-05-02T15:52:05.676Z</time></trkpt><trkpt lat="45.7957506" lon="9.7928576"><ele>1023.4000000000001</ele><time>2026-05-02T15:52:06.71Z</time></trkpt><trkpt lat="45.7957774" lon="9.793014"><ele>1020.2</ele><time>2026-05-02T15:52:07.696Z</time></trkpt><trkpt lat="45.7958074" lon="9.7931583"><ele>1017.0</ele><time>2026-05-02T15:52:08.68Z</time></trkpt><trkpt lat="45.7958433" lon="9.7932965"><ele>1017.0</ele><time>2026-05-02T15:52:09.704Z</time></trkpt><trkpt lat="45.7958914" lon="9.7934385"><ele>1017.0</ele><time>2026-05-02T15:52:10.838Z</time></trkpt><trkpt lat="45.7959699" lon="9.7936266"><ele>1017.0</ele><time>2026-05-02T15:52:12.73Z</time></trkpt><trkpt lat="45.7960232" lon="9.7936973"><ele>1017.0</ele><time>2026-05-02T15:52:13.726Z</time></trkpt><trkpt lat="45.7960859" lon="9.7937384"><ele>1017.0</ele><time>2026-05-02T15:52:14.708Z</time></trkpt><trkpt lat="45.7943247" lon="9.7919224"><ele>1017.4000000000001</ele><time>2026-05-02T15:51:40.703Z</time></trkpt><trkpt lat="45.7944137" lon="9.7919029"><ele>1017.8000000000001</ele><time>2026-05-02T15:51:41.683Z</time></trkpt><trkpt lat="45.7945019" lon="9.7918944"><ele>1018.2</ele><time>2026-05-02T15:51:42.699Z</time></trkpt><trkpt lat="45.794585" lon="9.7918755"><ele>1018.6</ele><time>2026-05-02T15:51:43.705Z</time></trkpt><trkpt lat="45.7946653" lon="9.7918324"><ele>1019.0</ele><time>2026-05-02T15:51:44.685Z</time></trkpt><trkpt lat="45.7947621" lon="9.7917494"><ele>1026.0</ele><time>2026-05-02T15:51:45.783Z</time></trkpt><trkpt lat="45.7948577" lon="9.7916571"><ele>1033.0</ele><time>2026-05-02T15:51:46.686Z</time></trkpt><trkpt lat="45.7949568" lon="9.7915616"><ele>1040.0</ele><time>2026-05-02T15:51:47.693Z</time></trkpt><trkpt lat="45.7950495" lon="9.791481"><ele>1047.0</ele><time>2026-05-02T15:51:48.683Z</time></trkpt><trkpt lat="45.7951478" lon="9.7914015"><ele>1047.0</ele><time>2026-05-02T15:51:49.699Z</time></trkpt><trkpt lat="45.795236" lon="9.7913276"><ele>1047.0</ele><time>2026-05-02T15:51:50.697Z</time></trkpt><trkpt lat="45.7953214" lon="9.7912587"><ele>1047.0</ele><time>2026-05-02T15:51:51.718Z</time></trkpt><trkpt lat="45.7954002" lon="9.7912003"><ele>1047.0</ele><time>2026-05-02T15:51:52.7Z</time></trkpt><trkpt lat="45.7954759" lon="9.791175"><ele>1047.0</ele><time>2026-05-02T15:51:53.721Z</time></trkpt><trkpt lat="45.7955804" lon="9.791265"><ele>1047.0</ele><time>2026-05-02T15:51:55.702Z</time></trkpt><trkpt lat="45.7956099" lon="9.7913766"><ele>1047.0</ele><time>2026-05-02T15:51:56.699Z</time></trkpt><trkpt lat="45.7956177" lon="9.791521"><ele>1047.0</ele><time>2026-05-02T15:51:57.708Z</time></trkpt><trkpt lat="45.7956265" lon="9.7916711"><ele>1047.0</ele><time>2026-05-02T15:51:58.687Z</time></trkpt><trkpt lat="45.7956406" lon="9.7918247"><ele>1047.0</ele><time>2026-05-02T15:51:59.701Z</time></trkpt><trkpt lat="45.7956579" lon="9.7919734"><ele>1044.2</ele><time>2026-05-02T15:52:00.692Z</time></trkpt><trkpt lat="45.795678" lon="9.792122"><ele>1041.4</ele><time>2026-05-02T15:52:01.687Z</time></trkpt><trkpt lat="45.7956929" lon="9.7922685"><ele>1038.6</ele><time>2026-05-02T15:52:02.703Z</time></trkpt><trkpt lat="45.7957118" lon="9.792413"><ele>1035.8</ele><time>2026-05-02T15:52:03.708Z</time></trkpt><trkpt lat="45.7957215" lon="9.7925637"><ele>1033.0</ele><time>2026-05-02T15:52:04.707Z</time></trkpt><trkpt lat="45.7957318" lon="9.7927034"><ele>1029.8</ele><time>2026-05-02T15:52:05.676Z</time></trkpt><trkpt lat="45.7957506" lon="9.7928576"><ele>1026.6</ele><time>2026-05-02T15:52:06.71Z</time></trkpt><trkpt lat="45.7957774" lon="9.793014"><ele>1023.4000000000001</ele><time>2026-05-02T15:52:07.696Z</time></trkpt><trkpt lat="45.7958074" lon="9.7931583"><ele>1020.2</ele><time>2026-05-02T15:52:08.68Z</time></trkpt><trkpt lat="45.7958433" lon="9.7932965"><ele>1017.0</ele><time>2026-05-02T15:52:09.704Z</time></trkpt><trkpt lat="45.7958914" lon="9.7934385"><ele>1012.5</ele><time>2026-05-02T15:52:10.838Z</time></trkpt><trkpt lat="45.7959699" lon="9.7936266"><ele>1008.0</ele><time>2026-05-02T15:52:12.73Z</time></trkpt><trkpt lat="45.7960232" lon="9.7936973"><ele>1003.5</ele><time>2026-05-02T15:52:13.726Z</time></trkpt><trkpt lat="45.7960859" lon="9.7937384"><ele>999.0</ele><time>2026-05-02T15:52:14.708Z</time></trkpt><trkpt lat="45.7961492" lon="9.793738"><ele>994.5</ele><time>2026-05-02T15:52:15.743Z</time></trkpt><trkpt lat="45.7962131" lon="9.7936882"><ele>990.0</ele><time>2026-05-02T15:52:16.697Z</time></trkpt><trkpt lat="45.7962827" lon="9.7936008"><ele>994.75</ele><time>2026-05-02T15:52:17.717Z</time></trkpt><trkpt lat="45.7963556" lon="9.7934748"><ele>999.5</ele><time>2026-05-02T15:52:18.735Z</time></trkpt><trkpt lat="45.7964345" lon="9.7933394"><ele>1004.25</ele><time>2026-05-02T15:52:19.697Z</time></trkpt><trkpt lat="45.7965165" lon="9.793199"><ele>1009.0</ele><time>2026-05-02T15:52:20.742Z</time></trkpt><trkpt lat="45.7965975" lon="9.7930788"><ele>1009.0</ele><time>2026-05-02T15:52:21.699Z</time></trkpt><trkpt lat="45.7966774" lon="9.7929657"><ele>1009.0000000000001</ele><time>2026-05-02T15:52:22.697Z</time></trkpt><trkpt lat="45.7967449" lon="9.7928512"><ele>1009.0000000000001</ele><time>2026-05-02T15:52:23.7Z</time></trkpt><trkpt lat="45.7968211" lon="9.792723"><ele>1009.0</ele><time>2026-05-02T15:52:24.811Z</time></trkpt><trkpt lat="45.7968832" lon="9.7926307"><ele>1009.0</ele><time>2026-05-02T15:52:25.73Z</time></trkpt><trkpt lat="45.7969485" lon="9.7925424"><ele>1005.8000000000001</ele><time>2026-05-02T15:52:26.708Z</time></trkpt><trkpt lat="45.797011" lon="9.792449"><ele>1002.6000000000001</ele><time>2026-05-02T15:52:27.718Z</time></trkpt><trkpt lat="45.7970689" lon="9.7923583"><ele>999.4</ele><time>2026-05-02T15:52:28.697Z</time></trkpt><trkpt lat="45.7971342" lon="9.7922657"><ele>996.2</ele><time>2026-05-02T15:52:29.709Z</time></trkpt><trkpt lat="45.7971938" lon="9.792183"><ele>993.0</ele><time>2026-05-02T15:52:30.683Z</time></trkpt><trkpt lat="45.7972861" lon="9.7920777"><ele>993.0</ele><time>2026-05-02T15:52:31.811Z</time></trkpt><trkpt lat="45.7973934" lon="9.7919959"><ele>993.0</ele><time>2026-05-02T15:52:32.767Z</time></trkpt><trkpt lat="45.7975008" lon="9.7919362"><ele>993.0</ele><time>2026-05-02T15:52:33.682Z</time></trkpt><trkpt lat="45.7976209" lon="9.7918702"><ele>993.0</ele><time>2026-05-02T15:52:34.68Z</time></trkpt><trkpt lat="45.7977468" lon="9.7918121"><ele>992.0</ele><time>2026-05-02T15:52:35.798Z</time></trkpt><trkpt lat="45.7979185" lon="9.7917344"><ele>991.0</ele><time>2026-05-02T15:52:37.706Z</time></trkpt><trkpt lat="45.7980086" lon="9.7917373"><ele>990.0</ele><time>2026-05-02T15:52:38.797Z</time></trkpt><trkpt lat="45.79808" lon="9.7917937"><ele>989.0</ele><time>2026-05-02T15:52:39.711Z</time></trkpt><trkpt lat="45.7981467" lon="9.7919126"><ele>989.0</ele><time>2026-05-02T15:52:40.829Z</time></trkpt><trkpt lat="45.7982122" lon="9.792072"><ele>989.0</ele><time>2026-05-02T15:52:42.048Z</time></trkpt><trkpt lat="45.7983242" lon="9.7922243"><ele>989.0</ele><time>2026-05-02T15:52:43.723Z</time></trkpt><trkpt lat="45.7984033" lon="9.7922849"><ele>989.0</ele><time>2026-05-02T15:52:44.706Z</time></trkpt><trkpt lat="45.7984665" lon="9.792372"><ele>989.0</ele><time>2026-05-02T15:52:45.709Z</time></trkpt><trkpt lat="45.798492" lon="9.7924976"><ele>989.0000000000001</ele><time>2026-05-02T15:52:46.682Z</time></trkpt><trkpt lat="45.7985253" lon="9.7926215"><ele>989.0000000000001</ele><time>2026-05-02T15:52:47.701Z</time></trkpt><trkpt lat="45.7985806" lon="9.7927377"><ele>989.0</ele><time>2026-05-02T15:52:48.711Z</time></trkpt><trkpt lat="45.7986532" lon="9.7928538"><ele>989.0</ele><time>2026-05-02T15:52:49.718Z</time></trkpt><trkpt lat="45.7987199" lon="9.7929972"><ele>991.6666666666667</ele><time>2026-05-02T15:52:50.687Z</time></trkpt><trkpt lat="45.7988179" lon="9.7931825"><ele>994.3333333333333</ele><time>2026-05-02T15:52:51.838Z</time></trkpt><trkpt lat="45.798986" lon="9.793452"><ele>997.0</ele><time>2026-05-02T15:52:53.704Z</time></trkpt><trkpt lat="45.7990482" lon="9.7936207"><ele>987.6666666666666</ele><time>2026-05-02T15:52:54.7Z</time></trkpt><trkpt lat="45.7991139" lon="9.7938082"><ele>978.3333333333333</ele><time>2026-05-02T15:52:55.707Z</time></trkpt><trkpt lat="45.7991953" lon="9.7940072"><ele>969.0</ele><time>2026-05-02T15:52:56.702Z</time></trkpt><trkpt lat="45.7992782" lon="9.7941991"><ele>971.0</ele><time>2026-05-02T15:52:57.717Z</time></trkpt><trkpt lat="45.7993543" lon="9.7943902"><ele>973.0</ele><time>2026-05-02T15:52:58.707Z</time></trkpt><trkpt lat="45.7994396" lon="9.7945678"><ele>975.0</ele><time>2026-05-02T15:52:59.722Z</time></trkpt><trkpt lat="45.7995217" lon="9.7947405"><ele>977.0</ele><time>2026-05-02T15:53:00.701Z</time></trkpt><trkpt lat="45.7995965" lon="9.7949098"><ele>977.0</ele><time>2026-05-02T15:53:01.701Z</time></trkpt><trkpt lat="45.7996669" lon="9.7950867"><ele>977.0</ele><time>2026-05-02T15:53:02.699Z</time></trkpt><trkpt lat="45.7997375" lon="9.7952614"><ele>977.0</ele><time>2026-05-02T15:53:03.702Z</time></trkpt><trkpt lat="45.7998055" lon="9.7954326"><ele>977.0</ele><time>2026-05-02T15:53:04.729Z</time></trkpt><trkpt lat="45.7998654" lon="9.7955927"><ele>972.2</ele><time>2026-05-02T15:53:05.744Z</time></trkpt><trkpt lat="45.7999209" lon="9.7957339"><ele>967.4000000000001</ele><time>2026-05-02T15:53:06.775Z</time></trkpt><trkpt lat="45.7999712" lon="9.7958457"><ele>962.5999999999999</ele><time>2026-05-02T15:53:07.717Z</time></trkpt><trkpt lat="45.8000425" lon="9.7959665"><ele>957.8</ele><time>2026-05-02T15:53:08.766Z</time></trkpt><trkpt lat="45.8001084" lon="9.7960732"><ele>953.0</ele><time>2026-05-02T15:53:09.722Z</time></trkpt><trkpt lat="45.8001591" lon="9.7962027"><ele>950.75</ele><time>2026-05-02T15:53:10.74Z</time></trkpt><trkpt lat="45.800197" lon="9.7963431"><ele>948.5</ele><time>2026-05-02T15:53:11.735Z</time></trkpt><trkpt lat="45.8002321" lon="9.7965014"><ele>946.25</ele><time>2026-05-02T15:53:12.717Z</time></trkpt><trkpt lat="45.8002738" lon="9.7966639"><ele>944.0</ele><time>2026-05-02T15:53:13.737Z</time></trkpt><trkpt lat="45.8003224" lon="9.7968086"><ele>940.0</ele><time>2026-05-02T15:53:14.728Z</time></trkpt><trkpt lat="45.8003802" lon="9.7969411"><ele>936.0000000000001</ele><time>2026-05-02T15:53:15.721Z</time></trkpt><trkpt lat="45.8004407" lon="9.7970461"><ele>932.0000000000001</ele><time>2026-05-02T15:53:16.722Z</time></trkpt><trkpt lat="45.8004948" lon="9.7971221"><ele>928.0</ele><time>2026-05-02T15:53:17.742Z</time></trkpt><trkpt lat="45.8005154" lon="9.7972536"><ele>924.0</ele><time>2026-05-02T15:53:19.751Z</time></trkpt><trkpt lat="45.8004284" lon="9.7973035"><ele>924.0</ele><time>2026-05-02T15:53:21.71Z</time></trkpt><trkpt lat="45.8003728" lon="9.7972533"><ele>924.0000000000001</ele><time>2026-05-02T15:53:22.714Z</time></trkpt><trkpt lat="45.8003115" lon="9.7971546"><ele>924.0000000000001</ele><time>2026-05-02T15:53:23.703Z</time></trkpt><trkpt lat="45.8002379" lon="9.7970444"><ele>924.0</ele><time>2026-05-02T15:53:24.696Z</time></trkpt><trkpt lat="45.8001455" lon="9.7969102"><ele>924.0</ele><time>2026-05-02T15:53:25.708Z</time></trkpt><trkpt lat="45.8000516" lon="9.7967765"><ele>927.0</ele><time>2026-05-02T15:53:26.711Z</time></trkpt><trkpt lat="45.7999521" lon="9.7966522"><ele>930.0</ele><time>2026-05-02T15:53:27.705Z</time></trkpt><trkpt lat="45.7998487" lon="9.7965364"><ele>933.0</ele><time>2026-05-02T15:53:28.706Z</time></trkpt><trkpt lat="45.7997466" lon="9.7964299"><ele>936.0</ele><time>2026-05-02T15:53:29.689Z</time></trkpt><trkpt lat="45.7996415" lon="9.7963164"><ele>936.0</ele><time>2026-05-02T15:53:30.723Z</time></trkpt><trkpt lat="45.7995461" lon="9.7962087"><ele>936.0</ele><time>2026-05-02T15:53:31.692Z</time></trkpt><trkpt lat="45.7994523" lon="9.7960889"><ele>936.0</ele><time>2026-05-02T15:53:32.692Z</time></trkpt><trkpt lat="45.7993627" lon="9.7959694"><ele>936.0</ele><time>2026-05-02T15:53:33.707Z</time></trkpt><trkpt lat="45.7992849" lon="9.795862"><ele>934.3333333333334</ele><time>2026-05-02T15:53:34.721Z</time></trkpt><trkpt lat="45.7992095" lon="9.7957655"><ele>932.6666666666667</ele><time>2026-05-02T15:53:35.711Z</time></trkpt><trkpt lat="45.7991392" lon="9.7956919"><ele>931.0</ele><time>2026-05-02T15:53:36.701Z</time></trkpt><trkpt lat="45.7990567" lon="9.7956309"><ele>929.3333333333334</ele><time>2026-05-02T15:53:37.775Z</time></trkpt><trkpt lat="45.7989805" lon="9.7956142"><ele>927.6666666666667</ele><time>2026-05-02T15:53:38.724Z</time></trkpt><trkpt lat="45.798907" lon="9.7955983"><ele>926.0</ele><time>2026-05-02T15:53:39.731Z</time></trkpt><trkpt lat="45.7988181" lon="9.7954895"><ele>926.0000000000001</ele><time>2026-05-02T15:53:41.703Z</time></trkpt><trkpt lat="45.7987976" lon="9.795401"><ele>926.0</ele><time>2026-05-02T15:53:42.715Z</time></trkpt><trkpt lat="45.7987196" lon="9.7953469"><ele>926.0</ele><time>2026-05-02T15:53:44.702Z</time></trkpt><trkpt lat="45.7986886" lon="9.7955118"><ele>926.0</ele><time>2026-05-02T15:53:46.708Z</time></trkpt><trkpt lat="45.7986895" lon="9.795629"><ele>926.0000000000001</ele><time>2026-05-02T15:53:47.707Z</time></trkpt><trkpt lat="45.7986832" lon="9.7957412"><ele>926.0</ele><time>2026-05-02T15:53:48.703Z</time></trkpt><trkpt lat="45.79868" lon="9.7958456"><ele>926.0</ele><time>2026-05-02T15:53:49.702Z</time></trkpt><trkpt lat="45.7987033" lon="9.7959424"><ele>925.9999999999999</ele><time>2026-05-02T15:53:50.703Z</time></trkpt><trkpt lat="45.7987535" lon="9.7960475"><ele>925.9999999999999</ele><time>2026-05-02T15:53:51.713Z</time></trkpt><trkpt lat="45.7988206" lon="9.7961403"><ele>926.0</ele><time>2026-05-02T15:53:52.697Z</time></trkpt><trkpt lat="45.7989003" lon="9.7962419"><ele>926.0</ele><time>2026-05-02T15:53:53.692Z</time></trkpt><trkpt lat="45.7989688" lon="9.7963626"><ele>923.4</ele><time>2026-05-02T15:53:54.695Z</time></trkpt><trkpt lat="45.7990262" lon="9.7964962"><ele>920.8</ele><time>2026-05-02T15:53:55.696Z</time></trkpt><trkpt lat="45.7990826" lon="9.7966268"><ele>918.1999999999999</ele><time>2026-05-02T15:53:56.701Z</time></trkpt><trkpt lat="45.7991336" lon="9.7967554"><ele>915.5999999999999</ele><time>2026-05-02T15:53:57.689Z</time></trkpt><trkpt lat="45.799178" lon="9.7968921"><ele>913.0</ele><time>2026-05-02T15:53:58.705Z</time></trkpt><trkpt lat="45.7992121" lon="9.7970508"><ele>910.0</ele><time>2026-05-02T15:53:59.708Z</time></trkpt><trkpt lat="45.7992407" lon="9.7972487"><ele>907.0</ele><time>2026-05-02T15:54:00.699Z</time></trkpt><trkpt lat="45.7992621" lon="9.797475"><ele>904.0</ele><time>2026-05-02T15:54:01.725Z</time></trkpt><trkpt lat="45.799275" lon="9.7976547"><ele>901.0</ele><time>2026-05-02T15:54:02.712Z</time></trkpt><trkpt lat="45.7992894" lon="9.7978023"><ele>899.8333333333333</ele><time>2026-05-02T15:54:03.751Z</time></trkpt><trkpt lat="45.7993001" lon="9.7979113"><ele>898.6666666666666</ele><time>2026-05-02T15:54:04.708Z</time></trkpt><trkpt lat="45.7993122" lon="9.7980338"><ele>897.5</ele><time>2026-05-02T15:54:05.758Z</time></trkpt><trkpt lat="45.7993231" lon="9.7981379"><ele>896.3333333333333</ele><time>2026-05-02T15:54:06.736Z</time></trkpt><trkpt lat="45.799335" lon="9.7982283"><ele>895.1666666666666</ele><time>2026-05-02T15:54:07.704Z</time></trkpt><trkpt lat="45.7993535" lon="9.7983265"><ele>894.0</ele><time>2026-05-02T15:54:08.711Z</time></trkpt><trkpt lat="45.7993884" lon="9.7984288"><ele>895.1666666666666</ele><time>2026-05-02T15:54:09.714Z</time></trkpt><trkpt lat="45.7994116" lon="9.7985276"><ele>896.3333333333333</ele><time>2026-05-02T15:54:10.7Z</time></trkpt><trkpt lat="45.7994193" lon="9.7986358"><ele>897.5</ele><time>2026-05-02T15:54:11.713Z</time></trkpt><trkpt lat="45.7994089" lon="9.7987522"><ele>898.6666666666666</ele><time>2026-05-02T15:54:12.709Z</time></trkpt><trkpt lat="45.7993921" lon="9.7988682"><ele>899.8333333333333</ele><time>2026-05-02T15:54:13.706Z</time></trkpt><trkpt lat="45.7993828" lon="9.7989974"><ele>901.0</ele><time>2026-05-02T15:54:14.713Z</time></trkpt><trkpt lat="45.7993926" lon="9.7991258"><ele>901.0</ele><time>2026-05-02T15:54:15.736Z</time></trkpt><trkpt lat="45.7994151" lon="9.7992431"><ele>900.9999999999999</ele><time>2026-05-02T15:54:16.742Z</time></trkpt><trkpt lat="45.7994663" lon="9.7993507"><ele>900.9999999999999</ele><time>2026-05-02T15:54:17.71Z</time></trkpt><trkpt lat="45.7995446" lon="9.7994866"><ele>901.0</ele><time>2026-05-02T15:54:18.716Z</time></trkpt><trkpt lat="45.7996077" lon="9.7996052"><ele>901.0</ele><time>2026-05-02T15:54:19.729Z</time></trkpt><trkpt lat="45.7996645" lon="9.7997108"><ele>898.4999999999999</ele><time>2026-05-02T15:54:20.723Z</time></trkpt><trkpt lat="45.7997295" lon="9.7998119"><ele>896.0</ele><time>2026-05-02T15:54:21.73Z</time></trkpt><trkpt lat="45.7997887" lon="9.7999134"><ele>893.5</ele><time>2026-05-02T15:54:22.717Z</time></trkpt><trkpt lat="45.7998336" lon="9.8000261"><ele>891.0</ele><time>2026-05-02T15:54:23.706Z</time></trkpt><trkpt lat="45.7998627" lon="9.8001447"><ele>888.4999999999999</ele><time>2026-05-02T15:54:24.713Z</time></trkpt><trkpt lat="45.7998796" lon="9.8002541"><ele>886.0</ele><time>2026-05-02T15:54:25.702Z</time></trkpt><trkpt lat="45.7999006" lon="9.800345"><ele>882.5999999999999</ele><time>2026-05-02T15:54:26.703Z</time></trkpt><trkpt lat="45.799942" lon="9.8004787"><ele>879.1999999999999</ele><time>2026-05-02T15:54:28.704Z</time></trkpt><trkpt lat="45.799925" lon="9.8005708"><ele>875.8000000000001</ele><time>2026-05-02T15:54:30.694Z</time></trkpt><trkpt lat="45.7998473" lon="9.8005812"><ele>872.4000000000001</ele><time>2026-05-02T15:54:32.707Z</time></trkpt><trkpt lat="45.7997715" lon="9.8004853"><ele>869.0</ele><time>2026-05-02T15:54:34.704Z</time></trkpt><trkpt lat="45.7997084" lon="9.8003376"><ele>869.0</ele><time>2026-05-02T15:54:36.73Z</time></trkpt><trkpt lat="45.7996854" lon="9.8002489"><ele>869.0</ele><time>2026-05-02T15:54:37.696Z</time></trkpt><trkpt lat="45.7996564" lon="9.8001588"><ele>869.0</ele><time>2026-05-02T15:54:38.683Z</time></trkpt><trkpt lat="45.7996187" lon="9.8000723"><ele>869.0</ele><time>2026-05-02T15:54:39.711Z</time></trkpt><trkpt lat="45.7995779" lon="9.7999948"><ele>869.0</ele><time>2026-05-02T15:54:40.707Z</time></trkpt><trkpt lat="45.7995291" lon="9.7999177"><ele>869.0</ele><time>2026-05-02T15:54:41.825Z</time></trkpt><trkpt lat="45.7994332" lon="9.7998917"><ele>869.0</ele><time>2026-05-02T15:54:43.731Z</time></trkpt><trkpt lat="45.7993964" lon="9.8000383"><ele>869.0000000000001</ele><time>2026-05-02T15:54:45.714Z</time></trkpt><trkpt lat="45.7994267" lon="9.8001375"><ele>869.0</ele><time>2026-05-02T15:54:46.708Z</time></trkpt><trkpt lat="45.7994648" lon="9.8002441"><ele>869.0</ele><time>2026-05-02T15:54:47.722Z</time></trkpt><trkpt lat="45.7995065" lon="9.8003514"><ele>869.0</ele><time>2026-05-02T15:54:48.724Z</time></trkpt><trkpt lat="45.7995521" lon="9.8004583"><ele>869.0000000000001</ele><time>2026-05-02T15:54:49.713Z</time></trkpt><trkpt lat="45.799599" lon="9.8005589"><ele>869.0</ele><time>2026-05-02T15:54:50.705Z</time></trkpt><trkpt lat="45.7996508" lon="9.8006597"><ele>869.0000000000001</ele><time>2026-05-02T15:54:51.715Z</time></trkpt><trkpt lat="45.7997015" lon="9.8007594"><ele>869.0</ele><time>2026-05-02T15:54:52.714Z</time></trkpt><trkpt lat="45.7997573" lon="9.8008628"><ele>869.0</ele><time>2026-05-02T15:54:53.721Z</time></trkpt><trkpt lat="45.7998109" lon="9.8009705"><ele>869.0</ele><time>2026-05-02T15:54:54.75Z</time></trkpt><trkpt lat="45.7998608" lon="9.8010705"><ele>869.0000000000001</ele><time>2026-05-02T15:54:55.709Z</time></trkpt><trkpt lat="45.7999149" lon="9.8011798"><ele>869.0</ele><time>2026-05-02T15:54:56.721Z</time></trkpt><trkpt lat="45.7999813" lon="9.8013125"><ele>863.8000000000001</ele><time>2026-05-02T15:54:57.922Z</time></trkpt><trkpt lat="45.8000821" lon="9.8014993"><ele>858.6000000000001</ele><time>2026-05-02T15:54:59.717Z</time></trkpt><trkpt lat="45.8001362" lon="9.8015931"><ele>853.4</ele><time>2026-05-02T15:55:00.718Z</time></trkpt><trkpt lat="45.8001877" lon="9.8016795"><ele>848.2</ele><time>2026-05-02T15:55:01.731Z</time></trkpt><trkpt lat="45.8002379" lon="9.8017535"><ele>843.0</ele><time>2026-05-02T15:55:02.709Z</time></trkpt><trkpt lat="45.8002924" lon="9.8018199"><ele>841.5999999999999</ele><time>2026-05-02T15:55:03.694Z</time></trkpt><trkpt lat="45.8003475" lon="9.8018762"><ele>840.1999999999999</ele><time>2026-05-02T15:55:04.706Z</time></trkpt><trkpt lat="45.8004504" lon="9.8019442"><ele>838.8</ele><time>2026-05-02T15:55:06.704Z</time></trkpt><trkpt lat="45.800553" lon="9.8019295"><ele>837.4</ele><time>2026-05-02T15:55:08.704Z</time></trkpt><trkpt lat="45.8006429" lon="9.8018182"><ele>836.0</ele><time>2026-05-02T15:55:10.695Z</time></trkpt><trkpt lat="45.8006819" lon="9.8017261"><ele>836.0</ele><time>2026-05-02T15:55:11.725Z</time></trkpt><trkpt lat="45.8007256" lon="9.8016146"><ele>836.0</ele><time>2026-05-02T15:55:12.715Z</time></trkpt><trkpt lat="45.8007715" lon="9.8014922"><ele>836.0</ele><time>2026-05-02T15:55:13.735Z</time></trkpt><trkpt lat="45.8008182" lon="9.8013747"><ele>836.0</ele><time>2026-05-02T15:55:14.705Z</time></trkpt><trkpt lat="45.8008621" lon="9.8012515"><ele>836.0</ele><time>2026-05-02T15:55:15.697Z</time></trkpt><trkpt lat="45.80091" lon="9.8011205"><ele>839.8</ele><time>2026-05-02T15:55:16.708Z</time></trkpt><trkpt lat="45.8009589" lon="9.8009824"><ele>843.5999999999999</ele><time>2026-05-02T15:55:17.718Z</time></trkpt><trkpt lat="45.8009958" lon="9.8008325"><ele>847.4</ele><time>2026-05-02T15:55:18.703Z</time></trkpt><trkpt lat="45.801031" lon="9.8006783"><ele>851.2</ele><time>2026-05-02T15:55:19.702Z</time></trkpt><trkpt lat="45.8010642" lon="9.8005276"><ele>855.0</ele><time>2026-05-02T15:55:20.713Z</time></trkpt><trkpt lat="45.8011012" lon="9.8003699"><ele>846.5</ele><time>2026-05-02T15:55:21.71Z</time></trkpt><trkpt lat="45.8011537" lon="9.8001965"><ele>838.0</ele><time>2026-05-02T15:55:22.703Z</time></trkpt><trkpt lat="45.8012103" lon="9.8000426"><ele>829.5</ele><time>2026-05-02T15:55:23.71Z</time></trkpt><trkpt lat="45.8012629" lon="9.7998855"><ele>821.0</ele><time>2026-05-02T15:55:24.83Z</time></trkpt><trkpt lat="45.8013054" lon="9.7997519"><ele>821.0</ele><time>2026-05-02T15:55:25.835Z</time></trkpt><trkpt lat="45.8013805" lon="9.7995249"><ele>821.0</ele><time>2026-05-02T15:55:27.722Z</time></trkpt><trkpt lat="45.8014215" lon="9.7994155"><ele>821.0</ele><time>2026-05-02T15:55:28.685Z</time></trkpt><trkpt lat="45.8014616" lon="9.7993051"><ele>821.0</ele><time>2026-05-02T15:55:29.682Z</time></trkpt><trkpt lat="45.8015042" lon="9.7991889"><ele>821.0</ele><time>2026-05-02T15:55:30.711Z</time></trkpt><trkpt lat="45.8015416" lon="9.799067"><ele>825.4</ele><time>2026-05-02T15:55:31.796Z</time></trkpt><trkpt lat="45.8015915" lon="9.7988757"><ele>829.8</ele><time>2026-05-02T15:55:33.717Z</time></trkpt><trkpt lat="45.80169" lon="9.7988462"><ele>834.1999999999999</ele><time>2026-05-02T15:55:35.668Z</time></trkpt><trkpt lat="45.8017457" lon="9.7990038"><ele>838.5999999999999</ele><time>2026-05-02T15:55:37.677Z</time></trkpt><trkpt lat="45.8017671" lon="9.7991139"><ele>843.0</ele><time>2026-05-02T15:55:38.665Z</time></trkpt><trkpt lat="45.8017847" lon="9.7992292"><ele>842.1428571428571</ele><time>2026-05-02T15:55:39.686Z</time></trkpt><trkpt lat="45.801804" lon="9.7993383"><ele>841.2857142857142</ele><time>2026-05-02T15:55:40.705Z</time></trkpt><trkpt lat="45.8018261" lon="9.7994307"><ele>840.4285714285714</ele><time>2026-05-02T15:55:41.66Z</time></trkpt><trkpt lat="45.8018528" lon="9.7995278"><ele>839.5714285714286</ele><time>2026-05-02T15:55:42.669Z</time></trkpt><trkpt lat="45.8018797" lon="9.7996101"><ele>838.7142857142858</ele><time>2026-05-02T15:55:43.694Z</time></trkpt><trkpt lat="45.8019169" lon="9.7996997"><ele>837.8571428571429</ele><time>2026-05-02T15:55:44.705Z</time></trkpt><trkpt lat="45.8019607" lon="9.799784"><ele>837.0</ele><time>2026-05-02T15:55:45.681Z</time></trkpt><trkpt lat="45.8020268" lon="9.7998682"><ele>837.0</ele><time>2026-05-02T15:55:46.718Z</time></trkpt><trkpt lat="45.8021025" lon="9.7999442"><ele>837.0</ele><time>2026-05-02T15:55:47.697Z</time></trkpt><trkpt lat="45.8021861" lon="9.8000164"><ele>837.0</ele><time>2026-05-02T15:55:48.698Z</time></trkpt><trkpt lat="45.8022681" lon="9.8000972"><ele>837.0</ele><time>2026-05-02T15:55:49.719Z</time></trkpt><trkpt lat="45.8023292" lon="9.8001834"><ele>837.0</ele><time>2026-05-02T15:55:50.677Z</time></trkpt><trkpt lat="45.802389" lon="9.8002945"><ele>838.2</ele><time>2026-05-02T15:55:51.71Z</time></trkpt><trkpt lat="45.8024505" lon="9.8003874"><ele>839.4000000000001</ele><time>2026-05-02T15:55:52.696Z</time></trkpt><trkpt lat="45.802515" lon="9.8004729"><ele>840.5999999999999</ele><time>2026-05-02T15:55:53.68Z</time></trkpt><trkpt lat="45.8025768" lon="9.8005648"><ele>841.8</ele><time>2026-05-02T15:55:54.694Z</time></trkpt><trkpt lat="45.8026396" lon="9.8006717"><ele>843.0</ele><time>2026-05-02T15:55:55.73Z</time></trkpt><trkpt lat="45.8026969" lon="9.8007918"><ele>843.0</ele><time>2026-05-02T15:55:56.71Z</time></trkpt><trkpt lat="45.8027625" lon="9.8009359"><ele>843.0</ele><time>2026-05-02T15:55:57.801Z</time></trkpt><trkpt lat="45.8028657" lon="9.8011778"><ele>843.0</ele><time>2026-05-02T15:55:59.72Z</time></trkpt><trkpt lat="45.8029194" lon="9.8013103"><ele>843.0</ele><time>2026-05-02T15:56:00.705Z</time></trkpt><trkpt lat="45.8029733" lon="9.8014491"><ele>837.5999999999999</ele><time>2026-05-02T15:56:01.7Z</time></trkpt><trkpt lat="45.8030304" lon="9.8015961"><ele>832.1999999999999</ele><time>2026-05-02T15:56:02.72Z</time></trkpt><trkpt lat="45.8030867" lon="9.8017384"><ele>826.8</ele><time>2026-05-02T15:56:03.709Z</time></trkpt><trkpt lat="45.8031432" lon="9.8018755"><ele>821.4</ele><time>2026-05-02T15:56:04.727Z</time></trkpt><trkpt lat="45.803198" lon="9.8020048"><ele>816.0</ele><time>2026-05-02T15:56:05.696Z</time></trkpt><trkpt lat="45.8032521" lon="9.8021302"><ele>813.0</ele><time>2026-05-02T15:56:06.728Z</time></trkpt><trkpt lat="45.803303" lon="9.8022482"><ele>810.0</ele><time>2026-05-02T15:56:07.685Z</time></trkpt><trkpt lat="45.8033558" lon="9.8023758"><ele>807.0</ele><time>2026-05-02T15:56:08.736Z</time></trkpt><trkpt lat="45.803405" lon="9.8024861"><ele>804.0</ele><time>2026-05-02T15:56:09.697Z</time></trkpt><trkpt lat="45.8034529" lon="9.8026026"><ele>801.0</ele><time>2026-05-02T15:56:10.701Z</time></trkpt><trkpt lat="45.8034993" lon="9.8027187"><ele>801.0</ele><time>2026-05-02T15:56:11.709Z</time></trkpt><trkpt lat="45.8035429" lon="9.8028269"><ele>801.0</ele><time>2026-05-02T15:56:12.682Z</time></trkpt><trkpt lat="45.8035893" lon="9.8029387"><ele>801.0</ele><time>2026-05-02T15:56:13.709Z</time></trkpt><trkpt lat="45.8036353" lon="9.8030448"><ele>801.0</ele><time>2026-05-02T15:56:14.706Z</time></trkpt><trkpt lat="45.8036868" lon="9.803142"><ele>801.0</ele><time>2026-05-02T15:56:15.71Z</time></trkpt><trkpt lat="45.8037576" lon="9.8032431"><ele>801.0</ele><time>2026-05-02T15:56:16.758Z</time></trkpt><trkpt lat="45.8038358" lon="9.8033343"><ele>801.0</ele><time>2026-05-02T15:56:17.72Z</time></trkpt><trkpt lat="45.80391" lon="9.8034335"><ele>801.0</ele><time>2026-05-02T15:56:18.703Z</time></trkpt><trkpt lat="45.8039755" lon="9.8035393"><ele>801.0</ele><time>2026-05-02T15:56:19.695Z</time></trkpt><trkpt lat="45.8040331" lon="9.8036209"><ele>801.0</ele><time>2026-05-02T15:56:20.688Z</time></trkpt><trkpt lat="45.8040965" lon="9.8036719"><ele>801.0</ele><time>2026-05-02T15:56:21.711Z</time></trkpt><trkpt lat="45.8041665" lon="9.8036712"><ele>801.0</ele><time>2026-05-02T15:56:22.715Z</time></trkpt><trkpt lat="45.8042399" lon="9.8036503"><ele>801.0</ele><time>2026-05-02T15:56:23.708Z</time></trkpt><trkpt lat="45.8043284" lon="9.8036164"><ele>801.0</ele><time>2026-05-02T15:56:24.712Z</time></trkpt><trkpt lat="45.8044088" lon="9.803582"><ele>801.0</ele><time>2026-05-02T15:56:25.74Z</time></trkpt><trkpt lat="45.8044758" lon="9.8035644"><ele>801.0</ele><time>2026-05-02T15:56:27.707Z</time></trkpt><trkpt lat="45.8045781" lon="9.8034948"><ele>801.0</ele><time>2026-05-02T15:56:34.72Z</time></trkpt><trkpt lat="45.8046497" lon="9.8034296"><ele>801.0</ele><time>2026-05-02T15:56:49.703Z</time></trkpt><trkpt lat="45.8047345" lon="9.8033336"><ele>801.0</ele><time>2026-05-02T15:56:51.704Z</time></trkpt><trkpt lat="45.8048188" lon="9.8032159"><ele>801.0</ele><time>2026-05-02T15:56:53.74Z</time></trkpt><trkpt lat="45.8048785" lon="9.8031225"><ele>801.0</ele><time>2026-05-02T15:56:55.721Z</time></trkpt><trkpt lat="45.8049521" lon="9.8031148"><ele>801.0</ele><time>2026-05-02T15:56:57.714Z</time></trkpt><trkpt lat="45.8050001" lon="9.8032421"><ele>801.0</ele><time>2026-05-02T15:56:59.7Z</time></trkpt><trkpt lat="45.8050162" lon="9.8033656"><ele>801.0</ele><time>2026-05-02T15:57:00.682Z</time></trkpt><trkpt lat="45.8050363" lon="9.8034973"><ele>801.0</ele><time>2026-05-02T15:57:01.683Z</time></trkpt><trkpt lat="45.805062" lon="9.8036225"><ele>801.0</ele><time>2026-05-02T15:57:02.662Z</time></trkpt><trkpt lat="45.8050907" lon="9.8037463"><ele>797.1999999999999</ele><time>2026-05-02T15:57:03.698Z</time></trkpt><trkpt lat="45.8051206" lon="9.8038617"><ele>793.4</ele><time>2026-05-02T15:57:04.692Z</time></trkpt><trkpt lat="45.805147" lon="9.8039765"><ele>789.6</ele><time>2026-05-02T15:57:05.664Z</time></trkpt><trkpt lat="45.805168" lon="9.804128"><ele>785.8</ele><time>2026-05-02T15:57:06.788Z</time></trkpt><trkpt lat="45.8051558" lon="9.8042704"><ele>782.0</ele><time>2026-05-02T15:57:07.707Z</time></trkpt><trkpt lat="45.8051466" lon="9.8043916"><ele>780.1666666666667</ele><time>2026-05-02T15:57:08.664Z</time></trkpt><trkpt lat="45.8051351" lon="9.8045104"><ele>778.3333333333334</ele><time>2026-05-02T15:57:09.698Z</time></trkpt><trkpt lat="45.8051293" lon="9.8046262"><ele>776.5</ele><time>2026-05-02T15:57:10.682Z</time></trkpt><trkpt lat="45.8051209" lon="9.8047353"><ele>774.6666666666667</ele><time>2026-05-02T15:57:11.707Z</time></trkpt><trkpt lat="45.8051212" lon="9.8048327"><ele>772.8333333333334</ele><time>2026-05-02T15:57:12.67Z</time></trkpt><trkpt lat="45.8051375" lon="9.8049368"><ele>771.0</ele><time>2026-05-02T15:57:13.678Z</time></trkpt><trkpt lat="45.8051607" lon="9.8050274"><ele>775.7142857142858</ele><time>2026-05-02T15:57:14.702Z</time></trkpt><trkpt lat="45.8051857" lon="9.805113"><ele>780.4285714285713</ele><time>2026-05-02T15:57:15.709Z</time></trkpt><trkpt lat="45.805225" lon="9.8051957"><ele>785.1428571428571</ele><time>2026-05-02T15:57:16.694Z</time></trkpt><trkpt lat="45.8052717" lon="9.8052601"><ele>789.8571428571429</ele><time>2026-05-02T15:57:17.69Z</time></trkpt><trkpt lat="45.8053293" lon="9.8053128"><ele>794.5714285714287</ele><time>2026-05-02T15:57:18.713Z</time></trkpt><trkpt lat="45.8053694" lon="9.8053826"><ele>799.2857142857142</ele><time>2026-05-02T15:57:19.698Z</time></trkpt><trkpt lat="45.8053608" lon="9.8055501"><ele>804.0</ele><time>2026-05-02T15:57:21.687Z</time></trkpt><trkpt lat="45.8053271" lon="9.8056384"><ele>804.0</ele><time>2026-05-02T15:57:22.726Z</time></trkpt><trkpt lat="45.8053096" lon="9.8057298"><ele>804.0</ele><time>2026-05-02T15:57:23.702Z</time></trkpt><trkpt lat="45.8053163" lon="9.8058308"><ele>804.0</ele><time>2026-05-02T15:57:24.694Z</time></trkpt><trkpt lat="45.8053325" lon="9.8059345"><ele>804.0</ele><time>2026-05-02T15:57:25.663Z</time></trkpt><trkpt lat="45.8053552" lon="9.8060501"><ele>804.0</ele><time>2026-05-02T15:57:26.676Z</time></trkpt><trkpt lat="45.8053807" lon="9.8061599"><ele>804.0</ele><time>2026-05-02T15:57:27.708Z</time></trkpt><trkpt lat="45.8054137" lon="9.8062608"><ele>801.1666666666666</ele><time>2026-05-02T15:57:28.696Z</time></trkpt><trkpt lat="45.805449" lon="9.8063709"><ele>798.3333333333333</ele><time>2026-05-02T15:57:29.728Z</time></trkpt><trkpt lat="45.8054998" lon="9.8064835"><ele>795.5</ele><time>2026-05-02T15:57:30.694Z</time></trkpt><trkpt lat="45.8055606" lon="9.806586"><ele>792.6666666666666</ele><time>2026-05-02T15:57:31.685Z</time></trkpt><trkpt lat="45.8055979" lon="9.8066801"><ele>789.8333333333333</ele><time>2026-05-02T15:57:32.707Z</time></trkpt><trkpt lat="45.8056068" lon="9.8067787"><ele>787.0</ele><time>2026-05-02T15:57:33.698Z</time></trkpt><trkpt lat="45.8056001" lon="9.806892"><ele>784.8333333333333</ele><time>2026-05-02T15:57:34.694Z</time></trkpt><trkpt lat="45.8056102" lon="9.8070278"><ele>782.6666666666666</ele><time>2026-05-02T15:57:35.726Z</time></trkpt><trkpt lat="45.8056398" lon="9.8071392"><ele>780.5</ele><time>2026-05-02T15:57:36.671Z</time></trkpt><trkpt lat="45.8056859" lon="9.8072364"><ele>778.3333333333333</ele><time>2026-05-02T15:57:37.736Z</time></trkpt><trkpt lat="45.8057212" lon="9.8073271"><ele>776.1666666666666</ele><time>2026-05-02T15:57:38.708Z</time></trkpt><trkpt lat="45.8057298" lon="9.8074387"><ele>774.0</ele><time>2026-05-02T15:57:39.701Z</time></trkpt><trkpt lat="45.8057138" lon="9.8075723"><ele>772.8000000000001</ele><time>2026-05-02T15:57:40.685Z</time></trkpt><trkpt lat="45.8056883" lon="9.807718"><ele>771.6</ele><time>2026-05-02T15:57:41.683Z</time></trkpt><trkpt lat="45.8056821" lon="9.8078555"><ele>770.4</ele><time>2026-05-02T15:57:42.678Z</time></trkpt><trkpt lat="45.80568" lon="9.8079847"><ele>769.2</ele><time>2026-05-02T15:57:43.701Z</time></trkpt><trkpt lat="45.8056775" lon="9.8081142"><ele>768.0</ele><time>2026-05-02T15:57:44.718Z</time></trkpt><trkpt lat="45.8056704" lon="9.8082269"><ele>768.0</ele><time>2026-05-02T15:57:45.697Z</time></trkpt><trkpt lat="45.805669" lon="9.8083428"><ele>768.0</ele><time>2026-05-02T15:57:46.711Z</time></trkpt><trkpt lat="45.8056689" lon="9.8084542"><ele>768.0</ele><time>2026-05-02T15:57:47.705Z</time></trkpt><trkpt lat="45.8056637" lon="9.8085797"><ele>768.0</ele><time>2026-05-02T15:57:48.822Z</time></trkpt><trkpt lat="45.8056824" lon="9.8088058"><ele>768.0</ele><time>2026-05-02T15:57:50.698Z</time></trkpt><trkpt lat="45.8057021" lon="9.8089301"><ele>767.0</ele><time>2026-05-02T15:57:51.703Z</time></trkpt><trkpt lat="45.8057166" lon="9.8090646"><ele>766.0</ele><time>2026-05-02T15:57:52.821Z</time></trkpt><trkpt lat="45.8056691" lon="9.8093281"><ele>765.0</ele><time>2026-05-02T15:57:54.708Z</time></trkpt><trkpt lat="45.8056385" lon="9.8094768"><ele>764.0</ele><time>2026-05-02T15:57:55.713Z</time></trkpt><trkpt lat="45.805623" lon="9.8095902"><ele>763.3333333333333</ele><time>2026-05-02T15:57:56.69Z</time></trkpt><trkpt lat="45.8056179" lon="9.8097025"><ele>762.6666666666666</ele><time>2026-05-02T15:57:57.694Z</time></trkpt><trkpt lat="45.8056162" lon="9.8098172"><ele>762.0</ele><time>2026-05-02T15:57:58.702Z</time></trkpt><trkpt lat="45.8056229" lon="9.8099311"><ele>761.3333333333334</ele><time>2026-05-02T15:57:59.694Z</time></trkpt><trkpt lat="45.8056369" lon="9.8100573"><ele>760.6666666666667</ele><time>2026-05-02T15:58:00.7Z</time></trkpt><trkpt lat="45.8056519" lon="9.8101838"><ele>760.0</ele><time>2026-05-02T15:58:01.687Z</time></trkpt><trkpt lat="45.8056706" lon="9.8103163"><ele>758.0</ele><time>2026-05-02T15:58:02.681Z</time></trkpt><trkpt lat="45.8056917" lon="9.8104642"><ele>756.0</ele><time>2026-05-02T15:58:03.701Z</time></trkpt><trkpt lat="45.8057169" lon="9.8106082"><ele>754.0</ele><time>2026-05-02T15:58:04.693Z</time></trkpt><trkpt lat="45.805738" lon="9.8107468"><ele>752.0</ele><time>2026-05-02T15:58:05.696Z</time></trkpt><trkpt lat="45.805764" lon="9.8108741"><ele>750.0</ele><time>2026-05-02T15:58:06.684Z</time></trkpt><trkpt lat="45.8057889" lon="9.8110004"><ele>748.6</ele><time>2026-05-02T15:58:07.699Z</time></trkpt><trkpt lat="45.8058192" lon="9.8111351"><ele>747.2</ele><time>2026-05-02T15:58:08.721Z</time></trkpt><trkpt lat="45.8058548" lon="9.8112576"><ele>745.8</ele><time>2026-05-02T15:58:09.703Z</time></trkpt><trkpt lat="45.8058872" lon="9.8113706"><ele>744.4</ele><time>2026-05-02T15:58:10.704Z</time></trkpt><trkpt lat="45.8059101" lon="9.8114951"><ele>743.0</ele><time>2026-05-02T15:58:11.703Z</time></trkpt><trkpt lat="45.8059146" lon="9.8116271"><ele>743.0</ele><time>2026-05-02T15:58:12.726Z</time></trkpt><trkpt lat="45.8059039" lon="9.8117576"><ele>743.0</ele><time>2026-05-02T15:58:13.704Z</time></trkpt><trkpt lat="45.805881" lon="9.8118935"><ele>743.0</ele><time>2026-05-02T15:58:14.691Z</time></trkpt><trkpt lat="45.8058386" lon="9.8120346"><ele>743.0</ele><time>2026-05-02T15:58:15.709Z</time></trkpt><trkpt lat="45.8057864" lon="9.8121818"><ele>743.0</ele><time>2026-05-02T15:58:16.68Z</time></trkpt><trkpt lat="45.8057186" lon="9.8123269"><ele>743.0</ele><time>2026-05-02T15:58:17.723Z</time></trkpt><trkpt lat="45.8056365" lon="9.8124267"><ele>743.0</ele><time>2026-05-02T15:58:18.721Z</time></trkpt><trkpt lat="45.8055658" lon="9.8125353"><ele>743.0</ele><time>2026-05-02T15:58:19.701Z</time></trkpt><trkpt lat="45.8055145" lon="9.8126543"><ele>743.0</ele><time>2026-05-02T15:58:20.685Z</time></trkpt><trkpt lat="45.8054738" lon="9.8127851"><ele>743.0</ele><time>2026-05-02T15:58:21.692Z</time></trkpt><trkpt lat="45.8054409" lon="9.812927"><ele>743.0</ele><time>2026-05-02T15:58:22.706Z</time></trkpt><trkpt lat="45.8054163" lon="9.8130777"><ele>743.0</ele><time>2026-05-02T15:58:23.695Z</time></trkpt><trkpt lat="45.8053964" lon="9.8132246"><ele>743.0</ele><time>2026-05-02T15:58:24.699Z</time></trkpt><trkpt lat="45.8053902" lon="9.8133655"><ele>743.0</ele><time>2026-05-02T15:58:25.703Z</time></trkpt><trkpt lat="45.8053908" lon="9.8134978"><ele>743.0</ele><time>2026-05-02T15:58:26.706Z</time></trkpt><trkpt lat="45.8054005" lon="9.8136244"><ele>741.2</ele><time>2026-05-02T15:58:27.699Z</time></trkpt><trkpt lat="45.8054281" lon="9.8137378"><ele>739.4</ele><time>2026-05-02T15:58:28.722Z</time></trkpt><trkpt lat="45.8054815" lon="9.813856"><ele>737.6</ele><time>2026-05-02T15:58:29.751Z</time></trkpt><trkpt lat="45.8055619" lon="9.8139652"><ele>735.8000000000001</ele><time>2026-05-02T15:58:30.718Z</time></trkpt><trkpt lat="45.805647" lon="9.8140794"><ele>734.0</ele><time>2026-05-02T15:58:31.741Z</time></trkpt><trkpt lat="45.8057032" lon="9.8141918"><ele>734.0</ele><time>2026-05-02T15:58:32.719Z</time></trkpt><trkpt lat="45.805744" lon="9.814318"><ele>734.0</ele><time>2026-05-02T15:58:33.733Z</time></trkpt><trkpt lat="45.8057627" lon="9.814442"><ele>734.0</ele><time>2026-05-02T15:58:34.722Z</time></trkpt><trkpt lat="45.8057833" lon="9.8145583"><ele>734.0</ele><time>2026-05-02T15:58:35.713Z</time></trkpt><trkpt lat="45.8058189" lon="9.8146657"><ele>734.0</ele><time>2026-05-02T15:58:36.701Z</time></trkpt><trkpt lat="45.8058714" lon="9.8147627"><ele>734.0</ele><time>2026-05-02T15:58:37.723Z</time></trkpt><trkpt lat="45.8059395" lon="9.8148479"><ele>734.4000000000001</ele><time>2026-05-02T15:58:38.733Z</time></trkpt><trkpt lat="45.8060176" lon="9.8149147"><ele>734.8</ele><time>2026-05-02T15:58:39.723Z</time></trkpt><trkpt lat="45.8060932" lon="9.8149869"><ele>735.2</ele><time>2026-05-02T15:58:40.718Z</time></trkpt><trkpt lat="45.8061648" lon="9.8150745"><ele>735.5999999999999</ele><time>2026-05-02T15:58:41.738Z</time></trkpt><trkpt lat="45.8062309" lon="9.8151598"><ele>736.0</ele><time>2026-05-02T15:58:42.813Z</time></trkpt><trkpt lat="45.8063388" lon="9.8153094"><ele>734.0</ele><time>2026-05-02T15:58:44.709Z</time></trkpt><trkpt lat="45.8063952" lon="9.8153842"><ele>732.0</ele><time>2026-05-02T15:58:45.742Z</time></trkpt><trkpt lat="45.8064493" lon="9.8154545"><ele>730.0</ele><time>2026-05-02T15:58:46.83Z</time></trkpt><trkpt lat="45.8064944" lon="9.8155195"><ele>728.0</ele><time>2026-05-02T15:58:47.738Z</time></trkpt><trkpt lat="45.8065515" lon="9.8156029"><ele>726.0</ele><time>2026-05-02T15:58:48.756Z</time></trkpt><trkpt lat="45.8065833" lon="9.8156889"><ele>724.0</ele><time>2026-05-02T15:58:49.715Z</time></trkpt><trkpt lat="45.8065859" lon="9.8157991"><ele>722.0</ele><time>2026-05-02T15:58:50.733Z</time></trkpt><trkpt lat="45.8065667" lon="9.815926"><ele>721.1666666666666</ele><time>2026-05-02T15:58:51.731Z</time></trkpt><trkpt lat="45.8065532" lon="9.8160455"><ele>720.3333333333333</ele><time>2026-05-02T15:58:52.74Z</time></trkpt><trkpt lat="45.8065476" lon="9.8161571"><ele>719.5</ele><time>2026-05-02T15:58:53.718Z</time></trkpt><trkpt lat="45.8065514" lon="9.8162863"><ele>718.6666666666666</ele><time>2026-05-02T15:58:54.732Z</time></trkpt><trkpt lat="45.8065695" lon="9.8164154"><ele>717.8333333333334</ele><time>2026-05-02T15:58:55.719Z</time></trkpt><trkpt lat="45.8065942" lon="9.8165436"><ele>717.0</ele><time>2026-05-02T15:58:56.71Z</time></trkpt><trkpt lat="45.8066216" lon="9.8166843"><ele>716.4000000000001</ele><time>2026-05-02T15:58:57.715Z</time></trkpt><trkpt lat="45.806638" lon="9.8168357"><ele>715.8000000000001</ele><time>2026-05-02T15:58:58.708Z</time></trkpt><trkpt lat="45.8066456" lon="9.8169928"><ele>715.2</ele><time>2026-05-02T15:58:59.729Z</time></trkpt><trkpt lat="45.8066441" lon="9.8171304"><ele>714.6</ele><time>2026-05-02T15:59:00.709Z</time></trkpt><trkpt lat="45.806634" lon="9.8172666"><ele>714.0</ele><time>2026-05-02T15:59:01.704Z</time></trkpt><trkpt lat="45.8066163" lon="9.8173973"><ele>714.0</ele><time>2026-05-02T15:59:02.709Z</time></trkpt><trkpt lat="45.806589" lon="9.81754"><ele>714.0</ele><time>2026-05-02T15:59:03.724Z</time></trkpt><trkpt lat="45.8065541" lon="9.8176629"><ele>714.0</ele><time>2026-05-02T15:59:04.718Z</time></trkpt><trkpt lat="45.8065139" lon="9.8177727"><ele>714.0</ele><time>2026-05-02T15:59:05.697Z</time></trkpt><trkpt lat="45.8064685" lon="9.8178702"><ele>714.0</ele><time>2026-05-02T15:59:06.683Z</time></trkpt><trkpt lat="45.8064306" lon="9.8179549"><ele>714.0</ele><time>2026-05-02T15:59:07.688Z</time></trkpt><trkpt lat="45.8063719" lon="9.8180871"><ele>714.8333333333334</ele><time>2026-05-02T15:59:09.726Z</time></trkpt><trkpt lat="45.8063233" lon="9.8182453"><ele>715.6666666666666</ele><time>2026-05-02T15:59:11.699Z</time></trkpt><trkpt lat="45.8062919" lon="9.8183274"><ele>716.5</ele><time>2026-05-02T15:59:12.696Z</time></trkpt><trkpt lat="45.806252" lon="9.8184144"><ele>717.3333333333333</ele><time>2026-05-02T15:59:13.705Z</time></trkpt><trkpt lat="45.8062104" lon="9.8185096"><ele>718.1666666666666</ele><time>2026-05-02T15:59:14.711Z</time></trkpt><trkpt lat="45.8061686" lon="9.8186097"><ele>719.0</ele><time>2026-05-02T15:59:15.699Z</time></trkpt><trkpt lat="45.806124" lon="9.8187155"><ele>720.3333333333333</ele><time>2026-05-02T15:59:16.697Z</time></trkpt><trkpt lat="45.8060802" lon="9.8188202"><ele>721.6666666666666</ele><time>2026-05-02T15:59:17.704Z</time></trkpt><trkpt lat="45.8060364" lon="9.818917"><ele>723.0</ele><time>2026-05-02T15:59:18.697Z</time></trkpt><trkpt lat="45.8059875" lon="9.8190075"><ele>724.3333333333334</ele><time>2026-05-02T15:59:19.707Z</time></trkpt><trkpt lat="45.8059357" lon="9.8190822"><ele>725.6666666666667</ele><time>2026-05-02T15:59:20.686Z</time></trkpt><trkpt lat="45.8058645" lon="9.8191667"><ele>727.0</ele><time>2026-05-02T15:59:21.846Z</time></trkpt><trkpt lat="45.8057236" lon="9.8192959"><ele>724.8333333333334</ele><time>2026-05-02T15:59:23.704Z</time></trkpt><trkpt lat="45.8056423" lon="9.8193642"><ele>722.6666666666667</ele><time>2026-05-02T15:59:24.708Z</time></trkpt><trkpt lat="45.8055655" lon="9.8194272"><ele>720.5</ele><time>2026-05-02T15:59:25.682Z</time></trkpt><trkpt lat="45.8054829" lon="9.8194944"><ele>718.3333333333334</ele><time>2026-05-02T15:59:26.737Z</time></trkpt><trkpt lat="45.8054092" lon="9.8195504"><ele>716.1666666666666</ele><time>2026-05-02T15:59:27.729Z</time></trkpt><trkpt lat="45.8053387" lon="9.8196044"><ele>714.0</ele><time>2026-05-02T15:59:28.726Z</time></trkpt><trkpt lat="45.8052726" lon="9.8196641"><ele>714.0</ele><time>2026-05-02T15:59:29.727Z</time></trkpt><trkpt lat="45.8051971" lon="9.8197273"><ele>714.0</ele><time>2026-05-02T15:59:30.727Z</time></trkpt><trkpt lat="45.8051278" lon="9.819796"><ele>714.0</ele><time>2026-05-02T15:59:31.815Z</time></trkpt><trkpt lat="45.8050618" lon="9.8198603"><ele>714.0</ele><time>2026-05-02T15:59:33.762Z</time></trkpt><trkpt lat="45.8050113" lon="9.8199448"><ele>714.0</ele><time>2026-05-02T15:59:46.706Z</time></trkpt><trkpt lat="45.8049437" lon="9.8200778"><ele>714.0</ele><time>2026-05-02T15:59:48.708Z</time></trkpt><trkpt lat="45.8049109" lon="9.8201684"><ele>711.5</ele><time>2026-05-02T15:59:49.736Z</time></trkpt><trkpt lat="45.8048907" lon="9.8202551"><ele>709.0</ele><time>2026-05-02T15:59:50.692Z</time></trkpt><trkpt lat="45.8048677" lon="9.8203413"><ele>706.5</ele><time>2026-05-02T15:59:51.719Z</time></trkpt><trkpt lat="45.8048399" lon="9.8205228"><ele>704.0</ele><time>2026-05-02T15:59:53.759Z</time></trkpt><trkpt lat="45.8048409" lon="9.820619"><ele>701.5</ele><time>2026-05-02T15:59:54.725Z</time></trkpt><trkpt lat="45.8048464" lon="9.8207193"><ele>699.0</ele><time>2026-05-02T15:59:55.733Z</time></trkpt><trkpt lat="45.804851" lon="9.8208119"><ele>699.0</ele><time>2026-05-02T15:59:56.765Z</time></trkpt><trkpt lat="45.8048629" lon="9.8209644"><ele>699.0</ele><time>2026-05-02T15:59:58.728Z</time></trkpt><trkpt lat="45.8048799" lon="9.8211124"><ele>699.0</ele><time>2026-05-02T16:00:00.738Z</time></trkpt><trkpt lat="45.8049133" lon="9.8212268"><ele>699.0</ele><time>2026-05-02T16:00:02.739Z</time></trkpt><trkpt lat="45.8049457" lon="9.8213084"><ele>699.0</ele><time>2026-05-02T16:00:05.735Z</time></trkpt><trkpt lat="45.8049838" lon="9.8213966"><ele>699.0</ele><time>2026-05-02T16:00:07.727Z</time></trkpt><trkpt lat="45.8050214" lon="9.8214791"><ele>698.3333333333334</ele><time>2026-05-02T16:00:09.729Z</time></trkpt><trkpt lat="45.8050739" lon="9.8215761"><ele>697.6666666666666</ele><time>2026-05-02T16:00:11.797Z</time></trkpt><trkpt lat="45.8051365" lon="9.8217193"><ele>697.0</ele><time>2026-05-02T16:00:13.747Z</time></trkpt><trkpt lat="45.8051694" lon="9.821808"><ele>696.3333333333333</ele><time>2026-05-02T16:00:14.74Z</time></trkpt><trkpt lat="45.8052008" lon="9.8219013"><ele>695.6666666666666</ele><time>2026-05-02T16:00:15.729Z</time></trkpt><trkpt lat="45.8052349" lon="9.8219952"><ele>695.0</ele><time>2026-05-02T16:00:16.728Z</time></trkpt><trkpt lat="45.8052699" lon="9.8220879"><ele>695.0</ele><time>2026-05-02T16:00:17.737Z</time></trkpt><trkpt lat="45.8053109" lon="9.8221914"><ele>695.0</ele><time>2026-05-02T16:00:18.839Z</time></trkpt><trkpt lat="45.8053926" lon="9.8223777"><ele>695.0</ele><time>2026-05-02T16:00:20.75Z</time></trkpt><trkpt lat="45.8054353" lon="9.8224727"><ele>695.0</ele><time>2026-05-02T16:00:21.724Z</time></trkpt><trkpt lat="45.8054792" lon="9.8225681"><ele>695.0</ele><time>2026-05-02T16:00:22.738Z</time></trkpt><trkpt lat="45.8055217" lon="9.8226623"><ele>691.8333333333333</ele><time>2026-05-02T16:00:23.763Z</time></trkpt><trkpt lat="45.805562" lon="9.8227492"><ele>688.6666666666666</ele><time>2026-05-02T16:00:24.73Z</time></trkpt><trkpt lat="45.8056013" lon="9.8228328"><ele>685.5</ele><time>2026-05-02T16:00:25.78Z</time></trkpt><trkpt lat="45.8056601" lon="9.8229424"><ele>682.3333333333334</ele><time>2026-05-02T16:00:27.753Z</time></trkpt><trkpt lat="45.8057155" lon="9.8230076"><ele>679.1666666666667</ele><time>2026-05-02T16:00:29.729Z</time></trkpt><trkpt lat="45.8056403" lon="9.8230453"><ele>676.0</ele><time>2026-05-02T16:00:32.775Z</time></trkpt><trkpt lat="45.8055021" lon="9.8228737"><ele>676.0</ele><time>2026-05-02T16:00:35.733Z</time></trkpt><trkpt lat="45.8054461" lon="9.8228061"><ele>676.0</ele><time>2026-05-02T16:00:36.709Z</time></trkpt><trkpt lat="45.8053804" lon="9.8227321"><ele>676.0</ele><time>2026-05-02T16:00:37.726Z</time></trkpt><trkpt lat="45.8053112" lon="9.8226578"><ele>676.0</ele><time>2026-05-02T16:00:38.72Z</time></trkpt><trkpt lat="45.8052335" lon="9.8225814"><ele>676.0</ele><time>2026-05-02T16:00:39.734Z</time></trkpt><trkpt lat="45.80516" lon="9.8225016"><ele>676.0</ele><time>2026-05-02T16:00:40.717Z</time></trkpt><trkpt lat="45.8050862" lon="9.8224257"><ele>675.1666666666667</ele><time>2026-05-02T16:00:41.717Z</time></trkpt><trkpt lat="45.8050125" lon="9.8223515"><ele>674.3333333333334</ele><time>2026-05-02T16:00:42.721Z</time></trkpt><trkpt lat="45.8049421" lon="9.8222794"><ele>673.5</ele><time>2026-05-02T16:00:43.723Z</time></trkpt><trkpt lat="45.8048696" lon="9.8222049"><ele>672.6666666666666</ele><time>2026-05-02T16:00:44.753Z</time></trkpt><trkpt lat="45.8047983" lon="9.8221332"><ele>671.8333333333333</ele><time>2026-05-02T16:00:45.715Z</time></trkpt><trkpt lat="45.804722" lon="9.8220558"><ele>671.0</ele><time>2026-05-02T16:00:46.732Z</time></trkpt><trkpt lat="45.8046487" lon="9.8219791"><ele>671.0</ele><time>2026-05-02T16:00:47.724Z</time></trkpt><trkpt lat="45.8045719" lon="9.8219031"><ele>671.0</ele><time>2026-05-02T16:00:48.729Z</time></trkpt><trkpt lat="45.8045004" lon="9.8218237"><ele>671.0</ele><time>2026-05-02T16:00:49.719Z</time></trkpt><trkpt lat="45.8044317" lon="9.8217404"><ele>671.0</ele><time>2026-05-02T16:00:50.742Z</time></trkpt><trkpt lat="45.8043726" lon="9.8216514"><ele>671.0</ele><time>2026-05-02T16:00:51.731Z</time></trkpt><trkpt lat="45.8043194" lon="9.8215488"><ele>671.0</ele><time>2026-05-02T16:00:52.714Z</time></trkpt><trkpt lat="45.8042663" lon="9.8214319"><ele>670.5999999999999</ele><time>2026-05-02T16:00:53.721Z</time></trkpt><trkpt lat="45.8042122" lon="9.8213123"><ele>670.2</ele><time>2026-05-02T16:00:54.72Z</time></trkpt><trkpt lat="45.8041579" lon="9.8211929"><ele>669.8</ele><time>2026-05-02T16:00:55.75Z</time></trkpt><trkpt lat="45.8041104" lon="9.821085"><ele>669.4000000000001</ele><time>2026-05-02T16:00:56.713Z</time></trkpt><trkpt lat="45.8040618" lon="9.8209728"><ele>669.0</ele><time>2026-05-02T16:00:57.734Z</time></trkpt><trkpt lat="45.8040208" lon="9.8208722"><ele>669.0</ele><time>2026-05-02T16:00:58.705Z</time></trkpt><trkpt lat="45.8039782" lon="9.8207817"><ele>669.0</ele><time>2026-05-02T16:00:59.717Z</time></trkpt><trkpt lat="45.8039247" lon="9.8207246"><ele>669.0</ele><time>2026-05-02T16:01:00.747Z</time></trkpt><trkpt lat="45.8038431" lon="9.8207873"><ele>669.0</ele><time>2026-05-02T16:01:02.757Z</time></trkpt><trkpt lat="45.8038388" lon="9.8209072"><ele>669.0</ele><time>2026-05-02T16:01:04.718Z</time></trkpt><trkpt lat="45.8038899" lon="9.8210626"><ele>669.0</ele><time>2026-05-02T16:01:06.704Z</time></trkpt><trkpt lat="45.8039227" lon="9.8211589"><ele>666.25</ele><time>2026-05-02T16:01:07.728Z</time></trkpt><trkpt lat="45.8039659" lon="9.8212836"><ele>663.5</ele><time>2026-05-02T16:01:08.833Z</time></trkpt><trkpt lat="45.8040337" lon="9.8214966"><ele>660.75</ele><time>2026-05-02T16:01:10.724Z</time></trkpt><trkpt lat="45.8040768" lon="9.8216158"><ele>658.0</ele><time>2026-05-02T16:01:11.75Z</time></trkpt><trkpt lat="45.8041254" lon="9.8217408"><ele>661.25</ele><time>2026-05-02T16:01:12.829Z</time></trkpt><trkpt lat="45.8042181" lon="9.8219557"><ele>664.5</ele><time>2026-05-02T16:01:14.762Z</time></trkpt><trkpt lat="45.8042715" lon="9.822069"><ele>667.75</ele><time>2026-05-02T16:01:15.759Z</time></trkpt><trkpt lat="45.8043294" lon="9.8221758"><ele>671.0</ele><time>2026-05-02T16:01:16.743Z</time></trkpt><trkpt lat="45.8043881" lon="9.8222797"><ele>671.0</ele><time>2026-05-02T16:01:17.705Z</time></trkpt><trkpt lat="45.8044488" lon="9.822387"><ele>671.0</ele><time>2026-05-02T16:01:18.717Z</time></trkpt><trkpt lat="45.804511" lon="9.822498"><ele>671.0</ele><time>2026-05-02T16:01:19.745Z</time></trkpt><trkpt lat="45.8045694" lon="9.8225984"><ele>671.0</ele><time>2026-05-02T16:01:20.73Z</time></trkpt><trkpt lat="45.8046289" lon="9.8226992"><ele>671.0</ele><time>2026-05-02T16:01:21.756Z</time></trkpt><trkpt lat="45.8046857" lon="9.822795"><ele>668.0</ele><time>2026-05-02T16:01:22.743Z</time></trkpt><trkpt lat="45.8047395" lon="9.822887"><ele>665.0</ele><time>2026-05-02T16:01:23.748Z</time></trkpt><trkpt lat="45.8047928" lon="9.8229761"><ele>662.0</ele><time>2026-05-02T16:01:24.738Z</time></trkpt><trkpt lat="45.8048526" lon="9.8230605"><ele>659.0</ele><time>2026-05-02T16:01:25.745Z</time></trkpt><trkpt lat="45.8049114" lon="9.8231396"><ele>656.0</ele><time>2026-05-02T16:01:26.735Z</time></trkpt><trkpt lat="45.8049664" lon="9.8232079"><ele>653.0</ele><time>2026-05-02T16:01:27.747Z</time></trkpt><trkpt lat="45.80504" lon="9.8233031"><ele>653.0</ele><time>2026-05-02T16:01:29.715Z</time></trkpt><trkpt lat="45.8050064" lon="9.8234377"><ele>653.0</ele><time>2026-05-02T16:01:33.725Z</time></trkpt><trkpt lat="45.8049729" lon="9.823521"><ele>653.0</ele><time>2026-05-02T16:01:36.734Z</time></trkpt><trkpt lat="45.8049833" lon="9.8236113"><ele>653.0</ele><time>2026-05-02T16:03:36.73Z</time></trkpt><trkpt lat="45.8050429" lon="9.8236686"><ele>653.0</ele><time>2026-05-02T16:03:39.732Z</time></trkpt><trkpt lat="45.8049961" lon="9.8237459"><ele>653.0</ele><time>2026-05-02T16:03:42.723Z</time></trkpt><trkpt lat="45.8049252" lon="9.8238085"><ele>652.2857142857143</ele><time>2026-05-02T16:03:44.722Z</time></trkpt><trkpt lat="45.804839" lon="9.8238703"><ele>651.5714285714286</ele><time>2026-05-02T16:03:46.695Z</time></trkpt><trkpt lat="45.8047738" lon="9.8239096"><ele>650.8571428571429</ele><time>2026-05-02T16:03:47.739Z</time></trkpt><trkpt lat="45.804719" lon="9.8239542"><ele>650.1428571428571</ele><time>2026-05-02T16:03:48.718Z</time></trkpt><trkpt lat="45.8046669" lon="9.8240214"><ele>649.4285714285714</ele><time>2026-05-02T16:03:49.733Z</time></trkpt><trkpt lat="45.8046299" lon="9.824105"><ele>648.7142857142858</ele><time>2026-05-02T16:03:50.712Z</time></trkpt><trkpt lat="45.804605" lon="9.8242087"><ele>648.0</ele><time>2026-05-02T16:03:51.732Z</time></trkpt><trkpt lat="45.8046008" lon="9.8243156"><ele>646.1666666666666</ele><time>2026-05-02T16:03:52.713Z</time></trkpt><trkpt lat="45.8046121" lon="9.8244189"><ele>644.3333333333334</ele><time>2026-05-02T16:03:53.724Z</time></trkpt><trkpt lat="45.8046375" lon="9.8245182"><ele>642.5</ele><time>2026-05-02T16:03:54.73Z</time></trkpt><trkpt lat="45.8046815" lon="9.824616"><ele>640.6666666666667</ele><time>2026-05-02T16:03:55.722Z</time></trkpt><trkpt lat="45.804742" lon="9.824709"><ele>638.8333333333334</ele><time>2026-05-02T16:03:56.741Z</time></trkpt><trkpt lat="45.8048126" lon="9.8247954"><ele>637.0</ele><time>2026-05-02T16:03:57.747Z</time></trkpt><trkpt lat="45.8048797" lon="9.8248801"><ele>637.0</ele><time>2026-05-02T16:03:58.737Z</time></trkpt><trkpt lat="45.8049437" lon="9.824967"><ele>637.0</ele><time>2026-05-02T16:03:59.713Z</time></trkpt><trkpt lat="45.8050217" lon="9.8250764"><ele>637.0</ele><time>2026-05-02T16:04:00.716Z</time></trkpt><trkpt lat="45.8051173" lon="9.8252187"><ele>637.0</ele><time>2026-05-02T16:04:01.735Z</time></trkpt><trkpt lat="45.805206" lon="9.8253539"><ele>635.5</ele><time>2026-05-02T16:04:02.731Z</time></trkpt><trkpt lat="45.805288" lon="9.8254857"><ele>634.0</ele><time>2026-05-02T16:04:03.719Z</time></trkpt><trkpt lat="45.8053619" lon="9.8256367"><ele>632.5</ele><time>2026-05-02T16:04:04.741Z</time></trkpt><trkpt lat="45.8054202" lon="9.825803"><ele>631.0</ele><time>2026-05-02T16:04:05.725Z</time></trkpt><trkpt lat="45.805479" lon="9.8259914"><ele>631.0</ele><time>2026-05-02T16:04:06.733Z</time></trkpt><trkpt lat="45.8055295" lon="9.8261736"><ele>631.0</ele><time>2026-05-02T16:04:07.736Z</time></trkpt><trkpt lat="45.8055775" lon="9.8263539"><ele>631.0</ele><time>2026-05-02T16:04:08.718Z</time></trkpt><trkpt lat="45.8056302" lon="9.8265524"><ele>631.0</ele><time>2026-05-02T16:04:09.851Z</time></trkpt><trkpt lat="45.8057233" lon="9.8268632"><ele>634.0</ele><time>2026-05-02T16:04:11.729Z</time></trkpt><trkpt lat="45.8057886" lon="9.8270273"><ele>637.0</ele><time>2026-05-02T16:04:12.735Z</time></trkpt><trkpt lat="45.805876" lon="9.8271859"><ele>640.0</ele><time>2026-05-02T16:04:13.716Z</time></trkpt><trkpt lat="45.8059767" lon="9.8273413"><ele>643.0</ele><time>2026-05-02T16:04:14.742Z</time></trkpt><trkpt lat="45.8060665" lon="9.8274834"><ele>643.0</ele><time>2026-05-02T16:04:15.738Z</time></trkpt><trkpt lat="45.8061466" lon="9.8276263"><ele>643.0</ele><time>2026-05-02T16:04:16.716Z</time></trkpt><trkpt lat="45.8062212" lon="9.8277889"><ele>643.0</ele><time>2026-05-02T16:04:17.763Z</time></trkpt><trkpt lat="45.8062734" lon="9.827944"><ele>643.0</ele><time>2026-05-02T16:04:18.724Z</time></trkpt><trkpt lat="45.8063135" lon="9.8281084"><ele>639.0</ele><time>2026-05-02T16:04:19.713Z</time></trkpt><trkpt lat="45.8063469" lon="9.8282722"><ele>635.0</ele><time>2026-05-02T16:04:20.721Z</time></trkpt><trkpt lat="45.8063825" lon="9.8284188"><ele>631.0</ele><time>2026-05-02T16:04:21.751Z</time></trkpt><trkpt lat="45.8064303" lon="9.8285423"><ele>627.0</ele><time>2026-05-02T16:04:22.726Z</time></trkpt><trkpt lat="45.8064902" lon="9.8286528"><ele>623.0</ele><time>2026-05-02T16:04:23.716Z</time></trkpt><trkpt lat="45.8065697" lon="9.8287626"><ele>625.0</ele><time>2026-05-02T16:04:24.845Z</time></trkpt><trkpt lat="45.8067153" lon="9.8289664"><ele>627.0</ele><time>2026-05-02T16:04:26.718Z</time></trkpt><trkpt lat="45.8068098" lon="9.8290991"><ele>629.0</ele><time>2026-05-02T16:04:27.734Z</time></trkpt><trkpt lat="45.8068952" lon="9.8292215"><ele>623.5</ele><time>2026-05-02T16:04:28.728Z</time></trkpt><trkpt lat="45.8069765" lon="9.8293439"><ele>618.0</ele><time>2026-05-02T16:04:29.711Z</time></trkpt><trkpt lat="45.8070559" lon="9.829469"><ele>612.5</ele><time>2026-05-02T16:04:30.736Z</time></trkpt><trkpt lat="45.8071254" lon="9.8295896"><ele>607.0</ele><time>2026-05-02T16:04:31.723Z</time></trkpt><trkpt lat="45.8071984" lon="9.8297185"><ele>607.0</ele><time>2026-05-02T16:04:32.835Z</time></trkpt><trkpt lat="45.8072571" lon="9.829823"><ele>607.0</ele><time>2026-05-02T16:04:33.75Z</time></trkpt><trkpt lat="45.8073235" lon="9.8299456"><ele>607.0</ele><time>2026-05-02T16:04:34.84Z</time></trkpt><trkpt lat="45.8073814" lon="9.8300562"><ele>607.0</ele><time>2026-05-02T16:04:35.826Z</time></trkpt><trkpt lat="45.8075016" lon="9.830247"><ele>605.0</ele><time>2026-05-02T16:04:37.76Z</time></trkpt><trkpt lat="45.8075866" lon="9.8303194"><ele>603.0</ele><time>2026-05-02T16:04:38.906Z</time></trkpt><trkpt lat="45.8077468" lon="9.8303638"><ele>601.0</ele><time>2026-05-02T16:04:40.73Z</time></trkpt><trkpt lat="45.807838" lon="9.8304288"><ele>599.0</ele><time>2026-05-02T16:04:42.731Z</time></trkpt><trkpt lat="45.8077423" lon="9.8305555"><ele>599.0</ele><time>2026-05-02T16:04:45.745Z</time></trkpt><trkpt lat="45.807663" lon="9.8305284"><ele>599.0</ele><time>2026-05-02T16:04:46.724Z</time></trkpt><trkpt lat="45.8075756" lon="9.8304825"><ele>599.0</ele><time>2026-05-02T16:04:47.705Z</time></trkpt><trkpt lat="45.8075129" lon="9.8304395"><ele>599.0</ele><time>2026-05-02T16:04:48.723Z</time></trkpt><trkpt lat="45.8074523" lon="9.8303949"><ele>599.0</ele><time>2026-05-02T16:04:49.725Z</time></trkpt><trkpt lat="45.8073731" lon="9.8303513"><ele>599.0</ele><time>2026-05-02T16:04:50.735Z</time></trkpt><trkpt lat="45.8072835" lon="9.8302872"><ele>601.0</ele><time>2026-05-02T16:04:51.771Z</time></trkpt><trkpt lat="45.8072025" lon="9.8302112"><ele>603.0</ele><time>2026-05-02T16:04:52.723Z</time></trkpt><trkpt lat="45.8071084" lon="9.8301213"><ele>605.0</ele><time>2026-05-02T16:04:53.719Z</time></trkpt><trkpt lat="45.8069983" lon="9.8300137"><ele>607.0</ele><time>2026-05-02T16:04:54.821Z</time></trkpt><trkpt lat="45.8068993" lon="9.8299149"><ele>598.3333333333334</ele><time>2026-05-02T16:04:55.76Z</time></trkpt><trkpt lat="45.8067602" lon="9.8297741"><ele>589.6666666666666</ele><time>2026-05-02T16:04:56.745Z</time></trkpt><trkpt lat="45.8066154" lon="9.8296198"><ele>581.0</ele><time>2026-05-02T16:04:57.724Z</time></trkpt><trkpt lat="45.8064461" lon="9.8294335"><ele>588.0</ele><time>2026-05-02T16:04:58.751Z</time></trkpt><trkpt lat="45.8063031" lon="9.8292737"><ele>595.0</ele><time>2026-05-02T16:04:59.705Z</time></trkpt><trkpt lat="45.8061645" lon="9.8291234"><ele>602.0</ele><time>2026-05-02T16:05:00.715Z</time></trkpt><trkpt lat="45.8060444" lon="9.8289924"><ele>595.25</ele><time>2026-05-02T16:05:01.728Z</time></trkpt><trkpt lat="45.8059464" lon="9.8288858"><ele>588.5</ele><time>2026-05-02T16:05:02.719Z</time></trkpt><trkpt lat="45.8058536" lon="9.8287771"><ele>581.75</ele><time>2026-05-02T16:05:03.709Z</time></trkpt><trkpt lat="45.8057358" lon="9.8286484"><ele>575.0</ele><time>2026-05-02T16:05:04.758Z</time></trkpt><trkpt lat="45.8056205" lon="9.8285271"><ele>581.6666666666666</ele><time>2026-05-02T16:05:05.718Z</time></trkpt><trkpt lat="45.8055012" lon="9.8284064"><ele>588.3333333333334</ele><time>2026-05-02T16:05:06.731Z</time></trkpt><trkpt lat="45.8053721" lon="9.8282832"><ele>595.0</ele><time>2026-05-02T16:05:07.738Z</time></trkpt><trkpt lat="45.8052019" lon="9.8281685"><ele>581.0</ele><time>2026-05-02T16:05:08.836Z</time></trkpt><trkpt lat="45.8049138" lon="9.8279866"><ele>567.0</ele><time>2026-05-02T16:05:10.719Z</time></trkpt><trkpt lat="45.8047531" lon="9.8278721"><ele>567.0</ele><time>2026-05-02T16:05:11.933Z</time></trkpt><trkpt lat="45.8046601" lon="9.8277999"><ele>567.0</ele><time>2026-05-02T16:05:12.734Z</time></trkpt><trkpt lat="45.8045434" lon="9.8276893"><ele>567.0</ele><time>2026-05-02T16:05:13.813Z</time></trkpt><trkpt lat="45.8044273" lon="9.8275572"><ele>567.0</ele><time>2026-05-02T16:05:14.803Z</time></trkpt><trkpt lat="45.8043187" lon="9.8274236"><ele>565.6666666666666</ele><time>2026-05-02T16:05:15.767Z</time></trkpt><trkpt lat="45.8041999" lon="9.8272969"><ele>564.3333333333333</ele><time>2026-05-02T16:05:16.8Z</time></trkpt><trkpt lat="45.8040662" lon="9.8271827"><ele>563.0</ele><time>2026-05-02T16:05:17.789Z</time></trkpt><trkpt lat="45.8039208" lon="9.8271056"><ele>563.0</ele><time>2026-05-02T16:05:18.788Z</time></trkpt><trkpt lat="45.8037932" lon="9.8270461"><ele>563.0</ele><time>2026-05-02T16:05:19.791Z</time></trkpt><trkpt lat="45.8036789" lon="9.8269966"><ele>563.0</ele><time>2026-05-02T16:05:20.771Z</time></trkpt><trkpt lat="45.8035716" lon="9.8269397"><ele>563.0</ele><time>2026-05-02T16:05:21.786Z</time></trkpt><trkpt lat="45.803468" lon="9.8268805"><ele>563.5</ele><time>2026-05-02T16:05:22.792Z</time></trkpt><trkpt lat="45.8033654" lon="9.826816"><ele>564.0</ele><time>2026-05-02T16:05:23.795Z</time></trkpt><trkpt lat="45.8032661" lon="9.8267467"><ele>564.5</ele><time>2026-05-02T16:05:24.725Z</time></trkpt><trkpt lat="45.8031581" lon="9.8266596"><ele>565.0</ele><time>2026-05-02T16:05:25.699Z</time></trkpt><trkpt lat="45.8030302" lon="9.8265422"><ele>565.0</ele><time>2026-05-02T16:05:26.83Z</time></trkpt><trkpt lat="45.8028229" lon="9.826344"><ele>565.0</ele><time>2026-05-02T16:05:28.741Z</time></trkpt><trkpt lat="45.8027208" lon="9.8262482"><ele>565.0</ele><time>2026-05-02T16:05:29.7Z</time></trkpt><trkpt lat="45.802616" lon="9.8261439"><ele>562.6666666666667</ele><time>2026-05-02T16:05:30.722Z</time></trkpt><trkpt lat="45.8025063" lon="9.8260351"><ele>560.3333333333334</ele><time>2026-05-02T16:05:31.851Z</time></trkpt><trkpt lat="45.8023293" lon="9.8258359"><ele>558.0</ele><time>2026-05-02T16:05:33.828Z</time></trkpt><trkpt lat="45.802255" lon="9.8257333"><ele>558.0</ele><time>2026-05-02T16:05:34.825Z</time></trkpt><trkpt lat="45.8021216" lon="9.8255278"><ele>558.0</ele><time>2026-05-02T16:05:36.752Z</time></trkpt><trkpt lat="45.8020538" lon="9.8254161"><ele>558.0</ele><time>2026-05-02T16:05:37.73Z</time></trkpt><trkpt lat="45.8019888" lon="9.8252981"><ele>558.0</ele><time>2026-05-02T16:05:38.764Z</time></trkpt><trkpt lat="45.8019349" lon="9.8251986"><ele>560.5</ele><time>2026-05-02T16:05:39.727Z</time></trkpt><trkpt lat="45.8018933" lon="9.8250942"><ele>563.0</ele><time>2026-05-02T16:05:40.729Z</time></trkpt><trkpt lat="45.8018669" lon="9.8249843"><ele>565.5</ele><time>2026-05-02T16:05:41.738Z</time></trkpt><trkpt lat="45.8018466" lon="9.8248811"><ele>568.0</ele><time>2026-05-02T16:05:42.737Z</time></trkpt><trkpt lat="45.8018117" lon="9.8248007"><ele>570.5</ele><time>2026-05-02T16:05:43.748Z</time></trkpt><trkpt lat="45.8017137" lon="9.8248137"><ele>573.0</ele><time>2026-05-02T16:05:45.729Z</time></trkpt><trkpt lat="45.8017232" lon="9.8249954"><ele>570.0</ele><time>2026-05-02T16:05:47.805Z</time></trkpt><trkpt lat="45.8017614" lon="9.8250956"><ele>567.0</ele><time>2026-05-02T16:05:48.728Z</time></trkpt><trkpt lat="45.8018039" lon="9.8252175"><ele>564.0</ele><time>2026-05-02T16:05:49.764Z</time></trkpt><trkpt lat="45.8018395" lon="9.8253332"><ele>561.0</ele><time>2026-05-02T16:05:50.728Z</time></trkpt><trkpt lat="45.8018791" lon="9.8254682"><ele>558.0</ele><time>2026-05-02T16:05:51.845Z</time></trkpt><trkpt lat="45.8019494" lon="9.8256813"><ele>558.0</ele><time>2026-05-02T16:05:53.723Z</time></trkpt><trkpt lat="45.8019844" lon="9.8257914"><ele>558.0</ele><time>2026-05-02T16:05:54.74Z</time></trkpt><trkpt lat="45.8020213" lon="9.825896"><ele>558.0</ele><time>2026-05-02T16:05:55.739Z</time></trkpt><trkpt lat="45.8020615" lon="9.8259937"><ele>558.0</ele><time>2026-05-02T16:05:56.729Z</time></trkpt><trkpt lat="45.8021019" lon="9.8260881"><ele>558.0</ele><time>2026-05-02T16:05:57.749Z</time></trkpt><trkpt lat="45.802146" lon="9.826175"><ele>558.0</ele><time>2026-05-02T16:05:58.714Z</time></trkpt><trkpt lat="45.8021924" lon="9.8262685"><ele>554.5</ele><time>2026-05-02T16:05:59.757Z</time></trkpt><trkpt lat="45.8022404" lon="9.8263488"><ele>551.0</ele><time>2026-05-02T16:06:00.755Z</time></trkpt><trkpt lat="45.8022881" lon="9.8264266"><ele>547.5</ele><time>2026-05-02T16:06:01.716Z</time></trkpt><trkpt lat="45.8023406" lon="9.8265066"><ele>544.0</ele><time>2026-05-02T16:06:02.711Z</time></trkpt><trkpt lat="45.8024019" lon="9.8265927"><ele>540.5</ele><time>2026-05-02T16:06:03.727Z</time></trkpt><trkpt lat="45.8024657" lon="9.8266858"><ele>537.0</ele><time>2026-05-02T16:06:04.73Z</time></trkpt><trkpt lat="45.8025405" lon="9.8267955"><ele>536.25</ele><time>2026-05-02T16:06:05.833Z</time></trkpt><trkpt lat="45.802611" lon="9.8269019"><ele>535.5</ele><time>2026-05-02T16:06:06.848Z</time></trkpt><trkpt lat="45.8027456" lon="9.8271022"><ele>534.75</ele><time>2026-05-02T16:06:08.777Z</time></trkpt><trkpt lat="45.8028086" lon="9.8272028"><ele>534.0</ele><time>2026-05-02T16:06:09.712Z</time></trkpt><trkpt lat="45.8028762" lon="9.827309"><ele>534.0</ele><time>2026-05-02T16:06:10.751Z</time></trkpt><trkpt lat="45.8029385" lon="9.8274056"><ele>534.0</ele><time>2026-05-02T16:06:11.743Z</time></trkpt><trkpt lat="45.8029989" lon="9.827495"><ele>534.0</ele><time>2026-05-02T16:06:12.713Z</time></trkpt><trkpt lat="45.8030725" lon="9.8275858"><ele>534.0</ele><time>2026-05-02T16:06:13.844Z</time></trkpt><trkpt lat="45.8032057" lon="9.8277229"><ele>534.0</ele><time>2026-05-02T16:06:15.749Z</time></trkpt><trkpt lat="45.8032857" lon="9.8277941"><ele>535.0</ele><time>2026-05-02T16:06:16.792Z</time></trkpt><trkpt lat="45.8033592" lon="9.8278593"><ele>536.0</ele><time>2026-05-02T16:06:17.757Z</time></trkpt><trkpt lat="45.8034342" lon="9.8279235"><ele>537.0</ele><time>2026-05-02T16:06:18.783Z</time></trkpt><trkpt lat="45.8035002" lon="9.8279852"><ele>538.0</ele><time>2026-05-02T16:06:19.755Z</time></trkpt><trkpt lat="45.8035748" lon="9.828059"><ele>539.0</ele><time>2026-05-02T16:06:20.764Z</time></trkpt><trkpt lat="45.803654" lon="9.8281326"><ele>540.0</ele><time>2026-05-02T16:06:21.771Z</time></trkpt><trkpt lat="45.8037303" lon="9.8282083"><ele>540.0</ele><time>2026-05-02T16:06:22.827Z</time></trkpt><trkpt lat="45.803784" lon="9.8282911"><ele>540.0</ele><time>2026-05-02T16:06:23.751Z</time></trkpt><trkpt lat="45.8038197" lon="9.8283965"><ele>540.0</ele><time>2026-05-02T16:06:24.73Z</time></trkpt><trkpt lat="45.8038318" lon="9.8285281"><ele>540.0</ele><time>2026-05-02T16:06:25.717Z</time></trkpt><trkpt lat="45.8038293" lon="9.8286779"><ele>540.0</ele><time>2026-05-02T16:06:26.746Z</time></trkpt><trkpt lat="45.8038207" lon="9.8288143"><ele>535.4</ele><time>2026-05-02T16:06:27.733Z</time></trkpt><trkpt lat="45.8038129" lon="9.8289595"><ele>530.8</ele><time>2026-05-02T16:06:28.843Z</time></trkpt><trkpt lat="45.8038237" lon="9.8291639"><ele>526.2</ele><time>2026-05-02T16:06:30.726Z</time></trkpt><trkpt lat="45.803853" lon="9.8292598"><ele>521.6</ele><time>2026-05-02T16:06:31.729Z</time></trkpt><trkpt lat="45.8038984" lon="9.829344"><ele>517.0</ele><time>2026-05-02T16:06:32.748Z</time></trkpt><trkpt lat="45.8039711" lon="9.8294141"><ele>517.8000000000001</ele><time>2026-05-02T16:06:33.749Z</time></trkpt><trkpt lat="45.8040745" lon="9.8294788"><ele>518.6</ele><time>2026-05-02T16:06:34.815Z</time></trkpt><trkpt lat="45.8041754" lon="9.8295295"><ele>519.4000000000001</ele><time>2026-05-02T16:06:35.879Z</time></trkpt><trkpt lat="45.8042555" lon="9.8295824"><ele>520.2</ele><time>2026-05-02T16:06:36.803Z</time></trkpt><trkpt lat="45.8043372" lon="9.8296487"><ele>521.0</ele><time>2026-05-02T16:06:37.756Z</time></trkpt><trkpt lat="45.8044092" lon="9.8297359"><ele>521.0</ele><time>2026-05-02T16:06:38.736Z</time></trkpt><trkpt lat="45.8044717" lon="9.8298331"><ele>521.0</ele><time>2026-05-02T16:06:39.739Z</time></trkpt><trkpt lat="45.8045257" lon="9.8299448"><ele>521.0</ele><time>2026-05-02T16:06:40.762Z</time></trkpt><trkpt lat="45.8045752" lon="9.8300675"><ele>521.0</ele><time>2026-05-02T16:06:41.735Z</time></trkpt><trkpt lat="45.8046248" lon="9.8301876"><ele>521.0</ele><time>2026-05-02T16:06:42.747Z</time></trkpt><trkpt lat="45.8046787" lon="9.8303115"><ele>518.0</ele><time>2026-05-02T16:06:43.864Z</time></trkpt><trkpt lat="45.8047732" lon="9.8304932"><ele>515.0</ele><time>2026-05-02T16:06:45.747Z</time></trkpt><trkpt lat="45.8048286" lon="9.8305603"><ele>512.0</ele><time>2026-05-02T16:06:46.745Z</time></trkpt><trkpt lat="45.8049098" lon="9.8306764"><ele>509.0</ele><time>2026-05-02T16:06:48.827Z</time></trkpt><trkpt lat="45.8048741" lon="9.830782"><ele>506.0</ele><time>2026-05-02T16:06:50.749Z</time></trkpt><trkpt lat="45.804773" lon="9.8307655"><ele>505.99999999999994</ele><time>2026-05-02T16:06:52.75Z</time></trkpt><trkpt lat="45.8046767" lon="9.8306555"><ele>506.0</ele><time>2026-05-02T16:06:54.729Z</time></trkpt><trkpt lat="45.8046172" lon="9.8305719"><ele>506.0</ele><time>2026-05-02T16:06:55.787Z</time></trkpt><trkpt lat="45.8045577" lon="9.8304911"><ele>506.0</ele><time>2026-05-02T16:06:56.761Z</time></trkpt><trkpt lat="45.8045029" lon="9.8304161"><ele>505.99999999999994</ele><time>2026-05-02T16:06:57.753Z</time></trkpt><trkpt lat="45.8044516" lon="9.8303477"><ele>506.0</ele><time>2026-05-02T16:06:58.732Z</time></trkpt><trkpt lat="45.8043922" lon="9.8302634"><ele>503.0</ele><time>2026-05-02T16:06:59.925Z</time></trkpt><trkpt lat="45.8043028" lon="9.830149"><ele>500.0</ele><time>2026-05-02T16:07:01.812Z</time></trkpt><trkpt lat="45.8041759" lon="9.8301755"><ele>497.0</ele><time>2026-05-02T16:07:03.799Z</time></trkpt><trkpt lat="45.804101" lon="9.8302773"><ele>494.0</ele><time>2026-05-02T16:07:04.798Z</time></trkpt><trkpt lat="45.8040459" lon="9.8304049"><ele>494.0</ele><time>2026-05-02T16:07:05.748Z</time></trkpt><trkpt lat="45.8039829" lon="9.8305123"><ele>494.0</ele><time>2026-05-02T16:07:06.71Z</time></trkpt><trkpt lat="45.8038922" lon="9.8306291"><ele>494.0</ele><time>2026-05-02T16:07:07.719Z</time></trkpt><trkpt lat="45.8037604" lon="9.8307636"><ele>494.0</ele><time>2026-05-02T16:07:08.741Z</time></trkpt><trkpt lat="45.8036084" lon="9.8308978"><ele>490.3333333333333</ele><time>2026-05-02T16:07:09.716Z</time></trkpt><trkpt lat="45.8034575" lon="9.8310359"><ele>486.66666666666663</ele><time>2026-05-02T16:07:10.733Z</time></trkpt><trkpt lat="45.8033143" lon="9.8311691"><ele>483.0</ele><time>2026-05-02T16:07:11.714Z</time></trkpt><trkpt lat="45.8031853" lon="9.8313113"><ele>483.0</ele><time>2026-05-02T16:07:12.709Z</time></trkpt><trkpt lat="45.8030561" lon="9.8314539"><ele>483.0</ele><time>2026-05-02T16:07:13.734Z</time></trkpt><trkpt lat="45.8029386" lon="9.8315897"><ele>483.0</ele><time>2026-05-02T16:07:14.734Z</time></trkpt><trkpt lat="45.8028285" lon="9.8317213"><ele>483.25</ele><time>2026-05-02T16:07:15.74Z</time></trkpt><trkpt lat="45.8027257" lon="9.8318493"><ele>483.5</ele><time>2026-05-02T16:07:16.723Z</time></trkpt><trkpt lat="45.8026302" lon="9.8319656"><ele>483.75</ele><time>2026-05-02T16:07:17.712Z</time></trkpt><trkpt lat="45.8025449" lon="9.8320636"><ele>484.0</ele><time>2026-05-02T16:07:18.728Z</time></trkpt><trkpt lat="45.8024733" lon="9.8321471"><ele>481.25</ele><time>2026-05-02T16:07:19.72Z</time></trkpt><trkpt lat="45.8023955" lon="9.8322242"><ele>478.5</ele><time>2026-05-02T16:07:20.736Z</time></trkpt><trkpt lat="45.8023097" lon="9.8322925"><ele>475.75</ele><time>2026-05-02T16:07:21.855Z</time></trkpt><trkpt lat="45.8021235" lon="9.8323632"><ele>473.0</ele><time>2026-05-02T16:07:23.906Z</time></trkpt><trkpt lat="45.801954" lon="9.8323987"><ele>473.0</ele><time>2026-05-02T16:07:25.765Z</time></trkpt><trkpt lat="45.8018662" lon="9.8323916"><ele>472.99999999999994</ele><time>2026-05-02T16:07:26.75Z</time></trkpt><trkpt lat="45.8017835" lon="9.8323547"><ele>472.99999999999994</ele><time>2026-05-02T16:07:27.722Z</time></trkpt><trkpt lat="45.8017006" lon="9.8322777"><ele>473.0</ele><time>2026-05-02T16:07:28.743Z</time></trkpt><trkpt lat="45.8016317" lon="9.8321709"><ele>473.0</ele><time>2026-05-02T16:07:29.727Z</time></trkpt><trkpt lat="45.8015747" lon="9.8320544"><ele>472.3333333333333</ele><time>2026-05-02T16:07:30.75Z</time></trkpt><trkpt lat="45.8015143" lon="9.83196"><ele>471.66666666666663</ele><time>2026-05-02T16:07:31.747Z</time></trkpt><trkpt lat="45.801451" lon="9.8319184"><ele>471.0</ele><time>2026-05-02T16:07:32.744Z</time></trkpt><trkpt lat="45.8013817" lon="9.8319285"><ele>470.33333333333337</ele><time>2026-05-02T16:07:33.752Z</time></trkpt><trkpt lat="45.8013286" lon="9.8320154"><ele>469.6666666666667</ele><time>2026-05-02T16:07:34.77Z</time></trkpt><trkpt lat="45.8013053" lon="9.8321388"><ele>469.0</ele><time>2026-05-02T16:07:35.731Z</time></trkpt><trkpt lat="45.8013166" lon="9.8323075"><ele>469.0</ele><time>2026-05-02T16:07:36.798Z</time></trkpt><trkpt lat="45.8013357" lon="9.8324465"><ele>469.0</ele><time>2026-05-02T16:07:37.753Z</time></trkpt><trkpt lat="45.8013579" lon="9.8325799"><ele>469.0</ele><time>2026-05-02T16:07:38.724Z</time></trkpt><trkpt lat="45.8013773" lon="9.8327148"><ele>469.0</ele><time>2026-05-02T16:07:39.763Z</time></trkpt><trkpt lat="45.8013858" lon="9.8328142"><ele>469.0</ele><time>2026-05-02T16:07:40.761Z</time></trkpt><trkpt lat="45.8013196" lon="9.8329364"><ele>469.00000000000006</ele><time>2026-05-02T16:07:42.744Z</time></trkpt><trkpt lat="45.8012316" lon="9.8328494"><ele>469.0</ele><time>2026-05-02T16:07:44.746Z</time></trkpt><trkpt lat="45.8012235" lon="9.8327392"><ele>469.0</ele><time>2026-05-02T16:07:45.713Z</time></trkpt><trkpt lat="45.8012105" lon="9.8326106"><ele>469.0</ele><time>2026-05-02T16:07:46.735Z</time></trkpt><trkpt lat="45.8011711" lon="9.8325128"><ele>469.00000000000006</ele><time>2026-05-02T16:07:47.746Z</time></trkpt><trkpt lat="45.8011094" lon="9.8324663"><ele>469.0</ele><time>2026-05-02T16:07:48.711Z</time></trkpt><trkpt lat="45.8010189" lon="9.8324929"><ele>467.2</ele><time>2026-05-02T16:07:49.733Z</time></trkpt><trkpt lat="45.8009185" lon="9.8325697"><ele>465.4</ele><time>2026-05-02T16:07:50.713Z</time></trkpt><trkpt lat="45.8008138" lon="9.832651"><ele>463.6</ele><time>2026-05-02T16:07:51.82Z</time></trkpt><trkpt lat="45.8007389" lon="9.8327073"><ele>461.8</ele><time>2026-05-02T16:07:52.726Z</time></trkpt><trkpt lat="45.8006611" lon="9.8327679"><ele>460.0</ele><time>2026-05-02T16:07:53.763Z</time></trkpt><trkpt lat="45.800587" lon="9.8327973"><ele>460.0</ele><time>2026-05-02T16:07:54.735Z</time></trkpt><trkpt lat="45.80051" lon="9.832802"><ele>460.0</ele><time>2026-05-02T16:07:55.737Z</time></trkpt><trkpt lat="45.8004273" lon="9.8327686"><ele>460.0</ele><time>2026-05-02T16:07:56.712Z</time></trkpt><trkpt lat="45.8003359" lon="9.8327027"><ele>460.0</ele><time>2026-05-02T16:07:57.729Z</time></trkpt><trkpt lat="45.8002594" lon="9.8326161"><ele>460.0</ele><time>2026-05-02T16:07:58.831Z</time></trkpt><trkpt lat="45.8001894" lon="9.8324505"><ele>460.0</ele><time>2026-05-02T16:08:00.737Z</time></trkpt><trkpt lat="45.8001882" lon="9.8323565"><ele>460.0</ele><time>2026-05-02T16:08:01.718Z</time></trkpt><trkpt lat="45.8002103" lon="9.8322442"><ele>460.0</ele><time>2026-05-02T16:08:02.721Z</time></trkpt><trkpt lat="45.8002636" lon="9.8321126"><ele>460.0</ele><time>2026-05-02T16:08:03.751Z</time></trkpt><trkpt lat="45.8003355" lon="9.831969"><ele>460.0</ele><time>2026-05-02T16:08:04.721Z</time></trkpt><trkpt lat="45.8003965" lon="9.8318252"><ele>460.5</ele><time>2026-05-02T16:08:05.71Z</time></trkpt><trkpt lat="45.800445" lon="9.8316385"><ele>461.0</ele><time>2026-05-02T16:08:06.775Z</time></trkpt><trkpt lat="45.8004753" lon="9.831458"><ele>461.5</ele><time>2026-05-02T16:08:07.711Z</time></trkpt><trkpt lat="45.8005029" lon="9.8312444"><ele>462.0</ele><time>2026-05-02T16:08:08.713Z</time></trkpt><trkpt lat="45.8005299" lon="9.8310395"><ele>462.0</ele><time>2026-05-02T16:08:09.719Z</time></trkpt><trkpt lat="45.8005575" lon="9.8308522"><ele>462.00000000000006</ele><time>2026-05-02T16:08:10.711Z</time></trkpt><trkpt lat="45.8005789" lon="9.8307002"><ele>462.00000000000006</ele><time>2026-05-02T16:08:11.71Z</time></trkpt><trkpt lat="45.8005937" lon="9.8305801"><ele>462.0</ele><time>2026-05-02T16:08:12.695Z</time></trkpt><trkpt lat="45.8005961" lon="9.8304842"><ele>462.0</ele><time>2026-05-02T16:08:13.713Z</time></trkpt><trkpt lat="45.8005159" lon="9.8304067"><ele>462.0</ele><time>2026-05-02T16:08:15.714Z</time></trkpt><trkpt lat="45.8004416" lon="9.830573"><ele>462.0</ele><time>2026-05-02T16:08:17.724Z</time></trkpt><trkpt lat="45.8004353" lon="9.8307107"><ele>462.0</ele><time>2026-05-02T16:08:18.685Z</time></trkpt><trkpt lat="45.8004042" lon="9.8308777"><ele>462.0</ele><time>2026-05-02T16:08:19.671Z</time></trkpt><trkpt lat="45.8003442" lon="9.8310573"><ele>462.0</ele><time>2026-05-02T16:08:20.67Z</time></trkpt><trkpt lat="45.800255" lon="9.8312601"><ele>462.0</ele><time>2026-05-02T16:08:21.679Z</time></trkpt><trkpt lat="45.8001547" lon="9.8314759"><ele>462.0</ele><time>2026-05-02T16:08:22.673Z</time></trkpt><trkpt lat="45.8000588" lon="9.8316863"><ele>457.66666666666663</ele><time>2026-05-02T16:08:23.703Z</time></trkpt><trkpt lat="45.7999679" lon="9.8318843"><ele>453.3333333333333</ele><time>2026-05-02T16:08:24.666Z</time></trkpt><trkpt lat="45.7998771" lon="9.8320842"><ele>449.0</ele><time>2026-05-02T16:08:25.673Z</time></trkpt><trkpt lat="45.7997952" lon="9.832275"><ele>449.0</ele><time>2026-05-02T16:08:26.661Z</time></trkpt><trkpt lat="45.7997132" lon="9.8324659"><ele>449.0</ele><time>2026-05-02T16:08:27.672Z</time></trkpt><trkpt lat="45.7996427" lon="9.8326468"><ele>449.0</ele><time>2026-05-02T16:08:28.672Z</time></trkpt><trkpt lat="45.7995761" lon="9.8328249"><ele>449.0</ele><time>2026-05-02T16:08:29.693Z</time></trkpt><trkpt lat="45.7995132" lon="9.8329773"><ele>448.4</ele><time>2026-05-02T16:08:30.697Z</time></trkpt><trkpt lat="45.7994434" lon="9.833111"><ele>447.79999999999995</ele><time>2026-05-02T16:08:31.719Z</time></trkpt><trkpt lat="45.7993526" lon="9.8332052"><ele>447.20000000000005</ele><time>2026-05-02T16:08:32.726Z</time></trkpt><trkpt lat="45.7992553" lon="9.8332628"><ele>446.6</ele><time>2026-05-02T16:08:33.723Z</time></trkpt><trkpt lat="45.799149" lon="9.8332895"><ele>446.0</ele><time>2026-05-02T16:08:34.726Z</time></trkpt><trkpt lat="45.7990354" lon="9.833305"><ele>443.8</ele><time>2026-05-02T16:08:35.706Z</time></trkpt><trkpt lat="45.7989244" lon="9.8333261"><ele>441.6</ele><time>2026-05-02T16:08:36.797Z</time></trkpt><trkpt lat="45.7988581" lon="9.8333399"><ele>439.4</ele><time>2026-05-02T16:08:37.711Z</time></trkpt><trkpt lat="45.7987797" lon="9.8333117"><ele>437.2</ele><time>2026-05-02T16:08:39.032Z</time></trkpt><trkpt lat="45.7987916" lon="9.8331915"><ele>435.0</ele><time>2026-05-02T16:08:40.736Z</time></trkpt><trkpt lat="45.7988957" lon="9.8331557"><ele>435.0</ele><time>2026-05-02T16:08:42.688Z</time></trkpt><trkpt lat="45.7989813" lon="9.8331708"><ele>435.0</ele><time>2026-05-02T16:08:43.711Z</time></trkpt><trkpt lat="45.7990776" lon="9.8331791"><ele>435.0</ele><time>2026-05-02T16:08:44.744Z</time></trkpt><trkpt lat="45.7991652" lon="9.8331876"><ele>435.0</ele><time>2026-05-02T16:08:45.74Z</time></trkpt><trkpt lat="45.7992889" lon="9.8331511"><ele>435.0</ele><time>2026-05-02T16:08:47.701Z</time></trkpt><trkpt lat="45.7992829" lon="9.8330025"><ele>435.0</ele><time>2026-05-02T16:08:49.723Z</time></trkpt><trkpt lat="45.7991595" lon="9.8329574"><ele>435.0</ele><time>2026-05-02T16:08:51.691Z</time></trkpt><trkpt lat="45.7990238" lon="9.8330009"><ele>435.0</ele><time>2026-05-02T16:08:52.751Z</time></trkpt><trkpt lat="45.7989126" lon="9.8330191"><ele>435.0</ele><time>2026-05-02T16:08:53.734Z</time></trkpt><trkpt lat="45.7988054" lon="9.8330376"><ele>435.0</ele><time>2026-05-02T16:08:54.753Z</time></trkpt><trkpt lat="45.7987145" lon="9.8330485"><ele>435.0</ele><time>2026-05-02T16:08:55.695Z</time></trkpt><trkpt lat="45.7986245" lon="9.8330395"><ele>435.0</ele><time>2026-05-02T16:08:56.69Z</time></trkpt><trkpt lat="45.7985346" lon="9.8330059"><ele>435.0</ele><time>2026-05-02T16:08:57.706Z</time></trkpt><trkpt lat="45.7984381" lon="9.8329631"><ele>435.0</ele><time>2026-05-02T16:08:58.71Z</time></trkpt><trkpt lat="45.7983412" lon="9.8329297"><ele>432.0</ele><time>2026-05-02T16:08:59.735Z</time></trkpt><trkpt lat="45.7982655" lon="9.8329129"><ele>429.0</ele><time>2026-05-02T16:09:00.703Z</time></trkpt><trkpt lat="45.7981986" lon="9.8329279"><ele>426.0</ele><time>2026-05-02T16:09:01.704Z</time></trkpt><trkpt lat="45.7981411" lon="9.8329787"><ele>423.0</ele><time>2026-05-02T16:09:02.689Z</time></trkpt><trkpt lat="45.7980771" lon="9.8330569"><ele>420.0</ele><time>2026-05-02T16:09:03.706Z</time></trkpt><trkpt lat="45.7980084" lon="9.833164"><ele>417.0</ele><time>2026-05-02T16:09:04.728Z</time></trkpt><trkpt lat="45.7979661" lon="9.8332816"><ele>417.0</ele><time>2026-05-02T16:09:05.714Z</time></trkpt><trkpt lat="45.7979254" lon="9.8334026"><ele>417.0</ele><time>2026-05-02T16:09:06.707Z</time></trkpt><trkpt lat="45.7978882" lon="9.8335203"><ele>417.0</ele><time>2026-05-02T16:09:07.741Z</time></trkpt><trkpt lat="45.7978502" lon="9.8336412"><ele>417.0</ele><time>2026-05-02T16:09:08.767Z</time></trkpt><trkpt lat="45.7978202" lon="9.8337481"><ele>417.0</ele><time>2026-05-02T16:09:09.714Z</time></trkpt><trkpt lat="45.7977991" lon="9.8338612"><ele>417.0</ele><time>2026-05-02T16:09:10.713Z</time></trkpt><trkpt lat="45.7977725" lon="9.833959"><ele>417.3333333333333</ele><time>2026-05-02T16:09:11.724Z</time></trkpt><trkpt lat="45.797747" lon="9.8340424"><ele>417.66666666666663</ele><time>2026-05-02T16:09:12.757Z</time></trkpt><trkpt lat="45.7976677" lon="9.8341576"><ele>418.0</ele><time>2026-05-02T16:09:14.711Z</time></trkpt><trkpt lat="45.7976053" lon="9.8341824"><ele>418.3333333333333</ele><time>2026-05-02T16:09:15.707Z</time></trkpt><trkpt lat="45.797542" lon="9.8342186"><ele>418.66666666666663</ele><time>2026-05-02T16:09:16.691Z</time></trkpt><trkpt lat="45.7974721" lon="9.8342507"><ele>419.0</ele><time>2026-05-02T16:09:17.747Z</time></trkpt><trkpt lat="45.7973868" lon="9.8342389"><ele>415.8333333333333</ele><time>2026-05-02T16:09:18.745Z</time></trkpt><trkpt lat="45.7973124" lon="9.8342289"><ele>412.66666666666663</ele><time>2026-05-02T16:09:19.717Z</time></trkpt><trkpt lat="45.7972292" lon="9.8341906"><ele>409.5</ele><time>2026-05-02T16:09:21.72Z</time></trkpt><trkpt lat="45.7971403" lon="9.8342839"><ele>406.33333333333337</ele><time>2026-05-02T16:09:23.718Z</time></trkpt><trkpt lat="45.797105" lon="9.8343671"><ele>403.1666666666667</ele><time>2026-05-02T16:09:24.726Z</time></trkpt><trkpt lat="45.7970257" lon="9.8344734"><ele>400.0</ele><time>2026-05-02T16:09:26.683Z</time></trkpt><trkpt lat="45.7969734" lon="9.8345259"><ele>399.33333333333337</ele><time>2026-05-02T16:09:27.728Z</time></trkpt><trkpt lat="45.7968965" lon="9.8346161"><ele>398.6666666666667</ele><time>2026-05-02T16:09:29.715Z</time></trkpt><trkpt lat="45.7968311" lon="9.8346625"><ele>398.0</ele><time>2026-05-02T16:09:32.751Z</time></trkpt><trkpt lat="45.7967825" lon="9.8345695"><ele>397.33333333333337</ele><time>2026-05-02T16:09:34.797Z</time></trkpt><trkpt lat="45.7967401" lon="9.834454"><ele>396.6666666666667</ele><time>2026-05-02T16:09:36.736Z</time></trkpt><trkpt lat="45.7966786" lon="9.8343991"><ele>396.0</ele><time>2026-05-02T16:09:38.742Z</time></trkpt><trkpt lat="45.7965696" lon="9.8344312"><ele>395.3333333333333</ele><time>2026-05-02T16:09:40.725Z</time></trkpt><trkpt lat="45.7964583" lon="9.83447"><ele>394.66666666666663</ele><time>2026-05-02T16:09:42.725Z</time></trkpt><trkpt lat="45.7963964" lon="9.8344877"><ele>394.0</ele><time>2026-05-02T16:09:43.745Z</time></trkpt><trkpt lat="45.7963325" lon="9.8344964"><ele>393.3333333333333</ele><time>2026-05-02T16:09:44.739Z</time></trkpt><trkpt lat="45.7962618" lon="9.8345043"><ele>392.66666666666663</ele><time>2026-05-02T16:09:45.741Z</time></trkpt><trkpt lat="45.7961351" lon="9.8345083"><ele>392.0</ele><time>2026-05-02T16:09:47.774Z</time></trkpt><trkpt lat="45.7960041" lon="9.8345344"><ele>390.99999999999994</ele><time>2026-05-02T16:09:49.734Z</time></trkpt><trkpt lat="45.7959359" lon="9.834548"><ele>390.0</ele><time>2026-05-02T16:09:50.741Z</time></trkpt><trkpt lat="45.7958201" lon="9.8345627"><ele>389.0</ele><time>2026-05-02T16:09:52.743Z</time></trkpt><trkpt lat="45.7957345" lon="9.8345716"><ele>388.0</ele><time>2026-05-02T16:09:54.744Z</time></trkpt><trkpt lat="45.7956719" lon="9.8345862"><ele>386.99999999999994</ele><time>2026-05-02T16:09:56.761Z</time></trkpt><trkpt lat="45.795595" lon="9.8346021"><ele>386.0</ele><time>2026-05-02T16:10:36.762Z</time></trkpt><trkpt lat="45.7955538" lon="9.8347391"><ele>386.0</ele><time>2026-05-02T16:10:38.711Z</time></trkpt><trkpt lat="45.7955743" lon="9.8348493"><ele>386.0</ele><time>2026-05-02T16:10:39.735Z</time></trkpt><trkpt lat="45.7956197" lon="9.8349665"><ele>386.0</ele><time>2026-05-02T16:10:40.714Z</time></trkpt><trkpt lat="45.7956718" lon="9.8350972"><ele>386.0</ele><time>2026-05-02T16:10:41.709Z</time></trkpt><trkpt lat="45.7957191" lon="9.8352403"><ele>386.0</ele><time>2026-05-02T16:10:42.851Z</time></trkpt><trkpt lat="45.7958182" lon="9.8354537"><ele>386.20000000000005</ele><time>2026-05-02T16:10:44.7Z</time></trkpt><trkpt lat="45.7958682" lon="9.8355785"><ele>386.40000000000003</ele><time>2026-05-02T16:10:45.699Z</time></trkpt><trkpt lat="45.7959065" lon="9.8357019"><ele>386.6</ele><time>2026-05-02T16:10:46.714Z</time></trkpt><trkpt lat="45.7959453" lon="9.8358278"><ele>386.8</ele><time>2026-05-02T16:10:47.739Z</time></trkpt><trkpt lat="45.7959802" lon="9.835944"><ele>387.0</ele><time>2026-05-02T16:10:48.748Z</time></trkpt><trkpt lat="45.796017" lon="9.8360566"><ele>387.0</ele><time>2026-05-02T16:10:49.708Z</time></trkpt><trkpt lat="45.7960584" lon="9.836197"><ele>387.0</ele><time>2026-05-02T16:10:50.743Z</time></trkpt><trkpt lat="45.7961005" lon="9.8363421"><ele>387.0</ele><time>2026-05-02T16:10:51.732Z</time></trkpt><trkpt lat="45.7961479" lon="9.8364823"><ele>387.0</ele><time>2026-05-02T16:10:52.723Z</time></trkpt><trkpt lat="45.7962039" lon="9.836635"><ele>387.0</ele><time>2026-05-02T16:10:53.869Z</time></trkpt><trkpt lat="45.7962968" lon="9.836886"><ele>387.0</ele><time>2026-05-02T16:10:55.749Z</time></trkpt><trkpt lat="45.7963441" lon="9.8370211"><ele>387.0</ele><time>2026-05-02T16:10:56.754Z</time></trkpt><trkpt lat="45.7963908" lon="9.8371525"><ele>387.0</ele><time>2026-05-02T16:10:57.74Z</time></trkpt><trkpt lat="45.7964341" lon="9.8372808"><ele>387.0</ele><time>2026-05-02T16:10:58.732Z</time></trkpt><trkpt lat="45.7964735" lon="9.8373968"><ele>387.0</ele><time>2026-05-02T16:10:59.721Z</time></trkpt><trkpt lat="45.7965094" lon="9.837502"><ele>387.0</ele><time>2026-05-02T16:11:00.72Z</time></trkpt><trkpt lat="45.7965421" lon="9.8376012"><ele>387.0</ele><time>2026-05-02T16:11:01.763Z</time></trkpt><trkpt lat="45.7965631" lon="9.8377574"><ele>387.0</ele><time>2026-05-02T16:11:03.742Z</time></trkpt><trkpt lat="45.7965572" lon="9.8379342"><ele>387.0</ele><time>2026-05-02T16:11:05.75Z</time></trkpt><trkpt lat="45.7965863" lon="9.8380341"><ele>387.0</ele><time>2026-05-02T16:11:06.735Z</time></trkpt><trkpt lat="45.7966429" lon="9.8381313"><ele>386.40000000000003</ele><time>2026-05-02T16:11:07.739Z</time></trkpt><trkpt lat="45.7967008" lon="9.8382271"><ele>385.8</ele><time>2026-05-02T16:11:08.724Z</time></trkpt><trkpt lat="45.7967557" lon="9.8383493"><ele>385.2</ele><time>2026-05-02T16:11:09.776Z</time></trkpt><trkpt lat="45.7968032" lon="9.8384673"><ele>384.6</ele><time>2026-05-02T16:11:10.777Z</time></trkpt><trkpt lat="45.7968538" lon="9.8385935"><ele>384.0</ele><time>2026-05-02T16:11:11.866Z</time></trkpt><trkpt lat="45.7968947" lon="9.8387947"><ele>384.0</ele><time>2026-05-02T16:11:13.741Z</time></trkpt><trkpt lat="45.7968735" lon="9.8388972"><ele>384.0</ele><time>2026-05-02T16:11:14.757Z</time></trkpt><trkpt lat="45.7968364" lon="9.8390009"><ele>384.0</ele><time>2026-05-02T16:11:15.744Z</time></trkpt><trkpt lat="45.7967844" lon="9.8391184"><ele>384.0</ele><time>2026-05-02T16:11:16.754Z</time></trkpt><trkpt lat="45.7967295" lon="9.8392505"><ele>384.0</ele><time>2026-05-02T16:11:17.738Z</time></trkpt><trkpt lat="45.7966686" lon="9.8393852"><ele>383.0</ele><time>2026-05-02T16:11:18.743Z</time></trkpt><trkpt lat="45.7966163" lon="9.8395084"><ele>382.0</ele><time>2026-05-02T16:11:19.739Z</time></trkpt><trkpt lat="45.7965769" lon="9.8396393"><ele>381.0</ele><time>2026-05-02T16:11:20.743Z</time></trkpt><trkpt lat="45.7965609" lon="9.8397722"><ele>380.0</ele><time>2026-05-02T16:11:21.74Z</time></trkpt><trkpt lat="45.7965731" lon="9.8399131"><ele>379.0</ele><time>2026-05-02T16:11:22.741Z</time></trkpt><trkpt lat="45.7966119" lon="9.8400597"><ele>379.25</ele><time>2026-05-02T16:11:23.741Z</time></trkpt><trkpt lat="45.7966748" lon="9.8402421"><ele>379.5</ele><time>2026-05-02T16:11:24.813Z</time></trkpt><trkpt lat="45.7967422" lon="9.8404225"><ele>379.75</ele><time>2026-05-02T16:11:25.759Z</time></trkpt><trkpt lat="45.7968056" lon="9.8405835"><ele>380.0</ele><time>2026-05-02T16:11:26.733Z</time></trkpt><trkpt lat="45.7968712" lon="9.8407454"><ele>380.4</ele><time>2026-05-02T16:11:27.745Z</time></trkpt><trkpt lat="45.7969297" lon="9.8408928"><ele>380.8</ele><time>2026-05-02T16:11:28.724Z</time></trkpt><trkpt lat="45.7969848" lon="9.8410354"><ele>381.20000000000005</ele><time>2026-05-02T16:11:29.731Z</time></trkpt><trkpt lat="45.797039" lon="9.8411618"><ele>381.6</ele><time>2026-05-02T16:11:30.71Z</time></trkpt><trkpt lat="45.7970921" lon="9.8412815"><ele>382.0</ele><time>2026-05-02T16:11:31.741Z</time></trkpt><trkpt lat="45.7971386" lon="9.8413897"><ele>382.0</ele><time>2026-05-02T16:11:32.738Z</time></trkpt><trkpt lat="45.797182" lon="9.8414888"><ele>382.0</ele><time>2026-05-02T16:11:33.746Z</time></trkpt><trkpt lat="45.7972169" lon="9.841569"><ele>382.0</ele><time>2026-05-02T16:11:34.743Z</time></trkpt><trkpt lat="45.7972774" lon="9.8416938"><ele>382.0</ele><time>2026-05-02T16:11:36.737Z</time></trkpt><trkpt lat="45.7973438" lon="9.84176"><ele>382.0</ele><time>2026-05-02T16:11:38.765Z</time></trkpt><trkpt lat="45.7973961" lon="9.8418185"><ele>382.0</ele><time>2026-05-02T16:11:42.737Z</time></trkpt><trkpt lat="45.7975" lon="9.8419462"><ele>382.0</ele><time>2026-05-02T16:11:54.751Z</time></trkpt><trkpt lat="45.7975692" lon="9.8420389"><ele>382.0</ele><time>2026-05-02T16:11:55.72Z</time></trkpt><trkpt lat="45.7976457" lon="9.8421539"><ele>382.0</ele><time>2026-05-02T16:11:56.754Z</time></trkpt><trkpt lat="45.7977342" lon="9.8422978"><ele>382.0</ele><time>2026-05-02T16:11:57.774Z</time></trkpt><trkpt lat="45.7978224" lon="9.8424348"><ele>382.5</ele><time>2026-05-02T16:11:58.787Z</time></trkpt><trkpt lat="45.7979096" lon="9.8425633"><ele>383.0</ele><time>2026-05-02T16:11:59.756Z</time></trkpt><trkpt lat="45.7979967" lon="9.8426933"><ele>383.5</ele><time>2026-05-02T16:12:00.743Z</time></trkpt><trkpt lat="45.7980871" lon="9.8428198"><ele>384.0</ele><time>2026-05-02T16:12:01.735Z</time></trkpt><trkpt lat="45.7981844" lon="9.8429414"><ele>384.0</ele><time>2026-05-02T16:12:02.747Z</time></trkpt><trkpt lat="45.7982984" lon="9.8430707"><ele>384.0</ele><time>2026-05-02T16:12:03.901Z</time></trkpt><trkpt lat="45.798496" lon="9.8432625"><ele>384.0</ele><time>2026-05-02T16:12:05.849Z</time></trkpt><trkpt lat="45.7985872" lon="9.843342"><ele>384.4</ele><time>2026-05-02T16:12:06.749Z</time></trkpt><trkpt lat="45.7986903" lon="9.8434214"><ele>384.79999999999995</ele><time>2026-05-02T16:12:07.762Z</time></trkpt><trkpt lat="45.7987821" lon="9.8434903"><ele>385.20000000000005</ele><time>2026-05-02T16:12:08.733Z</time></trkpt><trkpt lat="45.7988721" lon="9.8435437"><ele>385.6</ele><time>2026-05-02T16:12:09.741Z</time></trkpt><trkpt lat="45.7989511" lon="9.8435864"><ele>386.0</ele><time>2026-05-02T16:12:10.732Z</time></trkpt><trkpt lat="45.7990163" lon="9.8436411"><ele>385.99999999999994</ele><time>2026-05-02T16:12:11.744Z</time></trkpt><trkpt lat="45.7990705" lon="9.8437157"><ele>386.0</ele><time>2026-05-02T16:12:12.746Z</time></trkpt><trkpt lat="45.7991204" lon="9.8437942"><ele>386.0</ele><time>2026-05-02T16:12:13.742Z</time></trkpt><trkpt lat="45.799185" lon="9.8438555"><ele>386.0</ele><time>2026-05-02T16:12:14.76Z</time></trkpt><trkpt lat="45.7992684" lon="9.8439013"><ele>385.99999999999994</ele><time>2026-05-02T16:12:15.73Z</time></trkpt><trkpt lat="45.7993755" lon="9.8439622"><ele>386.0</ele><time>2026-05-02T16:12:16.753Z</time></trkpt><trkpt lat="45.7994831" lon="9.8440401"><ele>386.0</ele><time>2026-05-02T16:12:17.752Z</time></trkpt><trkpt lat="45.7995688" lon="9.8441127"><ele>386.0</ele><time>2026-05-02T16:12:18.741Z</time></trkpt><trkpt lat="45.7996562" lon="9.8441852"><ele>386.0</ele><time>2026-05-02T16:12:19.876Z</time></trkpt><trkpt lat="45.7997882" lon="9.8443029"><ele>386.0</ele><time>2026-05-02T16:12:21.87Z</time></trkpt><trkpt lat="45.7999334" lon="9.8444374"><ele>386.0</ele><time>2026-05-02T16:12:23.766Z</time></trkpt><trkpt lat="45.8000205" lon="9.8445142"><ele>386.0</ele><time>2026-05-02T16:12:24.743Z</time></trkpt><trkpt lat="45.8001144" lon="9.8446027"><ele>386.0</ele><time>2026-05-02T16:12:25.731Z</time></trkpt><trkpt lat="45.8002237" lon="9.8447011"><ele>386.0</ele><time>2026-05-02T16:12:26.769Z</time></trkpt><trkpt lat="45.8003438" lon="9.8448025"><ele>386.0</ele><time>2026-05-02T16:12:27.771Z</time></trkpt><trkpt lat="45.8004613" lon="9.844906"><ele>386.0</ele><time>2026-05-02T16:12:28.738Z</time></trkpt><trkpt lat="45.8006039" lon="9.8450278"><ele>386.0</ele><time>2026-05-02T16:12:29.775Z</time></trkpt><trkpt lat="45.8007279" lon="9.8451329"><ele>386.0</ele><time>2026-05-02T16:12:30.741Z</time></trkpt><trkpt lat="45.8008485" lon="9.8452301"><ele>386.0</ele><time>2026-05-02T16:12:31.735Z</time></trkpt><trkpt lat="45.8009679" lon="9.8453203"><ele>386.0</ele><time>2026-05-02T16:12:32.777Z</time></trkpt><trkpt lat="45.8010729" lon="9.8454016"><ele>386.0</ele><time>2026-05-02T16:12:33.758Z</time></trkpt><trkpt lat="45.8011707" lon="9.8454761"><ele>386.0</ele><time>2026-05-02T16:12:34.767Z</time></trkpt><trkpt lat="45.8012489" lon="9.8455368"><ele>387.6</ele><time>2026-05-02T16:12:35.752Z</time></trkpt><trkpt lat="45.8013181" lon="9.8455936"><ele>389.20000000000005</ele><time>2026-05-02T16:12:36.761Z</time></trkpt><trkpt lat="45.8013765" lon="9.8456462"><ele>390.79999999999995</ele><time>2026-05-02T16:12:37.771Z</time></trkpt><trkpt lat="45.8014811" lon="9.845673"><ele>392.4</ele><time>2026-05-02T16:12:39.847Z</time></trkpt><trkpt lat="45.801592" lon="9.8455637"><ele>394.0</ele><time>2026-05-02T16:12:41.728Z</time></trkpt><trkpt lat="45.8016865" lon="9.8454834"><ele>394.0</ele><time>2026-05-02T16:12:42.735Z</time></trkpt><trkpt lat="45.8017944" lon="9.845393"><ele>394.0</ele><time>2026-05-02T16:12:43.731Z</time></trkpt><trkpt lat="45.8018996" lon="9.8452981"><ele>394.0</ele><time>2026-05-02T16:12:44.708Z</time></trkpt><trkpt lat="45.8020074" lon="9.8451946"><ele>394.0</ele><time>2026-05-02T16:12:45.728Z</time></trkpt><trkpt lat="45.8021094" lon="9.8450821"><ele>396.25</ele><time>2026-05-02T16:12:46.726Z</time></trkpt><trkpt lat="45.8022147" lon="9.8449636"><ele>398.5</ele><time>2026-05-02T16:12:47.755Z</time></trkpt><trkpt lat="45.802318" lon="9.8448493"><ele>400.75</ele><time>2026-05-02T16:12:48.757Z</time></trkpt><trkpt lat="45.8024089" lon="9.8447396"><ele>403.0</ele><time>2026-05-02T16:12:49.746Z</time></trkpt><trkpt lat="45.8025045" lon="9.8446184"><ele>403.0</ele><time>2026-05-02T16:12:50.873Z</time></trkpt><trkpt lat="45.8026291" lon="9.8444621"><ele>403.0</ele><time>2026-05-02T16:12:52.76Z</time></trkpt><trkpt lat="45.8027036" lon="9.8443867"><ele>403.0</ele><time>2026-05-02T16:12:54.756Z</time></trkpt><trkpt lat="45.8028052" lon="9.8444327"><ele>403.0</ele><time>2026-05-02T16:12:57.718Z</time></trkpt><trkpt lat="45.8028699" lon="9.8445438"><ele>403.1666666666667</ele><time>2026-05-02T16:12:58.761Z</time></trkpt><trkpt lat="45.8029362" lon="9.8446403"><ele>403.33333333333337</ele><time>2026-05-02T16:12:59.73Z</time></trkpt><trkpt lat="45.8029962" lon="9.8447244"><ele>403.5</ele><time>2026-05-02T16:13:00.771Z</time></trkpt><trkpt lat="45.803045" lon="9.8447922"><ele>403.66666666666663</ele><time>2026-05-02T16:13:01.75Z</time></trkpt><trkpt lat="45.8030941" lon="9.8448551"><ele>403.8333333333333</ele><time>2026-05-02T16:13:02.739Z</time></trkpt><trkpt lat="45.8031526" lon="9.8449351"><ele>404.0</ele><time>2026-05-02T16:13:03.779Z</time></trkpt><trkpt lat="45.803224" lon="9.8450261"><ele>403.99999999999994</ele><time>2026-05-02T16:13:04.74Z</time></trkpt><trkpt lat="45.8032963" lon="9.8451229"><ele>404.0</ele><time>2026-05-02T16:13:05.74Z</time></trkpt><trkpt lat="45.8033538" lon="9.8452098"><ele>404.0</ele><time>2026-05-02T16:13:06.75Z</time></trkpt><trkpt lat="45.8034096" lon="9.8452751"><ele>404.0</ele><time>2026-05-02T16:13:07.794Z</time></trkpt><trkpt lat="45.8034737" lon="9.8453407"><ele>403.99999999999994</ele><time>2026-05-02T16:13:08.81Z</time></trkpt><trkpt lat="45.8035338" lon="9.8454133"><ele>404.0</ele><time>2026-05-02T16:13:09.839Z</time></trkpt><trkpt lat="45.8035938" lon="9.8454838"><ele>404.4</ele><time>2026-05-02T16:13:10.88Z</time></trkpt><trkpt lat="45.8036948" lon="9.845622"><ele>404.79999999999995</ele><time>2026-05-02T16:13:12.731Z</time></trkpt><trkpt lat="45.8037431" lon="9.8456892"><ele>405.20000000000005</ele><time>2026-05-02T16:13:13.758Z</time></trkpt><trkpt lat="45.8038234" lon="9.8458012"><ele>405.6</ele><time>2026-05-02T16:13:15.747Z</time></trkpt><trkpt lat="45.8038854" lon="9.8458561"><ele>406.0</ele><time>2026-05-02T16:13:17.861Z</time></trkpt><trkpt lat="45.8039469" lon="9.8457857"><ele>406.00000000000006</ele><time>2026-05-02T16:13:20.743Z</time></trkpt><trkpt lat="45.803997" lon="9.8457041"><ele>406.0</ele><time>2026-05-02T16:13:23.729Z</time></trkpt><trkpt lat="45.8040507" lon="9.8456271"><ele>406.0</ele><time>2026-05-02T16:13:26.723Z</time></trkpt><trkpt lat="45.804111" lon="9.8455393"><ele>406.0</ele><time>2026-05-02T16:13:28.77Z</time></trkpt><trkpt lat="45.8041498" lon="9.8454626"><ele>406.00000000000006</ele><time>2026-05-02T16:13:30.692Z</time></trkpt><trkpt lat="45.8042003" lon="9.8453274"><ele>406.0</ele><time>2026-05-02T16:13:32.681Z</time></trkpt><trkpt lat="45.8042667" lon="9.8452001"><ele>406.50000000000006</ele><time>2026-05-02T16:13:34.691Z</time></trkpt><trkpt lat="45.8043221" lon="9.8451207"><ele>407.0</ele><time>2026-05-02T16:13:35.717Z</time></trkpt><trkpt lat="45.8044006" lon="9.8450631"><ele>407.5</ele><time>2026-05-02T16:13:37.757Z</time></trkpt><trkpt lat="45.8044703" lon="9.8450394"><ele>408.0</ele><time>2026-05-02T16:13:39.745Z</time></trkpt><trkpt lat="45.8045353" lon="9.8450438"><ele>408.50000000000006</ele><time>2026-05-02T16:13:41.783Z</time></trkpt><trkpt lat="45.8046342" lon="9.845113"><ele>409.0</ele><time>2026-05-02T16:13:43.767Z</time></trkpt><trkpt lat="45.8047039" lon="9.8451869"><ele>409.33333333333337</ele><time>2026-05-02T16:13:44.744Z</time></trkpt><trkpt lat="45.8047723" lon="9.8452603"><ele>409.6666666666667</ele><time>2026-05-02T16:13:45.742Z</time></trkpt><trkpt lat="45.8048183" lon="9.8453288"><ele>410.0</ele><time>2026-05-02T16:13:46.724Z</time></trkpt><trkpt lat="45.8049057" lon="9.8454183"><ele>410.33333333333337</ele><time>2026-05-02T16:13:48.733Z</time></trkpt><trkpt lat="45.8049769" lon="9.8454655"><ele>410.6666666666667</ele><time>2026-05-02T16:13:50.764Z</time></trkpt><trkpt lat="45.8050398" lon="9.8454091"><ele>411.0</ele><time>2026-05-02T16:13:53.782Z</time></trkpt><trkpt lat="45.8050781" lon="9.8453042"><ele>411.0</ele><time>2026-05-02T16:13:56.733Z</time></trkpt><trkpt lat="45.8051698" lon="9.8452913"><ele>416.0</ele><time>2026-05-02T16:13:59.738Z</time></trkpt><trkpt lat="45.8052347" lon="9.8453318"><ele>416.0</ele><time>2026-05-02T16:14:04.634Z</time></trkpt><trkpt lat="45.8052672" lon="9.845253"><ele>416.0</ele><time>2026-05-02T16:17:25.684Z</time></trkpt><trkpt lat="45.8051679" lon="9.8452204"><ele>416.0</ele><time>2026-05-02T16:20:29.72Z</time></trkpt></trkseg></trk></gpx>